<?xml version="1.0" encoding="UTF-8" standalone="no" ?>
<gpx xmlns="http://www.topografix.com/GPX/1/1" xmlns:xsi="http://www.w3.org/2001/XMLSchema-instance" xsi:schemaLocation="http://www.topografix.com/GPX/1/1 http://www.topografix.com/GPX/1/1/gpx.xsd" version="1.1" creator="VisuGPX - https://www.visugpx.com">
  <metadata>
    <name>Du garage via camon</name>
    <desc><![CDATA[Rdv out]]></desc>
  </metadata>
  <trk>
    <name><![CDATA[Du garage via camon_1]]></name>
    <trkseg>
      <trkpt lat="49.87829" lon="2.33159">
        <ele>50.2</ele>
        <time>2023-12-19T06:47:14Z</time>
      </trkpt>
      <trkpt lat="49.87829" lon="2.3316">
        <ele>50.2</ele>
        <time>2023-12-19T06:47:15Z</time>
      </trkpt>
      <trkpt lat="49.87829" lon="2.33161">
        <ele>50.1</ele>
        <time>2023-12-19T06:47:16Z</time>
      </trkpt>
      <trkpt lat="49.87829" lon="2.33161">
        <ele>50.1</ele>
        <time>2023-12-19T06:47:17Z</time>
      </trkpt>
      <trkpt lat="49.87829" lon="2.33162">
        <ele>50.1</ele>
        <time>2023-12-19T06:47:18Z</time>
      </trkpt>
      <trkpt lat="49.87829" lon="2.33163">
        <ele>50.1</ele>
        <time>2023-12-19T06:47:19Z</time>
      </trkpt>
      <trkpt lat="49.87829" lon="2.33164">
        <ele>50.1</ele>
        <time>2023-12-19T06:47:20Z</time>
      </trkpt>
      <trkpt lat="49.87829" lon="2.33164">
        <ele>50.1</ele>
        <time>2023-12-19T06:47:21Z</time>
      </trkpt>
      <trkpt lat="49.87829" lon="2.33165">
        <ele>50.1</ele>
        <time>2023-12-19T06:47:22Z</time>
      </trkpt>
      <trkpt lat="49.87829" lon="2.33166">
        <ele>50.1</ele>
        <time>2023-12-19T06:47:23Z</time>
      </trkpt>
      <trkpt lat="49.87829" lon="2.33167">
        <ele>50.1</ele>
        <time>2023-12-19T06:47:24Z</time>
      </trkpt>
      <trkpt lat="49.8783" lon="2.33168">
        <ele>50</ele>
        <time>2023-12-19T06:47:25Z</time>
      </trkpt>
      <trkpt lat="49.87831" lon="2.33169">
        <ele>50</ele>
        <time>2023-12-19T06:47:26Z</time>
      </trkpt>
      <trkpt lat="49.87833" lon="2.33171">
        <ele>50</ele>
        <time>2023-12-19T06:47:27Z</time>
      </trkpt>
      <trkpt lat="49.87833" lon="2.33171">
        <ele>50</ele>
        <time>2023-12-19T06:47:28Z</time>
      </trkpt>
      <trkpt lat="49.87834" lon="2.33172">
        <ele>50</ele>
        <time>2023-12-19T06:47:29Z</time>
      </trkpt>
      <trkpt lat="49.87836" lon="2.33173">
        <ele>49.9</ele>
        <time>2023-12-19T06:47:30Z</time>
      </trkpt>
      <trkpt lat="49.87837" lon="2.33173">
        <ele>49.9</ele>
        <time>2023-12-19T06:47:31Z</time>
      </trkpt>
      <trkpt lat="49.87838" lon="2.33174">
        <ele>49.9</ele>
        <time>2023-12-19T06:47:32Z</time>
      </trkpt>
      <trkpt lat="49.87839" lon="2.33174">
        <ele>49.9</ele>
        <time>2023-12-19T06:47:33Z</time>
      </trkpt>
      <trkpt lat="49.87839" lon="2.33175">
        <ele>49.9</ele>
        <time>2023-12-19T06:47:34Z</time>
      </trkpt>
      <trkpt lat="49.8784" lon="2.33175">
        <ele>49.8</ele>
        <time>2023-12-19T06:47:35Z</time>
      </trkpt>
      <trkpt lat="49.87842" lon="2.33176">
        <ele>49.8</ele>
        <time>2023-12-19T06:47:36Z</time>
      </trkpt>
      <trkpt lat="49.87843" lon="2.33176">
        <ele>49.8</ele>
        <time>2023-12-19T06:47:37Z</time>
      </trkpt>
      <trkpt lat="49.87843" lon="2.33177">
        <ele>49.8</ele>
        <time>2023-12-19T06:47:38Z</time>
      </trkpt>
      <trkpt lat="49.87844" lon="2.33177">
        <ele>49.8</ele>
        <time>2023-12-19T06:47:39Z</time>
      </trkpt>
      <trkpt lat="49.87845" lon="2.33178">
        <ele>49.7</ele>
        <time>2023-12-19T06:47:40Z</time>
      </trkpt>
      <trkpt lat="49.87845" lon="2.33178">
        <ele>49.7</ele>
        <time>2023-12-19T06:47:41Z</time>
      </trkpt>
      <trkpt lat="49.87846" lon="2.33179">
        <ele>49.7</ele>
        <time>2023-12-19T06:47:42Z</time>
      </trkpt>
      <trkpt lat="49.87847" lon="2.3318">
        <ele>49.7</ele>
        <time>2023-12-19T06:47:43Z</time>
      </trkpt>
      <trkpt lat="49.87848" lon="2.3318">
        <ele>49.7</ele>
        <time>2023-12-19T06:47:44Z</time>
      </trkpt>
      <trkpt lat="49.87848" lon="2.33181">
        <ele>49.7</ele>
        <time>2023-12-19T06:47:45Z</time>
      </trkpt>
      <trkpt lat="49.87849" lon="2.33181">
        <ele>49.6</ele>
        <time>2023-12-19T06:47:46Z</time>
      </trkpt>
      <trkpt lat="49.87849" lon="2.33181">
        <ele>49.6</ele>
        <time>2023-12-19T06:47:47Z</time>
      </trkpt>
      <trkpt lat="49.87849" lon="2.33181">
        <ele>49.6</ele>
        <time>2023-12-19T06:47:48Z</time>
      </trkpt>
      <trkpt lat="49.8785" lon="2.33182">
        <ele>49.6</ele>
        <time>2023-12-19T06:47:49Z</time>
      </trkpt>
      <trkpt lat="49.8785" lon="2.33182">
        <ele>49.6</ele>
        <time>2023-12-19T06:47:50Z</time>
      </trkpt>
      <trkpt lat="49.8785" lon="2.33182">
        <ele>49.6</ele>
        <time>2023-12-19T06:47:51Z</time>
      </trkpt>
      <trkpt lat="49.87851" lon="2.33182">
        <ele>49.6</ele>
        <time>2023-12-19T06:47:52Z</time>
      </trkpt>
      <trkpt lat="49.87851" lon="2.33182">
        <ele>49.6</ele>
        <time>2023-12-19T06:47:53Z</time>
      </trkpt>
      <trkpt lat="49.87852" lon="2.33183">
        <ele>49.6</ele>
        <time>2023-12-19T06:47:54Z</time>
      </trkpt>
      <trkpt lat="49.87853" lon="2.33183">
        <ele>49.5</ele>
        <time>2023-12-19T06:47:55Z</time>
      </trkpt>
      <trkpt lat="49.87855" lon="2.33184">
        <ele>49.5</ele>
        <time>2023-12-19T06:47:56Z</time>
      </trkpt>
      <trkpt lat="49.87856" lon="2.33185">
        <ele>49.5</ele>
        <time>2023-12-19T06:47:57Z</time>
      </trkpt>
      <trkpt lat="49.87857" lon="2.33185">
        <ele>49.5</ele>
        <time>2023-12-19T06:47:58Z</time>
      </trkpt>
      <trkpt lat="49.87858" lon="2.33186">
        <ele>49.4</ele>
        <time>2023-12-19T06:47:59Z</time>
      </trkpt>
      <trkpt lat="49.87859" lon="2.33187">
        <ele>49.4</ele>
        <time>2023-12-19T06:48:00Z</time>
      </trkpt>
      <trkpt lat="49.8786" lon="2.33187">
        <ele>49.4</ele>
        <time>2023-12-19T06:48:01Z</time>
      </trkpt>
      <trkpt lat="49.87861" lon="2.33188">
        <ele>49.4</ele>
        <time>2023-12-19T06:48:03Z</time>
      </trkpt>
      <trkpt lat="49.87862" lon="2.33188">
        <ele>49.4</ele>
        <time>2023-12-19T06:48:04Z</time>
      </trkpt>
      <trkpt lat="49.87863" lon="2.33188">
        <ele>49.3</ele>
        <time>2023-12-19T06:48:05Z</time>
      </trkpt>
      <trkpt lat="49.87865" lon="2.33188">
        <ele>49.3</ele>
        <time>2023-12-19T06:48:06Z</time>
      </trkpt>
      <trkpt lat="49.87866" lon="2.33187">
        <ele>49.3</ele>
        <time>2023-12-19T06:48:07Z</time>
      </trkpt>
      <trkpt lat="49.87867" lon="2.33187">
        <ele>49.2</ele>
        <time>2023-12-19T06:48:08Z</time>
      </trkpt>
      <trkpt lat="49.8787" lon="2.33186">
        <ele>49.2</ele>
        <time>2023-12-19T06:48:09Z</time>
      </trkpt>
      <trkpt lat="49.87871" lon="2.33185">
        <ele>49.2</ele>
        <time>2023-12-19T06:48:11Z</time>
      </trkpt>
      <trkpt lat="49.87873" lon="2.33185">
        <ele>49.1</ele>
        <time>2023-12-19T06:48:12Z</time>
      </trkpt>
      <trkpt lat="49.87874" lon="2.33185">
        <ele>49.1</ele>
        <time>2023-12-19T06:48:13Z</time>
      </trkpt>
      <trkpt lat="49.87878" lon="2.33183">
        <ele>49</ele>
        <time>2023-12-19T06:48:14Z</time>
      </trkpt>
      <trkpt lat="49.87879" lon="2.33183">
        <ele>49</ele>
        <time>2023-12-19T06:48:15Z</time>
      </trkpt>
      <trkpt lat="49.87882" lon="2.33182">
        <ele>48.9</ele>
        <time>2023-12-19T06:48:17Z</time>
      </trkpt>
      <trkpt lat="49.87883" lon="2.33181">
        <ele>48.9</ele>
        <time>2023-12-19T06:48:18Z</time>
      </trkpt>
      <trkpt lat="49.87884" lon="2.3318">
        <ele>48.9</ele>
        <time>2023-12-19T06:48:19Z</time>
      </trkpt>
      <trkpt lat="49.87885" lon="2.33178">
        <ele>48.9</ele>
        <time>2023-12-19T06:48:20Z</time>
      </trkpt>
      <trkpt lat="49.87886" lon="2.33176">
        <ele>48.8</ele>
        <time>2023-12-19T06:48:22Z</time>
      </trkpt>
      <trkpt lat="49.87886" lon="2.33174">
        <ele>48.8</ele>
        <time>2023-12-19T06:48:23Z</time>
      </trkpt>
      <trkpt lat="49.87885" lon="2.33173">
        <ele>48.8</ele>
        <time>2023-12-19T06:48:24Z</time>
      </trkpt>
      <trkpt lat="49.87885" lon="2.33172">
        <ele>48.8</ele>
        <time>2023-12-19T06:48:25Z</time>
      </trkpt>
      <trkpt lat="49.87885" lon="2.3317">
        <ele>48.7</ele>
        <time>2023-12-19T06:48:27Z</time>
      </trkpt>
      <trkpt lat="49.87884" lon="2.33169">
        <ele>48.7</ele>
        <time>2023-12-19T06:48:28Z</time>
      </trkpt>
      <trkpt lat="49.87884" lon="2.33169">
        <ele>48.7</ele>
        <time>2023-12-19T06:48:30Z</time>
      </trkpt>
      <trkpt lat="49.87884" lon="2.33169">
        <ele>48.7</ele>
        <time>2023-12-19T06:48:31Z</time>
      </trkpt>
      <trkpt lat="49.87884" lon="2.3317">
        <ele>48.7</ele>
        <time>2023-12-19T06:48:32Z</time>
      </trkpt>
      <trkpt lat="49.87884" lon="2.3317">
        <ele>48.7</ele>
        <time>2023-12-19T06:48:34Z</time>
      </trkpt>
      <trkpt lat="49.87884" lon="2.3317">
        <ele>48.7</ele>
        <time>2023-12-19T06:48:35Z</time>
      </trkpt>
      <trkpt lat="49.87884" lon="2.33171">
        <ele>48.7</ele>
        <time>2023-12-19T06:48:36Z</time>
      </trkpt>
      <trkpt lat="49.87884" lon="2.33172">
        <ele>48.7</ele>
        <time>2023-12-19T06:48:37Z</time>
      </trkpt>
      <trkpt lat="49.87885" lon="2.33173">
        <ele>48.6</ele>
        <time>2023-12-19T06:48:39Z</time>
      </trkpt>
      <trkpt lat="49.87885" lon="2.33173">
        <ele>48.6</ele>
        <time>2023-12-19T06:48:40Z</time>
      </trkpt>
      <trkpt lat="49.87887" lon="2.33174">
        <ele>48.6</ele>
        <time>2023-12-19T06:48:41Z</time>
      </trkpt>
      <trkpt lat="49.87888" lon="2.33174">
        <ele>48.6</ele>
        <time>2023-12-19T06:48:42Z</time>
      </trkpt>
      <trkpt lat="49.87889" lon="2.33174">
        <ele>48.5</ele>
        <time>2023-12-19T06:48:43Z</time>
      </trkpt>
      <trkpt lat="49.87891" lon="2.33173">
        <ele>48.5</ele>
        <time>2023-12-19T06:48:45Z</time>
      </trkpt>
      <trkpt lat="49.87892" lon="2.33173">
        <ele>48.5</ele>
        <time>2023-12-19T06:48:46Z</time>
      </trkpt>
      <trkpt lat="49.87893" lon="2.33173">
        <ele>48.4</ele>
        <time>2023-12-19T06:48:47Z</time>
      </trkpt>
      <trkpt lat="49.87894" lon="2.33173">
        <ele>48.4</ele>
        <time>2023-12-19T06:48:48Z</time>
      </trkpt>
      <trkpt lat="49.87896" lon="2.33173">
        <ele>48.4</ele>
        <time>2023-12-19T06:48:49Z</time>
      </trkpt>
      <trkpt lat="49.87897" lon="2.33173">
        <ele>48.3</ele>
        <time>2023-12-19T06:48:50Z</time>
      </trkpt>
      <trkpt lat="49.87898" lon="2.33173">
        <ele>48.3</ele>
        <time>2023-12-19T06:48:51Z</time>
      </trkpt>
      <trkpt lat="49.87901" lon="2.33174">
        <ele>48.2</ele>
        <time>2023-12-19T06:48:52Z</time>
      </trkpt>
      <trkpt lat="49.87901" lon="2.33174">
        <ele>48.2</ele>
        <time>2023-12-19T06:48:54Z</time>
      </trkpt>
      <trkpt lat="49.87902" lon="2.33175">
        <ele>48.2</ele>
        <time>2023-12-19T06:48:55Z</time>
      </trkpt>
      <trkpt lat="49.87904" lon="2.33176">
        <ele>48.1</ele>
        <time>2023-12-19T06:48:56Z</time>
      </trkpt>
      <trkpt lat="49.87905" lon="2.33176">
        <ele>48.1</ele>
        <time>2023-12-19T06:48:57Z</time>
      </trkpt>
      <trkpt lat="49.87906" lon="2.33176">
        <ele>48.1</ele>
        <time>2023-12-19T06:48:58Z</time>
      </trkpt>
      <trkpt lat="49.87907" lon="2.33177">
        <ele>48.1</ele>
        <time>2023-12-19T06:48:59Z</time>
      </trkpt>
      <trkpt lat="49.87908" lon="2.33178">
        <ele>48</ele>
        <time>2023-12-19T06:49:00Z</time>
      </trkpt>
      <trkpt lat="49.87909" lon="2.33179">
        <ele>48</ele>
        <time>2023-12-19T06:49:01Z</time>
      </trkpt>
      <trkpt lat="49.8791" lon="2.33179">
        <ele>48</ele>
        <time>2023-12-19T06:49:03Z</time>
      </trkpt>
      <trkpt lat="49.87911" lon="2.3318">
        <ele>47.9</ele>
        <time>2023-12-19T06:49:04Z</time>
      </trkpt>
      <trkpt lat="49.87911" lon="2.33181">
        <ele>47.9</ele>
        <time>2023-12-19T06:49:05Z</time>
      </trkpt>
      <trkpt lat="49.87912" lon="2.33182">
        <ele>47.9</ele>
        <time>2023-12-19T06:49:06Z</time>
      </trkpt>
      <trkpt lat="49.87913" lon="2.33183">
        <ele>47.8</ele>
        <time>2023-12-19T06:49:07Z</time>
      </trkpt>
      <trkpt lat="49.87914" lon="2.33184">
        <ele>47.8</ele>
        <time>2023-12-19T06:49:08Z</time>
      </trkpt>
      <trkpt lat="49.87915" lon="2.33185">
        <ele>47.8</ele>
        <time>2023-12-19T06:49:09Z</time>
      </trkpt>
      <trkpt lat="49.87916" lon="2.33185">
        <ele>47.7</ele>
        <time>2023-12-19T06:49:11Z</time>
      </trkpt>
      <trkpt lat="49.87917" lon="2.33186">
        <ele>47.7</ele>
        <time>2023-12-19T06:49:12Z</time>
      </trkpt>
      <trkpt lat="49.87918" lon="2.33187">
        <ele>47.7</ele>
        <time>2023-12-19T06:49:13Z</time>
      </trkpt>
      <trkpt lat="49.87918" lon="2.33187">
        <ele>47.6</ele>
        <time>2023-12-19T06:49:14Z</time>
      </trkpt>
      <trkpt lat="49.87919" lon="2.33188">
        <ele>47.6</ele>
        <time>2023-12-19T06:49:15Z</time>
      </trkpt>
      <trkpt lat="49.8792" lon="2.33188">
        <ele>47.6</ele>
        <time>2023-12-19T06:49:16Z</time>
      </trkpt>
      <trkpt lat="49.87922" lon="2.33189">
        <ele>47.5</ele>
        <time>2023-12-19T06:49:17Z</time>
      </trkpt>
      <trkpt lat="49.87922" lon="2.33189">
        <ele>47.5</ele>
        <time>2023-12-19T06:49:18Z</time>
      </trkpt>
      <trkpt lat="49.87923" lon="2.3319">
        <ele>47.5</ele>
        <time>2023-12-19T06:49:20Z</time>
      </trkpt>
      <trkpt lat="49.87924" lon="2.3319">
        <ele>47.4</ele>
        <time>2023-12-19T06:49:21Z</time>
      </trkpt>
      <trkpt lat="49.87925" lon="2.33191">
        <ele>47.4</ele>
        <time>2023-12-19T06:49:22Z</time>
      </trkpt>
      <trkpt lat="49.87926" lon="2.33191">
        <ele>47.4</ele>
        <time>2023-12-19T06:49:23Z</time>
      </trkpt>
      <trkpt lat="49.87927" lon="2.33191">
        <ele>47.3</ele>
        <time>2023-12-19T06:49:24Z</time>
      </trkpt>
      <trkpt lat="49.87929" lon="2.33192">
        <ele>47.3</ele>
        <time>2023-12-19T06:49:25Z</time>
      </trkpt>
      <trkpt lat="49.8793" lon="2.33192">
        <ele>47.2</ele>
        <time>2023-12-19T06:49:26Z</time>
      </trkpt>
      <trkpt lat="49.87931" lon="2.33192">
        <ele>47.2</ele>
        <time>2023-12-19T06:49:27Z</time>
      </trkpt>
      <trkpt lat="49.87933" lon="2.33192">
        <ele>47.1</ele>
        <time>2023-12-19T06:49:29Z</time>
      </trkpt>
      <trkpt lat="49.87935" lon="2.33192">
        <ele>47.1</ele>
        <time>2023-12-19T06:49:30Z</time>
      </trkpt>
      <trkpt lat="49.87936" lon="2.33192">
        <ele>47</ele>
        <time>2023-12-19T06:49:31Z</time>
      </trkpt>
      <trkpt lat="49.87936" lon="2.33192">
        <ele>47</ele>
        <time>2023-12-19T06:49:32Z</time>
      </trkpt>
      <trkpt lat="49.87938" lon="2.33191">
        <ele>46.9</ele>
        <time>2023-12-19T06:49:33Z</time>
      </trkpt>
      <trkpt lat="49.87939" lon="2.33191">
        <ele>46.9</ele>
        <time>2023-12-19T06:49:34Z</time>
      </trkpt>
      <trkpt lat="49.87941" lon="2.33191">
        <ele>46.8</ele>
        <time>2023-12-19T06:49:36Z</time>
      </trkpt>
      <trkpt lat="49.87942" lon="2.3319">
        <ele>46.8</ele>
        <time>2023-12-19T06:49:37Z</time>
      </trkpt>
      <trkpt lat="49.87943" lon="2.3319">
        <ele>46.8</ele>
        <time>2023-12-19T06:49:38Z</time>
      </trkpt>
      <trkpt lat="49.87944" lon="2.33189">
        <ele>46.7</ele>
        <time>2023-12-19T06:49:39Z</time>
      </trkpt>
      <trkpt lat="49.87946" lon="2.33188">
        <ele>46.6</ele>
        <time>2023-12-19T06:49:40Z</time>
      </trkpt>
      <trkpt lat="49.87947" lon="2.33187">
        <ele>46.6</ele>
        <time>2023-12-19T06:49:41Z</time>
      </trkpt>
      <trkpt lat="49.87947" lon="2.33187">
        <ele>46.6</ele>
        <time>2023-12-19T06:49:42Z</time>
      </trkpt>
      <trkpt lat="49.87949" lon="2.33186">
        <ele>46.5</ele>
        <time>2023-12-19T06:49:43Z</time>
      </trkpt>
      <trkpt lat="49.8795" lon="2.33184">
        <ele>46.4</ele>
        <time>2023-12-19T06:49:45Z</time>
      </trkpt>
      <trkpt lat="49.87951" lon="2.33182">
        <ele>46.4</ele>
        <time>2023-12-19T06:49:46Z</time>
      </trkpt>
      <trkpt lat="49.87952" lon="2.33181">
        <ele>46.3</ele>
        <time>2023-12-19T06:49:47Z</time>
      </trkpt>
      <trkpt lat="49.87953" lon="2.33179">
        <ele>46.3</ele>
        <time>2023-12-19T06:49:48Z</time>
      </trkpt>
      <trkpt lat="49.87954" lon="2.33178">
        <ele>46.2</ele>
        <time>2023-12-19T06:49:49Z</time>
      </trkpt>
      <trkpt lat="49.87955" lon="2.33178">
        <ele>46.2</ele>
        <time>2023-12-19T06:49:50Z</time>
      </trkpt>
      <trkpt lat="49.87956" lon="2.33177">
        <ele>46.1</ele>
        <time>2023-12-19T06:49:51Z</time>
      </trkpt>
      <trkpt lat="49.87958" lon="2.33177">
        <ele>46.1</ele>
        <time>2023-12-19T06:49:53Z</time>
      </trkpt>
      <trkpt lat="49.87959" lon="2.33177">
        <ele>46</ele>
        <time>2023-12-19T06:49:54Z</time>
      </trkpt>
      <trkpt lat="49.87961" lon="2.33177">
        <ele>46</ele>
        <time>2023-12-19T06:49:55Z</time>
      </trkpt>
      <trkpt lat="49.87964" lon="2.33177">
        <ele>45.9</ele>
        <time>2023-12-19T06:49:56Z</time>
      </trkpt>
      <trkpt lat="49.87965" lon="2.33178">
        <ele>45.8</ele>
        <time>2023-12-19T06:49:57Z</time>
      </trkpt>
      <trkpt lat="49.87968" lon="2.33179">
        <ele>45.7</ele>
        <time>2023-12-19T06:49:58Z</time>
      </trkpt>
      <trkpt lat="49.87969" lon="2.33179">
        <ele>45.7</ele>
        <time>2023-12-19T06:49:59Z</time>
      </trkpt>
      <trkpt lat="49.87972" lon="2.3318">
        <ele>45.6</ele>
        <time>2023-12-19T06:50:01Z</time>
      </trkpt>
      <trkpt lat="49.87972" lon="2.33181">
        <ele>45.5</ele>
        <time>2023-12-19T06:50:02Z</time>
      </trkpt>
      <trkpt lat="49.87974" lon="2.33182">
        <ele>45.5</ele>
        <time>2023-12-19T06:50:03Z</time>
      </trkpt>
      <trkpt lat="49.87976" lon="2.33182">
        <ele>45.4</ele>
        <time>2023-12-19T06:50:04Z</time>
      </trkpt>
      <trkpt lat="49.87977" lon="2.33183">
        <ele>45.3</ele>
        <time>2023-12-19T06:50:05Z</time>
      </trkpt>
      <trkpt lat="49.87979" lon="2.33184">
        <ele>45.3</ele>
        <time>2023-12-19T06:50:06Z</time>
      </trkpt>
      <trkpt lat="49.8798" lon="2.33184">
        <ele>45.2</ele>
        <time>2023-12-19T06:50:07Z</time>
      </trkpt>
      <trkpt lat="49.87981" lon="2.33185">
        <ele>45.2</ele>
        <time>2023-12-19T06:50:08Z</time>
      </trkpt>
      <trkpt lat="49.87984" lon="2.33185">
        <ele>45.1</ele>
        <time>2023-12-19T06:50:09Z</time>
      </trkpt>
      <trkpt lat="49.87984" lon="2.33185">
        <ele>45.1</ele>
        <time>2023-12-19T06:50:11Z</time>
      </trkpt>
      <trkpt lat="49.87985" lon="2.33186">
        <ele>45</ele>
        <time>2023-12-19T06:50:12Z</time>
      </trkpt>
      <trkpt lat="49.87987" lon="2.33185">
        <ele>44.9</ele>
        <time>2023-12-19T06:50:13Z</time>
      </trkpt>
      <trkpt lat="49.87988" lon="2.33185">
        <ele>44.9</ele>
        <time>2023-12-19T06:50:14Z</time>
      </trkpt>
      <trkpt lat="49.87989" lon="2.33185">
        <ele>44.9</ele>
        <time>2023-12-19T06:50:15Z</time>
      </trkpt>
      <trkpt lat="49.87991" lon="2.33184">
        <ele>44.8</ele>
        <time>2023-12-19T06:50:16Z</time>
      </trkpt>
      <trkpt lat="49.87992" lon="2.33184">
        <ele>44.8</ele>
        <time>2023-12-19T06:50:17Z</time>
      </trkpt>
      <trkpt lat="49.87992" lon="2.33183">
        <ele>44.7</ele>
        <time>2023-12-19T06:50:18Z</time>
      </trkpt>
      <trkpt lat="49.87993" lon="2.33183">
        <ele>44.7</ele>
        <time>2023-12-19T06:50:19Z</time>
      </trkpt>
      <trkpt lat="49.87995" lon="2.33182">
        <ele>44.6</ele>
        <time>2023-12-19T06:50:21Z</time>
      </trkpt>
      <trkpt lat="49.87996" lon="2.33182">
        <ele>44.6</ele>
        <time>2023-12-19T06:50:22Z</time>
      </trkpt>
      <trkpt lat="49.87998" lon="2.33181">
        <ele>44.5</ele>
        <time>2023-12-19T06:50:23Z</time>
      </trkpt>
      <trkpt lat="49.87999" lon="2.33181">
        <ele>44.4</ele>
        <time>2023-12-19T06:50:24Z</time>
      </trkpt>
      <trkpt lat="49.88" lon="2.33181">
        <ele>44.4</ele>
        <time>2023-12-19T06:50:25Z</time>
      </trkpt>
      <trkpt lat="49.88001" lon="2.33181">
        <ele>44.4</ele>
        <time>2023-12-19T06:50:26Z</time>
      </trkpt>
      <trkpt lat="49.88002" lon="2.33181">
        <ele>44.3</ele>
        <time>2023-12-19T06:50:27Z</time>
      </trkpt>
      <trkpt lat="49.88004" lon="2.33181">
        <ele>44.2</ele>
        <time>2023-12-19T06:50:28Z</time>
      </trkpt>
      <trkpt lat="49.88005" lon="2.33181">
        <ele>44.2</ele>
        <time>2023-12-19T06:50:29Z</time>
      </trkpt>
      <trkpt lat="49.88005" lon="2.3318">
        <ele>44.2</ele>
        <time>2023-12-19T06:50:31Z</time>
      </trkpt>
      <trkpt lat="49.88005" lon="2.3318">
        <ele>44.2</ele>
        <time>2023-12-19T06:50:32Z</time>
      </trkpt>
      <trkpt lat="49.88006" lon="2.3318">
        <ele>44.1</ele>
        <time>2023-12-19T06:50:33Z</time>
      </trkpt>
      <trkpt lat="49.88006" lon="2.33179">
        <ele>44.1</ele>
        <time>2023-12-19T06:50:34Z</time>
      </trkpt>
      <trkpt lat="49.88007" lon="2.33178">
        <ele>44.1</ele>
        <time>2023-12-19T06:50:35Z</time>
      </trkpt>
      <trkpt lat="49.88007" lon="2.33178">
        <ele>44.1</ele>
        <time>2023-12-19T06:50:36Z</time>
      </trkpt>
      <trkpt lat="49.88008" lon="2.33178">
        <ele>44</ele>
        <time>2023-12-19T06:50:37Z</time>
      </trkpt>
      <trkpt lat="49.88009" lon="2.33179">
        <ele>44</ele>
        <time>2023-12-19T06:50:38Z</time>
      </trkpt>
      <trkpt lat="49.88009" lon="2.3318">
        <ele>44</ele>
        <time>2023-12-19T06:50:40Z</time>
      </trkpt>
      <trkpt lat="49.8801" lon="2.33181">
        <ele>43.9</ele>
        <time>2023-12-19T06:50:41Z</time>
      </trkpt>
      <trkpt lat="49.88011" lon="2.33183">
        <ele>43.9</ele>
        <time>2023-12-19T06:50:42Z</time>
      </trkpt>
      <trkpt lat="49.88012" lon="2.33184">
        <ele>43.8</ele>
        <time>2023-12-19T06:50:43Z</time>
      </trkpt>
      <trkpt lat="49.88013" lon="2.33185">
        <ele>43.8</ele>
        <time>2023-12-19T06:50:44Z</time>
      </trkpt>
      <trkpt lat="49.88015" lon="2.33186">
        <ele>43.7</ele>
        <time>2023-12-19T06:50:45Z</time>
      </trkpt>
      <trkpt lat="49.88016" lon="2.33186">
        <ele>43.7</ele>
        <time>2023-12-19T06:50:46Z</time>
      </trkpt>
      <trkpt lat="49.88016" lon="2.33187">
        <ele>43.6</ele>
        <time>2023-12-19T06:50:47Z</time>
      </trkpt>
      <trkpt lat="49.88017" lon="2.33187">
        <ele>43.6</ele>
        <time>2023-12-19T06:50:48Z</time>
      </trkpt>
      <trkpt lat="49.88018" lon="2.33187">
        <ele>43.6</ele>
        <time>2023-12-19T06:50:50Z</time>
      </trkpt>
      <trkpt lat="49.8802" lon="2.33188">
        <ele>43.5</ele>
        <time>2023-12-19T06:50:51Z</time>
      </trkpt>
      <trkpt lat="49.88021" lon="2.33188">
        <ele>43.5</ele>
        <time>2023-12-19T06:50:52Z</time>
      </trkpt>
      <trkpt lat="49.88023" lon="2.33187">
        <ele>43.4</ele>
        <time>2023-12-19T06:50:53Z</time>
      </trkpt>
      <trkpt lat="49.88024" lon="2.33187">
        <ele>43.4</ele>
        <time>2023-12-19T06:50:54Z</time>
      </trkpt>
      <trkpt lat="49.88025" lon="2.33187">
        <ele>43.4</ele>
        <time>2023-12-19T06:50:55Z</time>
      </trkpt>
      <trkpt lat="49.88026" lon="2.33186">
        <ele>43.3</ele>
        <time>2023-12-19T06:50:56Z</time>
      </trkpt>
      <trkpt lat="49.88028" lon="2.33186">
        <ele>43.2</ele>
        <time>2023-12-19T06:50:57Z</time>
      </trkpt>
      <trkpt lat="49.88029" lon="2.33186">
        <ele>43.2</ele>
        <time>2023-12-19T06:50:59Z</time>
      </trkpt>
      <trkpt lat="49.8803" lon="2.33186">
        <ele>43.2</ele>
        <time>2023-12-19T06:51:00Z</time>
      </trkpt>
      <trkpt lat="49.88032" lon="2.33186">
        <ele>43.1</ele>
        <time>2023-12-19T06:51:01Z</time>
      </trkpt>
      <trkpt lat="49.88032" lon="2.33186">
        <ele>43.1</ele>
        <time>2023-12-19T06:51:02Z</time>
      </trkpt>
      <trkpt lat="49.88033" lon="2.33186">
        <ele>43.1</ele>
        <time>2023-12-19T06:51:03Z</time>
      </trkpt>
      <trkpt lat="49.88035" lon="2.33186">
        <ele>43</ele>
        <time>2023-12-19T06:51:04Z</time>
      </trkpt>
      <trkpt lat="49.88036" lon="2.33186">
        <ele>43</ele>
        <time>2023-12-19T06:51:05Z</time>
      </trkpt>
      <trkpt lat="49.88037" lon="2.33187">
        <ele>42.9</ele>
        <time>2023-12-19T06:51:07Z</time>
      </trkpt>
      <trkpt lat="49.88039" lon="2.33187">
        <ele>42.9</ele>
        <time>2023-12-19T06:51:08Z</time>
      </trkpt>
      <trkpt lat="49.8804" lon="2.33189">
        <ele>42.8</ele>
        <time>2023-12-19T06:51:09Z</time>
      </trkpt>
      <trkpt lat="49.88041" lon="2.33191">
        <ele>42.8</ele>
        <time>2023-12-19T06:51:10Z</time>
      </trkpt>
      <trkpt lat="49.88042" lon="2.33191">
        <ele>42.7</ele>
        <time>2023-12-19T06:51:11Z</time>
      </trkpt>
      <trkpt lat="49.88044" lon="2.33191">
        <ele>42.7</ele>
        <time>2023-12-19T06:51:13Z</time>
      </trkpt>
      <trkpt lat="49.88045" lon="2.3319">
        <ele>42.6</ele>
        <time>2023-12-19T06:51:14Z</time>
      </trkpt>
      <trkpt lat="49.88046" lon="2.3319">
        <ele>42.6</ele>
        <time>2023-12-19T06:51:15Z</time>
      </trkpt>
      <trkpt lat="49.88047" lon="2.3319">
        <ele>42.6</ele>
        <time>2023-12-19T06:51:16Z</time>
      </trkpt>
      <trkpt lat="49.88049" lon="2.3319">
        <ele>42.5</ele>
        <time>2023-12-19T06:51:17Z</time>
      </trkpt>
      <trkpt lat="49.8805" lon="2.3319">
        <ele>42.5</ele>
        <time>2023-12-19T06:51:19Z</time>
      </trkpt>
      <trkpt lat="49.88051" lon="2.3319">
        <ele>42.4</ele>
        <time>2023-12-19T06:51:20Z</time>
      </trkpt>
      <trkpt lat="49.88052" lon="2.3319">
        <ele>42.4</ele>
        <time>2023-12-19T06:51:21Z</time>
      </trkpt>
      <trkpt lat="49.88053" lon="2.3319">
        <ele>42.4</ele>
        <time>2023-12-19T06:51:22Z</time>
      </trkpt>
      <trkpt lat="49.88055" lon="2.3319">
        <ele>42.3</ele>
        <time>2023-12-19T06:51:23Z</time>
      </trkpt>
      <trkpt lat="49.88056" lon="2.3319">
        <ele>42.3</ele>
        <time>2023-12-19T06:51:24Z</time>
      </trkpt>
      <trkpt lat="49.88057" lon="2.33191">
        <ele>42.3</ele>
        <time>2023-12-19T06:51:26Z</time>
      </trkpt>
      <trkpt lat="49.88058" lon="2.33191">
        <ele>42.2</ele>
        <time>2023-12-19T06:51:27Z</time>
      </trkpt>
      <trkpt lat="49.8806" lon="2.33191">
        <ele>42.2</ele>
        <time>2023-12-19T06:51:28Z</time>
      </trkpt>
      <trkpt lat="49.8806" lon="2.33192">
        <ele>42.2</ele>
        <time>2023-12-19T06:51:29Z</time>
      </trkpt>
      <trkpt lat="49.88061" lon="2.33194">
        <ele>42.1</ele>
        <time>2023-12-19T06:51:30Z</time>
      </trkpt>
      <trkpt lat="49.88061" lon="2.33196">
        <ele>42.1</ele>
        <time>2023-12-19T06:51:31Z</time>
      </trkpt>
      <trkpt lat="49.8806" lon="2.33198">
        <ele>42</ele>
        <time>2023-12-19T06:51:33Z</time>
      </trkpt>
      <trkpt lat="49.8806" lon="2.332">
        <ele>42</ele>
        <time>2023-12-19T06:51:34Z</time>
      </trkpt>
      <trkpt lat="49.88059" lon="2.33202">
        <ele>41.9</ele>
        <time>2023-12-19T06:51:35Z</time>
      </trkpt>
      <trkpt lat="49.88058" lon="2.33204">
        <ele>41.8</ele>
        <time>2023-12-19T06:51:36Z</time>
      </trkpt>
      <trkpt lat="49.88057" lon="2.33206">
        <ele>41.8</ele>
        <time>2023-12-19T06:51:37Z</time>
      </trkpt>
      <trkpt lat="49.88057" lon="2.33208">
        <ele>41.7</ele>
        <time>2023-12-19T06:51:38Z</time>
      </trkpt>
      <trkpt lat="49.88056" lon="2.33209">
        <ele>41.7</ele>
        <time>2023-12-19T06:51:39Z</time>
      </trkpt>
      <trkpt lat="49.88055" lon="2.33211">
        <ele>41.7</ele>
        <time>2023-12-19T06:51:41Z</time>
      </trkpt>
      <trkpt lat="49.88054" lon="2.33213">
        <ele>41.5</ele>
        <time>2023-12-19T06:51:42Z</time>
      </trkpt>
      <trkpt lat="49.88053" lon="2.33214">
        <ele>41.5</ele>
        <time>2023-12-19T06:51:43Z</time>
      </trkpt>
      <trkpt lat="49.88053" lon="2.33215">
        <ele>41.4</ele>
        <time>2023-12-19T06:51:44Z</time>
      </trkpt>
      <trkpt lat="49.88051" lon="2.33216">
        <ele>41.3</ele>
        <time>2023-12-19T06:51:45Z</time>
      </trkpt>
      <trkpt lat="49.8805" lon="2.33217">
        <ele>41.3</ele>
        <time>2023-12-19T06:51:46Z</time>
      </trkpt>
      <trkpt lat="49.88049" lon="2.33217">
        <ele>41.2</ele>
        <time>2023-12-19T06:51:47Z</time>
      </trkpt>
      <trkpt lat="49.88048" lon="2.33218">
        <ele>41.1</ele>
        <time>2023-12-19T06:51:48Z</time>
      </trkpt>
      <trkpt lat="49.88047" lon="2.33219">
        <ele>41.1</ele>
        <time>2023-12-19T06:51:49Z</time>
      </trkpt>
      <trkpt lat="49.88046" lon="2.3322">
        <ele>41</ele>
        <time>2023-12-19T06:51:51Z</time>
      </trkpt>
      <trkpt lat="49.88046" lon="2.33221">
        <ele>41</ele>
        <time>2023-12-19T06:51:52Z</time>
      </trkpt>
      <trkpt lat="49.88045" lon="2.33222">
        <ele>40.9</ele>
        <time>2023-12-19T06:51:53Z</time>
      </trkpt>
      <trkpt lat="49.88044" lon="2.33223">
        <ele>40.9</ele>
        <time>2023-12-19T06:51:54Z</time>
      </trkpt>
      <trkpt lat="49.88043" lon="2.33224">
        <ele>40.8</ele>
        <time>2023-12-19T06:51:55Z</time>
      </trkpt>
      <trkpt lat="49.88043" lon="2.33225">
        <ele>40.7</ele>
        <time>2023-12-19T06:51:56Z</time>
      </trkpt>
      <trkpt lat="49.88042" lon="2.33225">
        <ele>40.7</ele>
        <time>2023-12-19T06:51:57Z</time>
      </trkpt>
      <trkpt lat="49.88041" lon="2.33226">
        <ele>40.6</ele>
        <time>2023-12-19T06:51:59Z</time>
      </trkpt>
      <trkpt lat="49.8804" lon="2.33227">
        <ele>40.6</ele>
        <time>2023-12-19T06:52:00Z</time>
      </trkpt>
      <trkpt lat="49.88039" lon="2.33228">
        <ele>40.5</ele>
        <time>2023-12-19T06:52:01Z</time>
      </trkpt>
      <trkpt lat="49.88038" lon="2.33229">
        <ele>40.4</ele>
        <time>2023-12-19T06:52:02Z</time>
      </trkpt>
      <trkpt lat="49.88038" lon="2.3323">
        <ele>40.4</ele>
        <time>2023-12-19T06:52:03Z</time>
      </trkpt>
      <trkpt lat="49.88037" lon="2.3323">
        <ele>40.3</ele>
        <time>2023-12-19T06:52:04Z</time>
      </trkpt>
      <trkpt lat="49.88036" lon="2.33231">
        <ele>40.3</ele>
        <time>2023-12-19T06:52:05Z</time>
      </trkpt>
      <trkpt lat="49.88035" lon="2.33232">
        <ele>40.2</ele>
        <time>2023-12-19T06:52:06Z</time>
      </trkpt>
      <trkpt lat="49.88034" lon="2.33233">
        <ele>40.1</ele>
        <time>2023-12-19T06:52:08Z</time>
      </trkpt>
      <trkpt lat="49.88033" lon="2.33234">
        <ele>40.1</ele>
        <time>2023-12-19T06:52:09Z</time>
      </trkpt>
      <trkpt lat="49.88032" lon="2.33235">
        <ele>40</ele>
        <time>2023-12-19T06:52:10Z</time>
      </trkpt>
      <trkpt lat="49.88032" lon="2.33236">
        <ele>39.9</ele>
        <time>2023-12-19T06:52:11Z</time>
      </trkpt>
      <trkpt lat="49.88031" lon="2.33238">
        <ele>39.9</ele>
        <time>2023-12-19T06:52:12Z</time>
      </trkpt>
      <trkpt lat="49.8803" lon="2.3324">
        <ele>39.8</ele>
        <time>2023-12-19T06:52:13Z</time>
      </trkpt>
      <trkpt lat="49.88029" lon="2.33242">
        <ele>39.7</ele>
        <time>2023-12-19T06:52:14Z</time>
      </trkpt>
      <trkpt lat="49.88028" lon="2.33243">
        <ele>39.6</ele>
        <time>2023-12-19T06:52:15Z</time>
      </trkpt>
      <trkpt lat="49.88027" lon="2.33245">
        <ele>39.5</ele>
        <time>2023-12-19T06:52:17Z</time>
      </trkpt>
      <trkpt lat="49.88026" lon="2.33247">
        <ele>39.5</ele>
        <time>2023-12-19T06:52:18Z</time>
      </trkpt>
      <trkpt lat="49.88025" lon="2.33249">
        <ele>39.4</ele>
        <time>2023-12-19T06:52:19Z</time>
      </trkpt>
      <trkpt lat="49.88024" lon="2.33251">
        <ele>39.3</ele>
        <time>2023-12-19T06:52:20Z</time>
      </trkpt>
      <trkpt lat="49.88024" lon="2.33253">
        <ele>39.2</ele>
        <time>2023-12-19T06:52:21Z</time>
      </trkpt>
      <trkpt lat="49.88023" lon="2.33255">
        <ele>39.2</ele>
        <time>2023-12-19T06:52:22Z</time>
      </trkpt>
      <trkpt lat="49.88022" lon="2.33257">
        <ele>39.2</ele>
        <time>2023-12-19T06:52:23Z</time>
      </trkpt>
      <trkpt lat="49.88022" lon="2.33258">
        <ele>39.1</ele>
        <time>2023-12-19T06:52:25Z</time>
      </trkpt>
      <trkpt lat="49.88021" lon="2.3326">
        <ele>39.1</ele>
        <time>2023-12-19T06:52:26Z</time>
      </trkpt>
      <trkpt lat="49.8802" lon="2.33261">
        <ele>39.1</ele>
        <time>2023-12-19T06:52:27Z</time>
      </trkpt>
      <trkpt lat="49.8802" lon="2.33263">
        <ele>39.1</ele>
        <time>2023-12-19T06:52:28Z</time>
      </trkpt>
      <trkpt lat="49.88019" lon="2.33264">
        <ele>39</ele>
        <time>2023-12-19T06:52:29Z</time>
      </trkpt>
      <trkpt lat="49.88019" lon="2.33265">
        <ele>39</ele>
        <time>2023-12-19T06:52:30Z</time>
      </trkpt>
      <trkpt lat="49.88018" lon="2.33266">
        <ele>39</ele>
        <time>2023-12-19T06:52:31Z</time>
      </trkpt>
      <trkpt lat="49.88017" lon="2.33268">
        <ele>39</ele>
        <time>2023-12-19T06:52:32Z</time>
      </trkpt>
      <trkpt lat="49.88017" lon="2.33269">
        <ele>38.9</ele>
        <time>2023-12-19T06:52:34Z</time>
      </trkpt>
      <trkpt lat="49.88016" lon="2.3327">
        <ele>38.9</ele>
        <time>2023-12-19T06:52:35Z</time>
      </trkpt>
      <trkpt lat="49.88015" lon="2.33271">
        <ele>38.9</ele>
        <time>2023-12-19T06:52:36Z</time>
      </trkpt>
      <trkpt lat="49.88014" lon="2.33273">
        <ele>38.8</ele>
        <time>2023-12-19T06:52:37Z</time>
      </trkpt>
      <trkpt lat="49.88014" lon="2.33274">
        <ele>38.8</ele>
        <time>2023-12-19T06:52:38Z</time>
      </trkpt>
      <trkpt lat="49.88013" lon="2.33275">
        <ele>38.7</ele>
        <time>2023-12-19T06:52:39Z</time>
      </trkpt>
      <trkpt lat="49.88012" lon="2.33277">
        <ele>38.7</ele>
        <time>2023-12-19T06:52:40Z</time>
      </trkpt>
      <trkpt lat="49.88011" lon="2.33278">
        <ele>38.6</ele>
        <time>2023-12-19T06:52:41Z</time>
      </trkpt>
      <trkpt lat="49.88011" lon="2.33279">
        <ele>38.6</ele>
        <time>2023-12-19T06:52:42Z</time>
      </trkpt>
      <trkpt lat="49.88009" lon="2.33282">
        <ele>38.5</ele>
        <time>2023-12-19T06:52:44Z</time>
      </trkpt>
      <trkpt lat="49.88009" lon="2.33283">
        <ele>38.5</ele>
        <time>2023-12-19T06:52:45Z</time>
      </trkpt>
      <trkpt lat="49.88008" lon="2.33284">
        <ele>38.4</ele>
        <time>2023-12-19T06:52:46Z</time>
      </trkpt>
      <trkpt lat="49.88008" lon="2.33285">
        <ele>38.4</ele>
        <time>2023-12-19T06:52:47Z</time>
      </trkpt>
      <trkpt lat="49.88007" lon="2.33287">
        <ele>38.3</ele>
        <time>2023-12-19T06:52:48Z</time>
      </trkpt>
      <trkpt lat="49.88006" lon="2.33289">
        <ele>38.3</ele>
        <time>2023-12-19T06:52:49Z</time>
      </trkpt>
      <trkpt lat="49.88006" lon="2.33291">
        <ele>38.2</ele>
        <time>2023-12-19T06:52:50Z</time>
      </trkpt>
      <trkpt lat="49.88005" lon="2.33295">
        <ele>38.1</ele>
        <time>2023-12-19T06:52:51Z</time>
      </trkpt>
      <trkpt lat="49.88005" lon="2.33296">
        <ele>38.1</ele>
        <time>2023-12-19T06:52:53Z</time>
      </trkpt>
      <trkpt lat="49.88005" lon="2.33297">
        <ele>38</ele>
        <time>2023-12-19T06:52:54Z</time>
      </trkpt>
      <trkpt lat="49.88004" lon="2.33301">
        <ele>37.9</ele>
        <time>2023-12-19T06:52:55Z</time>
      </trkpt>
      <trkpt lat="49.88004" lon="2.33302">
        <ele>37.9</ele>
        <time>2023-12-19T06:52:56Z</time>
      </trkpt>
      <trkpt lat="49.88004" lon="2.33303">
        <ele>37.8</ele>
        <time>2023-12-19T06:52:57Z</time>
      </trkpt>
      <trkpt lat="49.88003" lon="2.33305">
        <ele>37.8</ele>
        <time>2023-12-19T06:52:58Z</time>
      </trkpt>
      <trkpt lat="49.88003" lon="2.33307">
        <ele>37.7</ele>
        <time>2023-12-19T06:52:59Z</time>
      </trkpt>
      <trkpt lat="49.88002" lon="2.33309">
        <ele>37.7</ele>
        <time>2023-12-19T06:53:01Z</time>
      </trkpt>
      <trkpt lat="49.88001" lon="2.33312">
        <ele>37.6</ele>
        <time>2023-12-19T06:53:02Z</time>
      </trkpt>
      <trkpt lat="49.88001" lon="2.33313">
        <ele>37.5</ele>
        <time>2023-12-19T06:53:03Z</time>
      </trkpt>
      <trkpt lat="49.88001" lon="2.33314">
        <ele>37.5</ele>
        <time>2023-12-19T06:53:04Z</time>
      </trkpt>
      <trkpt lat="49.88" lon="2.33317">
        <ele>37.4</ele>
        <time>2023-12-19T06:53:05Z</time>
      </trkpt>
      <trkpt lat="49.87999" lon="2.33319">
        <ele>37.4</ele>
        <time>2023-12-19T06:53:06Z</time>
      </trkpt>
      <trkpt lat="49.87999" lon="2.3332">
        <ele>37.3</ele>
        <time>2023-12-19T06:53:07Z</time>
      </trkpt>
      <trkpt lat="49.87999" lon="2.33321">
        <ele>37.3</ele>
        <time>2023-12-19T06:53:08Z</time>
      </trkpt>
      <trkpt lat="49.87998" lon="2.33323">
        <ele>37.2</ele>
        <time>2023-12-19T06:53:10Z</time>
      </trkpt>
      <trkpt lat="49.87998" lon="2.33324">
        <ele>37.2</ele>
        <time>2023-12-19T06:53:11Z</time>
      </trkpt>
      <trkpt lat="49.87997" lon="2.33326">
        <ele>37.1</ele>
        <time>2023-12-19T06:53:12Z</time>
      </trkpt>
      <trkpt lat="49.87997" lon="2.33327">
        <ele>37.1</ele>
        <time>2023-12-19T06:53:13Z</time>
      </trkpt>
      <trkpt lat="49.87996" lon="2.33329">
        <ele>37</ele>
        <time>2023-12-19T06:53:14Z</time>
      </trkpt>
      <trkpt lat="49.87995" lon="2.3333">
        <ele>37</ele>
        <time>2023-12-19T06:53:15Z</time>
      </trkpt>
      <trkpt lat="49.87994" lon="2.33332">
        <ele>36.9</ele>
        <time>2023-12-19T06:53:16Z</time>
      </trkpt>
      <trkpt lat="49.87993" lon="2.33333">
        <ele>36.8</ele>
        <time>2023-12-19T06:53:18Z</time>
      </trkpt>
      <trkpt lat="49.87993" lon="2.33334">
        <ele>36.8</ele>
        <time>2023-12-19T06:53:19Z</time>
      </trkpt>
      <trkpt lat="49.87992" lon="2.33335">
        <ele>36.8</ele>
        <time>2023-12-19T06:53:20Z</time>
      </trkpt>
      <trkpt lat="49.87991" lon="2.33336">
        <ele>36.7</ele>
        <time>2023-12-19T06:53:21Z</time>
      </trkpt>
      <trkpt lat="49.87991" lon="2.33337">
        <ele>36.7</ele>
        <time>2023-12-19T06:53:22Z</time>
      </trkpt>
      <trkpt lat="49.8799" lon="2.33338">
        <ele>36.6</ele>
        <time>2023-12-19T06:53:23Z</time>
      </trkpt>
      <trkpt lat="49.87989" lon="2.33339">
        <ele>36.6</ele>
        <time>2023-12-19T06:53:24Z</time>
      </trkpt>
      <trkpt lat="49.87987" lon="2.33341">
        <ele>36.5</ele>
        <time>2023-12-19T06:53:26Z</time>
      </trkpt>
      <trkpt lat="49.87987" lon="2.33342">
        <ele>36.5</ele>
        <time>2023-12-19T06:53:27Z</time>
      </trkpt>
      <trkpt lat="49.87986" lon="2.33343">
        <ele>36.4</ele>
        <time>2023-12-19T06:53:28Z</time>
      </trkpt>
      <trkpt lat="49.87985" lon="2.33345">
        <ele>36.3</ele>
        <time>2023-12-19T06:53:29Z</time>
      </trkpt>
      <trkpt lat="49.87984" lon="2.33346">
        <ele>36.3</ele>
        <time>2023-12-19T06:53:30Z</time>
      </trkpt>
      <trkpt lat="49.87983" lon="2.33347">
        <ele>36.3</ele>
        <time>2023-12-19T06:53:31Z</time>
      </trkpt>
      <trkpt lat="49.87982" lon="2.33348">
        <ele>36.2</ele>
        <time>2023-12-19T06:53:32Z</time>
      </trkpt>
      <trkpt lat="49.87981" lon="2.33349">
        <ele>36.1</ele>
        <time>2023-12-19T06:53:34Z</time>
      </trkpt>
      <trkpt lat="49.87981" lon="2.3335">
        <ele>36.1</ele>
        <time>2023-12-19T06:53:35Z</time>
      </trkpt>
      <trkpt lat="49.8798" lon="2.33351">
        <ele>36</ele>
        <time>2023-12-19T06:53:36Z</time>
      </trkpt>
      <trkpt lat="49.87979" lon="2.33353">
        <ele>36</ele>
        <time>2023-12-19T06:53:37Z</time>
      </trkpt>
      <trkpt lat="49.87978" lon="2.33354">
        <ele>35.9</ele>
        <time>2023-12-19T06:53:38Z</time>
      </trkpt>
      <trkpt lat="49.87978" lon="2.33356">
        <ele>35.9</ele>
        <time>2023-12-19T06:53:39Z</time>
      </trkpt>
      <trkpt lat="49.87977" lon="2.33357">
        <ele>35.8</ele>
        <time>2023-12-19T06:53:40Z</time>
      </trkpt>
      <trkpt lat="49.87976" lon="2.33359">
        <ele>35.7</ele>
        <time>2023-12-19T06:53:42Z</time>
      </trkpt>
      <trkpt lat="49.87975" lon="2.33362">
        <ele>35.6</ele>
        <time>2023-12-19T06:53:43Z</time>
      </trkpt>
      <trkpt lat="49.87975" lon="2.33363">
        <ele>35.6</ele>
        <time>2023-12-19T06:53:44Z</time>
      </trkpt>
      <trkpt lat="49.87974" lon="2.33364">
        <ele>35.6</ele>
        <time>2023-12-19T06:53:45Z</time>
      </trkpt>
      <trkpt lat="49.87973" lon="2.33367">
        <ele>35.5</ele>
        <time>2023-12-19T06:53:46Z</time>
      </trkpt>
      <trkpt lat="49.87973" lon="2.33368">
        <ele>35.4</ele>
        <time>2023-12-19T06:53:47Z</time>
      </trkpt>
      <trkpt lat="49.87972" lon="2.33369">
        <ele>35.4</ele>
        <time>2023-12-19T06:53:48Z</time>
      </trkpt>
      <trkpt lat="49.87971" lon="2.3337">
        <ele>35.3</ele>
        <time>2023-12-19T06:53:49Z</time>
      </trkpt>
      <trkpt lat="49.87971" lon="2.33372">
        <ele>35.3</ele>
        <time>2023-12-19T06:53:51Z</time>
      </trkpt>
      <trkpt lat="49.8797" lon="2.33373">
        <ele>35.2</ele>
        <time>2023-12-19T06:53:52Z</time>
      </trkpt>
      <trkpt lat="49.8797" lon="2.33375">
        <ele>35.2</ele>
        <time>2023-12-19T06:53:53Z</time>
      </trkpt>
      <trkpt lat="49.87969" lon="2.33377">
        <ele>35.1</ele>
        <time>2023-12-19T06:53:54Z</time>
      </trkpt>
      <trkpt lat="49.87969" lon="2.33378">
        <ele>35.1</ele>
        <time>2023-12-19T06:53:55Z</time>
      </trkpt>
      <trkpt lat="49.87969" lon="2.3338">
        <ele>35</ele>
        <time>2023-12-19T06:53:56Z</time>
      </trkpt>
      <trkpt lat="49.87968" lon="2.33381">
        <ele>35</ele>
        <time>2023-12-19T06:53:57Z</time>
      </trkpt>
      <trkpt lat="49.87968" lon="2.33383">
        <ele>34.9</ele>
        <time>2023-12-19T06:53:58Z</time>
      </trkpt>
      <trkpt lat="49.87968" lon="2.33385">
        <ele>34.9</ele>
        <time>2023-12-19T06:53:59Z</time>
      </trkpt>
      <trkpt lat="49.87967" lon="2.33386">
        <ele>34.8</ele>
        <time>2023-12-19T06:54:01Z</time>
      </trkpt>
      <trkpt lat="49.87967" lon="2.33388">
        <ele>34.7</ele>
        <time>2023-12-19T06:54:02Z</time>
      </trkpt>
      <trkpt lat="49.87965" lon="2.33391">
        <ele>34.7</ele>
        <time>2023-12-19T06:54:03Z</time>
      </trkpt>
      <trkpt lat="49.87965" lon="2.33392">
        <ele>34.6</ele>
        <time>2023-12-19T06:54:04Z</time>
      </trkpt>
      <trkpt lat="49.87965" lon="2.33393">
        <ele>34.6</ele>
        <time>2023-12-19T06:54:05Z</time>
      </trkpt>
      <trkpt lat="49.87964" lon="2.33394">
        <ele>34.5</ele>
        <time>2023-12-19T06:54:06Z</time>
      </trkpt>
      <trkpt lat="49.87963" lon="2.33396">
        <ele>34.5</ele>
        <time>2023-12-19T06:54:07Z</time>
      </trkpt>
      <trkpt lat="49.87962" lon="2.33398">
        <ele>34.4</ele>
        <time>2023-12-19T06:54:09Z</time>
      </trkpt>
      <trkpt lat="49.87961" lon="2.33401">
        <ele>34.3</ele>
        <time>2023-12-19T06:54:10Z</time>
      </trkpt>
      <trkpt lat="49.87961" lon="2.33402">
        <ele>34.3</ele>
        <time>2023-12-19T06:54:11Z</time>
      </trkpt>
      <trkpt lat="49.87961" lon="2.33403">
        <ele>34.2</ele>
        <time>2023-12-19T06:54:12Z</time>
      </trkpt>
      <trkpt lat="49.8796" lon="2.33406">
        <ele>34.1</ele>
        <time>2023-12-19T06:54:13Z</time>
      </trkpt>
      <trkpt lat="49.87959" lon="2.33407">
        <ele>34.1</ele>
        <time>2023-12-19T06:54:14Z</time>
      </trkpt>
      <trkpt lat="49.87959" lon="2.33408">
        <ele>34.1</ele>
        <time>2023-12-19T06:54:15Z</time>
      </trkpt>
      <trkpt lat="49.87959" lon="2.3341">
        <ele>34</ele>
        <time>2023-12-19T06:54:16Z</time>
      </trkpt>
      <trkpt lat="49.87958" lon="2.33411">
        <ele>34</ele>
        <time>2023-12-19T06:54:17Z</time>
      </trkpt>
      <trkpt lat="49.87958" lon="2.33413">
        <ele>33.9</ele>
        <time>2023-12-19T06:54:19Z</time>
      </trkpt>
      <trkpt lat="49.87958" lon="2.33414">
        <ele>33.9</ele>
        <time>2023-12-19T06:54:20Z</time>
      </trkpt>
      <trkpt lat="49.87958" lon="2.33416">
        <ele>33.8</ele>
        <time>2023-12-19T06:54:21Z</time>
      </trkpt>
      <trkpt lat="49.87959" lon="2.33416">
        <ele>33.8</ele>
        <time>2023-12-19T06:54:22Z</time>
      </trkpt>
      <trkpt lat="49.8796" lon="2.33417">
        <ele>33.7</ele>
        <time>2023-12-19T06:54:24Z</time>
      </trkpt>
      <trkpt lat="49.87961" lon="2.33418">
        <ele>33.7</ele>
        <time>2023-12-19T06:54:25Z</time>
      </trkpt>
      <trkpt lat="49.87962" lon="2.33419">
        <ele>33.6</ele>
        <time>2023-12-19T06:54:26Z</time>
      </trkpt>
      <trkpt lat="49.87962" lon="2.33419">
        <ele>33.6</ele>
        <time>2023-12-19T06:54:27Z</time>
      </trkpt>
      <trkpt lat="49.87963" lon="2.33421">
        <ele>33.6</ele>
        <time>2023-12-19T06:54:28Z</time>
      </trkpt>
      <trkpt lat="49.87962" lon="2.33423">
        <ele>33.5</ele>
        <time>2023-12-19T06:54:29Z</time>
      </trkpt>
      <trkpt lat="49.87961" lon="2.33425">
        <ele>33.4</ele>
        <time>2023-12-19T06:54:30Z</time>
      </trkpt>
      <trkpt lat="49.87961" lon="2.33427">
        <ele>33.4</ele>
        <time>2023-12-19T06:54:31Z</time>
      </trkpt>
      <trkpt lat="49.8796" lon="2.33429">
        <ele>33.3</ele>
        <time>2023-12-19T06:54:32Z</time>
      </trkpt>
      <trkpt lat="49.87958" lon="2.3343">
        <ele>33.2</ele>
        <time>2023-12-19T06:54:34Z</time>
      </trkpt>
      <trkpt lat="49.87957" lon="2.33431">
        <ele>33.1</ele>
        <time>2023-12-19T06:54:35Z</time>
      </trkpt>
      <trkpt lat="49.87955" lon="2.33432">
        <ele>33.1</ele>
        <time>2023-12-19T06:54:36Z</time>
      </trkpt>
      <trkpt lat="49.87954" lon="2.33433">
        <ele>33</ele>
        <time>2023-12-19T06:54:37Z</time>
      </trkpt>
      <trkpt lat="49.87953" lon="2.33434">
        <ele>32.9</ele>
        <time>2023-12-19T06:54:38Z</time>
      </trkpt>
      <trkpt lat="49.87952" lon="2.33435">
        <ele>32.9</ele>
        <time>2023-12-19T06:54:39Z</time>
      </trkpt>
      <trkpt lat="49.87951" lon="2.33437">
        <ele>32.8</ele>
        <time>2023-12-19T06:54:41Z</time>
      </trkpt>
      <trkpt lat="49.8795" lon="2.33438">
        <ele>32.8</ele>
        <time>2023-12-19T06:54:42Z</time>
      </trkpt>
      <trkpt lat="49.87949" lon="2.33439">
        <ele>32.7</ele>
        <time>2023-12-19T06:54:43Z</time>
      </trkpt>
      <trkpt lat="49.87948" lon="2.3344">
        <ele>32.7</ele>
        <time>2023-12-19T06:54:44Z</time>
      </trkpt>
      <trkpt lat="49.87947" lon="2.33441">
        <ele>32.6</ele>
        <time>2023-12-19T06:54:45Z</time>
      </trkpt>
      <trkpt lat="49.87947" lon="2.33443">
        <ele>32.6</ele>
        <time>2023-12-19T06:54:46Z</time>
      </trkpt>
      <trkpt lat="49.87946" lon="2.33444">
        <ele>32.5</ele>
        <time>2023-12-19T06:54:48Z</time>
      </trkpt>
      <trkpt lat="49.87945" lon="2.33445">
        <ele>32.5</ele>
        <time>2023-12-19T06:54:49Z</time>
      </trkpt>
      <trkpt lat="49.87944" lon="2.33447">
        <ele>32.5</ele>
        <time>2023-12-19T06:54:50Z</time>
      </trkpt>
      <trkpt lat="49.87944" lon="2.33448">
        <ele>32.4</ele>
        <time>2023-12-19T06:54:51Z</time>
      </trkpt>
      <trkpt lat="49.87943" lon="2.33449">
        <ele>32.4</ele>
        <time>2023-12-19T06:54:52Z</time>
      </trkpt>
      <trkpt lat="49.87942" lon="2.3345">
        <ele>32.3</ele>
        <time>2023-12-19T06:54:53Z</time>
      </trkpt>
      <trkpt lat="49.87942" lon="2.33452">
        <ele>32.3</ele>
        <time>2023-12-19T06:54:54Z</time>
      </trkpt>
      <trkpt lat="49.87941" lon="2.33454">
        <ele>32.2</ele>
        <time>2023-12-19T06:54:56Z</time>
      </trkpt>
      <trkpt lat="49.87941" lon="2.33456">
        <ele>32.2</ele>
        <time>2023-12-19T06:54:57Z</time>
      </trkpt>
      <trkpt lat="49.8794" lon="2.33458">
        <ele>32.1</ele>
        <time>2023-12-19T06:54:58Z</time>
      </trkpt>
      <trkpt lat="49.87939" lon="2.3346">
        <ele>32.1</ele>
        <time>2023-12-19T06:54:59Z</time>
      </trkpt>
      <trkpt lat="49.87938" lon="2.33463">
        <ele>32</ele>
        <time>2023-12-19T06:55:00Z</time>
      </trkpt>
      <trkpt lat="49.87938" lon="2.33464">
        <ele>32</ele>
        <time>2023-12-19T06:55:01Z</time>
      </trkpt>
      <trkpt lat="49.87937" lon="2.33465">
        <ele>32</ele>
        <time>2023-12-19T06:55:02Z</time>
      </trkpt>
      <trkpt lat="49.87936" lon="2.33468">
        <ele>31.9</ele>
        <time>2023-12-19T06:55:03Z</time>
      </trkpt>
      <trkpt lat="49.87936" lon="2.33469">
        <ele>31.9</ele>
        <time>2023-12-19T06:55:05Z</time>
      </trkpt>
      <trkpt lat="49.87935" lon="2.3347">
        <ele>31.8</ele>
        <time>2023-12-19T06:55:06Z</time>
      </trkpt>
      <trkpt lat="49.87935" lon="2.33471">
        <ele>31.8</ele>
        <time>2023-12-19T06:55:07Z</time>
      </trkpt>
      <trkpt lat="49.87934" lon="2.33472">
        <ele>31.8</ele>
        <time>2023-12-19T06:55:08Z</time>
      </trkpt>
      <trkpt lat="49.87933" lon="2.33474">
        <ele>31.7</ele>
        <time>2023-12-19T06:55:09Z</time>
      </trkpt>
      <trkpt lat="49.87933" lon="2.33475">
        <ele>31.7</ele>
        <time>2023-12-19T06:55:10Z</time>
      </trkpt>
      <trkpt lat="49.87932" lon="2.33477">
        <ele>31.7</ele>
        <time>2023-12-19T06:55:11Z</time>
      </trkpt>
      <trkpt lat="49.87931" lon="2.33478">
        <ele>31.7</ele>
        <time>2023-12-19T06:55:13Z</time>
      </trkpt>
      <trkpt lat="49.87931" lon="2.3348">
        <ele>31.6</ele>
        <time>2023-12-19T06:55:14Z</time>
      </trkpt>
      <trkpt lat="49.8793" lon="2.33481">
        <ele>31.6</ele>
        <time>2023-12-19T06:55:15Z</time>
      </trkpt>
      <trkpt lat="49.87929" lon="2.33483">
        <ele>31.6</ele>
        <time>2023-12-19T06:55:16Z</time>
      </trkpt>
      <trkpt lat="49.87929" lon="2.33484">
        <ele>31.6</ele>
        <time>2023-12-19T06:55:17Z</time>
      </trkpt>
      <trkpt lat="49.87928" lon="2.33485">
        <ele>31.5</ele>
        <time>2023-12-19T06:55:18Z</time>
      </trkpt>
      <trkpt lat="49.87928" lon="2.33487">
        <ele>31.5</ele>
        <time>2023-12-19T06:55:20Z</time>
      </trkpt>
      <trkpt lat="49.87928" lon="2.33489">
        <ele>31.5</ele>
        <time>2023-12-19T06:55:21Z</time>
      </trkpt>
      <trkpt lat="49.87928" lon="2.33491">
        <ele>31.5</ele>
        <time>2023-12-19T06:55:22Z</time>
      </trkpt>
      <trkpt lat="49.87928" lon="2.33493">
        <ele>31.4</ele>
        <time>2023-12-19T06:55:23Z</time>
      </trkpt>
      <trkpt lat="49.87928" lon="2.33494">
        <ele>31.4</ele>
        <time>2023-12-19T06:55:24Z</time>
      </trkpt>
      <trkpt lat="49.87928" lon="2.33496">
        <ele>31.4</ele>
        <time>2023-12-19T06:55:25Z</time>
      </trkpt>
      <trkpt lat="49.87928" lon="2.33497">
        <ele>31.4</ele>
        <time>2023-12-19T06:55:26Z</time>
      </trkpt>
      <trkpt lat="49.87929" lon="2.335">
        <ele>31.2</ele>
        <time>2023-12-19T06:55:27Z</time>
      </trkpt>
      <trkpt lat="49.87929" lon="2.33502">
        <ele>31.2</ele>
        <time>2023-12-19T06:55:28Z</time>
      </trkpt>
      <trkpt lat="49.8793" lon="2.33503">
        <ele>31.1</ele>
        <time>2023-12-19T06:55:29Z</time>
      </trkpt>
      <trkpt lat="49.8793" lon="2.33504">
        <ele>31</ele>
        <time>2023-12-19T06:55:31Z</time>
      </trkpt>
      <trkpt lat="49.87931" lon="2.33506">
        <ele>30.9</ele>
        <time>2023-12-19T06:55:32Z</time>
      </trkpt>
      <trkpt lat="49.87933" lon="2.33508">
        <ele>30.8</ele>
        <time>2023-12-19T06:55:33Z</time>
      </trkpt>
      <trkpt lat="49.87934" lon="2.33509">
        <ele>30.8</ele>
        <time>2023-12-19T06:55:34Z</time>
      </trkpt>
      <trkpt lat="49.87934" lon="2.3351">
        <ele>30.7</ele>
        <time>2023-12-19T06:55:35Z</time>
      </trkpt>
      <trkpt lat="49.87935" lon="2.33511">
        <ele>30.7</ele>
        <time>2023-12-19T06:55:36Z</time>
      </trkpt>
      <trkpt lat="49.87936" lon="2.33513">
        <ele>30.6</ele>
        <time>2023-12-19T06:55:38Z</time>
      </trkpt>
      <trkpt lat="49.87937" lon="2.33515">
        <ele>30.6</ele>
        <time>2023-12-19T06:55:39Z</time>
      </trkpt>
      <trkpt lat="49.87937" lon="2.33516">
        <ele>30.5</ele>
        <time>2023-12-19T06:55:40Z</time>
      </trkpt>
      <trkpt lat="49.87938" lon="2.33518">
        <ele>30.4</ele>
        <time>2023-12-19T06:55:41Z</time>
      </trkpt>
      <trkpt lat="49.87938" lon="2.33519">
        <ele>30.4</ele>
        <time>2023-12-19T06:55:42Z</time>
      </trkpt>
      <trkpt lat="49.87937" lon="2.33521">
        <ele>30.3</ele>
        <time>2023-12-19T06:55:43Z</time>
      </trkpt>
      <trkpt lat="49.87937" lon="2.33523">
        <ele>30.2</ele>
        <time>2023-12-19T06:55:44Z</time>
      </trkpt>
      <trkpt lat="49.87937" lon="2.33525">
        <ele>30.2</ele>
        <time>2023-12-19T06:55:45Z</time>
      </trkpt>
      <trkpt lat="49.87937" lon="2.33526">
        <ele>30.1</ele>
        <time>2023-12-19T06:55:47Z</time>
      </trkpt>
      <trkpt lat="49.87937" lon="2.33528">
        <ele>30</ele>
        <time>2023-12-19T06:55:48Z</time>
      </trkpt>
      <trkpt lat="49.87938" lon="2.33529">
        <ele>30</ele>
        <time>2023-12-19T06:55:49Z</time>
      </trkpt>
      <trkpt lat="49.87939" lon="2.33529">
        <ele>29.9</ele>
        <time>2023-12-19T06:55:50Z</time>
      </trkpt>
      <trkpt lat="49.8794" lon="2.3353">
        <ele>29.8</ele>
        <time>2023-12-19T06:55:51Z</time>
      </trkpt>
      <trkpt lat="49.87942" lon="2.3353">
        <ele>29.7</ele>
        <time>2023-12-19T06:55:52Z</time>
      </trkpt>
      <trkpt lat="49.87943" lon="2.3353">
        <ele>29.6</ele>
        <time>2023-12-19T06:55:53Z</time>
      </trkpt>
      <trkpt lat="49.87945" lon="2.3353">
        <ele>29.5</ele>
        <time>2023-12-19T06:55:55Z</time>
      </trkpt>
      <trkpt lat="49.87946" lon="2.3353">
        <ele>29.4</ele>
        <time>2023-12-19T06:55:56Z</time>
      </trkpt>
      <trkpt lat="49.87948" lon="2.3353">
        <ele>29.3</ele>
        <time>2023-12-19T06:55:57Z</time>
      </trkpt>
      <trkpt lat="49.87949" lon="2.3353">
        <ele>29.2</ele>
        <time>2023-12-19T06:55:58Z</time>
      </trkpt>
      <trkpt lat="49.87951" lon="2.3353">
        <ele>29.1</ele>
        <time>2023-12-19T06:55:59Z</time>
      </trkpt>
      <trkpt lat="49.87953" lon="2.33531">
        <ele>29</ele>
        <time>2023-12-19T06:56:00Z</time>
      </trkpt>
      <trkpt lat="49.87955" lon="2.33531">
        <ele>28.9</ele>
        <time>2023-12-19T06:56:01Z</time>
      </trkpt>
      <trkpt lat="49.87956" lon="2.33532">
        <ele>28.8</ele>
        <time>2023-12-19T06:56:02Z</time>
      </trkpt>
      <trkpt lat="49.87957" lon="2.33533">
        <ele>28.7</ele>
        <time>2023-12-19T06:56:03Z</time>
      </trkpt>
      <trkpt lat="49.87959" lon="2.33534">
        <ele>28.6</ele>
        <time>2023-12-19T06:56:05Z</time>
      </trkpt>
      <trkpt lat="49.8796" lon="2.33535">
        <ele>28.5</ele>
        <time>2023-12-19T06:56:06Z</time>
      </trkpt>
      <trkpt lat="49.87961" lon="2.33536">
        <ele>28.5</ele>
        <time>2023-12-19T06:56:07Z</time>
      </trkpt>
      <trkpt lat="49.87963" lon="2.33537">
        <ele>28.4</ele>
        <time>2023-12-19T06:56:08Z</time>
      </trkpt>
      <trkpt lat="49.87964" lon="2.33538">
        <ele>28.3</ele>
        <time>2023-12-19T06:56:09Z</time>
      </trkpt>
      <trkpt lat="49.87965" lon="2.33539">
        <ele>28.3</ele>
        <time>2023-12-19T06:56:10Z</time>
      </trkpt>
      <trkpt lat="49.87966" lon="2.3354">
        <ele>28.2</ele>
        <time>2023-12-19T06:56:11Z</time>
      </trkpt>
      <trkpt lat="49.87967" lon="2.3354">
        <ele>28.2</ele>
        <time>2023-12-19T06:56:13Z</time>
      </trkpt>
      <trkpt lat="49.87968" lon="2.33541">
        <ele>28.2</ele>
        <time>2023-12-19T06:56:14Z</time>
      </trkpt>
      <trkpt lat="49.87969" lon="2.33541">
        <ele>28.1</ele>
        <time>2023-12-19T06:56:15Z</time>
      </trkpt>
      <trkpt lat="49.8797" lon="2.33542">
        <ele>28.1</ele>
        <time>2023-12-19T06:56:16Z</time>
      </trkpt>
      <trkpt lat="49.87971" lon="2.33542">
        <ele>28</ele>
        <time>2023-12-19T06:56:17Z</time>
      </trkpt>
      <trkpt lat="49.87972" lon="2.33543">
        <ele>28</ele>
        <time>2023-12-19T06:56:19Z</time>
      </trkpt>
      <trkpt lat="49.87972" lon="2.33543">
        <ele>28</ele>
        <time>2023-12-19T06:56:20Z</time>
      </trkpt>
      <trkpt lat="49.87973" lon="2.33544">
        <ele>27.9</ele>
        <time>2023-12-19T06:56:21Z</time>
      </trkpt>
      <trkpt lat="49.87974" lon="2.33544">
        <ele>27.9</ele>
        <time>2023-12-19T06:56:22Z</time>
      </trkpt>
      <trkpt lat="49.87975" lon="2.33544">
        <ele>27.9</ele>
        <time>2023-12-19T06:56:23Z</time>
      </trkpt>
      <trkpt lat="49.87976" lon="2.33544">
        <ele>27.8</ele>
        <time>2023-12-19T06:56:24Z</time>
      </trkpt>
      <trkpt lat="49.87977" lon="2.33545">
        <ele>27.8</ele>
        <time>2023-12-19T06:56:25Z</time>
      </trkpt>
      <trkpt lat="49.87978" lon="2.33545">
        <ele>27.8</ele>
        <time>2023-12-19T06:56:27Z</time>
      </trkpt>
      <trkpt lat="49.87979" lon="2.33544">
        <ele>27.7</ele>
        <time>2023-12-19T06:56:28Z</time>
      </trkpt>
      <trkpt lat="49.8798" lon="2.33544">
        <ele>27.7</ele>
        <time>2023-12-19T06:56:29Z</time>
      </trkpt>
      <trkpt lat="49.87981" lon="2.33544">
        <ele>27.6</ele>
        <time>2023-12-19T06:56:30Z</time>
      </trkpt>
      <trkpt lat="49.87983" lon="2.33544">
        <ele>27.6</ele>
        <time>2023-12-19T06:56:31Z</time>
      </trkpt>
      <trkpt lat="49.87984" lon="2.33544">
        <ele>27.6</ele>
        <time>2023-12-19T06:56:32Z</time>
      </trkpt>
      <trkpt lat="49.87986" lon="2.33543">
        <ele>27.5</ele>
        <time>2023-12-19T06:56:33Z</time>
      </trkpt>
      <trkpt lat="49.87987" lon="2.33543">
        <ele>27.5</ele>
        <time>2023-12-19T06:56:35Z</time>
      </trkpt>
      <trkpt lat="49.87988" lon="2.33543">
        <ele>27.5</ele>
        <time>2023-12-19T06:56:36Z</time>
      </trkpt>
      <trkpt lat="49.8799" lon="2.33543">
        <ele>27.4</ele>
        <time>2023-12-19T06:56:37Z</time>
      </trkpt>
      <trkpt lat="49.87991" lon="2.33543">
        <ele>27.4</ele>
        <time>2023-12-19T06:56:38Z</time>
      </trkpt>
      <trkpt lat="49.87991" lon="2.33543">
        <ele>27.3</ele>
        <time>2023-12-19T06:56:39Z</time>
      </trkpt>
      <trkpt lat="49.87993" lon="2.33543">
        <ele>27.3</ele>
        <time>2023-12-19T06:56:40Z</time>
      </trkpt>
      <trkpt lat="49.87994" lon="2.33543">
        <ele>27.3</ele>
        <time>2023-12-19T06:56:41Z</time>
      </trkpt>
      <trkpt lat="49.87996" lon="2.33543">
        <ele>27.2</ele>
        <time>2023-12-19T06:56:43Z</time>
      </trkpt>
      <trkpt lat="49.87997" lon="2.33543">
        <ele>27.2</ele>
        <time>2023-12-19T06:56:44Z</time>
      </trkpt>
      <trkpt lat="49.87999" lon="2.33542">
        <ele>27.2</ele>
        <time>2023-12-19T06:56:45Z</time>
      </trkpt>
      <trkpt lat="49.88" lon="2.33542">
        <ele>27.1</ele>
        <time>2023-12-19T06:56:46Z</time>
      </trkpt>
      <trkpt lat="49.88001" lon="2.33542">
        <ele>27.1</ele>
        <time>2023-12-19T06:56:47Z</time>
      </trkpt>
      <trkpt lat="49.88003" lon="2.33542">
        <ele>27.1</ele>
        <time>2023-12-19T06:56:48Z</time>
      </trkpt>
      <trkpt lat="49.88004" lon="2.33541">
        <ele>27.1</ele>
        <time>2023-12-19T06:56:49Z</time>
      </trkpt>
      <trkpt lat="49.88006" lon="2.33541">
        <ele>27</ele>
        <time>2023-12-19T06:56:51Z</time>
      </trkpt>
      <trkpt lat="49.88007" lon="2.33542">
        <ele>27</ele>
        <time>2023-12-19T06:56:52Z</time>
      </trkpt>
      <trkpt lat="49.88008" lon="2.33542">
        <ele>27</ele>
        <time>2023-12-19T06:56:53Z</time>
      </trkpt>
      <trkpt lat="49.8801" lon="2.33542">
        <ele>26.9</ele>
        <time>2023-12-19T06:56:54Z</time>
      </trkpt>
      <trkpt lat="49.88011" lon="2.33543">
        <ele>26.9</ele>
        <time>2023-12-19T06:56:55Z</time>
      </trkpt>
      <trkpt lat="49.88012" lon="2.33543">
        <ele>26.9</ele>
        <time>2023-12-19T06:56:56Z</time>
      </trkpt>
      <trkpt lat="49.88013" lon="2.33543">
        <ele>26.9</ele>
        <time>2023-12-19T06:56:58Z</time>
      </trkpt>
      <trkpt lat="49.88014" lon="2.33543">
        <ele>26.8</ele>
        <time>2023-12-19T06:56:59Z</time>
      </trkpt>
      <trkpt lat="49.88015" lon="2.33544">
        <ele>26.8</ele>
        <time>2023-12-19T06:57:00Z</time>
      </trkpt>
      <trkpt lat="49.88016" lon="2.33545">
        <ele>26.8</ele>
        <time>2023-12-19T06:57:01Z</time>
      </trkpt>
      <trkpt lat="49.88017" lon="2.33545">
        <ele>26.8</ele>
        <time>2023-12-19T06:57:02Z</time>
      </trkpt>
      <trkpt lat="49.88018" lon="2.33546">
        <ele>26.8</ele>
        <time>2023-12-19T06:57:03Z</time>
      </trkpt>
      <trkpt lat="49.88019" lon="2.33546">
        <ele>26.7</ele>
        <time>2023-12-19T06:57:04Z</time>
      </trkpt>
      <trkpt lat="49.88019" lon="2.33547">
        <ele>26.7</ele>
        <time>2023-12-19T06:57:06Z</time>
      </trkpt>
      <trkpt lat="49.8802" lon="2.33548">
        <ele>26.7</ele>
        <time>2023-12-19T06:57:07Z</time>
      </trkpt>
      <trkpt lat="49.88021" lon="2.33549">
        <ele>26.7</ele>
        <time>2023-12-19T06:57:08Z</time>
      </trkpt>
      <trkpt lat="49.88022" lon="2.33549">
        <ele>26.7</ele>
        <time>2023-12-19T06:57:09Z</time>
      </trkpt>
      <trkpt lat="49.88023" lon="2.3355">
        <ele>26.7</ele>
        <time>2023-12-19T06:57:10Z</time>
      </trkpt>
      <trkpt lat="49.88024" lon="2.33553">
        <ele>26.6</ele>
        <time>2023-12-19T06:57:11Z</time>
      </trkpt>
      <trkpt lat="49.88025" lon="2.33554">
        <ele>26.6</ele>
        <time>2023-12-19T06:57:12Z</time>
      </trkpt>
      <trkpt lat="49.88025" lon="2.33556">
        <ele>26.6</ele>
        <time>2023-12-19T06:57:14Z</time>
      </trkpt>
      <trkpt lat="49.88026" lon="2.33557">
        <ele>26.6</ele>
        <time>2023-12-19T06:57:15Z</time>
      </trkpt>
      <trkpt lat="49.88026" lon="2.33558">
        <ele>26.5</ele>
        <time>2023-12-19T06:57:16Z</time>
      </trkpt>
      <trkpt lat="49.88027" lon="2.3356">
        <ele>26.5</ele>
        <time>2023-12-19T06:57:17Z</time>
      </trkpt>
      <trkpt lat="49.88028" lon="2.33561">
        <ele>26.5</ele>
        <time>2023-12-19T06:57:18Z</time>
      </trkpt>
      <trkpt lat="49.88029" lon="2.33562">
        <ele>26.5</ele>
        <time>2023-12-19T06:57:19Z</time>
      </trkpt>
      <trkpt lat="49.88031" lon="2.33564">
        <ele>26.5</ele>
        <time>2023-12-19T06:57:20Z</time>
      </trkpt>
      <trkpt lat="49.88032" lon="2.33565">
        <ele>26.5</ele>
        <time>2023-12-19T06:57:22Z</time>
      </trkpt>
      <trkpt lat="49.88032" lon="2.33566">
        <ele>26.4</ele>
        <time>2023-12-19T06:57:23Z</time>
      </trkpt>
      <trkpt lat="49.88034" lon="2.33567">
        <ele>26.4</ele>
        <time>2023-12-19T06:57:24Z</time>
      </trkpt>
      <trkpt lat="49.88035" lon="2.33568">
        <ele>26.4</ele>
        <time>2023-12-19T06:57:25Z</time>
      </trkpt>
      <trkpt lat="49.88036" lon="2.33569">
        <ele>26.4</ele>
        <time>2023-12-19T06:57:26Z</time>
      </trkpt>
      <trkpt lat="49.88037" lon="2.3357">
        <ele>26.4</ele>
        <time>2023-12-19T06:57:27Z</time>
      </trkpt>
      <trkpt lat="49.88039" lon="2.33571">
        <ele>26.4</ele>
        <time>2023-12-19T06:57:28Z</time>
      </trkpt>
      <trkpt lat="49.8804" lon="2.33571">
        <ele>26.4</ele>
        <time>2023-12-19T06:57:30Z</time>
      </trkpt>
      <trkpt lat="49.88042" lon="2.33571">
        <ele>26.4</ele>
        <time>2023-12-19T06:57:31Z</time>
      </trkpt>
      <trkpt lat="49.88043" lon="2.33571">
        <ele>26.4</ele>
        <time>2023-12-19T06:57:32Z</time>
      </trkpt>
      <trkpt lat="49.88045" lon="2.33571">
        <ele>26.3</ele>
        <time>2023-12-19T06:57:33Z</time>
      </trkpt>
      <trkpt lat="49.88046" lon="2.33571">
        <ele>26.3</ele>
        <time>2023-12-19T06:57:34Z</time>
      </trkpt>
      <trkpt lat="49.88048" lon="2.33571">
        <ele>26.3</ele>
        <time>2023-12-19T06:57:35Z</time>
      </trkpt>
      <trkpt lat="49.88049" lon="2.33571">
        <ele>26.3</ele>
        <time>2023-12-19T06:57:36Z</time>
      </trkpt>
      <trkpt lat="49.88051" lon="2.3357">
        <ele>26.3</ele>
        <time>2023-12-19T06:57:38Z</time>
      </trkpt>
      <trkpt lat="49.88052" lon="2.3357">
        <ele>26.3</ele>
        <time>2023-12-19T06:57:39Z</time>
      </trkpt>
      <trkpt lat="49.88053" lon="2.33569">
        <ele>26.3</ele>
        <time>2023-12-19T06:57:40Z</time>
      </trkpt>
      <trkpt lat="49.88055" lon="2.3357">
        <ele>26.3</ele>
        <time>2023-12-19T06:57:41Z</time>
      </trkpt>
      <trkpt lat="49.88056" lon="2.3357">
        <ele>26.3</ele>
        <time>2023-12-19T06:57:42Z</time>
      </trkpt>
      <trkpt lat="49.88056" lon="2.3357">
        <ele>26.3</ele>
        <time>2023-12-19T06:57:43Z</time>
      </trkpt>
      <trkpt lat="49.88058" lon="2.3357">
        <ele>26.3</ele>
        <time>2023-12-19T06:57:44Z</time>
      </trkpt>
      <trkpt lat="49.88059" lon="2.3357">
        <ele>26.3</ele>
        <time>2023-12-19T06:57:46Z</time>
      </trkpt>
      <trkpt lat="49.8806" lon="2.33571">
        <ele>26.3</ele>
        <time>2023-12-19T06:57:47Z</time>
      </trkpt>
      <trkpt lat="49.88061" lon="2.33571">
        <ele>26.2</ele>
        <time>2023-12-19T06:57:48Z</time>
      </trkpt>
      <trkpt lat="49.88062" lon="2.33571">
        <ele>26.2</ele>
        <time>2023-12-19T06:57:49Z</time>
      </trkpt>
      <trkpt lat="49.88063" lon="2.33571">
        <ele>26.2</ele>
        <time>2023-12-19T06:57:50Z</time>
      </trkpt>
      <trkpt lat="49.88064" lon="2.33572">
        <ele>26.2</ele>
        <time>2023-12-19T06:57:51Z</time>
      </trkpt>
      <trkpt lat="49.88065" lon="2.33572">
        <ele>26.2</ele>
        <time>2023-12-19T06:57:52Z</time>
      </trkpt>
      <trkpt lat="49.88066" lon="2.33573">
        <ele>26.2</ele>
        <time>2023-12-19T06:57:53Z</time>
      </trkpt>
      <trkpt lat="49.88067" lon="2.33573">
        <ele>26.2</ele>
        <time>2023-12-19T06:57:55Z</time>
      </trkpt>
      <trkpt lat="49.88068" lon="2.33574">
        <ele>26.2</ele>
        <time>2023-12-19T06:57:56Z</time>
      </trkpt>
      <trkpt lat="49.88069" lon="2.33574">
        <ele>26.2</ele>
        <time>2023-12-19T06:57:57Z</time>
      </trkpt>
      <trkpt lat="49.8807" lon="2.33575">
        <ele>26.2</ele>
        <time>2023-12-19T06:57:58Z</time>
      </trkpt>
      <trkpt lat="49.88071" lon="2.33575">
        <ele>26.2</ele>
        <time>2023-12-19T06:57:59Z</time>
      </trkpt>
      <trkpt lat="49.88073" lon="2.33576">
        <ele>26.2</ele>
        <time>2023-12-19T06:58:00Z</time>
      </trkpt>
      <trkpt lat="49.88074" lon="2.33576">
        <ele>26.2</ele>
        <time>2023-12-19T06:58:02Z</time>
      </trkpt>
      <trkpt lat="49.88075" lon="2.33577">
        <ele>26.2</ele>
        <time>2023-12-19T06:58:03Z</time>
      </trkpt>
      <trkpt lat="49.88076" lon="2.33577">
        <ele>26.2</ele>
        <time>2023-12-19T06:58:04Z</time>
      </trkpt>
      <trkpt lat="49.88078" lon="2.33578">
        <ele>26.2</ele>
        <time>2023-12-19T06:58:05Z</time>
      </trkpt>
      <trkpt lat="49.88079" lon="2.33578">
        <ele>26.2</ele>
        <time>2023-12-19T06:58:06Z</time>
      </trkpt>
      <trkpt lat="49.8808" lon="2.33578">
        <ele>26.2</ele>
        <time>2023-12-19T06:58:07Z</time>
      </trkpt>
      <trkpt lat="49.88081" lon="2.33579">
        <ele>26.2</ele>
        <time>2023-12-19T06:58:09Z</time>
      </trkpt>
      <trkpt lat="49.88083" lon="2.33579">
        <ele>26.2</ele>
        <time>2023-12-19T06:58:10Z</time>
      </trkpt>
      <trkpt lat="49.88085" lon="2.33581">
        <ele>26.2</ele>
        <time>2023-12-19T06:58:11Z</time>
      </trkpt>
      <trkpt lat="49.88086" lon="2.33582">
        <ele>26.2</ele>
        <time>2023-12-19T06:58:12Z</time>
      </trkpt>
      <trkpt lat="49.88086" lon="2.33582">
        <ele>26.2</ele>
        <time>2023-12-19T06:58:13Z</time>
      </trkpt>
      <trkpt lat="49.88088" lon="2.33584">
        <ele>26.2</ele>
        <time>2023-12-19T06:58:14Z</time>
      </trkpt>
      <trkpt lat="49.88089" lon="2.33584">
        <ele>26.2</ele>
        <time>2023-12-19T06:58:15Z</time>
      </trkpt>
      <trkpt lat="49.88089" lon="2.33585">
        <ele>26.2</ele>
        <time>2023-12-19T06:58:16Z</time>
      </trkpt>
      <trkpt lat="49.88091" lon="2.33586">
        <ele>26.2</ele>
        <time>2023-12-19T06:58:17Z</time>
      </trkpt>
      <trkpt lat="49.88092" lon="2.33587">
        <ele>26.2</ele>
        <time>2023-12-19T06:58:19Z</time>
      </trkpt>
      <trkpt lat="49.88093" lon="2.33587">
        <ele>26.2</ele>
        <time>2023-12-19T06:58:20Z</time>
      </trkpt>
      <trkpt lat="49.88094" lon="2.33588">
        <ele>26.2</ele>
        <time>2023-12-19T06:58:21Z</time>
      </trkpt>
      <trkpt lat="49.88095" lon="2.33588">
        <ele>26.2</ele>
        <time>2023-12-19T06:58:22Z</time>
      </trkpt>
      <trkpt lat="49.88096" lon="2.33589">
        <ele>26.3</ele>
        <time>2023-12-19T06:58:23Z</time>
      </trkpt>
      <trkpt lat="49.88097" lon="2.3359">
        <ele>26.3</ele>
        <time>2023-12-19T06:58:25Z</time>
      </trkpt>
      <trkpt lat="49.88098" lon="2.33591">
        <ele>26.3</ele>
        <time>2023-12-19T06:58:26Z</time>
      </trkpt>
      <trkpt lat="49.88098" lon="2.33591">
        <ele>26.3</ele>
        <time>2023-12-19T06:58:27Z</time>
      </trkpt>
      <trkpt lat="49.88099" lon="2.33591">
        <ele>26.3</ele>
        <time>2023-12-19T06:58:28Z</time>
      </trkpt>
      <trkpt lat="49.88099" lon="2.33592">
        <ele>26.3</ele>
        <time>2023-12-19T06:58:29Z</time>
      </trkpt>
      <trkpt lat="49.881" lon="2.33592">
        <ele>26.3</ele>
        <time>2023-12-19T06:58:31Z</time>
      </trkpt>
      <trkpt lat="49.881" lon="2.33592">
        <ele>26.3</ele>
        <time>2023-12-19T06:58:32Z</time>
      </trkpt>
      <trkpt lat="49.88101" lon="2.33593">
        <ele>26.3</ele>
        <time>2023-12-19T06:58:33Z</time>
      </trkpt>
      <trkpt lat="49.88102" lon="2.33593">
        <ele>26.3</ele>
        <time>2023-12-19T06:58:34Z</time>
      </trkpt>
      <trkpt lat="49.88102" lon="2.33594">
        <ele>26.3</ele>
        <time>2023-12-19T06:58:35Z</time>
      </trkpt>
      <trkpt lat="49.88103" lon="2.33596">
        <ele>26.3</ele>
        <time>2023-12-19T06:58:37Z</time>
      </trkpt>
      <trkpt lat="49.88103" lon="2.33596">
        <ele>26.3</ele>
        <time>2023-12-19T06:58:38Z</time>
      </trkpt>
      <trkpt lat="49.88102" lon="2.33596">
        <ele>26.3</ele>
        <time>2023-12-19T06:58:39Z</time>
      </trkpt>
      <trkpt lat="49.88103" lon="2.33596">
        <ele>26.3</ele>
        <time>2023-12-19T06:58:40Z</time>
      </trkpt>
      <trkpt lat="49.88103" lon="2.33595">
        <ele>26.3</ele>
        <time>2023-12-19T06:58:41Z</time>
      </trkpt>
      <trkpt lat="49.88103" lon="2.33595">
        <ele>26.3</ele>
        <time>2023-12-19T06:58:42Z</time>
      </trkpt>
      <trkpt lat="49.88104" lon="2.33595">
        <ele>26.3</ele>
        <time>2023-12-19T06:58:43Z</time>
      </trkpt>
      <trkpt lat="49.88105" lon="2.33595">
        <ele>26.3</ele>
        <time>2023-12-19T06:58:45Z</time>
      </trkpt>
      <trkpt lat="49.88107" lon="2.33595">
        <ele>26.3</ele>
        <time>2023-12-19T06:58:46Z</time>
      </trkpt>
      <trkpt lat="49.88109" lon="2.33595">
        <ele>26.3</ele>
        <time>2023-12-19T06:58:47Z</time>
      </trkpt>
      <trkpt lat="49.8811" lon="2.33595">
        <ele>26.3</ele>
        <time>2023-12-19T06:58:48Z</time>
      </trkpt>
      <trkpt lat="49.88111" lon="2.33595">
        <ele>26.3</ele>
        <time>2023-12-19T06:58:49Z</time>
      </trkpt>
      <trkpt lat="49.88113" lon="2.33595">
        <ele>26.3</ele>
        <time>2023-12-19T06:58:50Z</time>
      </trkpt>
      <trkpt lat="49.88115" lon="2.33595">
        <ele>26.4</ele>
        <time>2023-12-19T06:58:52Z</time>
      </trkpt>
      <trkpt lat="49.88118" lon="2.33595">
        <ele>26.4</ele>
        <time>2023-12-19T06:58:53Z</time>
      </trkpt>
      <trkpt lat="49.88119" lon="2.33595">
        <ele>26.4</ele>
        <time>2023-12-19T06:58:54Z</time>
      </trkpt>
      <trkpt lat="49.8812" lon="2.33595">
        <ele>26.4</ele>
        <time>2023-12-19T06:58:55Z</time>
      </trkpt>
      <trkpt lat="49.88122" lon="2.33596">
        <ele>26.4</ele>
        <time>2023-12-19T06:58:56Z</time>
      </trkpt>
      <trkpt lat="49.88123" lon="2.33597">
        <ele>26.4</ele>
        <time>2023-12-19T06:58:57Z</time>
      </trkpt>
      <trkpt lat="49.88125" lon="2.33597">
        <ele>26.4</ele>
        <time>2023-12-19T06:58:58Z</time>
      </trkpt>
      <trkpt lat="49.88127" lon="2.33597">
        <ele>26.5</ele>
        <time>2023-12-19T06:59:00Z</time>
      </trkpt>
      <trkpt lat="49.88128" lon="2.33597">
        <ele>26.5</ele>
        <time>2023-12-19T06:59:01Z</time>
      </trkpt>
      <trkpt lat="49.88129" lon="2.33597">
        <ele>26.5</ele>
        <time>2023-12-19T06:59:02Z</time>
      </trkpt>
      <trkpt lat="49.88131" lon="2.33598">
        <ele>26.5</ele>
        <time>2023-12-19T06:59:03Z</time>
      </trkpt>
      <trkpt lat="49.88132" lon="2.33598">
        <ele>26.5</ele>
        <time>2023-12-19T06:59:04Z</time>
      </trkpt>
      <trkpt lat="49.88133" lon="2.33598">
        <ele>26.5</ele>
        <time>2023-12-19T06:59:05Z</time>
      </trkpt>
      <trkpt lat="49.88135" lon="2.33599">
        <ele>26.5</ele>
        <time>2023-12-19T06:59:07Z</time>
      </trkpt>
      <trkpt lat="49.88136" lon="2.33599">
        <ele>26.5</ele>
        <time>2023-12-19T06:59:08Z</time>
      </trkpt>
      <trkpt lat="49.88138" lon="2.336">
        <ele>26.6</ele>
        <time>2023-12-19T06:59:09Z</time>
      </trkpt>
      <trkpt lat="49.8814" lon="2.336">
        <ele>26.6</ele>
        <time>2023-12-19T06:59:10Z</time>
      </trkpt>
      <trkpt lat="49.88141" lon="2.33601">
        <ele>26.6</ele>
        <time>2023-12-19T06:59:11Z</time>
      </trkpt>
      <trkpt lat="49.88143" lon="2.33601">
        <ele>26.6</ele>
        <time>2023-12-19T06:59:12Z</time>
      </trkpt>
      <trkpt lat="49.88144" lon="2.33601">
        <ele>26.6</ele>
        <time>2023-12-19T06:59:13Z</time>
      </trkpt>
      <trkpt lat="49.88146" lon="2.33602">
        <ele>26.6</ele>
        <time>2023-12-19T06:59:15Z</time>
      </trkpt>
      <trkpt lat="49.88148" lon="2.33602">
        <ele>26.6</ele>
        <time>2023-12-19T06:59:16Z</time>
      </trkpt>
      <trkpt lat="49.88149" lon="2.33603">
        <ele>26.7</ele>
        <time>2023-12-19T06:59:17Z</time>
      </trkpt>
      <trkpt lat="49.8815" lon="2.33603">
        <ele>26.7</ele>
        <time>2023-12-19T06:59:18Z</time>
      </trkpt>
      <trkpt lat="49.88152" lon="2.33603">
        <ele>26.7</ele>
        <time>2023-12-19T06:59:19Z</time>
      </trkpt>
      <trkpt lat="49.88153" lon="2.33603">
        <ele>26.7</ele>
        <time>2023-12-19T06:59:20Z</time>
      </trkpt>
      <trkpt lat="49.88155" lon="2.33602">
        <ele>26.7</ele>
        <time>2023-12-19T06:59:22Z</time>
      </trkpt>
      <trkpt lat="49.88157" lon="2.33602">
        <ele>26.7</ele>
        <time>2023-12-19T06:59:23Z</time>
      </trkpt>
      <trkpt lat="49.88158" lon="2.33601">
        <ele>26.7</ele>
        <time>2023-12-19T06:59:24Z</time>
      </trkpt>
      <trkpt lat="49.88159" lon="2.33601">
        <ele>26.7</ele>
        <time>2023-12-19T06:59:25Z</time>
      </trkpt>
      <trkpt lat="49.88161" lon="2.336">
        <ele>26.7</ele>
        <time>2023-12-19T06:59:26Z</time>
      </trkpt>
      <trkpt lat="49.88162" lon="2.33598">
        <ele>26.7</ele>
        <time>2023-12-19T06:59:27Z</time>
      </trkpt>
      <trkpt lat="49.88163" lon="2.33597">
        <ele>26.7</ele>
        <time>2023-12-19T06:59:28Z</time>
      </trkpt>
      <trkpt lat="49.88165" lon="2.33595">
        <ele>26.7</ele>
        <time>2023-12-19T06:59:30Z</time>
      </trkpt>
      <trkpt lat="49.88166" lon="2.33594">
        <ele>26.7</ele>
        <time>2023-12-19T06:59:31Z</time>
      </trkpt>
      <trkpt lat="49.88167" lon="2.33592">
        <ele>26.7</ele>
        <time>2023-12-19T06:59:32Z</time>
      </trkpt>
      <trkpt lat="49.88168" lon="2.3359">
        <ele>26.7</ele>
        <time>2023-12-19T06:59:33Z</time>
      </trkpt>
      <trkpt lat="49.8817" lon="2.33587">
        <ele>26.7</ele>
        <time>2023-12-19T06:59:34Z</time>
      </trkpt>
      <trkpt lat="49.88171" lon="2.33587">
        <ele>26.7</ele>
        <time>2023-12-19T06:59:35Z</time>
      </trkpt>
      <trkpt lat="49.88172" lon="2.33585">
        <ele>26.7</ele>
        <time>2023-12-19T06:59:36Z</time>
      </trkpt>
      <trkpt lat="49.88173" lon="2.33582">
        <ele>26.7</ele>
        <time>2023-12-19T06:59:38Z</time>
      </trkpt>
      <trkpt lat="49.88174" lon="2.3358">
        <ele>26.7</ele>
        <time>2023-12-19T06:59:39Z</time>
      </trkpt>
      <trkpt lat="49.88175" lon="2.33578">
        <ele>26.7</ele>
        <time>2023-12-19T06:59:40Z</time>
      </trkpt>
      <trkpt lat="49.88175" lon="2.33576">
        <ele>26.7</ele>
        <time>2023-12-19T06:59:41Z</time>
      </trkpt>
      <trkpt lat="49.88176" lon="2.33573">
        <ele>26.7</ele>
        <time>2023-12-19T06:59:42Z</time>
      </trkpt>
      <trkpt lat="49.88177" lon="2.33571">
        <ele>26.7</ele>
        <time>2023-12-19T06:59:43Z</time>
      </trkpt>
      <trkpt lat="49.88177" lon="2.33569">
        <ele>26.7</ele>
        <time>2023-12-19T06:59:44Z</time>
      </trkpt>
      <trkpt lat="49.88178" lon="2.33567">
        <ele>26.7</ele>
        <time>2023-12-19T06:59:46Z</time>
      </trkpt>
      <trkpt lat="49.88179" lon="2.33566">
        <ele>26.7</ele>
        <time>2023-12-19T06:59:47Z</time>
      </trkpt>
      <trkpt lat="49.8818" lon="2.33564">
        <ele>26.7</ele>
        <time>2023-12-19T06:59:48Z</time>
      </trkpt>
      <trkpt lat="49.88181" lon="2.33562">
        <ele>26.7</ele>
        <time>2023-12-19T06:59:49Z</time>
      </trkpt>
      <trkpt lat="49.88181" lon="2.33561">
        <ele>26.7</ele>
        <time>2023-12-19T06:59:50Z</time>
      </trkpt>
      <trkpt lat="49.88182" lon="2.33559">
        <ele>26.7</ele>
        <time>2023-12-19T06:59:51Z</time>
      </trkpt>
      <trkpt lat="49.88183" lon="2.33557">
        <ele>26.7</ele>
        <time>2023-12-19T06:59:52Z</time>
      </trkpt>
      <trkpt lat="49.88184" lon="2.33556">
        <ele>26.7</ele>
        <time>2023-12-19T06:59:53Z</time>
      </trkpt>
      <trkpt lat="49.88185" lon="2.33554">
        <ele>26.7</ele>
        <time>2023-12-19T06:59:55Z</time>
      </trkpt>
      <trkpt lat="49.88186" lon="2.33552">
        <ele>26.7</ele>
        <time>2023-12-19T06:59:56Z</time>
      </trkpt>
      <trkpt lat="49.88187" lon="2.3355">
        <ele>26.7</ele>
        <time>2023-12-19T06:59:57Z</time>
      </trkpt>
      <trkpt lat="49.88187" lon="2.33549">
        <ele>26.7</ele>
        <time>2023-12-19T06:59:58Z</time>
      </trkpt>
      <trkpt lat="49.88188" lon="2.33548">
        <ele>26.7</ele>
        <time>2023-12-19T06:59:59Z</time>
      </trkpt>
      <trkpt lat="49.88189" lon="2.33546">
        <ele>26.7</ele>
        <time>2023-12-19T07:00:00Z</time>
      </trkpt>
      <trkpt lat="49.8819" lon="2.33545">
        <ele>26.7</ele>
        <time>2023-12-19T07:00:01Z</time>
      </trkpt>
      <trkpt lat="49.88191" lon="2.33544">
        <ele>26.7</ele>
        <time>2023-12-19T07:00:03Z</time>
      </trkpt>
      <trkpt lat="49.88191" lon="2.33543">
        <ele>26.7</ele>
        <time>2023-12-19T07:00:04Z</time>
      </trkpt>
      <trkpt lat="49.88192" lon="2.33541">
        <ele>26.7</ele>
        <time>2023-12-19T07:00:05Z</time>
      </trkpt>
      <trkpt lat="49.88193" lon="2.3354">
        <ele>26.7</ele>
        <time>2023-12-19T07:00:06Z</time>
      </trkpt>
      <trkpt lat="49.88194" lon="2.33539">
        <ele>26.7</ele>
        <time>2023-12-19T07:00:07Z</time>
      </trkpt>
      <trkpt lat="49.88195" lon="2.33538">
        <ele>26.7</ele>
        <time>2023-12-19T07:00:08Z</time>
      </trkpt>
      <trkpt lat="49.88196" lon="2.33538">
        <ele>26.7</ele>
        <time>2023-12-19T07:00:09Z</time>
      </trkpt>
      <trkpt lat="49.88198" lon="2.33537">
        <ele>26.7</ele>
        <time>2023-12-19T07:00:10Z</time>
      </trkpt>
      <trkpt lat="49.88199" lon="2.33536">
        <ele>26.7</ele>
        <time>2023-12-19T07:00:12Z</time>
      </trkpt>
      <trkpt lat="49.882" lon="2.33536">
        <ele>26.7</ele>
        <time>2023-12-19T07:00:13Z</time>
      </trkpt>
      <trkpt lat="49.88202" lon="2.33537">
        <ele>26.7</ele>
        <time>2023-12-19T07:00:14Z</time>
      </trkpt>
      <trkpt lat="49.88203" lon="2.33537">
        <ele>26.7</ele>
        <time>2023-12-19T07:00:15Z</time>
      </trkpt>
      <trkpt lat="49.88203" lon="2.33537">
        <ele>26.7</ele>
        <time>2023-12-19T07:00:16Z</time>
      </trkpt>
      <trkpt lat="49.88205" lon="2.33538">
        <ele>26.7</ele>
        <time>2023-12-19T07:00:17Z</time>
      </trkpt>
      <trkpt lat="49.88206" lon="2.33539">
        <ele>26.7</ele>
        <time>2023-12-19T07:00:18Z</time>
      </trkpt>
      <trkpt lat="49.88207" lon="2.33539">
        <ele>26.7</ele>
        <time>2023-12-19T07:00:19Z</time>
      </trkpt>
      <trkpt lat="49.88209" lon="2.33541">
        <ele>26.7</ele>
        <time>2023-12-19T07:00:21Z</time>
      </trkpt>
      <trkpt lat="49.88209" lon="2.33542">
        <ele>26.7</ele>
        <time>2023-12-19T07:00:22Z</time>
      </trkpt>
      <trkpt lat="49.8821" lon="2.33542">
        <ele>26.7</ele>
        <time>2023-12-19T07:00:23Z</time>
      </trkpt>
      <trkpt lat="49.88211" lon="2.33543">
        <ele>26.7</ele>
        <time>2023-12-19T07:00:24Z</time>
      </trkpt>
      <trkpt lat="49.88212" lon="2.33544">
        <ele>26.7</ele>
        <time>2023-12-19T07:00:25Z</time>
      </trkpt>
      <trkpt lat="49.88213" lon="2.33545">
        <ele>26.7</ele>
        <time>2023-12-19T07:00:26Z</time>
      </trkpt>
      <trkpt lat="49.88215" lon="2.33546">
        <ele>26.7</ele>
        <time>2023-12-19T07:00:27Z</time>
      </trkpt>
      <trkpt lat="49.88216" lon="2.33546">
        <ele>26.7</ele>
        <time>2023-12-19T07:00:29Z</time>
      </trkpt>
      <trkpt lat="49.88216" lon="2.33547">
        <ele>26.7</ele>
        <time>2023-12-19T07:00:30Z</time>
      </trkpt>
      <trkpt lat="49.88218" lon="2.33547">
        <ele>26.7</ele>
        <time>2023-12-19T07:00:31Z</time>
      </trkpt>
      <trkpt lat="49.88219" lon="2.33548">
        <ele>26.7</ele>
        <time>2023-12-19T07:00:32Z</time>
      </trkpt>
      <trkpt lat="49.8822" lon="2.33548">
        <ele>26.7</ele>
        <time>2023-12-19T07:00:33Z</time>
      </trkpt>
      <trkpt lat="49.88221" lon="2.33548">
        <ele>26.7</ele>
        <time>2023-12-19T07:00:34Z</time>
      </trkpt>
      <trkpt lat="49.88222" lon="2.33549">
        <ele>26.7</ele>
        <time>2023-12-19T07:00:35Z</time>
      </trkpt>
      <trkpt lat="49.88223" lon="2.33549">
        <ele>26.7</ele>
        <time>2023-12-19T07:00:36Z</time>
      </trkpt>
      <trkpt lat="49.88224" lon="2.3355">
        <ele>26.7</ele>
        <time>2023-12-19T07:00:38Z</time>
      </trkpt>
      <trkpt lat="49.88225" lon="2.3355">
        <ele>26.7</ele>
        <time>2023-12-19T07:00:39Z</time>
      </trkpt>
      <trkpt lat="49.88225" lon="2.33551">
        <ele>26.7</ele>
        <time>2023-12-19T07:00:40Z</time>
      </trkpt>
      <trkpt lat="49.88225" lon="2.33551">
        <ele>26.7</ele>
        <time>2023-12-19T07:00:41Z</time>
      </trkpt>
      <trkpt lat="49.88226" lon="2.33551">
        <ele>26.7</ele>
        <time>2023-12-19T07:00:42Z</time>
      </trkpt>
      <trkpt lat="49.88226" lon="2.33552">
        <ele>26.7</ele>
        <time>2023-12-19T07:00:43Z</time>
      </trkpt>
      <trkpt lat="49.88227" lon="2.33552">
        <ele>26.7</ele>
        <time>2023-12-19T07:00:45Z</time>
      </trkpt>
      <trkpt lat="49.88227" lon="2.33552">
        <ele>26.7</ele>
        <time>2023-12-19T07:00:46Z</time>
      </trkpt>
      <trkpt lat="49.88228" lon="2.33554">
        <ele>26.7</ele>
        <time>2023-12-19T07:00:47Z</time>
      </trkpt>
      <trkpt lat="49.88227" lon="2.33557">
        <ele>26.7</ele>
        <time>2023-12-19T07:00:48Z</time>
      </trkpt>
      <trkpt lat="49.88227" lon="2.33559">
        <ele>26.7</ele>
        <time>2023-12-19T07:00:49Z</time>
      </trkpt>
      <trkpt lat="49.88227" lon="2.33561">
        <ele>26.7</ele>
        <time>2023-12-19T07:00:50Z</time>
      </trkpt>
      <trkpt lat="49.88227" lon="2.33564">
        <ele>26.7</ele>
        <time>2023-12-19T07:00:51Z</time>
      </trkpt>
      <trkpt lat="49.88228" lon="2.33566">
        <ele>26.7</ele>
        <time>2023-12-19T07:00:52Z</time>
      </trkpt>
      <trkpt lat="49.88229" lon="2.33568">
        <ele>26.7</ele>
        <time>2023-12-19T07:00:54Z</time>
      </trkpt>
      <trkpt lat="49.8823" lon="2.33569">
        <ele>26.7</ele>
        <time>2023-12-19T07:00:55Z</time>
      </trkpt>
      <trkpt lat="49.88231" lon="2.33569">
        <ele>26.7</ele>
        <time>2023-12-19T07:00:56Z</time>
      </trkpt>
      <trkpt lat="49.88232" lon="2.33568">
        <ele>26.7</ele>
        <time>2023-12-19T07:00:57Z</time>
      </trkpt>
      <trkpt lat="49.88233" lon="2.33567">
        <ele>26.7</ele>
        <time>2023-12-19T07:00:58Z</time>
      </trkpt>
      <trkpt lat="49.88234" lon="2.33566">
        <ele>26.7</ele>
        <time>2023-12-19T07:00:59Z</time>
      </trkpt>
      <trkpt lat="49.88235" lon="2.33565">
        <ele>26.7</ele>
        <time>2023-12-19T07:01:01Z</time>
      </trkpt>
      <trkpt lat="49.88236" lon="2.33564">
        <ele>26.7</ele>
        <time>2023-12-19T07:01:02Z</time>
      </trkpt>
      <trkpt lat="49.88237" lon="2.33563">
        <ele>26.7</ele>
        <time>2023-12-19T07:01:03Z</time>
      </trkpt>
      <trkpt lat="49.88237" lon="2.33561">
        <ele>26.8</ele>
        <time>2023-12-19T07:01:04Z</time>
      </trkpt>
      <trkpt lat="49.88237" lon="2.3356">
        <ele>26.8</ele>
        <time>2023-12-19T07:01:05Z</time>
      </trkpt>
      <trkpt lat="49.88238" lon="2.33557">
        <ele>26.8</ele>
        <time>2023-12-19T07:01:06Z</time>
      </trkpt>
      <trkpt lat="49.88238" lon="2.33556">
        <ele>26.8</ele>
        <time>2023-12-19T07:01:07Z</time>
      </trkpt>
      <trkpt lat="49.88239" lon="2.33554">
        <ele>26.8</ele>
        <time>2023-12-19T07:01:09Z</time>
      </trkpt>
      <trkpt lat="49.88239" lon="2.33553">
        <ele>26.8</ele>
        <time>2023-12-19T07:01:10Z</time>
      </trkpt>
      <trkpt lat="49.8824" lon="2.33551">
        <ele>26.8</ele>
        <time>2023-12-19T07:01:11Z</time>
      </trkpt>
      <trkpt lat="49.8824" lon="2.3355">
        <ele>26.8</ele>
        <time>2023-12-19T07:01:12Z</time>
      </trkpt>
      <trkpt lat="49.88241" lon="2.33547">
        <ele>26.9</ele>
        <time>2023-12-19T07:01:13Z</time>
      </trkpt>
      <trkpt lat="49.88241" lon="2.33546">
        <ele>26.9</ele>
        <time>2023-12-19T07:01:14Z</time>
      </trkpt>
      <trkpt lat="49.88242" lon="2.33544">
        <ele>26.9</ele>
        <time>2023-12-19T07:01:15Z</time>
      </trkpt>
      <trkpt lat="49.88243" lon="2.33542">
        <ele>26.9</ele>
        <time>2023-12-19T07:01:17Z</time>
      </trkpt>
      <trkpt lat="49.88244" lon="2.33541">
        <ele>26.9</ele>
        <time>2023-12-19T07:01:18Z</time>
      </trkpt>
      <trkpt lat="49.88244" lon="2.3354">
        <ele>26.9</ele>
        <time>2023-12-19T07:01:19Z</time>
      </trkpt>
      <trkpt lat="49.88245" lon="2.33539">
        <ele>26.9</ele>
        <time>2023-12-19T07:01:20Z</time>
      </trkpt>
      <trkpt lat="49.88246" lon="2.33538">
        <ele>26.9</ele>
        <time>2023-12-19T07:01:21Z</time>
      </trkpt>
      <trkpt lat="49.88247" lon="2.33537">
        <ele>27</ele>
        <time>2023-12-19T07:01:22Z</time>
      </trkpt>
      <trkpt lat="49.88248" lon="2.33536">
        <ele>27</ele>
        <time>2023-12-19T07:01:23Z</time>
      </trkpt>
      <trkpt lat="49.88249" lon="2.33534">
        <ele>27</ele>
        <time>2023-12-19T07:01:24Z</time>
      </trkpt>
      <trkpt lat="49.88249" lon="2.33533">
        <ele>27</ele>
        <time>2023-12-19T07:01:25Z</time>
      </trkpt>
      <trkpt lat="49.8825" lon="2.33532">
        <ele>27</ele>
        <time>2023-12-19T07:01:27Z</time>
      </trkpt>
      <trkpt lat="49.88251" lon="2.33531">
        <ele>27</ele>
        <time>2023-12-19T07:01:28Z</time>
      </trkpt>
      <trkpt lat="49.88252" lon="2.3353">
        <ele>27</ele>
        <time>2023-12-19T07:01:29Z</time>
      </trkpt>
      <trkpt lat="49.88252" lon="2.33529">
        <ele>27</ele>
        <time>2023-12-19T07:01:30Z</time>
      </trkpt>
      <trkpt lat="49.88253" lon="2.33528">
        <ele>27.1</ele>
        <time>2023-12-19T07:01:31Z</time>
      </trkpt>
      <trkpt lat="49.88253" lon="2.33527">
        <ele>27.1</ele>
        <time>2023-12-19T07:01:32Z</time>
      </trkpt>
      <trkpt lat="49.88254" lon="2.33526">
        <ele>27.1</ele>
        <time>2023-12-19T07:01:34Z</time>
      </trkpt>
      <trkpt lat="49.88255" lon="2.33525">
        <ele>27.1</ele>
        <time>2023-12-19T07:01:35Z</time>
      </trkpt>
      <trkpt lat="49.88256" lon="2.33525">
        <ele>27.1</ele>
        <time>2023-12-19T07:01:36Z</time>
      </trkpt>
      <trkpt lat="49.88256" lon="2.33526">
        <ele>27.1</ele>
        <time>2023-12-19T07:01:37Z</time>
      </trkpt>
      <trkpt lat="49.88257" lon="2.33527">
        <ele>27.1</ele>
        <time>2023-12-19T07:01:38Z</time>
      </trkpt>
      <trkpt lat="49.88258" lon="2.33528">
        <ele>27.1</ele>
        <time>2023-12-19T07:01:39Z</time>
      </trkpt>
      <trkpt lat="49.88259" lon="2.33529">
        <ele>27.1</ele>
        <time>2023-12-19T07:01:40Z</time>
      </trkpt>
      <trkpt lat="49.88259" lon="2.33531">
        <ele>27.1</ele>
        <time>2023-12-19T07:01:42Z</time>
      </trkpt>
      <trkpt lat="49.88261" lon="2.33533">
        <ele>27.2</ele>
        <time>2023-12-19T07:01:43Z</time>
      </trkpt>
      <trkpt lat="49.88262" lon="2.33535">
        <ele>27.2</ele>
        <time>2023-12-19T07:01:44Z</time>
      </trkpt>
      <trkpt lat="49.88264" lon="2.33538">
        <ele>27.2</ele>
        <time>2023-12-19T07:01:45Z</time>
      </trkpt>
      <trkpt lat="49.88264" lon="2.33539">
        <ele>27.2</ele>
        <time>2023-12-19T07:01:46Z</time>
      </trkpt>
      <trkpt lat="49.88267" lon="2.33542">
        <ele>27.2</ele>
        <time>2023-12-19T07:01:47Z</time>
      </trkpt>
      <trkpt lat="49.88267" lon="2.33543">
        <ele>27.2</ele>
        <time>2023-12-19T07:01:48Z</time>
      </trkpt>
      <trkpt lat="49.8827" lon="2.33545">
        <ele>27.2</ele>
        <time>2023-12-19T07:01:50Z</time>
      </trkpt>
      <trkpt lat="49.88271" lon="2.33546">
        <ele>27.3</ele>
        <time>2023-12-19T07:01:51Z</time>
      </trkpt>
      <trkpt lat="49.88274" lon="2.33549">
        <ele>27.3</ele>
        <time>2023-12-19T07:01:52Z</time>
      </trkpt>
      <trkpt lat="49.88275" lon="2.3355">
        <ele>27.3</ele>
        <time>2023-12-19T07:01:53Z</time>
      </trkpt>
      <trkpt lat="49.88278" lon="2.33554">
        <ele>27.3</ele>
        <time>2023-12-19T07:01:54Z</time>
      </trkpt>
      <trkpt lat="49.88279" lon="2.33555">
        <ele>27.3</ele>
        <time>2023-12-19T07:01:55Z</time>
      </trkpt>
      <trkpt lat="49.8828" lon="2.33557">
        <ele>27.3</ele>
        <time>2023-12-19T07:01:56Z</time>
      </trkpt>
      <trkpt lat="49.88281" lon="2.33558">
        <ele>27.3</ele>
        <time>2023-12-19T07:01:57Z</time>
      </trkpt>
      <trkpt lat="49.88283" lon="2.33558">
        <ele>27.3</ele>
        <time>2023-12-19T07:01:59Z</time>
      </trkpt>
      <trkpt lat="49.88285" lon="2.33557">
        <ele>27.3</ele>
        <time>2023-12-19T07:02:00Z</time>
      </trkpt>
      <trkpt lat="49.88286" lon="2.33557">
        <ele>27.3</ele>
        <time>2023-12-19T07:02:01Z</time>
      </trkpt>
      <trkpt lat="49.88287" lon="2.33556">
        <ele>27.3</ele>
        <time>2023-12-19T07:02:02Z</time>
      </trkpt>
      <trkpt lat="49.88289" lon="2.33555">
        <ele>27.3</ele>
        <time>2023-12-19T07:02:03Z</time>
      </trkpt>
      <trkpt lat="49.8829" lon="2.33554">
        <ele>27.3</ele>
        <time>2023-12-19T07:02:04Z</time>
      </trkpt>
      <trkpt lat="49.88291" lon="2.33554">
        <ele>27.2</ele>
        <time>2023-12-19T07:02:06Z</time>
      </trkpt>
      <trkpt lat="49.88293" lon="2.33553">
        <ele>27.2</ele>
        <time>2023-12-19T07:02:07Z</time>
      </trkpt>
      <trkpt lat="49.88294" lon="2.33553">
        <ele>27.2</ele>
        <time>2023-12-19T07:02:08Z</time>
      </trkpt>
      <trkpt lat="49.88295" lon="2.33553">
        <ele>27.2</ele>
        <time>2023-12-19T07:02:09Z</time>
      </trkpt>
      <trkpt lat="49.88296" lon="2.33552">
        <ele>27.2</ele>
        <time>2023-12-19T07:02:10Z</time>
      </trkpt>
      <trkpt lat="49.88297" lon="2.33552">
        <ele>27.2</ele>
        <time>2023-12-19T07:02:11Z</time>
      </trkpt>
      <trkpt lat="49.88298" lon="2.33551">
        <ele>27.2</ele>
        <time>2023-12-19T07:02:12Z</time>
      </trkpt>
      <trkpt lat="49.883" lon="2.33551">
        <ele>27.2</ele>
        <time>2023-12-19T07:02:13Z</time>
      </trkpt>
      <trkpt lat="49.88301" lon="2.33551">
        <ele>27.2</ele>
        <time>2023-12-19T07:02:14Z</time>
      </trkpt>
      <trkpt lat="49.88302" lon="2.3355">
        <ele>27.2</ele>
        <time>2023-12-19T07:02:16Z</time>
      </trkpt>
      <trkpt lat="49.88303" lon="2.3355">
        <ele>27.2</ele>
        <time>2023-12-19T07:02:17Z</time>
      </trkpt>
      <trkpt lat="49.88303" lon="2.33549">
        <ele>27.1</ele>
        <time>2023-12-19T07:02:18Z</time>
      </trkpt>
      <trkpt lat="49.88304" lon="2.33549">
        <ele>27.1</ele>
        <time>2023-12-19T07:02:19Z</time>
      </trkpt>
      <trkpt lat="49.88305" lon="2.33548">
        <ele>27.1</ele>
        <time>2023-12-19T07:02:20Z</time>
      </trkpt>
      <trkpt lat="49.88305" lon="2.33547">
        <ele>27.1</ele>
        <time>2023-12-19T07:02:21Z</time>
      </trkpt>
      <trkpt lat="49.88306" lon="2.33547">
        <ele>27.1</ele>
        <time>2023-12-19T07:02:22Z</time>
      </trkpt>
      <trkpt lat="49.88306" lon="2.33546">
        <ele>27.1</ele>
        <time>2023-12-19T07:02:24Z</time>
      </trkpt>
      <trkpt lat="49.88306" lon="2.33545">
        <ele>27.1</ele>
        <time>2023-12-19T07:02:25Z</time>
      </trkpt>
      <trkpt lat="49.88306" lon="2.33545">
        <ele>27.1</ele>
        <time>2023-12-19T07:02:26Z</time>
      </trkpt>
      <trkpt lat="49.88306" lon="2.33545">
        <ele>27.1</ele>
        <time>2023-12-19T07:02:27Z</time>
      </trkpt>
      <trkpt lat="49.88307" lon="2.33545">
        <ele>27.1</ele>
        <time>2023-12-19T07:02:28Z</time>
      </trkpt>
      <trkpt lat="49.88307" lon="2.33545">
        <ele>27.1</ele>
        <time>2023-12-19T07:02:29Z</time>
      </trkpt>
      <trkpt lat="49.88308" lon="2.33546">
        <ele>27.1</ele>
        <time>2023-12-19T07:02:30Z</time>
      </trkpt>
      <trkpt lat="49.88308" lon="2.33546">
        <ele>27.1</ele>
        <time>2023-12-19T07:02:31Z</time>
      </trkpt>
      <trkpt lat="49.88307" lon="2.33547">
        <ele>27.1</ele>
        <time>2023-12-19T07:02:33Z</time>
      </trkpt>
      <trkpt lat="49.88307" lon="2.33547">
        <ele>27.1</ele>
        <time>2023-12-19T07:02:34Z</time>
      </trkpt>
      <trkpt lat="49.88307" lon="2.33548">
        <ele>27.1</ele>
        <time>2023-12-19T07:02:35Z</time>
      </trkpt>
      <trkpt lat="49.88308" lon="2.33548">
        <ele>27.1</ele>
        <time>2023-12-19T07:02:36Z</time>
      </trkpt>
      <trkpt lat="49.88308" lon="2.33549">
        <ele>27.1</ele>
        <time>2023-12-19T07:02:37Z</time>
      </trkpt>
      <trkpt lat="49.88309" lon="2.33549">
        <ele>27.1</ele>
        <time>2023-12-19T07:02:38Z</time>
      </trkpt>
      <trkpt lat="49.8831" lon="2.3355">
        <ele>27.1</ele>
        <time>2023-12-19T07:02:39Z</time>
      </trkpt>
      <trkpt lat="49.8831" lon="2.33551">
        <ele>27.1</ele>
        <time>2023-12-19T07:02:41Z</time>
      </trkpt>
      <trkpt lat="49.88311" lon="2.33551">
        <ele>27.1</ele>
        <time>2023-12-19T07:02:42Z</time>
      </trkpt>
      <trkpt lat="49.88312" lon="2.33552">
        <ele>27.1</ele>
        <time>2023-12-19T07:02:43Z</time>
      </trkpt>
      <trkpt lat="49.88313" lon="2.33553">
        <ele>27.1</ele>
        <time>2023-12-19T07:02:44Z</time>
      </trkpt>
      <trkpt lat="49.88313" lon="2.33553">
        <ele>27.1</ele>
        <time>2023-12-19T07:02:45Z</time>
      </trkpt>
      <trkpt lat="49.88314" lon="2.33553">
        <ele>27.1</ele>
        <time>2023-12-19T07:02:46Z</time>
      </trkpt>
      <trkpt lat="49.88315" lon="2.33553">
        <ele>27.1</ele>
        <time>2023-12-19T07:02:47Z</time>
      </trkpt>
      <trkpt lat="49.88316" lon="2.33553">
        <ele>27.1</ele>
        <time>2023-12-19T07:02:48Z</time>
      </trkpt>
      <trkpt lat="49.88317" lon="2.33553">
        <ele>27.1</ele>
        <time>2023-12-19T07:02:50Z</time>
      </trkpt>
      <trkpt lat="49.88318" lon="2.33554">
        <ele>27.1</ele>
        <time>2023-12-19T07:02:51Z</time>
      </trkpt>
      <trkpt lat="49.88318" lon="2.33554">
        <ele>27.1</ele>
        <time>2023-12-19T07:02:52Z</time>
      </trkpt>
      <trkpt lat="49.88319" lon="2.33554">
        <ele>27.1</ele>
        <time>2023-12-19T07:02:53Z</time>
      </trkpt>
      <trkpt lat="49.8832" lon="2.33555">
        <ele>27.1</ele>
        <time>2023-12-19T07:02:54Z</time>
      </trkpt>
      <trkpt lat="49.88321" lon="2.33555">
        <ele>27.1</ele>
        <time>2023-12-19T07:02:55Z</time>
      </trkpt>
      <trkpt lat="49.88323" lon="2.33555">
        <ele>27.1</ele>
        <time>2023-12-19T07:02:56Z</time>
      </trkpt>
      <trkpt lat="49.88324" lon="2.33555">
        <ele>27.1</ele>
        <time>2023-12-19T07:02:58Z</time>
      </trkpt>
      <trkpt lat="49.88326" lon="2.33556">
        <ele>27.1</ele>
        <time>2023-12-19T07:02:59Z</time>
      </trkpt>
      <trkpt lat="49.88327" lon="2.33557">
        <ele>27.1</ele>
        <time>2023-12-19T07:03:00Z</time>
      </trkpt>
      <trkpt lat="49.88329" lon="2.33557">
        <ele>27.1</ele>
        <time>2023-12-19T07:03:01Z</time>
      </trkpt>
      <trkpt lat="49.88331" lon="2.33557">
        <ele>27.1</ele>
        <time>2023-12-19T07:03:02Z</time>
      </trkpt>
      <trkpt lat="49.88332" lon="2.33558">
        <ele>27.1</ele>
        <time>2023-12-19T07:03:03Z</time>
      </trkpt>
      <trkpt lat="49.88334" lon="2.33558">
        <ele>27.1</ele>
        <time>2023-12-19T07:03:04Z</time>
      </trkpt>
      <trkpt lat="49.88337" lon="2.33558">
        <ele>27.1</ele>
        <time>2023-12-19T07:03:06Z</time>
      </trkpt>
      <trkpt lat="49.88338" lon="2.33558">
        <ele>27.1</ele>
        <time>2023-12-19T07:03:07Z</time>
      </trkpt>
      <trkpt lat="49.88341" lon="2.33558">
        <ele>27.1</ele>
        <time>2023-12-19T07:03:08Z</time>
      </trkpt>
      <trkpt lat="49.88342" lon="2.33557">
        <ele>27.1</ele>
        <time>2023-12-19T07:03:09Z</time>
      </trkpt>
      <trkpt lat="49.88343" lon="2.33557">
        <ele>27.1</ele>
        <time>2023-12-19T07:03:10Z</time>
      </trkpt>
      <trkpt lat="49.88345" lon="2.33557">
        <ele>27</ele>
        <time>2023-12-19T07:03:11Z</time>
      </trkpt>
      <trkpt lat="49.88347" lon="2.33556">
        <ele>27</ele>
        <time>2023-12-19T07:03:12Z</time>
      </trkpt>
      <trkpt lat="49.88348" lon="2.33555">
        <ele>27</ele>
        <time>2023-12-19T07:03:13Z</time>
      </trkpt>
      <trkpt lat="49.8835" lon="2.33554">
        <ele>27</ele>
        <time>2023-12-19T07:03:15Z</time>
      </trkpt>
      <trkpt lat="49.88351" lon="2.33554">
        <ele>27</ele>
        <time>2023-12-19T07:03:16Z</time>
      </trkpt>
      <trkpt lat="49.88353" lon="2.33553">
        <ele>27</ele>
        <time>2023-12-19T07:03:17Z</time>
      </trkpt>
      <trkpt lat="49.88354" lon="2.33552">
        <ele>27</ele>
        <time>2023-12-19T07:03:18Z</time>
      </trkpt>
      <trkpt lat="49.88356" lon="2.33552">
        <ele>27</ele>
        <time>2023-12-19T07:03:19Z</time>
      </trkpt>
      <trkpt lat="49.88357" lon="2.33551">
        <ele>27</ele>
        <time>2023-12-19T07:03:20Z</time>
      </trkpt>
      <trkpt lat="49.88358" lon="2.3355">
        <ele>27</ele>
        <time>2023-12-19T07:03:21Z</time>
      </trkpt>
      <trkpt lat="49.8836" lon="2.3355">
        <ele>27</ele>
        <time>2023-12-19T07:03:23Z</time>
      </trkpt>
      <trkpt lat="49.88361" lon="2.33549">
        <ele>27</ele>
        <time>2023-12-19T07:03:24Z</time>
      </trkpt>
      <trkpt lat="49.88363" lon="2.33548">
        <ele>26.9</ele>
        <time>2023-12-19T07:03:25Z</time>
      </trkpt>
      <trkpt lat="49.88364" lon="2.33547">
        <ele>26.9</ele>
        <time>2023-12-19T07:03:26Z</time>
      </trkpt>
      <trkpt lat="49.88366" lon="2.33546">
        <ele>26.9</ele>
        <time>2023-12-19T07:03:27Z</time>
      </trkpt>
      <trkpt lat="49.88367" lon="2.33545">
        <ele>26.9</ele>
        <time>2023-12-19T07:03:28Z</time>
      </trkpt>
      <trkpt lat="49.88368" lon="2.33545">
        <ele>26.9</ele>
        <time>2023-12-19T07:03:29Z</time>
      </trkpt>
      <trkpt lat="49.8837" lon="2.33544">
        <ele>26.9</ele>
        <time>2023-12-19T07:03:30Z</time>
      </trkpt>
      <trkpt lat="49.88372" lon="2.33543">
        <ele>26.9</ele>
        <time>2023-12-19T07:03:32Z</time>
      </trkpt>
      <trkpt lat="49.88373" lon="2.33542">
        <ele>26.9</ele>
        <time>2023-12-19T07:03:33Z</time>
      </trkpt>
      <trkpt lat="49.88374" lon="2.33541">
        <ele>26.9</ele>
        <time>2023-12-19T07:03:34Z</time>
      </trkpt>
      <trkpt lat="49.88375" lon="2.3354">
        <ele>26.9</ele>
        <time>2023-12-19T07:03:35Z</time>
      </trkpt>
      <trkpt lat="49.88377" lon="2.33539">
        <ele>26.8</ele>
        <time>2023-12-19T07:03:36Z</time>
      </trkpt>
      <trkpt lat="49.88378" lon="2.33539">
        <ele>26.8</ele>
        <time>2023-12-19T07:03:37Z</time>
      </trkpt>
      <trkpt lat="49.88379" lon="2.33538">
        <ele>26.8</ele>
        <time>2023-12-19T07:03:38Z</time>
      </trkpt>
      <trkpt lat="49.88381" lon="2.33537">
        <ele>26.8</ele>
        <time>2023-12-19T07:03:40Z</time>
      </trkpt>
      <trkpt lat="49.88382" lon="2.33537">
        <ele>26.8</ele>
        <time>2023-12-19T07:03:41Z</time>
      </trkpt>
      <trkpt lat="49.88384" lon="2.33537">
        <ele>26.8</ele>
        <time>2023-12-19T07:03:42Z</time>
      </trkpt>
      <trkpt lat="49.88385" lon="2.33536">
        <ele>26.8</ele>
        <time>2023-12-19T07:03:43Z</time>
      </trkpt>
      <trkpt lat="49.88386" lon="2.33536">
        <ele>26.8</ele>
        <time>2023-12-19T07:03:44Z</time>
      </trkpt>
      <trkpt lat="49.88387" lon="2.33536">
        <ele>26.8</ele>
        <time>2023-12-19T07:03:45Z</time>
      </trkpt>
      <trkpt lat="49.88388" lon="2.33535">
        <ele>26.8</ele>
        <time>2023-12-19T07:03:46Z</time>
      </trkpt>
      <trkpt lat="49.8839" lon="2.33535">
        <ele>26.8</ele>
        <time>2023-12-19T07:03:47Z</time>
      </trkpt>
      <trkpt lat="49.88391" lon="2.33534">
        <ele>26.7</ele>
        <time>2023-12-19T07:03:48Z</time>
      </trkpt>
      <trkpt lat="49.88392" lon="2.33534">
        <ele>26.7</ele>
        <time>2023-12-19T07:03:50Z</time>
      </trkpt>
      <trkpt lat="49.88393" lon="2.33534">
        <ele>26.7</ele>
        <time>2023-12-19T07:03:51Z</time>
      </trkpt>
      <trkpt lat="49.88394" lon="2.33533">
        <ele>26.7</ele>
        <time>2023-12-19T07:03:52Z</time>
      </trkpt>
      <trkpt lat="49.88395" lon="2.33533">
        <ele>26.7</ele>
        <time>2023-12-19T07:03:53Z</time>
      </trkpt>
      <trkpt lat="49.88396" lon="2.33533">
        <ele>26.7</ele>
        <time>2023-12-19T07:03:54Z</time>
      </trkpt>
      <trkpt lat="49.88397" lon="2.33533">
        <ele>26.7</ele>
        <time>2023-12-19T07:03:55Z</time>
      </trkpt>
      <trkpt lat="49.88398" lon="2.33532">
        <ele>26.7</ele>
        <time>2023-12-19T07:03:56Z</time>
      </trkpt>
      <trkpt lat="49.88399" lon="2.33532">
        <ele>26.7</ele>
        <time>2023-12-19T07:03:58Z</time>
      </trkpt>
      <trkpt lat="49.884" lon="2.33532">
        <ele>26.7</ele>
        <time>2023-12-19T07:03:59Z</time>
      </trkpt>
      <trkpt lat="49.88401" lon="2.33533">
        <ele>26.7</ele>
        <time>2023-12-19T07:04:00Z</time>
      </trkpt>
      <trkpt lat="49.88401" lon="2.33534">
        <ele>26.7</ele>
        <time>2023-12-19T07:04:01Z</time>
      </trkpt>
      <trkpt lat="49.88403" lon="2.33535">
        <ele>26.7</ele>
        <time>2023-12-19T07:04:03Z</time>
      </trkpt>
      <trkpt lat="49.88403" lon="2.33537">
        <ele>26.7</ele>
        <time>2023-12-19T07:04:05Z</time>
      </trkpt>
      <trkpt lat="49.88403" lon="2.33538">
        <ele>26.7</ele>
        <time>2023-12-19T07:04:06Z</time>
      </trkpt>
      <trkpt lat="49.88403" lon="2.3354">
        <ele>26.7</ele>
        <time>2023-12-19T07:04:07Z</time>
      </trkpt>
      <trkpt lat="49.88402" lon="2.33541">
        <ele>26.7</ele>
        <time>2023-12-19T07:04:08Z</time>
      </trkpt>
      <trkpt lat="49.88403" lon="2.33542">
        <ele>26.7</ele>
        <time>2023-12-19T07:04:10Z</time>
      </trkpt>
      <trkpt lat="49.88403" lon="2.33542">
        <ele>26.7</ele>
        <time>2023-12-19T07:04:11Z</time>
      </trkpt>
      <trkpt lat="49.88403" lon="2.33543">
        <ele>26.7</ele>
        <time>2023-12-19T07:04:12Z</time>
      </trkpt>
      <trkpt lat="49.88404" lon="2.33544">
        <ele>26.7</ele>
        <time>2023-12-19T07:04:13Z</time>
      </trkpt>
      <trkpt lat="49.88405" lon="2.33545">
        <ele>26.7</ele>
        <time>2023-12-19T07:04:14Z</time>
      </trkpt>
      <trkpt lat="49.88407" lon="2.33545">
        <ele>26.7</ele>
        <time>2023-12-19T07:04:15Z</time>
      </trkpt>
      <trkpt lat="49.88408" lon="2.33545">
        <ele>26.7</ele>
        <time>2023-12-19T07:04:16Z</time>
      </trkpt>
      <trkpt lat="49.8841" lon="2.33544">
        <ele>26.7</ele>
        <time>2023-12-19T07:04:18Z</time>
      </trkpt>
      <trkpt lat="49.88411" lon="2.33544">
        <ele>26.7</ele>
        <time>2023-12-19T07:04:19Z</time>
      </trkpt>
      <trkpt lat="49.88412" lon="2.33544">
        <ele>26.7</ele>
        <time>2023-12-19T07:04:20Z</time>
      </trkpt>
      <trkpt lat="49.88414" lon="2.33543">
        <ele>26.7</ele>
        <time>2023-12-19T07:04:21Z</time>
      </trkpt>
      <trkpt lat="49.88415" lon="2.33542">
        <ele>26.7</ele>
        <time>2023-12-19T07:04:22Z</time>
      </trkpt>
      <trkpt lat="49.88415" lon="2.33541">
        <ele>26.7</ele>
        <time>2023-12-19T07:04:23Z</time>
      </trkpt>
      <trkpt lat="49.88417" lon="2.3354">
        <ele>26.7</ele>
        <time>2023-12-19T07:04:24Z</time>
      </trkpt>
      <trkpt lat="49.88418" lon="2.3354">
        <ele>26.7</ele>
        <time>2023-12-19T07:04:26Z</time>
      </trkpt>
      <trkpt lat="49.88419" lon="2.33539">
        <ele>26.7</ele>
        <time>2023-12-19T07:04:27Z</time>
      </trkpt>
      <trkpt lat="49.8842" lon="2.33539">
        <ele>26.7</ele>
        <time>2023-12-19T07:04:28Z</time>
      </trkpt>
      <trkpt lat="49.88422" lon="2.33538">
        <ele>26.7</ele>
        <time>2023-12-19T07:04:29Z</time>
      </trkpt>
      <trkpt lat="49.88423" lon="2.33537">
        <ele>26.7</ele>
        <time>2023-12-19T07:04:30Z</time>
      </trkpt>
      <trkpt lat="49.88425" lon="2.33536">
        <ele>26.7</ele>
        <time>2023-12-19T07:04:31Z</time>
      </trkpt>
      <trkpt lat="49.88426" lon="2.33536">
        <ele>26.7</ele>
        <time>2023-12-19T07:04:32Z</time>
      </trkpt>
      <trkpt lat="49.88428" lon="2.33535">
        <ele>26.7</ele>
        <time>2023-12-19T07:04:33Z</time>
      </trkpt>
      <trkpt lat="49.88429" lon="2.33534">
        <ele>26.7</ele>
        <time>2023-12-19T07:04:35Z</time>
      </trkpt>
      <trkpt lat="49.88431" lon="2.33533">
        <ele>26.7</ele>
        <time>2023-12-19T07:04:36Z</time>
      </trkpt>
      <trkpt lat="49.88432" lon="2.33532">
        <ele>26.7</ele>
        <time>2023-12-19T07:04:37Z</time>
      </trkpt>
      <trkpt lat="49.88434" lon="2.33531">
        <ele>26.7</ele>
        <time>2023-12-19T07:04:38Z</time>
      </trkpt>
      <trkpt lat="49.88435" lon="2.3353">
        <ele>26.7</ele>
        <time>2023-12-19T07:04:39Z</time>
      </trkpt>
      <trkpt lat="49.88436" lon="2.33529">
        <ele>26.7</ele>
        <time>2023-12-19T07:04:40Z</time>
      </trkpt>
      <trkpt lat="49.88438" lon="2.33529">
        <ele>26.7</ele>
        <time>2023-12-19T07:04:41Z</time>
      </trkpt>
      <trkpt lat="49.88439" lon="2.33528">
        <ele>26.7</ele>
        <time>2023-12-19T07:04:43Z</time>
      </trkpt>
      <trkpt lat="49.8844" lon="2.33528">
        <ele>26.8</ele>
        <time>2023-12-19T07:04:44Z</time>
      </trkpt>
      <trkpt lat="49.88442" lon="2.33527">
        <ele>26.8</ele>
        <time>2023-12-19T07:04:45Z</time>
      </trkpt>
      <trkpt lat="49.88443" lon="2.33527">
        <ele>26.8</ele>
        <time>2023-12-19T07:04:46Z</time>
      </trkpt>
      <trkpt lat="49.88445" lon="2.33526">
        <ele>26.8</ele>
        <time>2023-12-19T07:04:47Z</time>
      </trkpt>
      <trkpt lat="49.88446" lon="2.33525">
        <ele>26.8</ele>
        <time>2023-12-19T07:04:48Z</time>
      </trkpt>
      <trkpt lat="49.88448" lon="2.33525">
        <ele>26.8</ele>
        <time>2023-12-19T07:04:49Z</time>
      </trkpt>
      <trkpt lat="49.8845" lon="2.33524">
        <ele>26.8</ele>
        <time>2023-12-19T07:04:50Z</time>
      </trkpt>
      <trkpt lat="49.88451" lon="2.33524">
        <ele>26.8</ele>
        <time>2023-12-19T07:04:52Z</time>
      </trkpt>
      <trkpt lat="49.88453" lon="2.33523">
        <ele>26.8</ele>
        <time>2023-12-19T07:04:53Z</time>
      </trkpt>
      <trkpt lat="49.88455" lon="2.33523">
        <ele>26.8</ele>
        <time>2023-12-19T07:04:54Z</time>
      </trkpt>
      <trkpt lat="49.88458" lon="2.33522">
        <ele>26.8</ele>
        <time>2023-12-19T07:04:55Z</time>
      </trkpt>
      <trkpt lat="49.88458" lon="2.33521">
        <ele>26.8</ele>
        <time>2023-12-19T07:04:56Z</time>
      </trkpt>
      <trkpt lat="49.8846" lon="2.33521">
        <ele>26.8</ele>
        <time>2023-12-19T07:04:57Z</time>
      </trkpt>
      <trkpt lat="49.88462" lon="2.3352">
        <ele>26.8</ele>
        <time>2023-12-19T07:04:58Z</time>
      </trkpt>
      <trkpt lat="49.88464" lon="2.33519">
        <ele>26.7</ele>
        <time>2023-12-19T07:04:59Z</time>
      </trkpt>
      <trkpt lat="49.88464" lon="2.33518">
        <ele>26.7</ele>
        <time>2023-12-19T07:05:01Z</time>
      </trkpt>
      <trkpt lat="49.88465" lon="2.33518">
        <ele>26.7</ele>
        <time>2023-12-19T07:05:02Z</time>
      </trkpt>
      <trkpt lat="49.88466" lon="2.33517">
        <ele>26.7</ele>
        <time>2023-12-19T07:05:03Z</time>
      </trkpt>
      <trkpt lat="49.88467" lon="2.33516">
        <ele>26.7</ele>
        <time>2023-12-19T07:05:04Z</time>
      </trkpt>
      <trkpt lat="49.88468" lon="2.33516">
        <ele>26.7</ele>
        <time>2023-12-19T07:05:05Z</time>
      </trkpt>
      <trkpt lat="49.88469" lon="2.33516">
        <ele>26.7</ele>
        <time>2023-12-19T07:05:06Z</time>
      </trkpt>
      <trkpt lat="49.8847" lon="2.33516">
        <ele>26.7</ele>
        <time>2023-12-19T07:05:07Z</time>
      </trkpt>
      <trkpt lat="49.88471" lon="2.33516">
        <ele>26.7</ele>
        <time>2023-12-19T07:05:08Z</time>
      </trkpt>
      <trkpt lat="49.88472" lon="2.33516">
        <ele>26.7</ele>
        <time>2023-12-19T07:05:10Z</time>
      </trkpt>
      <trkpt lat="49.88472" lon="2.33515">
        <ele>26.7</ele>
        <time>2023-12-19T07:05:11Z</time>
      </trkpt>
      <trkpt lat="49.88473" lon="2.33515">
        <ele>26.7</ele>
        <time>2023-12-19T07:05:12Z</time>
      </trkpt>
      <trkpt lat="49.88474" lon="2.33514">
        <ele>26.7</ele>
        <time>2023-12-19T07:05:13Z</time>
      </trkpt>
      <trkpt lat="49.88474" lon="2.33513">
        <ele>26.7</ele>
        <time>2023-12-19T07:05:14Z</time>
      </trkpt>
      <trkpt lat="49.88475" lon="2.33512">
        <ele>26.7</ele>
        <time>2023-12-19T07:05:15Z</time>
      </trkpt>
      <trkpt lat="49.88476" lon="2.3351">
        <ele>26.7</ele>
        <time>2023-12-19T07:05:16Z</time>
      </trkpt>
      <trkpt lat="49.88477" lon="2.33508">
        <ele>26.7</ele>
        <time>2023-12-19T07:05:17Z</time>
      </trkpt>
      <trkpt lat="49.88477" lon="2.33507">
        <ele>26.7</ele>
        <time>2023-12-19T07:05:19Z</time>
      </trkpt>
      <trkpt lat="49.88478" lon="2.33506">
        <ele>26.7</ele>
        <time>2023-12-19T07:05:20Z</time>
      </trkpt>
      <trkpt lat="49.88479" lon="2.33503">
        <ele>26.7</ele>
        <time>2023-12-19T07:05:21Z</time>
      </trkpt>
      <trkpt lat="49.8848" lon="2.33502">
        <ele>26.7</ele>
        <time>2023-12-19T07:05:22Z</time>
      </trkpt>
      <trkpt lat="49.8848" lon="2.33501">
        <ele>26.7</ele>
        <time>2023-12-19T07:05:23Z</time>
      </trkpt>
      <trkpt lat="49.88482" lon="2.33498">
        <ele>26.7</ele>
        <time>2023-12-19T07:05:24Z</time>
      </trkpt>
      <trkpt lat="49.88482" lon="2.33497">
        <ele>26.7</ele>
        <time>2023-12-19T07:05:25Z</time>
      </trkpt>
      <trkpt lat="49.88483" lon="2.33496">
        <ele>26.7</ele>
        <time>2023-12-19T07:05:26Z</time>
      </trkpt>
      <trkpt lat="49.88483" lon="2.33495">
        <ele>26.7</ele>
        <time>2023-12-19T07:05:28Z</time>
      </trkpt>
      <trkpt lat="49.88484" lon="2.33494">
        <ele>26.7</ele>
        <time>2023-12-19T07:05:29Z</time>
      </trkpt>
      <trkpt lat="49.88485" lon="2.33493">
        <ele>26.7</ele>
        <time>2023-12-19T07:05:30Z</time>
      </trkpt>
      <trkpt lat="49.88486" lon="2.3349">
        <ele>26.7</ele>
        <time>2023-12-19T07:05:31Z</time>
      </trkpt>
      <trkpt lat="49.88487" lon="2.33489">
        <ele>26.7</ele>
        <time>2023-12-19T07:05:32Z</time>
      </trkpt>
      <trkpt lat="49.88487" lon="2.33488">
        <ele>26.7</ele>
        <time>2023-12-19T07:05:33Z</time>
      </trkpt>
      <trkpt lat="49.88488" lon="2.33487">
        <ele>26.7</ele>
        <time>2023-12-19T07:05:34Z</time>
      </trkpt>
      <trkpt lat="49.88488" lon="2.33485">
        <ele>26.7</ele>
        <time>2023-12-19T07:05:36Z</time>
      </trkpt>
      <trkpt lat="49.88489" lon="2.33484">
        <ele>26.7</ele>
        <time>2023-12-19T07:05:37Z</time>
      </trkpt>
      <trkpt lat="49.88489" lon="2.33482">
        <ele>26.7</ele>
        <time>2023-12-19T07:05:38Z</time>
      </trkpt>
      <trkpt lat="49.8849" lon="2.3348">
        <ele>26.7</ele>
        <time>2023-12-19T07:05:39Z</time>
      </trkpt>
      <trkpt lat="49.8849" lon="2.33479">
        <ele>26.7</ele>
        <time>2023-12-19T07:05:40Z</time>
      </trkpt>
      <trkpt lat="49.88491" lon="2.33477">
        <ele>26.7</ele>
        <time>2023-12-19T07:05:41Z</time>
      </trkpt>
      <trkpt lat="49.88491" lon="2.33476">
        <ele>26.7</ele>
        <time>2023-12-19T07:05:42Z</time>
      </trkpt>
      <trkpt lat="49.88492" lon="2.33474">
        <ele>26.6</ele>
        <time>2023-12-19T07:05:43Z</time>
      </trkpt>
      <trkpt lat="49.88492" lon="2.33473">
        <ele>26.6</ele>
        <time>2023-12-19T07:05:45Z</time>
      </trkpt>
      <trkpt lat="49.88493" lon="2.33472">
        <ele>26.6</ele>
        <time>2023-12-19T07:05:46Z</time>
      </trkpt>
      <trkpt lat="49.88493" lon="2.3347">
        <ele>26.6</ele>
        <time>2023-12-19T07:05:47Z</time>
      </trkpt>
      <trkpt lat="49.88492" lon="2.33469">
        <ele>26.6</ele>
        <time>2023-12-19T07:05:48Z</time>
      </trkpt>
      <trkpt lat="49.88492" lon="2.33467">
        <ele>26.6</ele>
        <time>2023-12-19T07:05:49Z</time>
      </trkpt>
      <trkpt lat="49.88492" lon="2.33466">
        <ele>26.6</ele>
        <time>2023-12-19T07:05:50Z</time>
      </trkpt>
      <trkpt lat="49.88493" lon="2.33464">
        <ele>26.6</ele>
        <time>2023-12-19T07:05:51Z</time>
      </trkpt>
      <trkpt lat="49.88493" lon="2.33463">
        <ele>26.6</ele>
        <time>2023-12-19T07:05:52Z</time>
      </trkpt>
      <trkpt lat="49.88493" lon="2.33461">
        <ele>26.6</ele>
        <time>2023-12-19T07:05:54Z</time>
      </trkpt>
      <trkpt lat="49.88494" lon="2.3346">
        <ele>26.6</ele>
        <time>2023-12-19T07:05:55Z</time>
      </trkpt>
      <trkpt lat="49.88494" lon="2.33458">
        <ele>26.6</ele>
        <time>2023-12-19T07:05:56Z</time>
      </trkpt>
      <trkpt lat="49.88495" lon="2.33456">
        <ele>26.6</ele>
        <time>2023-12-19T07:05:57Z</time>
      </trkpt>
      <trkpt lat="49.88496" lon="2.33454">
        <ele>26.6</ele>
        <time>2023-12-19T07:05:58Z</time>
      </trkpt>
      <trkpt lat="49.88496" lon="2.33453">
        <ele>26.6</ele>
        <time>2023-12-19T07:05:59Z</time>
      </trkpt>
      <trkpt lat="49.88497" lon="2.33451">
        <ele>26.6</ele>
        <time>2023-12-19T07:06:00Z</time>
      </trkpt>
      <trkpt lat="49.88497" lon="2.3345">
        <ele>26.6</ele>
        <time>2023-12-19T07:06:02Z</time>
      </trkpt>
      <trkpt lat="49.88498" lon="2.33449">
        <ele>26.6</ele>
        <time>2023-12-19T07:06:03Z</time>
      </trkpt>
      <trkpt lat="49.88499" lon="2.33448">
        <ele>26.6</ele>
        <time>2023-12-19T07:06:04Z</time>
      </trkpt>
      <trkpt lat="49.88499" lon="2.33447">
        <ele>26.6</ele>
        <time>2023-12-19T07:06:05Z</time>
      </trkpt>
      <trkpt lat="49.885" lon="2.33446">
        <ele>26.6</ele>
        <time>2023-12-19T07:06:06Z</time>
      </trkpt>
      <trkpt lat="49.885" lon="2.33446">
        <ele>26.6</ele>
        <time>2023-12-19T07:06:07Z</time>
      </trkpt>
      <trkpt lat="49.88501" lon="2.33445">
        <ele>26.6</ele>
        <time>2023-12-19T07:06:08Z</time>
      </trkpt>
      <trkpt lat="49.88502" lon="2.33443">
        <ele>26.6</ele>
        <time>2023-12-19T07:06:10Z</time>
      </trkpt>
      <trkpt lat="49.88503" lon="2.33442">
        <ele>26.6</ele>
        <time>2023-12-19T07:06:11Z</time>
      </trkpt>
      <trkpt lat="49.88503" lon="2.33441">
        <ele>26.6</ele>
        <time>2023-12-19T07:06:12Z</time>
      </trkpt>
      <trkpt lat="49.88503" lon="2.3344">
        <ele>26.6</ele>
        <time>2023-12-19T07:06:13Z</time>
      </trkpt>
      <trkpt lat="49.88505" lon="2.33438">
        <ele>26.5</ele>
        <time>2023-12-19T07:06:14Z</time>
      </trkpt>
      <trkpt lat="49.88505" lon="2.33437">
        <ele>26.5</ele>
        <time>2023-12-19T07:06:15Z</time>
      </trkpt>
      <trkpt lat="49.88506" lon="2.33436">
        <ele>26.5</ele>
        <time>2023-12-19T07:06:16Z</time>
      </trkpt>
      <trkpt lat="49.88506" lon="2.33435">
        <ele>26.5</ele>
        <time>2023-12-19T07:06:18Z</time>
      </trkpt>
      <trkpt lat="49.88507" lon="2.33433">
        <ele>26.5</ele>
        <time>2023-12-19T07:06:19Z</time>
      </trkpt>
      <trkpt lat="49.88508" lon="2.33432">
        <ele>26.5</ele>
        <time>2023-12-19T07:06:20Z</time>
      </trkpt>
      <trkpt lat="49.88509" lon="2.3343">
        <ele>26.5</ele>
        <time>2023-12-19T07:06:21Z</time>
      </trkpt>
      <trkpt lat="49.88509" lon="2.33428">
        <ele>26.5</ele>
        <time>2023-12-19T07:06:22Z</time>
      </trkpt>
      <trkpt lat="49.8851" lon="2.33426">
        <ele>26.5</ele>
        <time>2023-12-19T07:06:23Z</time>
      </trkpt>
      <trkpt lat="49.88511" lon="2.33424">
        <ele>26.5</ele>
        <time>2023-12-19T07:06:24Z</time>
      </trkpt>
      <trkpt lat="49.88512" lon="2.33423">
        <ele>26.5</ele>
        <time>2023-12-19T07:06:26Z</time>
      </trkpt>
      <trkpt lat="49.88513" lon="2.33421">
        <ele>26.5</ele>
        <time>2023-12-19T07:06:27Z</time>
      </trkpt>
      <trkpt lat="49.88514" lon="2.33419">
        <ele>26.5</ele>
        <time>2023-12-19T07:06:28Z</time>
      </trkpt>
      <trkpt lat="49.88515" lon="2.33418">
        <ele>26.5</ele>
        <time>2023-12-19T07:06:29Z</time>
      </trkpt>
      <trkpt lat="49.88516" lon="2.33417">
        <ele>26.5</ele>
        <time>2023-12-19T07:06:30Z</time>
      </trkpt>
      <trkpt lat="49.88518" lon="2.33415">
        <ele>26.5</ele>
        <time>2023-12-19T07:06:31Z</time>
      </trkpt>
      <trkpt lat="49.88519" lon="2.33414">
        <ele>26.5</ele>
        <time>2023-12-19T07:06:32Z</time>
      </trkpt>
      <trkpt lat="49.8852" lon="2.33413">
        <ele>26.6</ele>
        <time>2023-12-19T07:06:34Z</time>
      </trkpt>
      <trkpt lat="49.88522" lon="2.33411">
        <ele>26.6</ele>
        <time>2023-12-19T07:06:35Z</time>
      </trkpt>
      <trkpt lat="49.88523" lon="2.3341">
        <ele>26.6</ele>
        <time>2023-12-19T07:06:36Z</time>
      </trkpt>
      <trkpt lat="49.88524" lon="2.33409">
        <ele>26.6</ele>
        <time>2023-12-19T07:06:37Z</time>
      </trkpt>
      <trkpt lat="49.88526" lon="2.33407">
        <ele>26.6</ele>
        <time>2023-12-19T07:06:38Z</time>
      </trkpt>
      <trkpt lat="49.88527" lon="2.33406">
        <ele>26.6</ele>
        <time>2023-12-19T07:06:39Z</time>
      </trkpt>
      <trkpt lat="49.88529" lon="2.33405">
        <ele>26.6</ele>
        <time>2023-12-19T07:06:40Z</time>
      </trkpt>
      <trkpt lat="49.8853" lon="2.33404">
        <ele>26.6</ele>
        <time>2023-12-19T07:06:42Z</time>
      </trkpt>
      <trkpt lat="49.88531" lon="2.33403">
        <ele>26.6</ele>
        <time>2023-12-19T07:06:43Z</time>
      </trkpt>
      <trkpt lat="49.88533" lon="2.33402">
        <ele>26.6</ele>
        <time>2023-12-19T07:06:44Z</time>
      </trkpt>
      <trkpt lat="49.88534" lon="2.334">
        <ele>26.6</ele>
        <time>2023-12-19T07:06:45Z</time>
      </trkpt>
      <trkpt lat="49.88535" lon="2.33398">
        <ele>26.6</ele>
        <time>2023-12-19T07:06:46Z</time>
      </trkpt>
      <trkpt lat="49.88536" lon="2.33397">
        <ele>26.6</ele>
        <time>2023-12-19T07:06:47Z</time>
      </trkpt>
      <trkpt lat="49.88537" lon="2.33394">
        <ele>26.6</ele>
        <time>2023-12-19T07:06:48Z</time>
      </trkpt>
      <trkpt lat="49.88538" lon="2.33393">
        <ele>26.6</ele>
        <time>2023-12-19T07:06:50Z</time>
      </trkpt>
      <trkpt lat="49.88538" lon="2.33392">
        <ele>26.6</ele>
        <time>2023-12-19T07:06:51Z</time>
      </trkpt>
      <trkpt lat="49.88539" lon="2.33388">
        <ele>26.6</ele>
        <time>2023-12-19T07:06:52Z</time>
      </trkpt>
      <trkpt lat="49.88539" lon="2.33387">
        <ele>26.6</ele>
        <time>2023-12-19T07:06:53Z</time>
      </trkpt>
      <trkpt lat="49.88539" lon="2.33386">
        <ele>26.6</ele>
        <time>2023-12-19T07:06:54Z</time>
      </trkpt>
      <trkpt lat="49.8854" lon="2.33382">
        <ele>26.6</ele>
        <time>2023-12-19T07:06:55Z</time>
      </trkpt>
      <trkpt lat="49.8854" lon="2.33381">
        <ele>26.6</ele>
        <time>2023-12-19T07:06:56Z</time>
      </trkpt>
      <trkpt lat="49.8854" lon="2.3338">
        <ele>26.6</ele>
        <time>2023-12-19T07:06:57Z</time>
      </trkpt>
      <trkpt lat="49.8854" lon="2.33376">
        <ele>26.6</ele>
        <time>2023-12-19T07:06:59Z</time>
      </trkpt>
      <trkpt lat="49.8854" lon="2.33375">
        <ele>26.6</ele>
        <time>2023-12-19T07:07:00Z</time>
      </trkpt>
      <trkpt lat="49.88541" lon="2.33374">
        <ele>26.6</ele>
        <time>2023-12-19T07:07:01Z</time>
      </trkpt>
      <trkpt lat="49.88541" lon="2.3337">
        <ele>26.6</ele>
        <time>2023-12-19T07:07:02Z</time>
      </trkpt>
      <trkpt lat="49.88541" lon="2.33369">
        <ele>26.6</ele>
        <time>2023-12-19T07:07:03Z</time>
      </trkpt>
      <trkpt lat="49.88541" lon="2.33368">
        <ele>26.6</ele>
        <time>2023-12-19T07:07:04Z</time>
      </trkpt>
      <trkpt lat="49.88541" lon="2.33365">
        <ele>26.6</ele>
        <time>2023-12-19T07:07:05Z</time>
      </trkpt>
      <trkpt lat="49.88541" lon="2.33363">
        <ele>26.6</ele>
        <time>2023-12-19T07:07:06Z</time>
      </trkpt>
      <trkpt lat="49.88541" lon="2.33362">
        <ele>26.6</ele>
        <time>2023-12-19T07:07:07Z</time>
      </trkpt>
      <trkpt lat="49.88541" lon="2.33359">
        <ele>26.6</ele>
        <time>2023-12-19T07:07:09Z</time>
      </trkpt>
      <trkpt lat="49.88541" lon="2.33358">
        <ele>26.6</ele>
        <time>2023-12-19T07:07:10Z</time>
      </trkpt>
      <trkpt lat="49.88541" lon="2.33356">
        <ele>26.6</ele>
        <time>2023-12-19T07:07:11Z</time>
      </trkpt>
      <trkpt lat="49.88541" lon="2.33353">
        <ele>26.6</ele>
        <time>2023-12-19T07:07:12Z</time>
      </trkpt>
      <trkpt lat="49.88541" lon="2.33351">
        <ele>26.6</ele>
        <time>2023-12-19T07:07:13Z</time>
      </trkpt>
      <trkpt lat="49.88541" lon="2.3335">
        <ele>26.6</ele>
        <time>2023-12-19T07:07:14Z</time>
      </trkpt>
      <trkpt lat="49.88541" lon="2.33348">
        <ele>26.6</ele>
        <time>2023-12-19T07:07:15Z</time>
      </trkpt>
      <trkpt lat="49.88541" lon="2.33346">
        <ele>26.6</ele>
        <time>2023-12-19T07:07:16Z</time>
      </trkpt>
      <trkpt lat="49.88541" lon="2.33345">
        <ele>26.6</ele>
        <time>2023-12-19T07:07:18Z</time>
      </trkpt>
      <trkpt lat="49.88541" lon="2.33344">
        <ele>26.6</ele>
        <time>2023-12-19T07:07:19Z</time>
      </trkpt>
      <trkpt lat="49.88541" lon="2.33342">
        <ele>26.6</ele>
        <time>2023-12-19T07:07:20Z</time>
      </trkpt>
      <trkpt lat="49.88541" lon="2.33341">
        <ele>26.6</ele>
        <time>2023-12-19T07:07:21Z</time>
      </trkpt>
      <trkpt lat="49.88541" lon="2.33339">
        <ele>26.5</ele>
        <time>2023-12-19T07:07:22Z</time>
      </trkpt>
      <trkpt lat="49.88541" lon="2.33337">
        <ele>26.5</ele>
        <time>2023-12-19T07:07:23Z</time>
      </trkpt>
      <trkpt lat="49.88541" lon="2.33336">
        <ele>26.5</ele>
        <time>2023-12-19T07:07:24Z</time>
      </trkpt>
      <trkpt lat="49.88541" lon="2.33334">
        <ele>26.5</ele>
        <time>2023-12-19T07:07:26Z</time>
      </trkpt>
      <trkpt lat="49.88541" lon="2.33332">
        <ele>26.5</ele>
        <time>2023-12-19T07:07:27Z</time>
      </trkpt>
      <trkpt lat="49.88542" lon="2.33331">
        <ele>26.5</ele>
        <time>2023-12-19T07:07:28Z</time>
      </trkpt>
      <trkpt lat="49.88542" lon="2.33327">
        <ele>26.5</ele>
        <time>2023-12-19T07:07:29Z</time>
      </trkpt>
      <trkpt lat="49.88542" lon="2.33326">
        <ele>26.5</ele>
        <time>2023-12-19T07:07:30Z</time>
      </trkpt>
      <trkpt lat="49.88542" lon="2.33324">
        <ele>26.5</ele>
        <time>2023-12-19T07:07:31Z</time>
      </trkpt>
      <trkpt lat="49.88542" lon="2.33322">
        <ele>26.5</ele>
        <time>2023-12-19T07:07:32Z</time>
      </trkpt>
      <trkpt lat="49.88542" lon="2.3332">
        <ele>26.5</ele>
        <time>2023-12-19T07:07:33Z</time>
      </trkpt>
      <trkpt lat="49.88542" lon="2.33319">
        <ele>26.5</ele>
        <time>2023-12-19T07:07:35Z</time>
      </trkpt>
      <trkpt lat="49.88543" lon="2.33317">
        <ele>26.5</ele>
        <time>2023-12-19T07:07:36Z</time>
      </trkpt>
      <trkpt lat="49.88543" lon="2.33315">
        <ele>26.5</ele>
        <time>2023-12-19T07:07:37Z</time>
      </trkpt>
      <trkpt lat="49.88543" lon="2.33313">
        <ele>26.5</ele>
        <time>2023-12-19T07:07:38Z</time>
      </trkpt>
      <trkpt lat="49.88543" lon="2.33312">
        <ele>26.5</ele>
        <time>2023-12-19T07:07:39Z</time>
      </trkpt>
      <trkpt lat="49.88544" lon="2.3331">
        <ele>26.5</ele>
        <time>2023-12-19T07:07:40Z</time>
      </trkpt>
      <trkpt lat="49.88544" lon="2.33308">
        <ele>26.5</ele>
        <time>2023-12-19T07:07:41Z</time>
      </trkpt>
      <trkpt lat="49.88544" lon="2.33307">
        <ele>26.5</ele>
        <time>2023-12-19T07:07:43Z</time>
      </trkpt>
      <trkpt lat="49.88545" lon="2.33306">
        <ele>26.5</ele>
        <time>2023-12-19T07:07:44Z</time>
      </trkpt>
      <trkpt lat="49.88545" lon="2.33304">
        <ele>26.5</ele>
        <time>2023-12-19T07:07:45Z</time>
      </trkpt>
      <trkpt lat="49.88546" lon="2.33303">
        <ele>26.5</ele>
        <time>2023-12-19T07:07:46Z</time>
      </trkpt>
      <trkpt lat="49.88547" lon="2.33301">
        <ele>26.5</ele>
        <time>2023-12-19T07:07:47Z</time>
      </trkpt>
      <trkpt lat="49.88547" lon="2.33299">
        <ele>26.5</ele>
        <time>2023-12-19T07:07:48Z</time>
      </trkpt>
      <trkpt lat="49.88548" lon="2.33298">
        <ele>26.5</ele>
        <time>2023-12-19T07:07:49Z</time>
      </trkpt>
      <trkpt lat="49.88549" lon="2.33296">
        <ele>26.5</ele>
        <time>2023-12-19T07:07:51Z</time>
      </trkpt>
      <trkpt lat="49.88549" lon="2.33295">
        <ele>26.5</ele>
        <time>2023-12-19T07:07:52Z</time>
      </trkpt>
      <trkpt lat="49.8855" lon="2.33293">
        <ele>26.5</ele>
        <time>2023-12-19T07:07:53Z</time>
      </trkpt>
      <trkpt lat="49.8855" lon="2.33291">
        <ele>26.5</ele>
        <time>2023-12-19T07:07:54Z</time>
      </trkpt>
      <trkpt lat="49.88551" lon="2.3329">
        <ele>26.5</ele>
        <time>2023-12-19T07:07:55Z</time>
      </trkpt>
      <trkpt lat="49.88552" lon="2.33288">
        <ele>26.5</ele>
        <time>2023-12-19T07:07:56Z</time>
      </trkpt>
      <trkpt lat="49.88552" lon="2.33286">
        <ele>26.5</ele>
        <time>2023-12-19T07:07:58Z</time>
      </trkpt>
      <trkpt lat="49.88553" lon="2.33285">
        <ele>26.5</ele>
        <time>2023-12-19T07:07:59Z</time>
      </trkpt>
      <trkpt lat="49.88554" lon="2.33283">
        <ele>26.5</ele>
        <time>2023-12-19T07:08:00Z</time>
      </trkpt>
      <trkpt lat="49.88554" lon="2.33282">
        <ele>26.5</ele>
        <time>2023-12-19T07:08:01Z</time>
      </trkpt>
      <trkpt lat="49.88555" lon="2.3328">
        <ele>26.5</ele>
        <time>2023-12-19T07:08:02Z</time>
      </trkpt>
      <trkpt lat="49.88556" lon="2.33278">
        <ele>26.5</ele>
        <time>2023-12-19T07:08:03Z</time>
      </trkpt>
      <trkpt lat="49.88558" lon="2.33276">
        <ele>26.5</ele>
        <time>2023-12-19T07:08:04Z</time>
      </trkpt>
      <trkpt lat="49.88559" lon="2.33274">
        <ele>26.5</ele>
        <time>2023-12-19T07:08:06Z</time>
      </trkpt>
      <trkpt lat="49.88559" lon="2.33273">
        <ele>26.5</ele>
        <time>2023-12-19T07:08:07Z</time>
      </trkpt>
      <trkpt lat="49.8856" lon="2.33272">
        <ele>26.6</ele>
        <time>2023-12-19T07:08:08Z</time>
      </trkpt>
      <trkpt lat="49.88561" lon="2.33271">
        <ele>26.6</ele>
        <time>2023-12-19T07:08:09Z</time>
      </trkpt>
      <trkpt lat="49.88562" lon="2.3327">
        <ele>26.6</ele>
        <time>2023-12-19T07:08:10Z</time>
      </trkpt>
      <trkpt lat="49.88563" lon="2.33268">
        <ele>26.6</ele>
        <time>2023-12-19T07:08:11Z</time>
      </trkpt>
      <trkpt lat="49.88565" lon="2.33266">
        <ele>26.6</ele>
        <time>2023-12-19T07:08:12Z</time>
      </trkpt>
      <trkpt lat="49.88566" lon="2.33266">
        <ele>26.6</ele>
        <time>2023-12-19T07:08:14Z</time>
      </trkpt>
      <trkpt lat="49.88566" lon="2.33265">
        <ele>26.6</ele>
        <time>2023-12-19T07:08:15Z</time>
      </trkpt>
      <trkpt lat="49.88567" lon="2.33264">
        <ele>26.6</ele>
        <time>2023-12-19T07:08:16Z</time>
      </trkpt>
      <trkpt lat="49.88568" lon="2.33264">
        <ele>26.6</ele>
        <time>2023-12-19T07:08:17Z</time>
      </trkpt>
      <trkpt lat="49.88569" lon="2.33263">
        <ele>26.6</ele>
        <time>2023-12-19T07:08:18Z</time>
      </trkpt>
      <trkpt lat="49.88571" lon="2.33262">
        <ele>26.6</ele>
        <time>2023-12-19T07:08:19Z</time>
      </trkpt>
      <trkpt lat="49.88572" lon="2.33261">
        <ele>26.6</ele>
        <time>2023-12-19T07:08:20Z</time>
      </trkpt>
      <trkpt lat="49.88572" lon="2.3326">
        <ele>26.6</ele>
        <time>2023-12-19T07:08:22Z</time>
      </trkpt>
      <trkpt lat="49.88573" lon="2.33259">
        <ele>26.6</ele>
        <time>2023-12-19T07:08:23Z</time>
      </trkpt>
      <trkpt lat="49.88574" lon="2.33258">
        <ele>26.6</ele>
        <time>2023-12-19T07:08:24Z</time>
      </trkpt>
      <trkpt lat="49.88576" lon="2.33258">
        <ele>26.6</ele>
        <time>2023-12-19T07:08:25Z</time>
      </trkpt>
      <trkpt lat="49.88577" lon="2.33257">
        <ele>26.6</ele>
        <time>2023-12-19T07:08:26Z</time>
      </trkpt>
      <trkpt lat="49.88578" lon="2.33257">
        <ele>26.6</ele>
        <time>2023-12-19T07:08:27Z</time>
      </trkpt>
      <trkpt lat="49.88579" lon="2.33256">
        <ele>26.6</ele>
        <time>2023-12-19T07:08:29Z</time>
      </trkpt>
      <trkpt lat="49.8858" lon="2.33256">
        <ele>26.6</ele>
        <time>2023-12-19T07:08:30Z</time>
      </trkpt>
      <trkpt lat="49.88582" lon="2.33256">
        <ele>26.6</ele>
        <time>2023-12-19T07:08:31Z</time>
      </trkpt>
      <trkpt lat="49.88583" lon="2.33255">
        <ele>26.5</ele>
        <time>2023-12-19T07:08:32Z</time>
      </trkpt>
      <trkpt lat="49.88584" lon="2.33255">
        <ele>26.5</ele>
        <time>2023-12-19T07:08:33Z</time>
      </trkpt>
      <trkpt lat="49.88585" lon="2.33255">
        <ele>26.5</ele>
        <time>2023-12-19T07:08:34Z</time>
      </trkpt>
      <trkpt lat="49.88586" lon="2.33254">
        <ele>26.5</ele>
        <time>2023-12-19T07:08:35Z</time>
      </trkpt>
      <trkpt lat="49.88587" lon="2.33254">
        <ele>26.5</ele>
        <time>2023-12-19T07:08:36Z</time>
      </trkpt>
      <trkpt lat="49.88589" lon="2.33254">
        <ele>26.5</ele>
        <time>2023-12-19T07:08:38Z</time>
      </trkpt>
      <trkpt lat="49.8859" lon="2.33253">
        <ele>26.5</ele>
        <time>2023-12-19T07:08:39Z</time>
      </trkpt>
      <trkpt lat="49.88591" lon="2.33253">
        <ele>26.5</ele>
        <time>2023-12-19T07:08:40Z</time>
      </trkpt>
      <trkpt lat="49.88592" lon="2.33253">
        <ele>26.5</ele>
        <time>2023-12-19T07:08:41Z</time>
      </trkpt>
      <trkpt lat="49.88593" lon="2.33252">
        <ele>26.5</ele>
        <time>2023-12-19T07:08:42Z</time>
      </trkpt>
      <trkpt lat="49.88594" lon="2.33252">
        <ele>26.5</ele>
        <time>2023-12-19T07:08:43Z</time>
      </trkpt>
      <trkpt lat="49.88595" lon="2.33251">
        <ele>26.5</ele>
        <time>2023-12-19T07:08:45Z</time>
      </trkpt>
      <trkpt lat="49.88596" lon="2.33251">
        <ele>26.5</ele>
        <time>2023-12-19T07:08:46Z</time>
      </trkpt>
      <trkpt lat="49.88597" lon="2.3325">
        <ele>26.5</ele>
        <time>2023-12-19T07:08:47Z</time>
      </trkpt>
      <trkpt lat="49.88598" lon="2.33249">
        <ele>26.5</ele>
        <time>2023-12-19T07:08:48Z</time>
      </trkpt>
      <trkpt lat="49.88599" lon="2.33248">
        <ele>26.5</ele>
        <time>2023-12-19T07:08:49Z</time>
      </trkpt>
      <trkpt lat="49.88601" lon="2.33247">
        <ele>26.5</ele>
        <time>2023-12-19T07:08:51Z</time>
      </trkpt>
      <trkpt lat="49.88601" lon="2.33246">
        <ele>26.5</ele>
        <time>2023-12-19T07:08:52Z</time>
      </trkpt>
      <trkpt lat="49.88602" lon="2.33245">
        <ele>26.5</ele>
        <time>2023-12-19T07:08:53Z</time>
      </trkpt>
      <trkpt lat="49.88603" lon="2.33244">
        <ele>26.5</ele>
        <time>2023-12-19T07:08:54Z</time>
      </trkpt>
      <trkpt lat="49.88604" lon="2.33243">
        <ele>26.5</ele>
        <time>2023-12-19T07:08:55Z</time>
      </trkpt>
      <trkpt lat="49.88605" lon="2.33241">
        <ele>26.5</ele>
        <time>2023-12-19T07:08:56Z</time>
      </trkpt>
      <trkpt lat="49.88607" lon="2.3324">
        <ele>26.5</ele>
        <time>2023-12-19T07:08:58Z</time>
      </trkpt>
      <trkpt lat="49.88608" lon="2.33239">
        <ele>26.5</ele>
        <time>2023-12-19T07:08:59Z</time>
      </trkpt>
      <trkpt lat="49.88609" lon="2.33237">
        <ele>26.5</ele>
        <time>2023-12-19T07:09:00Z</time>
      </trkpt>
      <trkpt lat="49.8861" lon="2.33235">
        <ele>26.6</ele>
        <time>2023-12-19T07:09:01Z</time>
      </trkpt>
      <trkpt lat="49.88611" lon="2.33234">
        <ele>26.6</ele>
        <time>2023-12-19T07:09:02Z</time>
      </trkpt>
      <trkpt lat="49.88611" lon="2.33233">
        <ele>26.6</ele>
        <time>2023-12-19T07:09:03Z</time>
      </trkpt>
      <trkpt lat="49.88613" lon="2.33231">
        <ele>26.6</ele>
        <time>2023-12-19T07:09:05Z</time>
      </trkpt>
      <trkpt lat="49.88614" lon="2.3323">
        <ele>26.6</ele>
        <time>2023-12-19T07:09:06Z</time>
      </trkpt>
      <trkpt lat="49.88614" lon="2.33229">
        <ele>26.6</ele>
        <time>2023-12-19T07:09:07Z</time>
      </trkpt>
      <trkpt lat="49.88616" lon="2.33227">
        <ele>26.6</ele>
        <time>2023-12-19T07:09:08Z</time>
      </trkpt>
      <trkpt lat="49.88616" lon="2.33226">
        <ele>26.6</ele>
        <time>2023-12-19T07:09:09Z</time>
      </trkpt>
      <trkpt lat="49.88617" lon="2.33225">
        <ele>26.6</ele>
        <time>2023-12-19T07:09:10Z</time>
      </trkpt>
      <trkpt lat="49.88618" lon="2.33223">
        <ele>26.5</ele>
        <time>2023-12-19T07:09:12Z</time>
      </trkpt>
      <trkpt lat="49.88619" lon="2.33222">
        <ele>26.5</ele>
        <time>2023-12-19T07:09:13Z</time>
      </trkpt>
      <trkpt lat="49.8862" lon="2.33221">
        <ele>26.5</ele>
        <time>2023-12-19T07:09:14Z</time>
      </trkpt>
      <trkpt lat="49.88622" lon="2.33219">
        <ele>26.5</ele>
        <time>2023-12-19T07:09:15Z</time>
      </trkpt>
      <trkpt lat="49.88622" lon="2.33218">
        <ele>26.5</ele>
        <time>2023-12-19T07:09:16Z</time>
      </trkpt>
      <trkpt lat="49.88623" lon="2.33217">
        <ele>26.5</ele>
        <time>2023-12-19T07:09:17Z</time>
      </trkpt>
      <trkpt lat="49.88624" lon="2.33216">
        <ele>26.5</ele>
        <time>2023-12-19T07:09:19Z</time>
      </trkpt>
      <trkpt lat="49.88625" lon="2.33216">
        <ele>26.4</ele>
        <time>2023-12-19T07:09:20Z</time>
      </trkpt>
      <trkpt lat="49.88626" lon="2.33215">
        <ele>26.4</ele>
        <time>2023-12-19T07:09:21Z</time>
      </trkpt>
      <trkpt lat="49.88627" lon="2.33215">
        <ele>26.4</ele>
        <time>2023-12-19T07:09:22Z</time>
      </trkpt>
      <trkpt lat="49.88628" lon="2.33216">
        <ele>26.4</ele>
        <time>2023-12-19T07:09:23Z</time>
      </trkpt>
      <trkpt lat="49.88629" lon="2.33216">
        <ele>26.4</ele>
        <time>2023-12-19T07:09:24Z</time>
      </trkpt>
      <trkpt lat="49.8863" lon="2.33216">
        <ele>26.3</ele>
        <time>2023-12-19T07:09:25Z</time>
      </trkpt>
      <trkpt lat="49.88631" lon="2.33216">
        <ele>26.3</ele>
        <time>2023-12-19T07:09:27Z</time>
      </trkpt>
      <trkpt lat="49.88632" lon="2.33216">
        <ele>26.3</ele>
        <time>2023-12-19T07:09:28Z</time>
      </trkpt>
      <trkpt lat="49.88633" lon="2.33216">
        <ele>26.3</ele>
        <time>2023-12-19T07:09:29Z</time>
      </trkpt>
      <trkpt lat="49.88634" lon="2.33216">
        <ele>26.2</ele>
        <time>2023-12-19T07:09:30Z</time>
      </trkpt>
      <trkpt lat="49.88635" lon="2.33217">
        <ele>26.2</ele>
        <time>2023-12-19T07:09:31Z</time>
      </trkpt>
      <trkpt lat="49.88636" lon="2.33218">
        <ele>26.2</ele>
        <time>2023-12-19T07:09:32Z</time>
      </trkpt>
      <trkpt lat="49.88637" lon="2.33219">
        <ele>26.2</ele>
        <time>2023-12-19T07:09:33Z</time>
      </trkpt>
      <trkpt lat="49.88638" lon="2.33221">
        <ele>26.1</ele>
        <time>2023-12-19T07:09:35Z</time>
      </trkpt>
      <trkpt lat="49.8864" lon="2.33223">
        <ele>26.1</ele>
        <time>2023-12-19T07:09:36Z</time>
      </trkpt>
      <trkpt lat="49.88641" lon="2.33224">
        <ele>26.1</ele>
        <time>2023-12-19T07:09:37Z</time>
      </trkpt>
      <trkpt lat="49.88642" lon="2.33225">
        <ele>26.1</ele>
        <time>2023-12-19T07:09:38Z</time>
      </trkpt>
      <trkpt lat="49.88645" lon="2.33227">
        <ele>26</ele>
        <time>2023-12-19T07:09:39Z</time>
      </trkpt>
      <trkpt lat="49.88646" lon="2.33227">
        <ele>26</ele>
        <time>2023-12-19T07:09:40Z</time>
      </trkpt>
      <trkpt lat="49.88648" lon="2.33228">
        <ele>26</ele>
        <time>2023-12-19T07:09:41Z</time>
      </trkpt>
      <trkpt lat="49.88649" lon="2.33229">
        <ele>26</ele>
        <time>2023-12-19T07:09:43Z</time>
      </trkpt>
      <trkpt lat="49.88651" lon="2.3323">
        <ele>25.9</ele>
        <time>2023-12-19T07:09:44Z</time>
      </trkpt>
      <trkpt lat="49.88653" lon="2.33231">
        <ele>25.9</ele>
        <time>2023-12-19T07:09:45Z</time>
      </trkpt>
      <trkpt lat="49.88654" lon="2.33232">
        <ele>25.9</ele>
        <time>2023-12-19T07:09:46Z</time>
      </trkpt>
      <trkpt lat="49.88655" lon="2.33233">
        <ele>25.9</ele>
        <time>2023-12-19T07:09:47Z</time>
      </trkpt>
      <trkpt lat="49.88657" lon="2.33234">
        <ele>25.9</ele>
        <time>2023-12-19T07:09:48Z</time>
      </trkpt>
      <trkpt lat="49.88658" lon="2.33235">
        <ele>25.8</ele>
        <time>2023-12-19T07:09:49Z</time>
      </trkpt>
      <trkpt lat="49.88659" lon="2.33236">
        <ele>25.8</ele>
        <time>2023-12-19T07:09:50Z</time>
      </trkpt>
      <trkpt lat="49.8866" lon="2.33238">
        <ele>25.8</ele>
        <time>2023-12-19T07:09:52Z</time>
      </trkpt>
      <trkpt lat="49.88661" lon="2.3324">
        <ele>25.8</ele>
        <time>2023-12-19T07:09:53Z</time>
      </trkpt>
      <trkpt lat="49.88662" lon="2.33241">
        <ele>25.8</ele>
        <time>2023-12-19T07:09:54Z</time>
      </trkpt>
      <trkpt lat="49.88663" lon="2.33243">
        <ele>25.7</ele>
        <time>2023-12-19T07:09:55Z</time>
      </trkpt>
      <trkpt lat="49.88664" lon="2.33244">
        <ele>25.7</ele>
        <time>2023-12-19T07:09:56Z</time>
      </trkpt>
      <trkpt lat="49.88665" lon="2.33245">
        <ele>25.7</ele>
        <time>2023-12-19T07:09:57Z</time>
      </trkpt>
      <trkpt lat="49.88667" lon="2.33246">
        <ele>25.7</ele>
        <time>2023-12-19T07:09:58Z</time>
      </trkpt>
      <trkpt lat="49.88668" lon="2.33247">
        <ele>25.7</ele>
        <time>2023-12-19T07:09:59Z</time>
      </trkpt>
      <trkpt lat="49.88669" lon="2.33248">
        <ele>25.7</ele>
        <time>2023-12-19T07:10:00Z</time>
      </trkpt>
      <trkpt lat="49.88671" lon="2.33249">
        <ele>25.7</ele>
        <time>2023-12-19T07:10:02Z</time>
      </trkpt>
      <trkpt lat="49.88672" lon="2.3325">
        <ele>25.7</ele>
        <time>2023-12-19T07:10:03Z</time>
      </trkpt>
      <trkpt lat="49.88673" lon="2.3325">
        <ele>25.6</ele>
        <time>2023-12-19T07:10:04Z</time>
      </trkpt>
      <trkpt lat="49.88674" lon="2.33251">
        <ele>25.6</ele>
        <time>2023-12-19T07:10:05Z</time>
      </trkpt>
      <trkpt lat="49.88675" lon="2.33252">
        <ele>25.6</ele>
        <time>2023-12-19T07:10:07Z</time>
      </trkpt>
      <trkpt lat="49.88677" lon="2.33253">
        <ele>25.6</ele>
        <time>2023-12-19T07:10:08Z</time>
      </trkpt>
      <trkpt lat="49.88678" lon="2.33253">
        <ele>25.6</ele>
        <time>2023-12-19T07:10:09Z</time>
      </trkpt>
      <trkpt lat="49.88679" lon="2.33254">
        <ele>25.6</ele>
        <time>2023-12-19T07:10:10Z</time>
      </trkpt>
      <trkpt lat="49.8868" lon="2.33254">
        <ele>25.6</ele>
        <time>2023-12-19T07:10:11Z</time>
      </trkpt>
      <trkpt lat="49.88682" lon="2.33255">
        <ele>25.5</ele>
        <time>2023-12-19T07:10:12Z</time>
      </trkpt>
      <trkpt lat="49.88683" lon="2.33256">
        <ele>25.5</ele>
        <time>2023-12-19T07:10:13Z</time>
      </trkpt>
      <trkpt lat="49.88684" lon="2.33256">
        <ele>25.5</ele>
        <time>2023-12-19T07:10:14Z</time>
      </trkpt>
      <trkpt lat="49.88685" lon="2.33257">
        <ele>25.5</ele>
        <time>2023-12-19T07:10:16Z</time>
      </trkpt>
      <trkpt lat="49.88687" lon="2.33258">
        <ele>25.5</ele>
        <time>2023-12-19T07:10:17Z</time>
      </trkpt>
      <trkpt lat="49.88688" lon="2.33258">
        <ele>25.5</ele>
        <time>2023-12-19T07:10:18Z</time>
      </trkpt>
      <trkpt lat="49.88689" lon="2.33259">
        <ele>25.5</ele>
        <time>2023-12-19T07:10:19Z</time>
      </trkpt>
      <trkpt lat="49.8869" lon="2.33261">
        <ele>25.5</ele>
        <time>2023-12-19T07:10:20Z</time>
      </trkpt>
      <trkpt lat="49.88691" lon="2.33261">
        <ele>25.4</ele>
        <time>2023-12-19T07:10:21Z</time>
      </trkpt>
      <trkpt lat="49.88692" lon="2.33262">
        <ele>25.4</ele>
        <time>2023-12-19T07:10:22Z</time>
      </trkpt>
      <trkpt lat="49.88694" lon="2.33264">
        <ele>25.4</ele>
        <time>2023-12-19T07:10:23Z</time>
      </trkpt>
      <trkpt lat="49.88694" lon="2.33265">
        <ele>25.4</ele>
        <time>2023-12-19T07:10:25Z</time>
      </trkpt>
      <trkpt lat="49.88695" lon="2.33266">
        <ele>25.4</ele>
        <time>2023-12-19T07:10:26Z</time>
      </trkpt>
      <trkpt lat="49.88697" lon="2.33267">
        <ele>25.4</ele>
        <time>2023-12-19T07:10:27Z</time>
      </trkpt>
      <trkpt lat="49.88697" lon="2.33268">
        <ele>25.4</ele>
        <time>2023-12-19T07:10:28Z</time>
      </trkpt>
      <trkpt lat="49.88698" lon="2.33269">
        <ele>25.4</ele>
        <time>2023-12-19T07:10:29Z</time>
      </trkpt>
      <trkpt lat="49.88699" lon="2.3327">
        <ele>25.4</ele>
        <time>2023-12-19T07:10:30Z</time>
      </trkpt>
      <trkpt lat="49.88701" lon="2.33271">
        <ele>25.3</ele>
        <time>2023-12-19T07:10:31Z</time>
      </trkpt>
      <trkpt lat="49.88702" lon="2.33272">
        <ele>25.3</ele>
        <time>2023-12-19T07:10:32Z</time>
      </trkpt>
      <trkpt lat="49.88703" lon="2.33273">
        <ele>25.3</ele>
        <time>2023-12-19T07:10:33Z</time>
      </trkpt>
      <trkpt lat="49.88704" lon="2.33274">
        <ele>25.3</ele>
        <time>2023-12-19T07:10:35Z</time>
      </trkpt>
      <trkpt lat="49.88705" lon="2.33275">
        <ele>25.3</ele>
        <time>2023-12-19T07:10:36Z</time>
      </trkpt>
      <trkpt lat="49.88706" lon="2.33275">
        <ele>25.3</ele>
        <time>2023-12-19T07:10:37Z</time>
      </trkpt>
      <trkpt lat="49.88708" lon="2.33277">
        <ele>25.3</ele>
        <time>2023-12-19T07:10:38Z</time>
      </trkpt>
      <trkpt lat="49.88709" lon="2.33277">
        <ele>25.3</ele>
        <time>2023-12-19T07:10:39Z</time>
      </trkpt>
      <trkpt lat="49.8871" lon="2.33278">
        <ele>25.3</ele>
        <time>2023-12-19T07:10:40Z</time>
      </trkpt>
      <trkpt lat="49.88711" lon="2.33279">
        <ele>25.3</ele>
        <time>2023-12-19T07:10:41Z</time>
      </trkpt>
      <trkpt lat="49.88712" lon="2.33279">
        <ele>25.3</ele>
        <time>2023-12-19T07:10:42Z</time>
      </trkpt>
      <trkpt lat="49.88713" lon="2.3328">
        <ele>25.3</ele>
        <time>2023-12-19T07:10:43Z</time>
      </trkpt>
      <trkpt lat="49.88715" lon="2.33282">
        <ele>25.3</ele>
        <time>2023-12-19T07:10:45Z</time>
      </trkpt>
      <trkpt lat="49.88715" lon="2.33282">
        <ele>25.3</ele>
        <time>2023-12-19T07:10:46Z</time>
      </trkpt>
      <trkpt lat="49.88716" lon="2.33283">
        <ele>25.3</ele>
        <time>2023-12-19T07:10:47Z</time>
      </trkpt>
      <trkpt lat="49.88718" lon="2.33284">
        <ele>25.3</ele>
        <time>2023-12-19T07:10:48Z</time>
      </trkpt>
      <trkpt lat="49.88719" lon="2.33285">
        <ele>25.3</ele>
        <time>2023-12-19T07:10:49Z</time>
      </trkpt>
      <trkpt lat="49.8872" lon="2.33285">
        <ele>25.3</ele>
        <time>2023-12-19T07:10:50Z</time>
      </trkpt>
      <trkpt lat="49.88721" lon="2.33286">
        <ele>25.3</ele>
        <time>2023-12-19T07:10:51Z</time>
      </trkpt>
      <trkpt lat="49.88722" lon="2.33287">
        <ele>25.3</ele>
        <time>2023-12-19T07:10:52Z</time>
      </trkpt>
      <trkpt lat="49.88724" lon="2.33287">
        <ele>25.3</ele>
        <time>2023-12-19T07:10:54Z</time>
      </trkpt>
      <trkpt lat="49.88725" lon="2.33288">
        <ele>25.3</ele>
        <time>2023-12-19T07:10:55Z</time>
      </trkpt>
      <trkpt lat="49.88726" lon="2.33288">
        <ele>25.3</ele>
        <time>2023-12-19T07:10:56Z</time>
      </trkpt>
      <trkpt lat="49.88727" lon="2.33289">
        <ele>25.3</ele>
        <time>2023-12-19T07:10:57Z</time>
      </trkpt>
      <trkpt lat="49.88729" lon="2.33289">
        <ele>25.3</ele>
        <time>2023-12-19T07:10:58Z</time>
      </trkpt>
      <trkpt lat="49.8873" lon="2.3329">
        <ele>25.3</ele>
        <time>2023-12-19T07:10:59Z</time>
      </trkpt>
      <trkpt lat="49.88731" lon="2.33291">
        <ele>25.3</ele>
        <time>2023-12-19T07:11:00Z</time>
      </trkpt>
      <trkpt lat="49.88732" lon="2.33291">
        <ele>25.3</ele>
        <time>2023-12-19T07:11:01Z</time>
      </trkpt>
      <trkpt lat="49.88733" lon="2.33292">
        <ele>25.3</ele>
        <time>2023-12-19T07:11:03Z</time>
      </trkpt>
      <trkpt lat="49.88734" lon="2.33292">
        <ele>25.3</ele>
        <time>2023-12-19T07:11:04Z</time>
      </trkpt>
      <trkpt lat="49.88736" lon="2.33292">
        <ele>25.3</ele>
        <time>2023-12-19T07:11:05Z</time>
      </trkpt>
      <trkpt lat="49.88737" lon="2.33293">
        <ele>25.3</ele>
        <time>2023-12-19T07:11:06Z</time>
      </trkpt>
      <trkpt lat="49.88738" lon="2.33293">
        <ele>25.3</ele>
        <time>2023-12-19T07:11:07Z</time>
      </trkpt>
      <trkpt lat="49.88739" lon="2.33294">
        <ele>25.4</ele>
        <time>2023-12-19T07:11:08Z</time>
      </trkpt>
      <trkpt lat="49.8874" lon="2.33295">
        <ele>25.4</ele>
        <time>2023-12-19T07:11:09Z</time>
      </trkpt>
      <trkpt lat="49.88741" lon="2.33295">
        <ele>25.4</ele>
        <time>2023-12-19T07:11:10Z</time>
      </trkpt>
      <trkpt lat="49.88742" lon="2.33296">
        <ele>25.4</ele>
        <time>2023-12-19T07:11:12Z</time>
      </trkpt>
      <trkpt lat="49.88743" lon="2.33297">
        <ele>25.4</ele>
        <time>2023-12-19T07:11:13Z</time>
      </trkpt>
      <trkpt lat="49.88745" lon="2.33298">
        <ele>25.4</ele>
        <time>2023-12-19T07:11:14Z</time>
      </trkpt>
      <trkpt lat="49.88745" lon="2.33298">
        <ele>25.4</ele>
        <time>2023-12-19T07:11:15Z</time>
      </trkpt>
      <trkpt lat="49.88746" lon="2.33298">
        <ele>25.4</ele>
        <time>2023-12-19T07:11:16Z</time>
      </trkpt>
      <trkpt lat="49.88747" lon="2.33298">
        <ele>25.4</ele>
        <time>2023-12-19T07:11:17Z</time>
      </trkpt>
      <trkpt lat="49.88749" lon="2.33298">
        <ele>25.4</ele>
        <time>2023-12-19T07:11:18Z</time>
      </trkpt>
      <trkpt lat="49.8875" lon="2.33299">
        <ele>25.5</ele>
        <time>2023-12-19T07:11:20Z</time>
      </trkpt>
      <trkpt lat="49.88751" lon="2.33299">
        <ele>25.5</ele>
        <time>2023-12-19T07:11:21Z</time>
      </trkpt>
      <trkpt lat="49.88752" lon="2.33299">
        <ele>25.5</ele>
        <time>2023-12-19T07:11:22Z</time>
      </trkpt>
      <trkpt lat="49.88753" lon="2.33299">
        <ele>25.5</ele>
        <time>2023-12-19T07:11:23Z</time>
      </trkpt>
      <trkpt lat="49.88755" lon="2.33299">
        <ele>25.5</ele>
        <time>2023-12-19T07:11:24Z</time>
      </trkpt>
      <trkpt lat="49.88756" lon="2.33299">
        <ele>25.5</ele>
        <time>2023-12-19T07:11:25Z</time>
      </trkpt>
      <trkpt lat="49.88757" lon="2.33299">
        <ele>25.5</ele>
        <time>2023-12-19T07:11:26Z</time>
      </trkpt>
      <trkpt lat="49.88759" lon="2.33299">
        <ele>25.5</ele>
        <time>2023-12-19T07:11:28Z</time>
      </trkpt>
      <trkpt lat="49.8876" lon="2.33299">
        <ele>25.5</ele>
        <time>2023-12-19T07:11:29Z</time>
      </trkpt>
      <trkpt lat="49.8876" lon="2.33299">
        <ele>25.5</ele>
        <time>2023-12-19T07:11:30Z</time>
      </trkpt>
      <trkpt lat="49.88762" lon="2.33299">
        <ele>25.6</ele>
        <time>2023-12-19T07:11:31Z</time>
      </trkpt>
      <trkpt lat="49.88763" lon="2.33299">
        <ele>25.6</ele>
        <time>2023-12-19T07:11:32Z</time>
      </trkpt>
      <trkpt lat="49.88764" lon="2.33299">
        <ele>25.6</ele>
        <time>2023-12-19T07:11:33Z</time>
      </trkpt>
      <trkpt lat="49.88766" lon="2.33299">
        <ele>25.6</ele>
        <time>2023-12-19T07:11:34Z</time>
      </trkpt>
      <trkpt lat="49.88766" lon="2.33299">
        <ele>25.6</ele>
        <time>2023-12-19T07:11:36Z</time>
      </trkpt>
      <trkpt lat="49.88768" lon="2.33299">
        <ele>25.6</ele>
        <time>2023-12-19T07:11:37Z</time>
      </trkpt>
      <trkpt lat="49.88769" lon="2.33299">
        <ele>25.6</ele>
        <time>2023-12-19T07:11:38Z</time>
      </trkpt>
      <trkpt lat="49.8877" lon="2.33298">
        <ele>25.6</ele>
        <time>2023-12-19T07:11:39Z</time>
      </trkpt>
      <trkpt lat="49.88771" lon="2.33298">
        <ele>25.6</ele>
        <time>2023-12-19T07:11:40Z</time>
      </trkpt>
      <trkpt lat="49.88772" lon="2.33298">
        <ele>25.6</ele>
        <time>2023-12-19T07:11:41Z</time>
      </trkpt>
      <trkpt lat="49.88773" lon="2.33298">
        <ele>25.6</ele>
        <time>2023-12-19T07:11:43Z</time>
      </trkpt>
      <trkpt lat="49.88774" lon="2.33298">
        <ele>25.6</ele>
        <time>2023-12-19T07:11:44Z</time>
      </trkpt>
      <trkpt lat="49.88775" lon="2.33298">
        <ele>25.6</ele>
        <time>2023-12-19T07:11:45Z</time>
      </trkpt>
      <trkpt lat="49.88776" lon="2.33298">
        <ele>25.6</ele>
        <time>2023-12-19T07:11:46Z</time>
      </trkpt>
      <trkpt lat="49.88778" lon="2.33298">
        <ele>25.6</ele>
        <time>2023-12-19T07:11:47Z</time>
      </trkpt>
      <trkpt lat="49.88779" lon="2.33299">
        <ele>25.6</ele>
        <time>2023-12-19T07:11:48Z</time>
      </trkpt>
      <trkpt lat="49.8878" lon="2.33299">
        <ele>25.6</ele>
        <time>2023-12-19T07:11:49Z</time>
      </trkpt>
      <trkpt lat="49.88781" lon="2.33299">
        <ele>25.6</ele>
        <time>2023-12-19T07:11:51Z</time>
      </trkpt>
      <trkpt lat="49.88782" lon="2.333">
        <ele>25.6</ele>
        <time>2023-12-19T07:11:52Z</time>
      </trkpt>
      <trkpt lat="49.88783" lon="2.333">
        <ele>25.6</ele>
        <time>2023-12-19T07:11:53Z</time>
      </trkpt>
      <trkpt lat="49.88783" lon="2.33302">
        <ele>25.6</ele>
        <time>2023-12-19T07:11:54Z</time>
      </trkpt>
      <trkpt lat="49.88784" lon="2.33305">
        <ele>25.5</ele>
        <time>2023-12-19T07:11:55Z</time>
      </trkpt>
      <trkpt lat="49.88784" lon="2.33306">
        <ele>25.5</ele>
        <time>2023-12-19T07:11:56Z</time>
      </trkpt>
      <trkpt lat="49.88784" lon="2.33308">
        <ele>25.5</ele>
        <time>2023-12-19T07:11:57Z</time>
      </trkpt>
      <trkpt lat="49.88784" lon="2.3331">
        <ele>25.5</ele>
        <time>2023-12-19T07:11:59Z</time>
      </trkpt>
      <trkpt lat="49.88784" lon="2.33312">
        <ele>25.4</ele>
        <time>2023-12-19T07:12:00Z</time>
      </trkpt>
      <trkpt lat="49.88784" lon="2.33314">
        <ele>25.4</ele>
        <time>2023-12-19T07:12:01Z</time>
      </trkpt>
      <trkpt lat="49.88785" lon="2.33317">
        <ele>25.4</ele>
        <time>2023-12-19T07:12:02Z</time>
      </trkpt>
      <trkpt lat="49.88785" lon="2.33318">
        <ele>25.4</ele>
        <time>2023-12-19T07:12:03Z</time>
      </trkpt>
      <trkpt lat="49.88785" lon="2.33319">
        <ele>25.3</ele>
        <time>2023-12-19T07:12:04Z</time>
      </trkpt>
      <trkpt lat="49.88785" lon="2.33321">
        <ele>25.3</ele>
        <time>2023-12-19T07:12:05Z</time>
      </trkpt>
      <trkpt lat="49.88786" lon="2.33323">
        <ele>25.3</ele>
        <time>2023-12-19T07:12:06Z</time>
      </trkpt>
      <trkpt lat="49.88785" lon="2.33325">
        <ele>25.3</ele>
        <time>2023-12-19T07:12:08Z</time>
      </trkpt>
      <trkpt lat="49.88785" lon="2.33327">
        <ele>25.2</ele>
        <time>2023-12-19T07:12:09Z</time>
      </trkpt>
      <trkpt lat="49.88785" lon="2.33329">
        <ele>25.2</ele>
        <time>2023-12-19T07:12:10Z</time>
      </trkpt>
      <trkpt lat="49.88785" lon="2.33331">
        <ele>25.2</ele>
        <time>2023-12-19T07:12:11Z</time>
      </trkpt>
      <trkpt lat="49.88785" lon="2.33332">
        <ele>25.2</ele>
        <time>2023-12-19T07:12:12Z</time>
      </trkpt>
      <trkpt lat="49.88785" lon="2.33334">
        <ele>25.2</ele>
        <time>2023-12-19T07:12:13Z</time>
      </trkpt>
      <trkpt lat="49.88785" lon="2.33335">
        <ele>25.2</ele>
        <time>2023-12-19T07:12:14Z</time>
      </trkpt>
      <trkpt lat="49.88785" lon="2.33336">
        <ele>25.1</ele>
        <time>2023-12-19T07:12:16Z</time>
      </trkpt>
      <trkpt lat="49.88786" lon="2.33335">
        <ele>25.1</ele>
        <time>2023-12-19T07:12:17Z</time>
      </trkpt>
      <trkpt lat="49.88787" lon="2.33335">
        <ele>25.1</ele>
        <time>2023-12-19T07:12:18Z</time>
      </trkpt>
      <trkpt lat="49.88788" lon="2.33335">
        <ele>25.1</ele>
        <time>2023-12-19T07:12:19Z</time>
      </trkpt>
      <trkpt lat="49.88789" lon="2.33336">
        <ele>25.1</ele>
        <time>2023-12-19T07:12:20Z</time>
      </trkpt>
      <trkpt lat="49.8879" lon="2.33337">
        <ele>25.1</ele>
        <time>2023-12-19T07:12:21Z</time>
      </trkpt>
      <trkpt lat="49.88791" lon="2.33339">
        <ele>25</ele>
        <time>2023-12-19T07:12:22Z</time>
      </trkpt>
      <trkpt lat="49.88791" lon="2.33342">
        <ele>25</ele>
        <time>2023-12-19T07:12:23Z</time>
      </trkpt>
      <trkpt lat="49.8879" lon="2.33343">
        <ele>25</ele>
        <time>2023-12-19T07:12:24Z</time>
      </trkpt>
      <trkpt lat="49.8879" lon="2.33345">
        <ele>25</ele>
        <time>2023-12-19T07:12:25Z</time>
      </trkpt>
      <trkpt lat="49.88789" lon="2.33347">
        <ele>25</ele>
        <time>2023-12-19T07:12:26Z</time>
      </trkpt>
      <trkpt lat="49.88788" lon="2.3335">
        <ele>24.9</ele>
        <time>2023-12-19T07:12:28Z</time>
      </trkpt>
      <trkpt lat="49.88786" lon="2.33353">
        <ele>24.9</ele>
        <time>2023-12-19T07:12:29Z</time>
      </trkpt>
      <trkpt lat="49.88786" lon="2.33355">
        <ele>24.9</ele>
        <time>2023-12-19T07:12:30Z</time>
      </trkpt>
      <trkpt lat="49.88784" lon="2.33358">
        <ele>24.8</ele>
        <time>2023-12-19T07:12:31Z</time>
      </trkpt>
      <trkpt lat="49.88783" lon="2.3336">
        <ele>24.8</ele>
        <time>2023-12-19T07:12:32Z</time>
      </trkpt>
      <trkpt lat="49.88781" lon="2.33364">
        <ele>24.8</ele>
        <time>2023-12-19T07:12:33Z</time>
      </trkpt>
      <trkpt lat="49.88781" lon="2.33365">
        <ele>24.8</ele>
        <time>2023-12-19T07:12:34Z</time>
      </trkpt>
      <trkpt lat="49.88778" lon="2.33369">
        <ele>24.8</ele>
        <time>2023-12-19T07:12:36Z</time>
      </trkpt>
      <trkpt lat="49.88778" lon="2.3337">
        <ele>24.7</ele>
        <time>2023-12-19T07:12:37Z</time>
      </trkpt>
      <trkpt lat="49.88776" lon="2.33374">
        <ele>24.7</ele>
        <time>2023-12-19T07:12:38Z</time>
      </trkpt>
      <trkpt lat="49.88775" lon="2.33375">
        <ele>24.7</ele>
        <time>2023-12-19T07:12:39Z</time>
      </trkpt>
      <trkpt lat="49.88774" lon="2.33377">
        <ele>24.7</ele>
        <time>2023-12-19T07:12:40Z</time>
      </trkpt>
      <trkpt lat="49.88773" lon="2.33379">
        <ele>24.7</ele>
        <time>2023-12-19T07:12:41Z</time>
      </trkpt>
      <trkpt lat="49.88772" lon="2.33381">
        <ele>24.7</ele>
        <time>2023-12-19T07:12:42Z</time>
      </trkpt>
      <trkpt lat="49.88771" lon="2.33383">
        <ele>24.7</ele>
        <time>2023-12-19T07:12:44Z</time>
      </trkpt>
      <trkpt lat="49.88771" lon="2.33385">
        <ele>24.7</ele>
        <time>2023-12-19T07:12:45Z</time>
      </trkpt>
      <trkpt lat="49.88771" lon="2.33386">
        <ele>24.7</ele>
        <time>2023-12-19T07:12:46Z</time>
      </trkpt>
      <trkpt lat="49.88771" lon="2.33387">
        <ele>24.7</ele>
        <time>2023-12-19T07:12:47Z</time>
      </trkpt>
      <trkpt lat="49.88771" lon="2.33389">
        <ele>24.7</ele>
        <time>2023-12-19T07:12:48Z</time>
      </trkpt>
      <trkpt lat="49.88771" lon="2.3339">
        <ele>24.7</ele>
        <time>2023-12-19T07:12:49Z</time>
      </trkpt>
      <trkpt lat="49.8877" lon="2.33392">
        <ele>24.7</ele>
        <time>2023-12-19T07:12:50Z</time>
      </trkpt>
      <trkpt lat="49.8877" lon="2.33393">
        <ele>24.7</ele>
        <time>2023-12-19T07:12:51Z</time>
      </trkpt>
      <trkpt lat="49.88769" lon="2.33394">
        <ele>24.7</ele>
        <time>2023-12-19T07:12:52Z</time>
      </trkpt>
      <trkpt lat="49.88769" lon="2.33395">
        <ele>24.7</ele>
        <time>2023-12-19T07:12:54Z</time>
      </trkpt>
      <trkpt lat="49.88768" lon="2.33397">
        <ele>24.7</ele>
        <time>2023-12-19T07:12:55Z</time>
      </trkpt>
      <trkpt lat="49.88768" lon="2.33398">
        <ele>24.7</ele>
        <time>2023-12-19T07:12:56Z</time>
      </trkpt>
      <trkpt lat="49.88768" lon="2.33399">
        <ele>24.7</ele>
        <time>2023-12-19T07:12:57Z</time>
      </trkpt>
      <trkpt lat="49.88767" lon="2.334">
        <ele>24.7</ele>
        <time>2023-12-19T07:12:58Z</time>
      </trkpt>
      <trkpt lat="49.88766" lon="2.334">
        <ele>24.7</ele>
        <time>2023-12-19T07:13:00Z</time>
      </trkpt>
      <trkpt lat="49.88766" lon="2.33401">
        <ele>24.7</ele>
        <time>2023-12-19T07:13:01Z</time>
      </trkpt>
      <trkpt lat="49.88766" lon="2.33402">
        <ele>24.7</ele>
        <time>2023-12-19T07:13:02Z</time>
      </trkpt>
      <trkpt lat="49.88766" lon="2.33403">
        <ele>24.7</ele>
        <time>2023-12-19T07:13:03Z</time>
      </trkpt>
      <trkpt lat="49.88765" lon="2.33405">
        <ele>24.7</ele>
        <time>2023-12-19T07:13:04Z</time>
      </trkpt>
      <trkpt lat="49.88765" lon="2.33406">
        <ele>24.7</ele>
        <time>2023-12-19T07:13:05Z</time>
      </trkpt>
      <trkpt lat="49.88765" lon="2.33407">
        <ele>24.7</ele>
        <time>2023-12-19T07:13:07Z</time>
      </trkpt>
      <trkpt lat="49.88764" lon="2.33408">
        <ele>24.7</ele>
        <time>2023-12-19T07:13:08Z</time>
      </trkpt>
      <trkpt lat="49.88764" lon="2.33409">
        <ele>24.7</ele>
        <time>2023-12-19T07:13:09Z</time>
      </trkpt>
      <trkpt lat="49.88763" lon="2.3341">
        <ele>24.7</ele>
        <time>2023-12-19T07:13:10Z</time>
      </trkpt>
      <trkpt lat="49.88762" lon="2.33411">
        <ele>24.7</ele>
        <time>2023-12-19T07:13:11Z</time>
      </trkpt>
      <trkpt lat="49.88761" lon="2.33412">
        <ele>24.7</ele>
        <time>2023-12-19T07:13:12Z</time>
      </trkpt>
      <trkpt lat="49.8876" lon="2.33413">
        <ele>24.7</ele>
        <time>2023-12-19T07:13:13Z</time>
      </trkpt>
      <trkpt lat="49.8876" lon="2.33414">
        <ele>24.7</ele>
        <time>2023-12-19T07:13:15Z</time>
      </trkpt>
      <trkpt lat="49.88759" lon="2.33415">
        <ele>24.7</ele>
        <time>2023-12-19T07:13:16Z</time>
      </trkpt>
      <trkpt lat="49.88757" lon="2.33417">
        <ele>24.7</ele>
        <time>2023-12-19T07:13:17Z</time>
      </trkpt>
      <trkpt lat="49.88756" lon="2.33419">
        <ele>24.7</ele>
        <time>2023-12-19T07:13:18Z</time>
      </trkpt>
      <trkpt lat="49.88755" lon="2.3342">
        <ele>24.7</ele>
        <time>2023-12-19T07:13:19Z</time>
      </trkpt>
      <trkpt lat="49.88754" lon="2.33422">
        <ele>24.7</ele>
        <time>2023-12-19T07:13:20Z</time>
      </trkpt>
      <trkpt lat="49.88753" lon="2.33424">
        <ele>24.7</ele>
        <time>2023-12-19T07:13:21Z</time>
      </trkpt>
      <trkpt lat="49.88752" lon="2.33425">
        <ele>24.7</ele>
        <time>2023-12-19T07:13:22Z</time>
      </trkpt>
      <trkpt lat="49.88751" lon="2.33427">
        <ele>24.7</ele>
        <time>2023-12-19T07:13:24Z</time>
      </trkpt>
      <trkpt lat="49.8875" lon="2.33429">
        <ele>24.7</ele>
        <time>2023-12-19T07:13:25Z</time>
      </trkpt>
      <trkpt lat="49.88749" lon="2.33431">
        <ele>24.8</ele>
        <time>2023-12-19T07:13:26Z</time>
      </trkpt>
      <trkpt lat="49.88748" lon="2.33433">
        <ele>24.8</ele>
        <time>2023-12-19T07:13:27Z</time>
      </trkpt>
      <trkpt lat="49.88748" lon="2.33435">
        <ele>24.8</ele>
        <time>2023-12-19T07:13:28Z</time>
      </trkpt>
      <trkpt lat="49.88747" lon="2.33438">
        <ele>24.8</ele>
        <time>2023-12-19T07:13:29Z</time>
      </trkpt>
      <trkpt lat="49.88746" lon="2.3344">
        <ele>24.8</ele>
        <time>2023-12-19T07:13:31Z</time>
      </trkpt>
      <trkpt lat="49.88746" lon="2.33441">
        <ele>24.8</ele>
        <time>2023-12-19T07:13:32Z</time>
      </trkpt>
      <trkpt lat="49.88745" lon="2.33443">
        <ele>24.8</ele>
        <time>2023-12-19T07:13:33Z</time>
      </trkpt>
      <trkpt lat="49.88745" lon="2.33444">
        <ele>24.8</ele>
        <time>2023-12-19T07:13:34Z</time>
      </trkpt>
      <trkpt lat="49.88744" lon="2.33446">
        <ele>24.9</ele>
        <time>2023-12-19T07:13:35Z</time>
      </trkpt>
      <trkpt lat="49.88743" lon="2.33448">
        <ele>24.9</ele>
        <time>2023-12-19T07:13:36Z</time>
      </trkpt>
      <trkpt lat="49.88742" lon="2.33451">
        <ele>24.9</ele>
        <time>2023-12-19T07:13:37Z</time>
      </trkpt>
      <trkpt lat="49.88742" lon="2.33452">
        <ele>24.9</ele>
        <time>2023-12-19T07:13:39Z</time>
      </trkpt>
      <trkpt lat="49.88741" lon="2.33453">
        <ele>24.9</ele>
        <time>2023-12-19T07:13:40Z</time>
      </trkpt>
      <trkpt lat="49.8874" lon="2.33456">
        <ele>24.9</ele>
        <time>2023-12-19T07:13:41Z</time>
      </trkpt>
      <trkpt lat="49.8874" lon="2.33457">
        <ele>24.9</ele>
        <time>2023-12-19T07:13:42Z</time>
      </trkpt>
      <trkpt lat="49.88739" lon="2.33458">
        <ele>24.9</ele>
        <time>2023-12-19T07:13:43Z</time>
      </trkpt>
      <trkpt lat="49.88738" lon="2.3346">
        <ele>25</ele>
        <time>2023-12-19T07:13:44Z</time>
      </trkpt>
      <trkpt lat="49.88738" lon="2.33461">
        <ele>25</ele>
        <time>2023-12-19T07:13:46Z</time>
      </trkpt>
      <trkpt lat="49.88737" lon="2.33463">
        <ele>25</ele>
        <time>2023-12-19T07:13:47Z</time>
      </trkpt>
      <trkpt lat="49.88737" lon="2.33464">
        <ele>25</ele>
        <time>2023-12-19T07:13:48Z</time>
      </trkpt>
      <trkpt lat="49.88736" lon="2.33466">
        <ele>25</ele>
        <time>2023-12-19T07:13:49Z</time>
      </trkpt>
      <trkpt lat="49.88736" lon="2.33468">
        <ele>25.1</ele>
        <time>2023-12-19T07:13:50Z</time>
      </trkpt>
      <trkpt lat="49.88736" lon="2.33469">
        <ele>25.1</ele>
        <time>2023-12-19T07:13:51Z</time>
      </trkpt>
      <trkpt lat="49.88735" lon="2.33471">
        <ele>25.1</ele>
        <time>2023-12-19T07:13:53Z</time>
      </trkpt>
      <trkpt lat="49.88735" lon="2.33472">
        <ele>25.1</ele>
        <time>2023-12-19T07:13:54Z</time>
      </trkpt>
      <trkpt lat="49.88734" lon="2.33475">
        <ele>25.1</ele>
        <time>2023-12-19T07:13:55Z</time>
      </trkpt>
      <trkpt lat="49.88734" lon="2.33476">
        <ele>25.2</ele>
        <time>2023-12-19T07:13:56Z</time>
      </trkpt>
      <trkpt lat="49.88733" lon="2.33477">
        <ele>25.2</ele>
        <time>2023-12-19T07:13:57Z</time>
      </trkpt>
      <trkpt lat="49.88733" lon="2.33479">
        <ele>25.2</ele>
        <time>2023-12-19T07:13:58Z</time>
      </trkpt>
      <trkpt lat="49.88732" lon="2.3348">
        <ele>25.2</ele>
        <time>2023-12-19T07:14:00Z</time>
      </trkpt>
      <trkpt lat="49.88732" lon="2.33482">
        <ele>25.2</ele>
        <time>2023-12-19T07:14:01Z</time>
      </trkpt>
      <trkpt lat="49.88732" lon="2.33483">
        <ele>25.3</ele>
        <time>2023-12-19T07:14:02Z</time>
      </trkpt>
      <trkpt lat="49.88731" lon="2.33485">
        <ele>25.3</ele>
        <time>2023-12-19T07:14:03Z</time>
      </trkpt>
      <trkpt lat="49.88731" lon="2.33486">
        <ele>25.3</ele>
        <time>2023-12-19T07:14:04Z</time>
      </trkpt>
      <trkpt lat="49.8873" lon="2.33488">
        <ele>25.3</ele>
        <time>2023-12-19T07:14:05Z</time>
      </trkpt>
      <trkpt lat="49.8873" lon="2.3349">
        <ele>25.3</ele>
        <time>2023-12-19T07:14:06Z</time>
      </trkpt>
      <trkpt lat="49.88729" lon="2.33492">
        <ele>25.4</ele>
        <time>2023-12-19T07:14:08Z</time>
      </trkpt>
      <trkpt lat="49.88728" lon="2.33494">
        <ele>25.4</ele>
        <time>2023-12-19T07:14:09Z</time>
      </trkpt>
      <trkpt lat="49.88728" lon="2.33495">
        <ele>25.4</ele>
        <time>2023-12-19T07:14:10Z</time>
      </trkpt>
      <trkpt lat="49.88727" lon="2.33496">
        <ele>25.4</ele>
        <time>2023-12-19T07:14:11Z</time>
      </trkpt>
      <trkpt lat="49.88726" lon="2.33498">
        <ele>25.5</ele>
        <time>2023-12-19T07:14:12Z</time>
      </trkpt>
      <trkpt lat="49.88726" lon="2.335">
        <ele>25.5</ele>
        <time>2023-12-19T07:14:13Z</time>
      </trkpt>
      <trkpt lat="49.88724" lon="2.33503">
        <ele>25.6</ele>
        <time>2023-12-19T07:14:15Z</time>
      </trkpt>
      <trkpt lat="49.88723" lon="2.33504">
        <ele>25.6</ele>
        <time>2023-12-19T07:14:16Z</time>
      </trkpt>
      <trkpt lat="49.88722" lon="2.33506">
        <ele>25.6</ele>
        <time>2023-12-19T07:14:17Z</time>
      </trkpt>
      <trkpt lat="49.88721" lon="2.33508">
        <ele>25.7</ele>
        <time>2023-12-19T07:14:19Z</time>
      </trkpt>
      <trkpt lat="49.8872" lon="2.33509">
        <ele>25.7</ele>
        <time>2023-12-19T07:14:20Z</time>
      </trkpt>
      <trkpt lat="49.88719" lon="2.33511">
        <ele>25.7</ele>
        <time>2023-12-19T07:14:21Z</time>
      </trkpt>
      <trkpt lat="49.88719" lon="2.33512">
        <ele>25.7</ele>
        <time>2023-12-19T07:14:22Z</time>
      </trkpt>
      <trkpt lat="49.88718" lon="2.33513">
        <ele>25.8</ele>
        <time>2023-12-19T07:14:23Z</time>
      </trkpt>
      <trkpt lat="49.88717" lon="2.33515">
        <ele>25.8</ele>
        <time>2023-12-19T07:14:25Z</time>
      </trkpt>
      <trkpt lat="49.88716" lon="2.33516">
        <ele>25.8</ele>
        <time>2023-12-19T07:14:26Z</time>
      </trkpt>
      <trkpt lat="49.88716" lon="2.33518">
        <ele>25.9</ele>
        <time>2023-12-19T07:14:27Z</time>
      </trkpt>
      <trkpt lat="49.88715" lon="2.33519">
        <ele>25.9</ele>
        <time>2023-12-19T07:14:28Z</time>
      </trkpt>
      <trkpt lat="49.88715" lon="2.3352">
        <ele>25.9</ele>
        <time>2023-12-19T07:14:29Z</time>
      </trkpt>
      <trkpt lat="49.88714" lon="2.33522">
        <ele>26</ele>
        <time>2023-12-19T07:14:30Z</time>
      </trkpt>
      <trkpt lat="49.88713" lon="2.33524">
        <ele>26</ele>
        <time>2023-12-19T07:14:32Z</time>
      </trkpt>
      <trkpt lat="49.88714" lon="2.33525">
        <ele>26</ele>
        <time>2023-12-19T07:14:33Z</time>
      </trkpt>
      <trkpt lat="49.88714" lon="2.33526">
        <ele>26.1</ele>
        <time>2023-12-19T07:14:35Z</time>
      </trkpt>
      <trkpt lat="49.88715" lon="2.33526">
        <ele>26.1</ele>
        <time>2023-12-19T07:14:36Z</time>
      </trkpt>
      <trkpt lat="49.88715" lon="2.33526">
        <ele>26.1</ele>
        <time>2023-12-19T07:14:38Z</time>
      </trkpt>
      <trkpt lat="49.88715" lon="2.33526">
        <ele>26.1</ele>
        <time>2023-12-19T07:14:39Z</time>
      </trkpt>
      <trkpt lat="49.88715" lon="2.33526">
        <ele>26.1</ele>
        <time>2023-12-19T07:14:41Z</time>
      </trkpt>
      <trkpt lat="49.88716" lon="2.33526">
        <ele>26.1</ele>
        <time>2023-12-19T07:14:42Z</time>
      </trkpt>
      <trkpt lat="49.88716" lon="2.33526">
        <ele>26.1</ele>
        <time>2023-12-19T07:14:43Z</time>
      </trkpt>
      <trkpt lat="49.88716" lon="2.33526">
        <ele>26.1</ele>
        <time>2023-12-19T07:14:45Z</time>
      </trkpt>
      <trkpt lat="49.88716" lon="2.33526">
        <ele>26.1</ele>
        <time>2023-12-19T07:14:46Z</time>
      </trkpt>
      <trkpt lat="49.88716" lon="2.33525">
        <ele>26.1</ele>
        <time>2023-12-19T07:14:47Z</time>
      </trkpt>
      <trkpt lat="49.88716" lon="2.33525">
        <ele>26.1</ele>
        <time>2023-12-19T07:14:48Z</time>
      </trkpt>
      <trkpt lat="49.88716" lon="2.33524">
        <ele>26.2</ele>
        <time>2023-12-19T07:14:50Z</time>
      </trkpt>
      <trkpt lat="49.88717" lon="2.33523">
        <ele>26.2</ele>
        <time>2023-12-19T07:14:51Z</time>
      </trkpt>
      <trkpt lat="49.88717" lon="2.33521">
        <ele>26.2</ele>
        <time>2023-12-19T07:14:52Z</time>
      </trkpt>
      <trkpt lat="49.88717" lon="2.3352">
        <ele>26.2</ele>
        <time>2023-12-19T07:14:53Z</time>
      </trkpt>
      <trkpt lat="49.88717" lon="2.33519">
        <ele>26.3</ele>
        <time>2023-12-19T07:14:56Z</time>
      </trkpt>
      <trkpt lat="49.88718" lon="2.33518">
        <ele>26.3</ele>
        <time>2023-12-19T07:14:57Z</time>
      </trkpt>
      <trkpt lat="49.88718" lon="2.33517">
        <ele>26.3</ele>
        <time>2023-12-19T07:14:59Z</time>
      </trkpt>
      <trkpt lat="49.88718" lon="2.33517">
        <ele>26.3</ele>
        <time>2023-12-19T07:15:00Z</time>
      </trkpt>
      <trkpt lat="49.88718" lon="2.33516">
        <ele>26.3</ele>
        <time>2023-12-19T07:15:01Z</time>
      </trkpt>
      <trkpt lat="49.88718" lon="2.33516">
        <ele>26.3</ele>
        <time>2023-12-19T07:15:03Z</time>
      </trkpt>
      <trkpt lat="49.88717" lon="2.33516">
        <ele>26.3</ele>
        <time>2023-12-19T07:15:04Z</time>
      </trkpt>
      <trkpt lat="49.88717" lon="2.33516">
        <ele>26.3</ele>
        <time>2023-12-19T07:15:05Z</time>
      </trkpt>
      <trkpt lat="49.88717" lon="2.33515">
        <ele>26.4</ele>
        <time>2023-12-19T07:15:07Z</time>
      </trkpt>
      <trkpt lat="49.88717" lon="2.33514">
        <ele>26.4</ele>
        <time>2023-12-19T07:15:08Z</time>
      </trkpt>
      <trkpt lat="49.88717" lon="2.33513">
        <ele>26.4</ele>
        <time>2023-12-19T07:15:09Z</time>
      </trkpt>
      <trkpt lat="49.88718" lon="2.33512">
        <ele>26.4</ele>
        <time>2023-12-19T07:15:10Z</time>
      </trkpt>
      <trkpt lat="49.88718" lon="2.3351">
        <ele>26.5</ele>
        <time>2023-12-19T07:15:11Z</time>
      </trkpt>
      <trkpt lat="49.88719" lon="2.33509">
        <ele>26.4</ele>
        <time>2023-12-19T07:15:12Z</time>
      </trkpt>
      <trkpt lat="49.88721" lon="2.33505">
        <ele>26.3</ele>
        <time>2023-12-19T07:15:13Z</time>
      </trkpt>
      <trkpt lat="49.88722" lon="2.33504">
        <ele>26.3</ele>
        <time>2023-12-19T07:15:15Z</time>
      </trkpt>
      <trkpt lat="49.88723" lon="2.33503">
        <ele>26.2</ele>
        <time>2023-12-19T07:15:16Z</time>
      </trkpt>
      <trkpt lat="49.88723" lon="2.33502">
        <ele>26.2</ele>
        <time>2023-12-19T07:15:17Z</time>
      </trkpt>
      <trkpt lat="49.88724" lon="2.33501">
        <ele>26.1</ele>
        <time>2023-12-19T07:15:18Z</time>
      </trkpt>
      <trkpt lat="49.88725" lon="2.33499">
        <ele>26.1</ele>
        <time>2023-12-19T07:15:20Z</time>
      </trkpt>
      <trkpt lat="49.88726" lon="2.33498">
        <ele>26</ele>
        <time>2023-12-19T07:15:21Z</time>
      </trkpt>
      <trkpt lat="49.88727" lon="2.33497">
        <ele>26</ele>
        <time>2023-12-19T07:15:22Z</time>
      </trkpt>
      <trkpt lat="49.88728" lon="2.33496">
        <ele>26</ele>
        <time>2023-12-19T07:15:23Z</time>
      </trkpt>
      <trkpt lat="49.88729" lon="2.33494">
        <ele>25.9</ele>
        <time>2023-12-19T07:15:24Z</time>
      </trkpt>
      <trkpt lat="49.8873" lon="2.33493">
        <ele>25.9</ele>
        <time>2023-12-19T07:15:25Z</time>
      </trkpt>
      <trkpt lat="49.8873" lon="2.33492">
        <ele>25.8</ele>
        <time>2023-12-19T07:15:26Z</time>
      </trkpt>
      <trkpt lat="49.88731" lon="2.33491">
        <ele>25.8</ele>
        <time>2023-12-19T07:15:28Z</time>
      </trkpt>
      <trkpt lat="49.88732" lon="2.33489">
        <ele>25.8</ele>
        <time>2023-12-19T07:15:29Z</time>
      </trkpt>
      <trkpt lat="49.88734" lon="2.33487">
        <ele>25.7</ele>
        <time>2023-12-19T07:15:30Z</time>
      </trkpt>
      <trkpt lat="49.88736" lon="2.33483">
        <ele>25.6</ele>
        <time>2023-12-19T07:15:31Z</time>
      </trkpt>
      <trkpt lat="49.88736" lon="2.33481">
        <ele>25.6</ele>
        <time>2023-12-19T07:15:32Z</time>
      </trkpt>
      <trkpt lat="49.88739" lon="2.33476">
        <ele>25.5</ele>
        <time>2023-12-19T07:15:33Z</time>
      </trkpt>
      <trkpt lat="49.8874" lon="2.33474">
        <ele>25.4</ele>
        <time>2023-12-19T07:15:34Z</time>
      </trkpt>
      <trkpt lat="49.88741" lon="2.33471">
        <ele>25.4</ele>
        <time>2023-12-19T07:15:35Z</time>
      </trkpt>
      <trkpt lat="49.88743" lon="2.33468">
        <ele>25.3</ele>
        <time>2023-12-19T07:15:37Z</time>
      </trkpt>
      <trkpt lat="49.88743" lon="2.33466">
        <ele>25.3</ele>
        <time>2023-12-19T07:15:38Z</time>
      </trkpt>
      <trkpt lat="49.88744" lon="2.33464">
        <ele>25.3</ele>
        <time>2023-12-19T07:15:39Z</time>
      </trkpt>
      <trkpt lat="49.88745" lon="2.33462">
        <ele>25.2</ele>
        <time>2023-12-19T07:15:40Z</time>
      </trkpt>
      <trkpt lat="49.88746" lon="2.33461">
        <ele>25.2</ele>
        <time>2023-12-19T07:15:41Z</time>
      </trkpt>
      <trkpt lat="49.88747" lon="2.33459">
        <ele>25.2</ele>
        <time>2023-12-19T07:15:42Z</time>
      </trkpt>
      <trkpt lat="49.88748" lon="2.33457">
        <ele>25.1</ele>
        <time>2023-12-19T07:15:43Z</time>
      </trkpt>
      <trkpt lat="49.8875" lon="2.33454">
        <ele>25.1</ele>
        <time>2023-12-19T07:15:44Z</time>
      </trkpt>
      <trkpt lat="49.8875" lon="2.33453">
        <ele>25.1</ele>
        <time>2023-12-19T07:15:46Z</time>
      </trkpt>
      <trkpt lat="49.88751" lon="2.33452">
        <ele>25</ele>
        <time>2023-12-19T07:15:47Z</time>
      </trkpt>
      <trkpt lat="49.88752" lon="2.3345">
        <ele>25</ele>
        <time>2023-12-19T07:15:48Z</time>
      </trkpt>
      <trkpt lat="49.88752" lon="2.33449">
        <ele>25</ele>
        <time>2023-12-19T07:15:49Z</time>
      </trkpt>
      <trkpt lat="49.88753" lon="2.33448">
        <ele>25</ele>
        <time>2023-12-19T07:15:50Z</time>
      </trkpt>
      <trkpt lat="49.88754" lon="2.33447">
        <ele>25</ele>
        <time>2023-12-19T07:15:51Z</time>
      </trkpt>
      <trkpt lat="49.88754" lon="2.33446">
        <ele>25</ele>
        <time>2023-12-19T07:15:52Z</time>
      </trkpt>
      <trkpt lat="49.88755" lon="2.33444">
        <ele>24.9</ele>
        <time>2023-12-19T07:15:53Z</time>
      </trkpt>
      <trkpt lat="49.88756" lon="2.33442">
        <ele>24.9</ele>
        <time>2023-12-19T07:15:55Z</time>
      </trkpt>
      <trkpt lat="49.88756" lon="2.33441">
        <ele>24.9</ele>
        <time>2023-12-19T07:15:56Z</time>
      </trkpt>
      <trkpt lat="49.88757" lon="2.33438">
        <ele>24.9</ele>
        <time>2023-12-19T07:15:57Z</time>
      </trkpt>
      <trkpt lat="49.88757" lon="2.33437">
        <ele>24.9</ele>
        <time>2023-12-19T07:15:58Z</time>
      </trkpt>
      <trkpt lat="49.88757" lon="2.33436">
        <ele>24.9</ele>
        <time>2023-12-19T07:15:59Z</time>
      </trkpt>
      <trkpt lat="49.88758" lon="2.33434">
        <ele>24.8</ele>
        <time>2023-12-19T07:16:00Z</time>
      </trkpt>
      <trkpt lat="49.88759" lon="2.33431">
        <ele>24.8</ele>
        <time>2023-12-19T07:16:01Z</time>
      </trkpt>
      <trkpt lat="49.8876" lon="2.3343">
        <ele>24.8</ele>
        <time>2023-12-19T07:16:02Z</time>
      </trkpt>
      <trkpt lat="49.88761" lon="2.33428">
        <ele>24.8</ele>
        <time>2023-12-19T07:16:03Z</time>
      </trkpt>
      <trkpt lat="49.88762" lon="2.33425">
        <ele>24.8</ele>
        <time>2023-12-19T07:16:04Z</time>
      </trkpt>
      <trkpt lat="49.88762" lon="2.33423">
        <ele>24.8</ele>
        <time>2023-12-19T07:16:06Z</time>
      </trkpt>
      <trkpt lat="49.88763" lon="2.33422">
        <ele>24.8</ele>
        <time>2023-12-19T07:16:07Z</time>
      </trkpt>
      <trkpt lat="49.88764" lon="2.33419">
        <ele>24.7</ele>
        <time>2023-12-19T07:16:08Z</time>
      </trkpt>
      <trkpt lat="49.88764" lon="2.33418">
        <ele>24.7</ele>
        <time>2023-12-19T07:16:09Z</time>
      </trkpt>
      <trkpt lat="49.88765" lon="2.33416">
        <ele>24.7</ele>
        <time>2023-12-19T07:16:10Z</time>
      </trkpt>
      <trkpt lat="49.88766" lon="2.33414">
        <ele>24.7</ele>
        <time>2023-12-19T07:16:11Z</time>
      </trkpt>
      <trkpt lat="49.88766" lon="2.33412">
        <ele>24.7</ele>
        <time>2023-12-19T07:16:12Z</time>
      </trkpt>
      <trkpt lat="49.88767" lon="2.3341">
        <ele>24.7</ele>
        <time>2023-12-19T07:16:14Z</time>
      </trkpt>
      <trkpt lat="49.88768" lon="2.33408">
        <ele>24.7</ele>
        <time>2023-12-19T07:16:15Z</time>
      </trkpt>
      <trkpt lat="49.88769" lon="2.33407">
        <ele>24.7</ele>
        <time>2023-12-19T07:16:16Z</time>
      </trkpt>
      <trkpt lat="49.8877" lon="2.33405">
        <ele>24.7</ele>
        <time>2023-12-19T07:16:17Z</time>
      </trkpt>
      <trkpt lat="49.88771" lon="2.33403">
        <ele>24.7</ele>
        <time>2023-12-19T07:16:18Z</time>
      </trkpt>
      <trkpt lat="49.88771" lon="2.33401">
        <ele>24.7</ele>
        <time>2023-12-19T07:16:19Z</time>
      </trkpt>
      <trkpt lat="49.88772" lon="2.334">
        <ele>24.7</ele>
        <time>2023-12-19T07:16:20Z</time>
      </trkpt>
      <trkpt lat="49.88773" lon="2.33399">
        <ele>24.7</ele>
        <time>2023-12-19T07:16:21Z</time>
      </trkpt>
      <trkpt lat="49.88773" lon="2.33397">
        <ele>24.7</ele>
        <time>2023-12-19T07:16:22Z</time>
      </trkpt>
      <trkpt lat="49.88774" lon="2.33396">
        <ele>24.7</ele>
        <time>2023-12-19T07:16:23Z</time>
      </trkpt>
      <trkpt lat="49.88775" lon="2.33394">
        <ele>24.7</ele>
        <time>2023-12-19T07:16:24Z</time>
      </trkpt>
      <trkpt lat="49.88775" lon="2.33392">
        <ele>24.7</ele>
        <time>2023-12-19T07:16:25Z</time>
      </trkpt>
      <trkpt lat="49.88776" lon="2.33389">
        <ele>24.7</ele>
        <time>2023-12-19T07:16:26Z</time>
      </trkpt>
      <trkpt lat="49.88776" lon="2.33387">
        <ele>24.7</ele>
        <time>2023-12-19T07:16:28Z</time>
      </trkpt>
      <trkpt lat="49.88776" lon="2.33386">
        <ele>24.7</ele>
        <time>2023-12-19T07:16:29Z</time>
      </trkpt>
      <trkpt lat="49.88777" lon="2.33383">
        <ele>24.7</ele>
        <time>2023-12-19T07:16:30Z</time>
      </trkpt>
      <trkpt lat="49.88778" lon="2.33382">
        <ele>24.7</ele>
        <time>2023-12-19T07:16:31Z</time>
      </trkpt>
      <trkpt lat="49.88778" lon="2.33381">
        <ele>24.7</ele>
        <time>2023-12-19T07:16:32Z</time>
      </trkpt>
      <trkpt lat="49.88779" lon="2.3338">
        <ele>24.7</ele>
        <time>2023-12-19T07:16:33Z</time>
      </trkpt>
      <trkpt lat="49.88779" lon="2.33378">
        <ele>24.7</ele>
        <time>2023-12-19T07:16:34Z</time>
      </trkpt>
      <trkpt lat="49.8878" lon="2.33377">
        <ele>24.7</ele>
        <time>2023-12-19T07:16:35Z</time>
      </trkpt>
      <trkpt lat="49.8878" lon="2.33374">
        <ele>24.7</ele>
        <time>2023-12-19T07:16:36Z</time>
      </trkpt>
      <trkpt lat="49.88781" lon="2.33373">
        <ele>24.7</ele>
        <time>2023-12-19T07:16:37Z</time>
      </trkpt>
      <trkpt lat="49.88781" lon="2.33372">
        <ele>24.7</ele>
        <time>2023-12-19T07:16:38Z</time>
      </trkpt>
      <trkpt lat="49.88782" lon="2.33368">
        <ele>24.7</ele>
        <time>2023-12-19T07:16:40Z</time>
      </trkpt>
      <trkpt lat="49.88782" lon="2.33367">
        <ele>24.7</ele>
        <time>2023-12-19T07:16:41Z</time>
      </trkpt>
      <trkpt lat="49.88783" lon="2.33366">
        <ele>24.7</ele>
        <time>2023-12-19T07:16:42Z</time>
      </trkpt>
      <trkpt lat="49.88783" lon="2.33364">
        <ele>24.7</ele>
        <time>2023-12-19T07:16:43Z</time>
      </trkpt>
      <trkpt lat="49.88783" lon="2.33362">
        <ele>24.8</ele>
        <time>2023-12-19T07:16:44Z</time>
      </trkpt>
      <trkpt lat="49.88783" lon="2.33361">
        <ele>24.8</ele>
        <time>2023-12-19T07:16:45Z</time>
      </trkpt>
      <trkpt lat="49.88783" lon="2.33358">
        <ele>24.8</ele>
        <time>2023-12-19T07:16:46Z</time>
      </trkpt>
      <trkpt lat="49.88784" lon="2.33356">
        <ele>24.8</ele>
        <time>2023-12-19T07:16:47Z</time>
      </trkpt>
      <trkpt lat="49.88784" lon="2.33354">
        <ele>24.8</ele>
        <time>2023-12-19T07:16:49Z</time>
      </trkpt>
      <trkpt lat="49.88784" lon="2.33353">
        <ele>24.8</ele>
        <time>2023-12-19T07:16:50Z</time>
      </trkpt>
      <trkpt lat="49.88784" lon="2.33351">
        <ele>24.8</ele>
        <time>2023-12-19T07:16:51Z</time>
      </trkpt>
      <trkpt lat="49.88784" lon="2.3335">
        <ele>24.9</ele>
        <time>2023-12-19T07:16:52Z</time>
      </trkpt>
      <trkpt lat="49.88785" lon="2.33346">
        <ele>24.9</ele>
        <time>2023-12-19T07:16:53Z</time>
      </trkpt>
      <trkpt lat="49.88785" lon="2.33345">
        <ele>24.9</ele>
        <time>2023-12-19T07:16:54Z</time>
      </trkpt>
      <trkpt lat="49.88785" lon="2.33344">
        <ele>24.9</ele>
        <time>2023-12-19T07:16:55Z</time>
      </trkpt>
      <trkpt lat="49.88786" lon="2.33342">
        <ele>24.9</ele>
        <time>2023-12-19T07:16:56Z</time>
      </trkpt>
      <trkpt lat="49.88786" lon="2.3334">
        <ele>25</ele>
        <time>2023-12-19T07:16:57Z</time>
      </trkpt>
      <trkpt lat="49.88786" lon="2.33338">
        <ele>25</ele>
        <time>2023-12-19T07:16:58Z</time>
      </trkpt>
      <trkpt lat="49.88786" lon="2.33336">
        <ele>25</ele>
        <time>2023-12-19T07:16:59Z</time>
      </trkpt>
      <trkpt lat="49.88786" lon="2.33334">
        <ele>25</ele>
        <time>2023-12-19T07:17:01Z</time>
      </trkpt>
      <trkpt lat="49.88786" lon="2.33333">
        <ele>25</ele>
        <time>2023-12-19T07:17:02Z</time>
      </trkpt>
      <trkpt lat="49.88785" lon="2.33334">
        <ele>25</ele>
        <time>2023-12-19T07:17:03Z</time>
      </trkpt>
      <trkpt lat="49.88784" lon="2.33333">
        <ele>25.1</ele>
        <time>2023-12-19T07:17:04Z</time>
      </trkpt>
      <trkpt lat="49.88783" lon="2.33332">
        <ele>25.1</ele>
        <time>2023-12-19T07:17:05Z</time>
      </trkpt>
      <trkpt lat="49.88782" lon="2.33331">
        <ele>25.1</ele>
        <time>2023-12-19T07:17:06Z</time>
      </trkpt>
      <trkpt lat="49.88781" lon="2.3333">
        <ele>25.1</ele>
        <time>2023-12-19T07:17:07Z</time>
      </trkpt>
      <trkpt lat="49.88781" lon="2.33328">
        <ele>25.2</ele>
        <time>2023-12-19T07:17:09Z</time>
      </trkpt>
      <trkpt lat="49.88781" lon="2.33326">
        <ele>25.2</ele>
        <time>2023-12-19T07:17:10Z</time>
      </trkpt>
      <trkpt lat="49.88781" lon="2.33324">
        <ele>25.2</ele>
        <time>2023-12-19T07:17:11Z</time>
      </trkpt>
      <trkpt lat="49.88781" lon="2.33321">
        <ele>25.2</ele>
        <time>2023-12-19T07:17:12Z</time>
      </trkpt>
      <trkpt lat="49.88782" lon="2.33319">
        <ele>25.3</ele>
        <time>2023-12-19T07:17:13Z</time>
      </trkpt>
      <trkpt lat="49.88782" lon="2.33316">
        <ele>25.3</ele>
        <time>2023-12-19T07:17:14Z</time>
      </trkpt>
      <trkpt lat="49.88783" lon="2.33314">
        <ele>25.4</ele>
        <time>2023-12-19T07:17:15Z</time>
      </trkpt>
      <trkpt lat="49.88783" lon="2.33312">
        <ele>25.4</ele>
        <time>2023-12-19T07:17:17Z</time>
      </trkpt>
      <trkpt lat="49.88783" lon="2.33309">
        <ele>25.4</ele>
        <time>2023-12-19T07:17:18Z</time>
      </trkpt>
      <trkpt lat="49.88783" lon="2.33307">
        <ele>25.5</ele>
        <time>2023-12-19T07:17:19Z</time>
      </trkpt>
      <trkpt lat="49.88783" lon="2.33305">
        <ele>25.5</ele>
        <time>2023-12-19T07:17:20Z</time>
      </trkpt>
      <trkpt lat="49.88783" lon="2.33303">
        <ele>25.5</ele>
        <time>2023-12-19T07:17:21Z</time>
      </trkpt>
      <trkpt lat="49.88783" lon="2.33302">
        <ele>25.5</ele>
        <time>2023-12-19T07:17:22Z</time>
      </trkpt>
      <trkpt lat="49.88783" lon="2.333">
        <ele>25.6</ele>
        <time>2023-12-19T07:17:23Z</time>
      </trkpt>
      <trkpt lat="49.88782" lon="2.33298">
        <ele>25.6</ele>
        <time>2023-12-19T07:17:24Z</time>
      </trkpt>
      <trkpt lat="49.88781" lon="2.33296">
        <ele>25.6</ele>
        <time>2023-12-19T07:17:25Z</time>
      </trkpt>
      <trkpt lat="49.88781" lon="2.33295">
        <ele>25.6</ele>
        <time>2023-12-19T07:17:27Z</time>
      </trkpt>
      <trkpt lat="49.8878" lon="2.33293">
        <ele>25.6</ele>
        <time>2023-12-19T07:17:28Z</time>
      </trkpt>
      <trkpt lat="49.88779" lon="2.33292">
        <ele>25.6</ele>
        <time>2023-12-19T07:17:29Z</time>
      </trkpt>
      <trkpt lat="49.88778" lon="2.33292">
        <ele>25.6</ele>
        <time>2023-12-19T07:17:30Z</time>
      </trkpt>
      <trkpt lat="49.88775" lon="2.33293">
        <ele>25.6</ele>
        <time>2023-12-19T07:17:31Z</time>
      </trkpt>
      <trkpt lat="49.88775" lon="2.33293">
        <ele>25.6</ele>
        <time>2023-12-19T07:17:32Z</time>
      </trkpt>
      <trkpt lat="49.88774" lon="2.33293">
        <ele>25.6</ele>
        <time>2023-12-19T07:17:33Z</time>
      </trkpt>
      <trkpt lat="49.88772" lon="2.33293">
        <ele>25.6</ele>
        <time>2023-12-19T07:17:34Z</time>
      </trkpt>
      <trkpt lat="49.88771" lon="2.33293">
        <ele>25.6</ele>
        <time>2023-12-19T07:17:35Z</time>
      </trkpt>
      <trkpt lat="49.88769" lon="2.33293">
        <ele>25.6</ele>
        <time>2023-12-19T07:17:36Z</time>
      </trkpt>
      <trkpt lat="49.88768" lon="2.33293">
        <ele>25.6</ele>
        <time>2023-12-19T07:17:38Z</time>
      </trkpt>
      <trkpt lat="49.88766" lon="2.33293">
        <ele>25.6</ele>
        <time>2023-12-19T07:17:39Z</time>
      </trkpt>
      <trkpt lat="49.88764" lon="2.33292">
        <ele>25.6</ele>
        <time>2023-12-19T07:17:40Z</time>
      </trkpt>
      <trkpt lat="49.88763" lon="2.33292">
        <ele>25.5</ele>
        <time>2023-12-19T07:17:41Z</time>
      </trkpt>
      <trkpt lat="49.88762" lon="2.33292">
        <ele>25.5</ele>
        <time>2023-12-19T07:17:42Z</time>
      </trkpt>
      <trkpt lat="49.8876" lon="2.33291">
        <ele>25.5</ele>
        <time>2023-12-19T07:17:43Z</time>
      </trkpt>
      <trkpt lat="49.88759" lon="2.33291">
        <ele>25.5</ele>
        <time>2023-12-19T07:17:44Z</time>
      </trkpt>
      <trkpt lat="49.88757" lon="2.33291">
        <ele>25.5</ele>
        <time>2023-12-19T07:17:45Z</time>
      </trkpt>
      <trkpt lat="49.88756" lon="2.33291">
        <ele>25.5</ele>
        <time>2023-12-19T07:17:46Z</time>
      </trkpt>
      <trkpt lat="49.88754" lon="2.33291">
        <ele>25.5</ele>
        <time>2023-12-19T07:17:47Z</time>
      </trkpt>
      <trkpt lat="49.88753" lon="2.33291">
        <ele>25.5</ele>
        <time>2023-12-19T07:17:48Z</time>
      </trkpt>
      <trkpt lat="49.88751" lon="2.33291">
        <ele>25.5</ele>
        <time>2023-12-19T07:17:49Z</time>
      </trkpt>
      <trkpt lat="49.8875" lon="2.3329">
        <ele>25.4</ele>
        <time>2023-12-19T07:17:50Z</time>
      </trkpt>
      <trkpt lat="49.88748" lon="2.3329">
        <ele>25.4</ele>
        <time>2023-12-19T07:17:52Z</time>
      </trkpt>
      <trkpt lat="49.88747" lon="2.33291">
        <ele>25.4</ele>
        <time>2023-12-19T07:17:53Z</time>
      </trkpt>
      <trkpt lat="49.88745" lon="2.33291">
        <ele>25.4</ele>
        <time>2023-12-19T07:17:54Z</time>
      </trkpt>
      <trkpt lat="49.88744" lon="2.33291">
        <ele>25.4</ele>
        <time>2023-12-19T07:17:55Z</time>
      </trkpt>
      <trkpt lat="49.88743" lon="2.33291">
        <ele>25.4</ele>
        <time>2023-12-19T07:17:56Z</time>
      </trkpt>
      <trkpt lat="49.88741" lon="2.33291">
        <ele>25.4</ele>
        <time>2023-12-19T07:17:57Z</time>
      </trkpt>
      <trkpt lat="49.88738" lon="2.33291">
        <ele>25.4</ele>
        <time>2023-12-19T07:17:59Z</time>
      </trkpt>
      <trkpt lat="49.88738" lon="2.33291">
        <ele>25.3</ele>
        <time>2023-12-19T07:18:00Z</time>
      </trkpt>
      <trkpt lat="49.88736" lon="2.33291">
        <ele>25.3</ele>
        <time>2023-12-19T07:18:01Z</time>
      </trkpt>
      <trkpt lat="49.88735" lon="2.33291">
        <ele>25.3</ele>
        <time>2023-12-19T07:18:02Z</time>
      </trkpt>
      <trkpt lat="49.88734" lon="2.33291">
        <ele>25.3</ele>
        <time>2023-12-19T07:18:03Z</time>
      </trkpt>
      <trkpt lat="49.88732" lon="2.3329">
        <ele>25.3</ele>
        <time>2023-12-19T07:18:04Z</time>
      </trkpt>
      <trkpt lat="49.8873" lon="2.3329">
        <ele>25.3</ele>
        <time>2023-12-19T07:18:05Z</time>
      </trkpt>
      <trkpt lat="49.88729" lon="2.33289">
        <ele>25.3</ele>
        <time>2023-12-19T07:18:07Z</time>
      </trkpt>
      <trkpt lat="49.88728" lon="2.33288">
        <ele>25.3</ele>
        <time>2023-12-19T07:18:08Z</time>
      </trkpt>
      <trkpt lat="49.88726" lon="2.33288">
        <ele>25.3</ele>
        <time>2023-12-19T07:18:09Z</time>
      </trkpt>
      <trkpt lat="49.88725" lon="2.33287">
        <ele>25.3</ele>
        <time>2023-12-19T07:18:10Z</time>
      </trkpt>
      <trkpt lat="49.88723" lon="2.33286">
        <ele>25.3</ele>
        <time>2023-12-19T07:18:11Z</time>
      </trkpt>
      <trkpt lat="49.88722" lon="2.33286">
        <ele>25.3</ele>
        <time>2023-12-19T07:18:12Z</time>
      </trkpt>
      <trkpt lat="49.88721" lon="2.33285">
        <ele>25.3</ele>
        <time>2023-12-19T07:18:13Z</time>
      </trkpt>
      <trkpt lat="49.88719" lon="2.33285">
        <ele>25.3</ele>
        <time>2023-12-19T07:18:14Z</time>
      </trkpt>
      <trkpt lat="49.88718" lon="2.33284">
        <ele>25.3</ele>
        <time>2023-12-19T07:18:15Z</time>
      </trkpt>
      <trkpt lat="49.88717" lon="2.33284">
        <ele>25.3</ele>
        <time>2023-12-19T07:18:16Z</time>
      </trkpt>
      <trkpt lat="49.88716" lon="2.33283">
        <ele>25.3</ele>
        <time>2023-12-19T07:18:17Z</time>
      </trkpt>
      <trkpt lat="49.88714" lon="2.33283">
        <ele>25.3</ele>
        <time>2023-12-19T07:18:18Z</time>
      </trkpt>
      <trkpt lat="49.88713" lon="2.33282">
        <ele>25.3</ele>
        <time>2023-12-19T07:18:19Z</time>
      </trkpt>
      <trkpt lat="49.88711" lon="2.33281">
        <ele>25.3</ele>
        <time>2023-12-19T07:18:20Z</time>
      </trkpt>
      <trkpt lat="49.8871" lon="2.33281">
        <ele>25.3</ele>
        <time>2023-12-19T07:18:22Z</time>
      </trkpt>
      <trkpt lat="49.88709" lon="2.3328">
        <ele>25.3</ele>
        <time>2023-12-19T07:18:23Z</time>
      </trkpt>
      <trkpt lat="49.88707" lon="2.33279">
        <ele>25.3</ele>
        <time>2023-12-19T07:18:24Z</time>
      </trkpt>
      <trkpt lat="49.88706" lon="2.33278">
        <ele>25.3</ele>
        <time>2023-12-19T07:18:25Z</time>
      </trkpt>
      <trkpt lat="49.88704" lon="2.33277">
        <ele>25.3</ele>
        <time>2023-12-19T07:18:26Z</time>
      </trkpt>
      <trkpt lat="49.88703" lon="2.33276">
        <ele>25.3</ele>
        <time>2023-12-19T07:18:27Z</time>
      </trkpt>
      <trkpt lat="49.88703" lon="2.33276">
        <ele>25.3</ele>
        <time>2023-12-19T07:18:28Z</time>
      </trkpt>
      <trkpt lat="49.88701" lon="2.33274">
        <ele>25.3</ele>
        <time>2023-12-19T07:18:29Z</time>
      </trkpt>
      <trkpt lat="49.887" lon="2.33274">
        <ele>25.3</ele>
        <time>2023-12-19T07:18:30Z</time>
      </trkpt>
      <trkpt lat="49.88699" lon="2.33273">
        <ele>25.4</ele>
        <time>2023-12-19T07:18:31Z</time>
      </trkpt>
      <trkpt lat="49.88697" lon="2.33272">
        <ele>25.4</ele>
        <time>2023-12-19T07:18:33Z</time>
      </trkpt>
      <trkpt lat="49.88696" lon="2.3327">
        <ele>25.4</ele>
        <time>2023-12-19T07:18:34Z</time>
      </trkpt>
      <trkpt lat="49.88695" lon="2.33269">
        <ele>25.4</ele>
        <time>2023-12-19T07:18:35Z</time>
      </trkpt>
      <trkpt lat="49.88694" lon="2.33268">
        <ele>25.4</ele>
        <time>2023-12-19T07:18:36Z</time>
      </trkpt>
      <trkpt lat="49.88692" lon="2.33266">
        <ele>25.4</ele>
        <time>2023-12-19T07:18:38Z</time>
      </trkpt>
      <trkpt lat="49.88691" lon="2.33265">
        <ele>25.4</ele>
        <time>2023-12-19T07:18:39Z</time>
      </trkpt>
      <trkpt lat="49.8869" lon="2.33264">
        <ele>25.5</ele>
        <time>2023-12-19T07:18:40Z</time>
      </trkpt>
      <trkpt lat="49.88689" lon="2.33262">
        <ele>25.5</ele>
        <time>2023-12-19T07:18:41Z</time>
      </trkpt>
      <trkpt lat="49.88687" lon="2.3326">
        <ele>25.5</ele>
        <time>2023-12-19T07:18:42Z</time>
      </trkpt>
      <trkpt lat="49.88686" lon="2.3326">
        <ele>25.5</ele>
        <time>2023-12-19T07:18:43Z</time>
      </trkpt>
      <trkpt lat="49.88685" lon="2.33259">
        <ele>25.5</ele>
        <time>2023-12-19T07:18:44Z</time>
      </trkpt>
      <trkpt lat="49.88683" lon="2.33257">
        <ele>25.5</ele>
        <time>2023-12-19T07:18:45Z</time>
      </trkpt>
      <trkpt lat="49.88683" lon="2.33256">
        <ele>25.5</ele>
        <time>2023-12-19T07:18:46Z</time>
      </trkpt>
      <trkpt lat="49.88682" lon="2.33256">
        <ele>25.5</ele>
        <time>2023-12-19T07:18:47Z</time>
      </trkpt>
      <trkpt lat="49.88681" lon="2.33255">
        <ele>25.6</ele>
        <time>2023-12-19T07:18:49Z</time>
      </trkpt>
      <trkpt lat="49.88679" lon="2.33253">
        <ele>25.6</ele>
        <time>2023-12-19T07:18:50Z</time>
      </trkpt>
      <trkpt lat="49.88678" lon="2.33252">
        <ele>25.6</ele>
        <time>2023-12-19T07:18:51Z</time>
      </trkpt>
      <trkpt lat="49.88677" lon="2.33251">
        <ele>25.6</ele>
        <time>2023-12-19T07:18:52Z</time>
      </trkpt>
      <trkpt lat="49.88676" lon="2.33251">
        <ele>25.6</ele>
        <time>2023-12-19T07:18:53Z</time>
      </trkpt>
      <trkpt lat="49.88674" lon="2.33249">
        <ele>25.6</ele>
        <time>2023-12-19T07:18:54Z</time>
      </trkpt>
      <trkpt lat="49.88673" lon="2.33249">
        <ele>25.6</ele>
        <time>2023-12-19T07:18:56Z</time>
      </trkpt>
      <trkpt lat="49.88673" lon="2.33248">
        <ele>25.7</ele>
        <time>2023-12-19T07:18:57Z</time>
      </trkpt>
      <trkpt lat="49.88671" lon="2.33247">
        <ele>25.7</ele>
        <time>2023-12-19T07:18:58Z</time>
      </trkpt>
      <trkpt lat="49.8867" lon="2.33247">
        <ele>25.7</ele>
        <time>2023-12-19T07:18:59Z</time>
      </trkpt>
      <trkpt lat="49.88669" lon="2.33246">
        <ele>25.7</ele>
        <time>2023-12-19T07:19:00Z</time>
      </trkpt>
      <trkpt lat="49.88668" lon="2.33246">
        <ele>25.7</ele>
        <time>2023-12-19T07:19:01Z</time>
      </trkpt>
      <trkpt lat="49.88667" lon="2.33245">
        <ele>25.7</ele>
        <time>2023-12-19T07:19:02Z</time>
      </trkpt>
      <trkpt lat="49.88665" lon="2.33244">
        <ele>25.7</ele>
        <time>2023-12-19T07:19:04Z</time>
      </trkpt>
      <trkpt lat="49.88663" lon="2.33243">
        <ele>25.8</ele>
        <time>2023-12-19T07:19:05Z</time>
      </trkpt>
      <trkpt lat="49.88663" lon="2.33243">
        <ele>25.8</ele>
        <time>2023-12-19T07:19:06Z</time>
      </trkpt>
      <trkpt lat="49.88662" lon="2.33242">
        <ele>25.8</ele>
        <time>2023-12-19T07:19:07Z</time>
      </trkpt>
      <trkpt lat="49.8866" lon="2.33242">
        <ele>25.8</ele>
        <time>2023-12-19T07:19:08Z</time>
      </trkpt>
      <trkpt lat="49.88659" lon="2.33241">
        <ele>25.8</ele>
        <time>2023-12-19T07:19:09Z</time>
      </trkpt>
      <trkpt lat="49.88658" lon="2.33241">
        <ele>25.8</ele>
        <time>2023-12-19T07:19:10Z</time>
      </trkpt>
      <trkpt lat="49.88656" lon="2.3324">
        <ele>25.8</ele>
        <time>2023-12-19T07:19:12Z</time>
      </trkpt>
      <trkpt lat="49.88655" lon="2.33239">
        <ele>25.9</ele>
        <time>2023-12-19T07:19:13Z</time>
      </trkpt>
      <trkpt lat="49.88653" lon="2.33239">
        <ele>25.9</ele>
        <time>2023-12-19T07:19:14Z</time>
      </trkpt>
      <trkpt lat="49.88652" lon="2.33238">
        <ele>25.9</ele>
        <time>2023-12-19T07:19:15Z</time>
      </trkpt>
      <trkpt lat="49.8865" lon="2.33238">
        <ele>25.9</ele>
        <time>2023-12-19T07:19:16Z</time>
      </trkpt>
      <trkpt lat="49.88648" lon="2.33237">
        <ele>26</ele>
        <time>2023-12-19T07:19:18Z</time>
      </trkpt>
      <trkpt lat="49.88646" lon="2.33236">
        <ele>26</ele>
        <time>2023-12-19T07:19:19Z</time>
      </trkpt>
      <trkpt lat="49.88645" lon="2.33235">
        <ele>26</ele>
        <time>2023-12-19T07:19:20Z</time>
      </trkpt>
      <trkpt lat="49.88644" lon="2.33234">
        <ele>26</ele>
        <time>2023-12-19T07:19:21Z</time>
      </trkpt>
      <trkpt lat="49.88642" lon="2.33233">
        <ele>26</ele>
        <time>2023-12-19T07:19:22Z</time>
      </trkpt>
      <trkpt lat="49.88641" lon="2.33232">
        <ele>26.1</ele>
        <time>2023-12-19T07:19:23Z</time>
      </trkpt>
      <trkpt lat="49.8864" lon="2.33231">
        <ele>26.1</ele>
        <time>2023-12-19T07:19:24Z</time>
      </trkpt>
      <trkpt lat="49.88638" lon="2.3323">
        <ele>26.1</ele>
        <time>2023-12-19T07:19:25Z</time>
      </trkpt>
      <trkpt lat="49.88637" lon="2.3323">
        <ele>26.1</ele>
        <time>2023-12-19T07:19:26Z</time>
      </trkpt>
      <trkpt lat="49.88636" lon="2.33229">
        <ele>26.2</ele>
        <time>2023-12-19T07:19:27Z</time>
      </trkpt>
      <trkpt lat="49.88634" lon="2.33229">
        <ele>26.2</ele>
        <time>2023-12-19T07:19:28Z</time>
      </trkpt>
      <trkpt lat="49.88632" lon="2.33227">
        <ele>26.2</ele>
        <time>2023-12-19T07:19:29Z</time>
      </trkpt>
      <trkpt lat="49.88631" lon="2.33227">
        <ele>26.2</ele>
        <time>2023-12-19T07:19:31Z</time>
      </trkpt>
      <trkpt lat="49.8863" lon="2.33227">
        <ele>26.2</ele>
        <time>2023-12-19T07:19:32Z</time>
      </trkpt>
      <trkpt lat="49.88629" lon="2.33226">
        <ele>26.3</ele>
        <time>2023-12-19T07:19:33Z</time>
      </trkpt>
      <trkpt lat="49.88628" lon="2.33226">
        <ele>26.3</ele>
        <time>2023-12-19T07:19:34Z</time>
      </trkpt>
      <trkpt lat="49.88627" lon="2.33225">
        <ele>26.3</ele>
        <time>2023-12-19T07:19:35Z</time>
      </trkpt>
      <trkpt lat="49.88626" lon="2.33224">
        <ele>26.3</ele>
        <time>2023-12-19T07:19:37Z</time>
      </trkpt>
      <trkpt lat="49.88625" lon="2.33223">
        <ele>26.3</ele>
        <time>2023-12-19T07:19:38Z</time>
      </trkpt>
      <trkpt lat="49.88623" lon="2.33221">
        <ele>26.3</ele>
        <time>2023-12-19T07:19:39Z</time>
      </trkpt>
      <trkpt lat="49.88622" lon="2.33221">
        <ele>26.4</ele>
        <time>2023-12-19T07:19:40Z</time>
      </trkpt>
      <trkpt lat="49.88621" lon="2.3322">
        <ele>26.4</ele>
        <time>2023-12-19T07:19:41Z</time>
      </trkpt>
      <trkpt lat="49.88621" lon="2.33219">
        <ele>26.4</ele>
        <time>2023-12-19T07:19:42Z</time>
      </trkpt>
      <trkpt lat="49.88619" lon="2.33218">
        <ele>26.4</ele>
        <time>2023-12-19T07:19:44Z</time>
      </trkpt>
      <trkpt lat="49.88619" lon="2.33217">
        <ele>26.4</ele>
        <time>2023-12-19T07:19:45Z</time>
      </trkpt>
      <trkpt lat="49.88618" lon="2.33216">
        <ele>26.4</ele>
        <time>2023-12-19T07:19:46Z</time>
      </trkpt>
      <trkpt lat="49.88618" lon="2.33215">
        <ele>26.4</ele>
        <time>2023-12-19T07:19:47Z</time>
      </trkpt>
      <trkpt lat="49.88617" lon="2.33214">
        <ele>26.5</ele>
        <time>2023-12-19T07:19:48Z</time>
      </trkpt>
      <trkpt lat="49.88616" lon="2.33214">
        <ele>26.5</ele>
        <time>2023-12-19T07:19:49Z</time>
      </trkpt>
      <trkpt lat="49.88614" lon="2.33214">
        <ele>26.6</ele>
        <time>2023-12-19T07:19:50Z</time>
      </trkpt>
      <trkpt lat="49.88613" lon="2.33214">
        <ele>26.6</ele>
        <time>2023-12-19T07:19:52Z</time>
      </trkpt>
      <trkpt lat="49.88612" lon="2.33213">
        <ele>26.6</ele>
        <time>2023-12-19T07:19:53Z</time>
      </trkpt>
      <trkpt lat="49.88611" lon="2.33212">
        <ele>26.7</ele>
        <time>2023-12-19T07:19:54Z</time>
      </trkpt>
      <trkpt lat="49.8861" lon="2.33211">
        <ele>26.7</ele>
        <time>2023-12-19T07:19:55Z</time>
      </trkpt>
      <trkpt lat="49.88609" lon="2.3321">
        <ele>26.7</ele>
        <time>2023-12-19T07:19:56Z</time>
      </trkpt>
      <trkpt lat="49.88608" lon="2.33208">
        <ele>26.8</ele>
        <time>2023-12-19T07:19:57Z</time>
      </trkpt>
      <trkpt lat="49.88607" lon="2.33206">
        <ele>26.8</ele>
        <time>2023-12-19T07:19:58Z</time>
      </trkpt>
      <trkpt lat="49.88606" lon="2.33204">
        <ele>26.9</ele>
        <time>2023-12-19T07:19:59Z</time>
      </trkpt>
      <trkpt lat="49.88605" lon="2.33202">
        <ele>26.9</ele>
        <time>2023-12-19T07:20:00Z</time>
      </trkpt>
      <trkpt lat="49.88605" lon="2.332">
        <ele>27</ele>
        <time>2023-12-19T07:20:02Z</time>
      </trkpt>
      <trkpt lat="49.88604" lon="2.33198">
        <ele>27</ele>
        <time>2023-12-19T07:20:03Z</time>
      </trkpt>
      <trkpt lat="49.88603" lon="2.33196">
        <ele>27.1</ele>
        <time>2023-12-19T07:20:04Z</time>
      </trkpt>
      <trkpt lat="49.88602" lon="2.33194">
        <ele>27.1</ele>
        <time>2023-12-19T07:20:05Z</time>
      </trkpt>
      <trkpt lat="49.88602" lon="2.33193">
        <ele>27.1</ele>
        <time>2023-12-19T07:20:06Z</time>
      </trkpt>
      <trkpt lat="49.88601" lon="2.33191">
        <ele>27.2</ele>
        <time>2023-12-19T07:20:07Z</time>
      </trkpt>
      <trkpt lat="49.88601" lon="2.3319">
        <ele>27.2</ele>
        <time>2023-12-19T07:20:08Z</time>
      </trkpt>
      <trkpt lat="49.886" lon="2.33189">
        <ele>27.2</ele>
        <time>2023-12-19T07:20:09Z</time>
      </trkpt>
      <trkpt lat="49.886" lon="2.33187">
        <ele>27.3</ele>
        <time>2023-12-19T07:20:10Z</time>
      </trkpt>
      <trkpt lat="49.886" lon="2.33186">
        <ele>27.3</ele>
        <time>2023-12-19T07:20:12Z</time>
      </trkpt>
      <trkpt lat="49.886" lon="2.33185">
        <ele>27.3</ele>
        <time>2023-12-19T07:20:13Z</time>
      </trkpt>
      <trkpt lat="49.88599" lon="2.33184">
        <ele>27.3</ele>
        <time>2023-12-19T07:20:14Z</time>
      </trkpt>
      <trkpt lat="49.88599" lon="2.33183">
        <ele>27.4</ele>
        <time>2023-12-19T07:20:15Z</time>
      </trkpt>
      <trkpt lat="49.88598" lon="2.33182">
        <ele>27.4</ele>
        <time>2023-12-19T07:20:16Z</time>
      </trkpt>
      <trkpt lat="49.88598" lon="2.3318">
        <ele>27.4</ele>
        <time>2023-12-19T07:20:18Z</time>
      </trkpt>
      <trkpt lat="49.88598" lon="2.33179">
        <ele>27.5</ele>
        <time>2023-12-19T07:20:19Z</time>
      </trkpt>
      <trkpt lat="49.88599" lon="2.33178">
        <ele>27.5</ele>
        <time>2023-12-19T07:20:20Z</time>
      </trkpt>
      <trkpt lat="49.88599" lon="2.33177">
        <ele>27.5</ele>
        <time>2023-12-19T07:20:21Z</time>
      </trkpt>
      <trkpt lat="49.88599" lon="2.33176">
        <ele>27.5</ele>
        <time>2023-12-19T07:20:22Z</time>
      </trkpt>
      <trkpt lat="49.88599" lon="2.33175">
        <ele>27.6</ele>
        <time>2023-12-19T07:20:23Z</time>
      </trkpt>
      <trkpt lat="49.88598" lon="2.33173">
        <ele>27.6</ele>
        <time>2023-12-19T07:20:24Z</time>
      </trkpt>
      <trkpt lat="49.88598" lon="2.33172">
        <ele>27.6</ele>
        <time>2023-12-19T07:20:25Z</time>
      </trkpt>
      <trkpt lat="49.88597" lon="2.3317">
        <ele>27.7</ele>
        <time>2023-12-19T07:20:26Z</time>
      </trkpt>
      <trkpt lat="49.88597" lon="2.33169">
        <ele>27.7</ele>
        <time>2023-12-19T07:20:28Z</time>
      </trkpt>
      <trkpt lat="49.88597" lon="2.33168">
        <ele>27.7</ele>
        <time>2023-12-19T07:20:29Z</time>
      </trkpt>
      <trkpt lat="49.88596" lon="2.33166">
        <ele>27.8</ele>
        <time>2023-12-19T07:20:30Z</time>
      </trkpt>
      <trkpt lat="49.88596" lon="2.33165">
        <ele>27.8</ele>
        <time>2023-12-19T07:20:31Z</time>
      </trkpt>
      <trkpt lat="49.88596" lon="2.33164">
        <ele>27.8</ele>
        <time>2023-12-19T07:20:32Z</time>
      </trkpt>
      <trkpt lat="49.88595" lon="2.33163">
        <ele>27.8</ele>
        <time>2023-12-19T07:20:33Z</time>
      </trkpt>
      <trkpt lat="49.88594" lon="2.33161">
        <ele>27.9</ele>
        <time>2023-12-19T07:20:34Z</time>
      </trkpt>
      <trkpt lat="49.88594" lon="2.33159">
        <ele>27.9</ele>
        <time>2023-12-19T07:20:35Z</time>
      </trkpt>
      <trkpt lat="49.88593" lon="2.33158">
        <ele>28</ele>
        <time>2023-12-19T07:20:37Z</time>
      </trkpt>
      <trkpt lat="49.88593" lon="2.33156">
        <ele>28</ele>
        <time>2023-12-19T07:20:38Z</time>
      </trkpt>
      <trkpt lat="49.88592" lon="2.33155">
        <ele>28.1</ele>
        <time>2023-12-19T07:20:39Z</time>
      </trkpt>
      <trkpt lat="49.88591" lon="2.33153">
        <ele>28.1</ele>
        <time>2023-12-19T07:20:40Z</time>
      </trkpt>
      <trkpt lat="49.88591" lon="2.33151">
        <ele>28.2</ele>
        <time>2023-12-19T07:20:41Z</time>
      </trkpt>
      <trkpt lat="49.8859" lon="2.33148">
        <ele>28.2</ele>
        <time>2023-12-19T07:20:42Z</time>
      </trkpt>
      <trkpt lat="49.88589" lon="2.33144">
        <ele>28.3</ele>
        <time>2023-12-19T07:20:43Z</time>
      </trkpt>
      <trkpt lat="49.88588" lon="2.33143">
        <ele>28.4</ele>
        <time>2023-12-19T07:20:44Z</time>
      </trkpt>
      <trkpt lat="49.88587" lon="2.33139">
        <ele>28.5</ele>
        <time>2023-12-19T07:20:45Z</time>
      </trkpt>
      <trkpt lat="49.88586" lon="2.33138">
        <ele>28.5</ele>
        <time>2023-12-19T07:20:46Z</time>
      </trkpt>
      <trkpt lat="49.88584" lon="2.33134">
        <ele>28.7</ele>
        <time>2023-12-19T07:20:48Z</time>
      </trkpt>
      <trkpt lat="49.88583" lon="2.33133">
        <ele>28.7</ele>
        <time>2023-12-19T07:20:49Z</time>
      </trkpt>
      <trkpt lat="49.88582" lon="2.3313">
        <ele>28.8</ele>
        <time>2023-12-19T07:20:50Z</time>
      </trkpt>
      <trkpt lat="49.88581" lon="2.33129">
        <ele>28.9</ele>
        <time>2023-12-19T07:20:51Z</time>
      </trkpt>
      <trkpt lat="49.88579" lon="2.33125">
        <ele>29</ele>
        <time>2023-12-19T07:20:52Z</time>
      </trkpt>
      <trkpt lat="49.88579" lon="2.33124">
        <ele>29.1</ele>
        <time>2023-12-19T07:20:53Z</time>
      </trkpt>
      <trkpt lat="49.88578" lon="2.33122">
        <ele>29.2</ele>
        <time>2023-12-19T07:20:54Z</time>
      </trkpt>
      <trkpt lat="49.88577" lon="2.3312">
        <ele>29.2</ele>
        <time>2023-12-19T07:20:55Z</time>
      </trkpt>
      <trkpt lat="49.88576" lon="2.33118">
        <ele>29.3</ele>
        <time>2023-12-19T07:20:56Z</time>
      </trkpt>
      <trkpt lat="49.88575" lon="2.33116">
        <ele>29.4</ele>
        <time>2023-12-19T07:20:58Z</time>
      </trkpt>
      <trkpt lat="49.88574" lon="2.33114">
        <ele>29.5</ele>
        <time>2023-12-19T07:20:59Z</time>
      </trkpt>
      <trkpt lat="49.88573" lon="2.33112">
        <ele>29.6</ele>
        <time>2023-12-19T07:21:00Z</time>
      </trkpt>
      <trkpt lat="49.88572" lon="2.3311">
        <ele>29.7</ele>
        <time>2023-12-19T07:21:01Z</time>
      </trkpt>
      <trkpt lat="49.88571" lon="2.33109">
        <ele>29.7</ele>
        <time>2023-12-19T07:21:02Z</time>
      </trkpt>
      <trkpt lat="49.88571" lon="2.33108">
        <ele>29.7</ele>
        <time>2023-12-19T07:21:03Z</time>
      </trkpt>
      <trkpt lat="49.88569" lon="2.33105">
        <ele>29.9</ele>
        <time>2023-12-19T07:21:04Z</time>
      </trkpt>
      <trkpt lat="49.88569" lon="2.33104">
        <ele>29.9</ele>
        <time>2023-12-19T07:21:06Z</time>
      </trkpt>
      <trkpt lat="49.88568" lon="2.33103">
        <ele>29.9</ele>
        <time>2023-12-19T07:21:07Z</time>
      </trkpt>
      <trkpt lat="49.88568" lon="2.33101">
        <ele>30.1</ele>
        <time>2023-12-19T07:21:08Z</time>
      </trkpt>
      <trkpt lat="49.88567" lon="2.331">
        <ele>30.2</ele>
        <time>2023-12-19T07:21:09Z</time>
      </trkpt>
      <trkpt lat="49.88567" lon="2.33098">
        <ele>30.3</ele>
        <time>2023-12-19T07:21:10Z</time>
      </trkpt>
      <trkpt lat="49.88566" lon="2.33097">
        <ele>30.4</ele>
        <time>2023-12-19T07:21:11Z</time>
      </trkpt>
      <trkpt lat="49.88565" lon="2.33096">
        <ele>30.6</ele>
        <time>2023-12-19T07:21:12Z</time>
      </trkpt>
      <trkpt lat="49.88564" lon="2.33095">
        <ele>30.7</ele>
        <time>2023-12-19T07:21:14Z</time>
      </trkpt>
      <trkpt lat="49.88563" lon="2.33093">
        <ele>30.9</ele>
        <time>2023-12-19T07:21:15Z</time>
      </trkpt>
      <trkpt lat="49.88562" lon="2.33092">
        <ele>31</ele>
        <time>2023-12-19T07:21:16Z</time>
      </trkpt>
      <trkpt lat="49.88562" lon="2.33091">
        <ele>31.1</ele>
        <time>2023-12-19T07:21:17Z</time>
      </trkpt>
      <trkpt lat="49.88561" lon="2.3309">
        <ele>31.2</ele>
        <time>2023-12-19T07:21:18Z</time>
      </trkpt>
      <trkpt lat="49.88561" lon="2.33089">
        <ele>31.3</ele>
        <time>2023-12-19T07:21:19Z</time>
      </trkpt>
      <trkpt lat="49.8856" lon="2.33088">
        <ele>31.4</ele>
        <time>2023-12-19T07:21:20Z</time>
      </trkpt>
      <trkpt lat="49.8856" lon="2.33087">
        <ele>31.5</ele>
        <time>2023-12-19T07:21:22Z</time>
      </trkpt>
      <trkpt lat="49.88559" lon="2.33086">
        <ele>31.7</ele>
        <time>2023-12-19T07:21:23Z</time>
      </trkpt>
      <trkpt lat="49.88558" lon="2.33084">
        <ele>31.8</ele>
        <time>2023-12-19T07:21:24Z</time>
      </trkpt>
      <trkpt lat="49.88557" lon="2.33083">
        <ele>31.9</ele>
        <time>2023-12-19T07:21:25Z</time>
      </trkpt>
      <trkpt lat="49.88557" lon="2.33083">
        <ele>32</ele>
        <time>2023-12-19T07:21:26Z</time>
      </trkpt>
      <trkpt lat="49.88557" lon="2.33082">
        <ele>32</ele>
        <time>2023-12-19T07:21:27Z</time>
      </trkpt>
      <trkpt lat="49.88556" lon="2.33081">
        <ele>32.1</ele>
        <time>2023-12-19T07:21:28Z</time>
      </trkpt>
      <trkpt lat="49.88556" lon="2.3308">
        <ele>32.2</ele>
        <time>2023-12-19T07:21:30Z</time>
      </trkpt>
      <trkpt lat="49.88556" lon="2.33079">
        <ele>32.3</ele>
        <time>2023-12-19T07:21:31Z</time>
      </trkpt>
      <trkpt lat="49.88555" lon="2.33077">
        <ele>32.4</ele>
        <time>2023-12-19T07:21:32Z</time>
      </trkpt>
      <trkpt lat="49.88555" lon="2.33076">
        <ele>32.5</ele>
        <time>2023-12-19T07:21:33Z</time>
      </trkpt>
      <trkpt lat="49.88554" lon="2.33075">
        <ele>32.7</ele>
        <time>2023-12-19T07:21:34Z</time>
      </trkpt>
      <trkpt lat="49.88553" lon="2.33073">
        <ele>32.9</ele>
        <time>2023-12-19T07:21:36Z</time>
      </trkpt>
      <trkpt lat="49.88553" lon="2.33072">
        <ele>33</ele>
        <time>2023-12-19T07:21:37Z</time>
      </trkpt>
      <trkpt lat="49.88552" lon="2.3307">
        <ele>33.2</ele>
        <time>2023-12-19T07:21:38Z</time>
      </trkpt>
      <trkpt lat="49.88551" lon="2.33069">
        <ele>33.3</ele>
        <time>2023-12-19T07:21:39Z</time>
      </trkpt>
      <trkpt lat="49.8855" lon="2.33068">
        <ele>33.4</ele>
        <time>2023-12-19T07:21:40Z</time>
      </trkpt>
      <trkpt lat="49.88549" lon="2.33067">
        <ele>33.6</ele>
        <time>2023-12-19T07:21:41Z</time>
      </trkpt>
      <trkpt lat="49.88548" lon="2.33066">
        <ele>33.7</ele>
        <time>2023-12-19T07:21:43Z</time>
      </trkpt>
      <trkpt lat="49.88548" lon="2.33064">
        <ele>33.9</ele>
        <time>2023-12-19T07:21:44Z</time>
      </trkpt>
      <trkpt lat="49.88547" lon="2.33063">
        <ele>34</ele>
        <time>2023-12-19T07:21:45Z</time>
      </trkpt>
      <trkpt lat="49.88546" lon="2.33063">
        <ele>34.1</ele>
        <time>2023-12-19T07:21:46Z</time>
      </trkpt>
      <trkpt lat="49.88545" lon="2.33061">
        <ele>34.2</ele>
        <time>2023-12-19T07:21:47Z</time>
      </trkpt>
      <trkpt lat="49.88545" lon="2.3306">
        <ele>34.4</ele>
        <time>2023-12-19T07:21:48Z</time>
      </trkpt>
      <trkpt lat="49.88544" lon="2.33059">
        <ele>34.5</ele>
        <time>2023-12-19T07:21:49Z</time>
      </trkpt>
      <trkpt lat="49.88543" lon="2.33058">
        <ele>34.6</ele>
        <time>2023-12-19T07:21:50Z</time>
      </trkpt>
      <trkpt lat="49.88543" lon="2.33057">
        <ele>34.7</ele>
        <time>2023-12-19T07:21:52Z</time>
      </trkpt>
      <trkpt lat="49.88542" lon="2.33057">
        <ele>34.8</ele>
        <time>2023-12-19T07:21:53Z</time>
      </trkpt>
      <trkpt lat="49.88542" lon="2.33056">
        <ele>34.9</ele>
        <time>2023-12-19T07:21:54Z</time>
      </trkpt>
      <trkpt lat="49.88541" lon="2.33055">
        <ele>35</ele>
        <time>2023-12-19T07:21:55Z</time>
      </trkpt>
      <trkpt lat="49.88541" lon="2.33054">
        <ele>35.1</ele>
        <time>2023-12-19T07:21:56Z</time>
      </trkpt>
      <trkpt lat="49.88541" lon="2.33053">
        <ele>35.1</ele>
        <time>2023-12-19T07:21:57Z</time>
      </trkpt>
      <trkpt lat="49.88541" lon="2.33052">
        <ele>35.3</ele>
        <time>2023-12-19T07:21:58Z</time>
      </trkpt>
      <trkpt lat="49.88541" lon="2.3305">
        <ele>35.4</ele>
        <time>2023-12-19T07:21:59Z</time>
      </trkpt>
      <trkpt lat="49.88541" lon="2.33049">
        <ele>35.5</ele>
        <time>2023-12-19T07:22:01Z</time>
      </trkpt>
      <trkpt lat="49.88541" lon="2.33048">
        <ele>35.6</ele>
        <time>2023-12-19T07:22:02Z</time>
      </trkpt>
      <trkpt lat="49.88541" lon="2.33047">
        <ele>35.6</ele>
        <time>2023-12-19T07:22:03Z</time>
      </trkpt>
      <trkpt lat="49.8854" lon="2.33046">
        <ele>35.7</ele>
        <time>2023-12-19T07:22:04Z</time>
      </trkpt>
      <trkpt lat="49.8854" lon="2.33046">
        <ele>35.8</ele>
        <time>2023-12-19T07:22:05Z</time>
      </trkpt>
      <trkpt lat="49.88539" lon="2.33045">
        <ele>35.8</ele>
        <time>2023-12-19T07:22:06Z</time>
      </trkpt>
      <trkpt lat="49.88538" lon="2.33044">
        <ele>35.8</ele>
        <time>2023-12-19T07:22:08Z</time>
      </trkpt>
      <trkpt lat="49.88538" lon="2.33044">
        <ele>35.8</ele>
        <time>2023-12-19T07:22:09Z</time>
      </trkpt>
      <trkpt lat="49.88537" lon="2.33043">
        <ele>35.9</ele>
        <time>2023-12-19T07:22:10Z</time>
      </trkpt>
      <trkpt lat="49.88537" lon="2.33044">
        <ele>35.9</ele>
        <time>2023-12-19T07:22:11Z</time>
      </trkpt>
      <trkpt lat="49.88536" lon="2.33045">
        <ele>35.9</ele>
        <time>2023-12-19T07:22:12Z</time>
      </trkpt>
      <trkpt lat="49.88536" lon="2.33046">
        <ele>35.9</ele>
        <time>2023-12-19T07:22:14Z</time>
      </trkpt>
      <trkpt lat="49.88535" lon="2.33048">
        <ele>36</ele>
        <time>2023-12-19T07:22:15Z</time>
      </trkpt>
      <trkpt lat="49.88534" lon="2.33049">
        <ele>36</ele>
        <time>2023-12-19T07:22:16Z</time>
      </trkpt>
      <trkpt lat="49.88534" lon="2.33049">
        <ele>36</ele>
        <time>2023-12-19T07:22:17Z</time>
      </trkpt>
      <trkpt lat="49.88533" lon="2.33048">
        <ele>36.1</ele>
        <time>2023-12-19T07:22:18Z</time>
      </trkpt>
      <trkpt lat="49.88532" lon="2.33047">
        <ele>36.1</ele>
        <time>2023-12-19T07:22:19Z</time>
      </trkpt>
      <trkpt lat="49.88531" lon="2.33046">
        <ele>36.1</ele>
        <time>2023-12-19T07:22:21Z</time>
      </trkpt>
      <trkpt lat="49.8853" lon="2.33045">
        <ele>36.2</ele>
        <time>2023-12-19T07:22:22Z</time>
      </trkpt>
      <trkpt lat="49.88529" lon="2.33044">
        <ele>36.2</ele>
        <time>2023-12-19T07:22:23Z</time>
      </trkpt>
      <trkpt lat="49.88529" lon="2.33044">
        <ele>36.2</ele>
        <time>2023-12-19T07:22:24Z</time>
      </trkpt>
      <trkpt lat="49.88528" lon="2.33043">
        <ele>36.2</ele>
        <time>2023-12-19T07:22:26Z</time>
      </trkpt>
      <trkpt lat="49.88528" lon="2.33043">
        <ele>36.2</ele>
        <time>2023-12-19T07:22:27Z</time>
      </trkpt>
      <trkpt lat="49.88529" lon="2.33043">
        <ele>36.3</ele>
        <time>2023-12-19T07:22:29Z</time>
      </trkpt>
      <trkpt lat="49.88529" lon="2.33043">
        <ele>36.3</ele>
        <time>2023-12-19T07:22:30Z</time>
      </trkpt>
      <trkpt lat="49.88529" lon="2.33044">
        <ele>36.3</ele>
        <time>2023-12-19T07:22:32Z</time>
      </trkpt>
      <trkpt lat="49.8853" lon="2.33044">
        <ele>36.3</ele>
        <time>2023-12-19T07:22:33Z</time>
      </trkpt>
      <trkpt lat="49.8853" lon="2.33044">
        <ele>36.3</ele>
        <time>2023-12-19T07:22:34Z</time>
      </trkpt>
      <trkpt lat="49.8853" lon="2.33044">
        <ele>36.3</ele>
        <time>2023-12-19T07:22:36Z</time>
      </trkpt>
      <trkpt lat="49.8853" lon="2.33044">
        <ele>36.3</ele>
        <time>2023-12-19T07:22:37Z</time>
      </trkpt>
      <trkpt lat="49.8853" lon="2.33044">
        <ele>36.3</ele>
        <time>2023-12-19T07:22:39Z</time>
      </trkpt>
      <trkpt lat="49.88527" lon="2.33042">
        <ele>36.4</ele>
        <time>2023-12-19T07:23:32Z</time>
      </trkpt>
      <trkpt lat="49.88527" lon="2.33041">
        <ele>36.4</ele>
        <time>2023-12-19T07:23:33Z</time>
      </trkpt>
      <trkpt lat="49.88526" lon="2.33039">
        <ele>36.4</ele>
        <time>2023-12-19T07:23:34Z</time>
      </trkpt>
      <trkpt lat="49.88525" lon="2.33038">
        <ele>36.4</ele>
        <time>2023-12-19T07:23:35Z</time>
      </trkpt>
      <trkpt lat="49.88524" lon="2.33037">
        <ele>36.5</ele>
        <time>2023-12-19T07:23:36Z</time>
      </trkpt>
      <trkpt lat="49.88524" lon="2.33036">
        <ele>36.5</ele>
        <time>2023-12-19T07:23:38Z</time>
      </trkpt>
      <trkpt lat="49.88523" lon="2.33035">
        <ele>36.5</ele>
        <time>2023-12-19T07:23:39Z</time>
      </trkpt>
      <trkpt lat="49.88522" lon="2.33034">
        <ele>36.5</ele>
        <time>2023-12-19T07:23:40Z</time>
      </trkpt>
      <trkpt lat="49.88521" lon="2.33032">
        <ele>36.5</ele>
        <time>2023-12-19T07:23:41Z</time>
      </trkpt>
      <trkpt lat="49.88521" lon="2.3303">
        <ele>36.6</ele>
        <time>2023-12-19T07:23:42Z</time>
      </trkpt>
      <trkpt lat="49.8852" lon="2.33029">
        <ele>36.6</ele>
        <time>2023-12-19T07:23:43Z</time>
      </trkpt>
      <trkpt lat="49.8852" lon="2.33027">
        <ele>36.6</ele>
        <time>2023-12-19T07:23:44Z</time>
      </trkpt>
      <trkpt lat="49.88519" lon="2.33026">
        <ele>36.6</ele>
        <time>2023-12-19T07:23:46Z</time>
      </trkpt>
      <trkpt lat="49.88519" lon="2.33025">
        <ele>36.6</ele>
        <time>2023-12-19T07:23:47Z</time>
      </trkpt>
      <trkpt lat="49.88518" lon="2.33023">
        <ele>36.7</ele>
        <time>2023-12-19T07:23:48Z</time>
      </trkpt>
      <trkpt lat="49.88517" lon="2.33022">
        <ele>36.7</ele>
        <time>2023-12-19T07:23:49Z</time>
      </trkpt>
      <trkpt lat="49.88516" lon="2.33022">
        <ele>36.7</ele>
        <time>2023-12-19T07:23:50Z</time>
      </trkpt>
      <trkpt lat="49.88515" lon="2.33021">
        <ele>36.7</ele>
        <time>2023-12-19T07:23:52Z</time>
      </trkpt>
      <trkpt lat="49.88515" lon="2.33019">
        <ele>36.7</ele>
        <time>2023-12-19T07:23:53Z</time>
      </trkpt>
      <trkpt lat="49.88515" lon="2.33017">
        <ele>36.8</ele>
        <time>2023-12-19T07:23:54Z</time>
      </trkpt>
      <trkpt lat="49.88514" lon="2.33015">
        <ele>36.8</ele>
        <time>2023-12-19T07:23:55Z</time>
      </trkpt>
      <trkpt lat="49.88513" lon="2.33011">
        <ele>36.8</ele>
        <time>2023-12-19T07:23:56Z</time>
      </trkpt>
      <trkpt lat="49.88513" lon="2.3301">
        <ele>36.9</ele>
        <time>2023-12-19T07:23:57Z</time>
      </trkpt>
      <trkpt lat="49.88512" lon="2.33007">
        <ele>36.9</ele>
        <time>2023-12-19T07:23:58Z</time>
      </trkpt>
      <trkpt lat="49.88512" lon="2.33005">
        <ele>36.9</ele>
        <time>2023-12-19T07:23:59Z</time>
      </trkpt>
      <trkpt lat="49.88511" lon="2.33002">
        <ele>36.9</ele>
        <time>2023-12-19T07:24:01Z</time>
      </trkpt>
      <trkpt lat="49.8851" lon="2.33">
        <ele>36.9</ele>
        <time>2023-12-19T07:24:02Z</time>
      </trkpt>
      <trkpt lat="49.8851" lon="2.32999">
        <ele>36.9</ele>
        <time>2023-12-19T07:24:03Z</time>
      </trkpt>
      <trkpt lat="49.8851" lon="2.32997">
        <ele>37</ele>
        <time>2023-12-19T07:24:04Z</time>
      </trkpt>
      <trkpt lat="49.88509" lon="2.32995">
        <ele>37</ele>
        <time>2023-12-19T07:24:05Z</time>
      </trkpt>
      <trkpt lat="49.88508" lon="2.32992">
        <ele>37</ele>
        <time>2023-12-19T07:24:06Z</time>
      </trkpt>
      <trkpt lat="49.88508" lon="2.32991">
        <ele>37</ele>
        <time>2023-12-19T07:24:07Z</time>
      </trkpt>
      <trkpt lat="49.88507" lon="2.3299">
        <ele>37.1</ele>
        <time>2023-12-19T07:24:08Z</time>
      </trkpt>
      <trkpt lat="49.88507" lon="2.32989">
        <ele>37.1</ele>
        <time>2023-12-19T07:24:09Z</time>
      </trkpt>
      <trkpt lat="49.88506" lon="2.32987">
        <ele>37.1</ele>
        <time>2023-12-19T07:24:11Z</time>
      </trkpt>
      <trkpt lat="49.88505" lon="2.32986">
        <ele>37.1</ele>
        <time>2023-12-19T07:24:12Z</time>
      </trkpt>
      <trkpt lat="49.88505" lon="2.32984">
        <ele>37.2</ele>
        <time>2023-12-19T07:24:13Z</time>
      </trkpt>
      <trkpt lat="49.88504" lon="2.32983">
        <ele>37.2</ele>
        <time>2023-12-19T07:24:14Z</time>
      </trkpt>
      <trkpt lat="49.88504" lon="2.32982">
        <ele>37.2</ele>
        <time>2023-12-19T07:24:15Z</time>
      </trkpt>
      <trkpt lat="49.88503" lon="2.3298">
        <ele>37.2</ele>
        <time>2023-12-19T07:24:16Z</time>
      </trkpt>
      <trkpt lat="49.88503" lon="2.32979">
        <ele>37.3</ele>
        <time>2023-12-19T07:24:17Z</time>
      </trkpt>
      <trkpt lat="49.88502" lon="2.32977">
        <ele>37.3</ele>
        <time>2023-12-19T07:24:19Z</time>
      </trkpt>
      <trkpt lat="49.88502" lon="2.32976">
        <ele>37.3</ele>
        <time>2023-12-19T07:24:20Z</time>
      </trkpt>
      <trkpt lat="49.88501" lon="2.32975">
        <ele>37.3</ele>
        <time>2023-12-19T07:24:21Z</time>
      </trkpt>
      <trkpt lat="49.88501" lon="2.32973">
        <ele>37.4</ele>
        <time>2023-12-19T07:24:22Z</time>
      </trkpt>
      <trkpt lat="49.885" lon="2.32972">
        <ele>37.4</ele>
        <time>2023-12-19T07:24:23Z</time>
      </trkpt>
      <trkpt lat="49.885" lon="2.32971">
        <ele>37.4</ele>
        <time>2023-12-19T07:24:24Z</time>
      </trkpt>
      <trkpt lat="49.88499" lon="2.32969">
        <ele>37.5</ele>
        <time>2023-12-19T07:24:25Z</time>
      </trkpt>
      <trkpt lat="49.88499" lon="2.32967">
        <ele>37.5</ele>
        <time>2023-12-19T07:24:27Z</time>
      </trkpt>
      <trkpt lat="49.88499" lon="2.32966">
        <ele>37.6</ele>
        <time>2023-12-19T07:24:28Z</time>
      </trkpt>
      <trkpt lat="49.88498" lon="2.32964">
        <ele>37.6</ele>
        <time>2023-12-19T07:24:29Z</time>
      </trkpt>
      <trkpt lat="49.88498" lon="2.3296">
        <ele>37.7</ele>
        <time>2023-12-19T07:24:30Z</time>
      </trkpt>
      <trkpt lat="49.88498" lon="2.32959">
        <ele>37.7</ele>
        <time>2023-12-19T07:24:31Z</time>
      </trkpt>
      <trkpt lat="49.88498" lon="2.32958">
        <ele>37.7</ele>
        <time>2023-12-19T07:24:32Z</time>
      </trkpt>
      <trkpt lat="49.88498" lon="2.32955">
        <ele>37.8</ele>
        <time>2023-12-19T07:24:34Z</time>
      </trkpt>
      <trkpt lat="49.88497" lon="2.32953">
        <ele>37.8</ele>
        <time>2023-12-19T07:24:35Z</time>
      </trkpt>
      <trkpt lat="49.88497" lon="2.32951">
        <ele>37.9</ele>
        <time>2023-12-19T07:24:36Z</time>
      </trkpt>
      <trkpt lat="49.88497" lon="2.32949">
        <ele>37.9</ele>
        <time>2023-12-19T07:24:37Z</time>
      </trkpt>
      <trkpt lat="49.88497" lon="2.32947">
        <ele>38</ele>
        <time>2023-12-19T07:24:38Z</time>
      </trkpt>
      <trkpt lat="49.88496" lon="2.32944">
        <ele>38</ele>
        <time>2023-12-19T07:24:40Z</time>
      </trkpt>
      <trkpt lat="49.88496" lon="2.32943">
        <ele>38.1</ele>
        <time>2023-12-19T07:24:41Z</time>
      </trkpt>
      <trkpt lat="49.88495" lon="2.32941">
        <ele>38.1</ele>
        <time>2023-12-19T07:24:42Z</time>
      </trkpt>
      <trkpt lat="49.88495" lon="2.3294">
        <ele>38.1</ele>
        <time>2023-12-19T07:24:43Z</time>
      </trkpt>
      <trkpt lat="49.88494" lon="2.32937">
        <ele>38.2</ele>
        <time>2023-12-19T07:24:44Z</time>
      </trkpt>
      <trkpt lat="49.88494" lon="2.32936">
        <ele>38.2</ele>
        <time>2023-12-19T07:24:45Z</time>
      </trkpt>
      <trkpt lat="49.88494" lon="2.32934">
        <ele>38.3</ele>
        <time>2023-12-19T07:24:46Z</time>
      </trkpt>
      <trkpt lat="49.88493" lon="2.32933">
        <ele>38.3</ele>
        <time>2023-12-19T07:24:48Z</time>
      </trkpt>
      <trkpt lat="49.88493" lon="2.32932">
        <ele>38.3</ele>
        <time>2023-12-19T07:24:49Z</time>
      </trkpt>
      <trkpt lat="49.88493" lon="2.32931">
        <ele>38.3</ele>
        <time>2023-12-19T07:24:50Z</time>
      </trkpt>
      <trkpt lat="49.88492" lon="2.3293">
        <ele>38.4</ele>
        <time>2023-12-19T07:24:51Z</time>
      </trkpt>
      <trkpt lat="49.88492" lon="2.32929">
        <ele>38.4</ele>
        <time>2023-12-19T07:24:52Z</time>
      </trkpt>
      <trkpt lat="49.88492" lon="2.32927">
        <ele>38.4</ele>
        <time>2023-12-19T07:24:53Z</time>
      </trkpt>
      <trkpt lat="49.88491" lon="2.32926">
        <ele>38.5</ele>
        <time>2023-12-19T07:24:54Z</time>
      </trkpt>
      <trkpt lat="49.88491" lon="2.32924">
        <ele>38.5</ele>
        <time>2023-12-19T07:24:56Z</time>
      </trkpt>
      <trkpt lat="49.88491" lon="2.32923">
        <ele>38.5</ele>
        <time>2023-12-19T07:24:57Z</time>
      </trkpt>
      <trkpt lat="49.88491" lon="2.32921">
        <ele>38.6</ele>
        <time>2023-12-19T07:24:58Z</time>
      </trkpt>
      <trkpt lat="49.88491" lon="2.3292">
        <ele>38.6</ele>
        <time>2023-12-19T07:24:59Z</time>
      </trkpt>
      <trkpt lat="49.8849" lon="2.32918">
        <ele>38.7</ele>
        <time>2023-12-19T07:25:00Z</time>
      </trkpt>
      <trkpt lat="49.8849" lon="2.32916">
        <ele>38.7</ele>
        <time>2023-12-19T07:25:01Z</time>
      </trkpt>
      <trkpt lat="49.88489" lon="2.32913">
        <ele>38.8</ele>
        <time>2023-12-19T07:25:03Z</time>
      </trkpt>
      <trkpt lat="49.88488" lon="2.32912">
        <ele>38.8</ele>
        <time>2023-12-19T07:25:04Z</time>
      </trkpt>
      <trkpt lat="49.88488" lon="2.32911">
        <ele>38.9</ele>
        <time>2023-12-19T07:25:05Z</time>
      </trkpt>
      <trkpt lat="49.88487" lon="2.32909">
        <ele>38.9</ele>
        <time>2023-12-19T07:25:06Z</time>
      </trkpt>
      <trkpt lat="49.88486" lon="2.32906">
        <ele>39</ele>
        <time>2023-12-19T07:25:07Z</time>
      </trkpt>
      <trkpt lat="49.88485" lon="2.32904">
        <ele>39.1</ele>
        <time>2023-12-19T07:25:08Z</time>
      </trkpt>
      <trkpt lat="49.88483" lon="2.32901">
        <ele>39.2</ele>
        <time>2023-12-19T07:25:10Z</time>
      </trkpt>
      <trkpt lat="49.88482" lon="2.32897">
        <ele>39.3</ele>
        <time>2023-12-19T07:25:11Z</time>
      </trkpt>
      <trkpt lat="49.88481" lon="2.32896">
        <ele>39.3</ele>
        <time>2023-12-19T07:25:12Z</time>
      </trkpt>
      <trkpt lat="49.88481" lon="2.32894">
        <ele>39.3</ele>
        <time>2023-12-19T07:25:13Z</time>
      </trkpt>
      <trkpt lat="49.8848" lon="2.32892">
        <ele>39.4</ele>
        <time>2023-12-19T07:25:14Z</time>
      </trkpt>
      <trkpt lat="49.8848" lon="2.32889">
        <ele>39.4</ele>
        <time>2023-12-19T07:25:15Z</time>
      </trkpt>
      <trkpt lat="49.88479" lon="2.32888">
        <ele>39.5</ele>
        <time>2023-12-19T07:25:16Z</time>
      </trkpt>
      <trkpt lat="49.88478" lon="2.32886">
        <ele>39.5</ele>
        <time>2023-12-19T07:25:17Z</time>
      </trkpt>
      <trkpt lat="49.88478" lon="2.32884">
        <ele>39.5</ele>
        <time>2023-12-19T07:25:18Z</time>
      </trkpt>
      <trkpt lat="49.88477" lon="2.32883">
        <ele>39.6</ele>
        <time>2023-12-19T07:25:19Z</time>
      </trkpt>
      <trkpt lat="49.88476" lon="2.32879">
        <ele>39.7</ele>
        <time>2023-12-19T07:25:20Z</time>
      </trkpt>
      <trkpt lat="49.88476" lon="2.32877">
        <ele>39.7</ele>
        <time>2023-12-19T07:25:22Z</time>
      </trkpt>
      <trkpt lat="49.88476" lon="2.32875">
        <ele>39.7</ele>
        <time>2023-12-19T07:25:24Z</time>
      </trkpt>
      <trkpt lat="49.88475" lon="2.32873">
        <ele>39.8</ele>
        <time>2023-12-19T07:25:25Z</time>
      </trkpt>
      <trkpt lat="49.88475" lon="2.32871">
        <ele>39.8</ele>
        <time>2023-12-19T07:25:26Z</time>
      </trkpt>
      <trkpt lat="49.88475" lon="2.32869">
        <ele>39.9</ele>
        <time>2023-12-19T07:25:27Z</time>
      </trkpt>
      <trkpt lat="49.88475" lon="2.32868">
        <ele>39.9</ele>
        <time>2023-12-19T07:25:28Z</time>
      </trkpt>
      <trkpt lat="49.88474" lon="2.32865">
        <ele>39.9</ele>
        <time>2023-12-19T07:25:29Z</time>
      </trkpt>
      <trkpt lat="49.88474" lon="2.32864">
        <ele>40</ele>
        <time>2023-12-19T07:25:30Z</time>
      </trkpt>
      <trkpt lat="49.88473" lon="2.32862">
        <ele>40</ele>
        <time>2023-12-19T07:25:31Z</time>
      </trkpt>
      <trkpt lat="49.88473" lon="2.3286">
        <ele>40</ele>
        <time>2023-12-19T07:25:32Z</time>
      </trkpt>
      <trkpt lat="49.88472" lon="2.32857">
        <ele>40.1</ele>
        <time>2023-12-19T07:25:34Z</time>
      </trkpt>
      <trkpt lat="49.88472" lon="2.32856">
        <ele>40.1</ele>
        <time>2023-12-19T07:25:35Z</time>
      </trkpt>
      <trkpt lat="49.88471" lon="2.32855">
        <ele>40.1</ele>
        <time>2023-12-19T07:25:36Z</time>
      </trkpt>
      <trkpt lat="49.88471" lon="2.32853">
        <ele>40.2</ele>
        <time>2023-12-19T07:25:37Z</time>
      </trkpt>
      <trkpt lat="49.8847" lon="2.32852">
        <ele>40.2</ele>
        <time>2023-12-19T07:25:38Z</time>
      </trkpt>
      <trkpt lat="49.8847" lon="2.32851">
        <ele>40.2</ele>
        <time>2023-12-19T07:25:39Z</time>
      </trkpt>
      <trkpt lat="49.88469" lon="2.32849">
        <ele>40.2</ele>
        <time>2023-12-19T07:25:40Z</time>
      </trkpt>
      <trkpt lat="49.88469" lon="2.32848">
        <ele>40.3</ele>
        <time>2023-12-19T07:25:41Z</time>
      </trkpt>
      <trkpt lat="49.88468" lon="2.32846">
        <ele>40.3</ele>
        <time>2023-12-19T07:25:42Z</time>
      </trkpt>
      <trkpt lat="49.88468" lon="2.32845">
        <ele>40.3</ele>
        <time>2023-12-19T07:25:43Z</time>
      </trkpt>
      <trkpt lat="49.88467" lon="2.32843">
        <ele>40.4</ele>
        <time>2023-12-19T07:25:44Z</time>
      </trkpt>
      <trkpt lat="49.88467" lon="2.32841">
        <ele>40.4</ele>
        <time>2023-12-19T07:25:45Z</time>
      </trkpt>
      <trkpt lat="49.88466" lon="2.32838">
        <ele>40.4</ele>
        <time>2023-12-19T07:25:47Z</time>
      </trkpt>
      <trkpt lat="49.88466" lon="2.32837">
        <ele>40.5</ele>
        <time>2023-12-19T07:25:48Z</time>
      </trkpt>
      <trkpt lat="49.88465" lon="2.32836">
        <ele>40.5</ele>
        <time>2023-12-19T07:25:49Z</time>
      </trkpt>
      <trkpt lat="49.88464" lon="2.32834">
        <ele>40.5</ele>
        <time>2023-12-19T07:25:50Z</time>
      </trkpt>
      <trkpt lat="49.88464" lon="2.32833">
        <ele>40.5</ele>
        <time>2023-12-19T07:25:51Z</time>
      </trkpt>
      <trkpt lat="49.88464" lon="2.32832">
        <ele>40.6</ele>
        <time>2023-12-19T07:25:52Z</time>
      </trkpt>
      <trkpt lat="49.88463" lon="2.32831">
        <ele>40.6</ele>
        <time>2023-12-19T07:25:53Z</time>
      </trkpt>
      <trkpt lat="49.88463" lon="2.3283">
        <ele>40.6</ele>
        <time>2023-12-19T07:25:54Z</time>
      </trkpt>
      <trkpt lat="49.88462" lon="2.32828">
        <ele>40.6</ele>
        <time>2023-12-19T07:25:55Z</time>
      </trkpt>
      <trkpt lat="49.88461" lon="2.32826">
        <ele>40.7</ele>
        <time>2023-12-19T07:25:57Z</time>
      </trkpt>
      <trkpt lat="49.8846" lon="2.32825">
        <ele>40.7</ele>
        <time>2023-12-19T07:25:58Z</time>
      </trkpt>
      <trkpt lat="49.88459" lon="2.32824">
        <ele>40.8</ele>
        <time>2023-12-19T07:25:59Z</time>
      </trkpt>
      <trkpt lat="49.88458" lon="2.32822">
        <ele>40.8</ele>
        <time>2023-12-19T07:26:00Z</time>
      </trkpt>
      <trkpt lat="49.88458" lon="2.32821">
        <ele>40.8</ele>
        <time>2023-12-19T07:26:01Z</time>
      </trkpt>
      <trkpt lat="49.88457" lon="2.3282">
        <ele>40.8</ele>
        <time>2023-12-19T07:26:02Z</time>
      </trkpt>
      <trkpt lat="49.88456" lon="2.32818">
        <ele>40.9</ele>
        <time>2023-12-19T07:26:03Z</time>
      </trkpt>
      <trkpt lat="49.88455" lon="2.32817">
        <ele>40.9</ele>
        <time>2023-12-19T07:26:04Z</time>
      </trkpt>
      <trkpt lat="49.88455" lon="2.32815">
        <ele>40.9</ele>
        <time>2023-12-19T07:26:05Z</time>
      </trkpt>
      <trkpt lat="49.88454" lon="2.32813">
        <ele>41</ele>
        <time>2023-12-19T07:26:07Z</time>
      </trkpt>
      <trkpt lat="49.88453" lon="2.3281">
        <ele>41</ele>
        <time>2023-12-19T07:26:08Z</time>
      </trkpt>
      <trkpt lat="49.88452" lon="2.32809">
        <ele>41.1</ele>
        <time>2023-12-19T07:26:09Z</time>
      </trkpt>
      <trkpt lat="49.88452" lon="2.32808">
        <ele>41.1</ele>
        <time>2023-12-19T07:26:10Z</time>
      </trkpt>
      <trkpt lat="49.88451" lon="2.32806">
        <ele>41.1</ele>
        <time>2023-12-19T07:26:11Z</time>
      </trkpt>
      <trkpt lat="49.8845" lon="2.32804">
        <ele>41.2</ele>
        <time>2023-12-19T07:26:12Z</time>
      </trkpt>
      <trkpt lat="49.88449" lon="2.32802">
        <ele>41.2</ele>
        <time>2023-12-19T07:26:13Z</time>
      </trkpt>
      <trkpt lat="49.88448" lon="2.32799">
        <ele>41.2</ele>
        <time>2023-12-19T07:26:15Z</time>
      </trkpt>
      <trkpt lat="49.88448" lon="2.32798">
        <ele>41.3</ele>
        <time>2023-12-19T07:26:16Z</time>
      </trkpt>
      <trkpt lat="49.88447" lon="2.32796">
        <ele>41.3</ele>
        <time>2023-12-19T07:26:17Z</time>
      </trkpt>
      <trkpt lat="49.88446" lon="2.32794">
        <ele>41.4</ele>
        <time>2023-12-19T07:26:18Z</time>
      </trkpt>
      <trkpt lat="49.88445" lon="2.32793">
        <ele>41.4</ele>
        <time>2023-12-19T07:26:19Z</time>
      </trkpt>
      <trkpt lat="49.88444" lon="2.32791">
        <ele>41.4</ele>
        <time>2023-12-19T07:26:21Z</time>
      </trkpt>
      <trkpt lat="49.88444" lon="2.3279">
        <ele>41.4</ele>
        <time>2023-12-19T07:26:22Z</time>
      </trkpt>
      <trkpt lat="49.88443" lon="2.32789">
        <ele>41.5</ele>
        <time>2023-12-19T07:26:23Z</time>
      </trkpt>
      <trkpt lat="49.88443" lon="2.32788">
        <ele>41.5</ele>
        <time>2023-12-19T07:26:24Z</time>
      </trkpt>
      <trkpt lat="49.88442" lon="2.32786">
        <ele>41.5</ele>
        <time>2023-12-19T07:26:25Z</time>
      </trkpt>
      <trkpt lat="49.88442" lon="2.32783">
        <ele>41.6</ele>
        <time>2023-12-19T07:26:26Z</time>
      </trkpt>
      <trkpt lat="49.88441" lon="2.32782">
        <ele>41.6</ele>
        <time>2023-12-19T07:26:28Z</time>
      </trkpt>
      <trkpt lat="49.88441" lon="2.32781">
        <ele>41.6</ele>
        <time>2023-12-19T07:26:29Z</time>
      </trkpt>
      <trkpt lat="49.88441" lon="2.32779">
        <ele>41.6</ele>
        <time>2023-12-19T07:26:30Z</time>
      </trkpt>
      <trkpt lat="49.8844" lon="2.32777">
        <ele>41.7</ele>
        <time>2023-12-19T07:26:31Z</time>
      </trkpt>
      <trkpt lat="49.88439" lon="2.32774">
        <ele>41.7</ele>
        <time>2023-12-19T07:26:32Z</time>
      </trkpt>
      <trkpt lat="49.88438" lon="2.32772">
        <ele>41.8</ele>
        <time>2023-12-19T07:26:34Z</time>
      </trkpt>
      <trkpt lat="49.88438" lon="2.3277">
        <ele>41.8</ele>
        <time>2023-12-19T07:26:35Z</time>
      </trkpt>
      <trkpt lat="49.88437" lon="2.32768">
        <ele>41.8</ele>
        <time>2023-12-19T07:26:36Z</time>
      </trkpt>
      <trkpt lat="49.88436" lon="2.32766">
        <ele>41.9</ele>
        <time>2023-12-19T07:26:37Z</time>
      </trkpt>
      <trkpt lat="49.88436" lon="2.32764">
        <ele>41.9</ele>
        <time>2023-12-19T07:26:38Z</time>
      </trkpt>
      <trkpt lat="49.88435" lon="2.32762">
        <ele>41.9</ele>
        <time>2023-12-19T07:26:39Z</time>
      </trkpt>
      <trkpt lat="49.88434" lon="2.32759">
        <ele>42</ele>
        <time>2023-12-19T07:26:40Z</time>
      </trkpt>
      <trkpt lat="49.88434" lon="2.32757">
        <ele>42</ele>
        <time>2023-12-19T07:26:41Z</time>
      </trkpt>
      <trkpt lat="49.88433" lon="2.32755">
        <ele>42.1</ele>
        <time>2023-12-19T07:26:42Z</time>
      </trkpt>
      <trkpt lat="49.88432" lon="2.32753">
        <ele>42.1</ele>
        <time>2023-12-19T07:26:43Z</time>
      </trkpt>
      <trkpt lat="49.88431" lon="2.32751">
        <ele>42.1</ele>
        <time>2023-12-19T07:26:45Z</time>
      </trkpt>
      <trkpt lat="49.8843" lon="2.32749">
        <ele>42.2</ele>
        <time>2023-12-19T07:26:46Z</time>
      </trkpt>
      <trkpt lat="49.8843" lon="2.32747">
        <ele>42.2</ele>
        <time>2023-12-19T07:26:47Z</time>
      </trkpt>
      <trkpt lat="49.88429" lon="2.32745">
        <ele>42.2</ele>
        <time>2023-12-19T07:26:48Z</time>
      </trkpt>
      <trkpt lat="49.88429" lon="2.32744">
        <ele>42.3</ele>
        <time>2023-12-19T07:26:49Z</time>
      </trkpt>
      <trkpt lat="49.88428" lon="2.32742">
        <ele>42.3</ele>
        <time>2023-12-19T07:26:51Z</time>
      </trkpt>
      <trkpt lat="49.88428" lon="2.32739">
        <ele>42.3</ele>
        <time>2023-12-19T07:26:52Z</time>
      </trkpt>
      <trkpt lat="49.88428" lon="2.32737">
        <ele>42.4</ele>
        <time>2023-12-19T07:26:53Z</time>
      </trkpt>
      <trkpt lat="49.88428" lon="2.32736">
        <ele>42.4</ele>
        <time>2023-12-19T07:26:54Z</time>
      </trkpt>
      <trkpt lat="49.88428" lon="2.32732">
        <ele>42.4</ele>
        <time>2023-12-19T07:26:55Z</time>
      </trkpt>
      <trkpt lat="49.88428" lon="2.32731">
        <ele>42.5</ele>
        <time>2023-12-19T07:26:56Z</time>
      </trkpt>
      <trkpt lat="49.88428" lon="2.3273">
        <ele>42.5</ele>
        <time>2023-12-19T07:26:57Z</time>
      </trkpt>
      <trkpt lat="49.88428" lon="2.32728">
        <ele>42.5</ele>
        <time>2023-12-19T07:26:58Z</time>
      </trkpt>
      <trkpt lat="49.88428" lon="2.32726">
        <ele>42.5</ele>
        <time>2023-12-19T07:26:59Z</time>
      </trkpt>
      <trkpt lat="49.88428" lon="2.32725">
        <ele>42.5</ele>
        <time>2023-12-19T07:27:01Z</time>
      </trkpt>
      <trkpt lat="49.88428" lon="2.32723">
        <ele>42.6</ele>
        <time>2023-12-19T07:27:02Z</time>
      </trkpt>
      <trkpt lat="49.88427" lon="2.32722">
        <ele>42.6</ele>
        <time>2023-12-19T07:27:03Z</time>
      </trkpt>
      <trkpt lat="49.88427" lon="2.3272">
        <ele>42.6</ele>
        <time>2023-12-19T07:27:04Z</time>
      </trkpt>
      <trkpt lat="49.88426" lon="2.32717">
        <ele>42.7</ele>
        <time>2023-12-19T07:27:05Z</time>
      </trkpt>
      <trkpt lat="49.88426" lon="2.32716">
        <ele>42.7</ele>
        <time>2023-12-19T07:27:06Z</time>
      </trkpt>
      <trkpt lat="49.88426" lon="2.32715">
        <ele>42.7</ele>
        <time>2023-12-19T07:27:07Z</time>
      </trkpt>
      <trkpt lat="49.88425" lon="2.32713">
        <ele>42.7</ele>
        <time>2023-12-19T07:27:08Z</time>
      </trkpt>
      <trkpt lat="49.88425" lon="2.32712">
        <ele>42.7</ele>
        <time>2023-12-19T07:27:10Z</time>
      </trkpt>
      <trkpt lat="49.88424" lon="2.32711">
        <ele>42.7</ele>
        <time>2023-12-19T07:27:11Z</time>
      </trkpt>
      <trkpt lat="49.88424" lon="2.32708">
        <ele>42.8</ele>
        <time>2023-12-19T07:27:12Z</time>
      </trkpt>
      <trkpt lat="49.88423" lon="2.32706">
        <ele>42.8</ele>
        <time>2023-12-19T07:27:13Z</time>
      </trkpt>
      <trkpt lat="49.88423" lon="2.32705">
        <ele>42.8</ele>
        <time>2023-12-19T07:27:14Z</time>
      </trkpt>
      <trkpt lat="49.88422" lon="2.32702">
        <ele>42.8</ele>
        <time>2023-12-19T07:27:15Z</time>
      </trkpt>
      <trkpt lat="49.88422" lon="2.32701">
        <ele>42.9</ele>
        <time>2023-12-19T07:27:17Z</time>
      </trkpt>
      <trkpt lat="49.88421" lon="2.32699">
        <ele>42.9</ele>
        <time>2023-12-19T07:27:18Z</time>
      </trkpt>
      <trkpt lat="49.8842" lon="2.32696">
        <ele>42.9</ele>
        <time>2023-12-19T07:27:19Z</time>
      </trkpt>
      <trkpt lat="49.8842" lon="2.32695">
        <ele>42.9</ele>
        <time>2023-12-19T07:27:20Z</time>
      </trkpt>
      <trkpt lat="49.8842" lon="2.32694">
        <ele>42.9</ele>
        <time>2023-12-19T07:27:21Z</time>
      </trkpt>
      <trkpt lat="49.88419" lon="2.32691">
        <ele>43</ele>
        <time>2023-12-19T07:27:22Z</time>
      </trkpt>
      <trkpt lat="49.88419" lon="2.3269">
        <ele>43</ele>
        <time>2023-12-19T07:27:24Z</time>
      </trkpt>
      <trkpt lat="49.88418" lon="2.32689">
        <ele>43</ele>
        <time>2023-12-19T07:27:25Z</time>
      </trkpt>
      <trkpt lat="49.88417" lon="2.32686">
        <ele>43</ele>
        <time>2023-12-19T07:27:26Z</time>
      </trkpt>
      <trkpt lat="49.88417" lon="2.32685">
        <ele>43</ele>
        <time>2023-12-19T07:27:27Z</time>
      </trkpt>
      <trkpt lat="49.88416" lon="2.32683">
        <ele>43.1</ele>
        <time>2023-12-19T07:27:28Z</time>
      </trkpt>
      <trkpt lat="49.88416" lon="2.32681">
        <ele>43.1</ele>
        <time>2023-12-19T07:27:29Z</time>
      </trkpt>
      <trkpt lat="49.88415" lon="2.32679">
        <ele>43.1</ele>
        <time>2023-12-19T07:27:30Z</time>
      </trkpt>
      <trkpt lat="49.88414" lon="2.32676">
        <ele>43.1</ele>
        <time>2023-12-19T07:27:31Z</time>
      </trkpt>
      <trkpt lat="49.88414" lon="2.32675">
        <ele>43.1</ele>
        <time>2023-12-19T07:27:33Z</time>
      </trkpt>
      <trkpt lat="49.88414" lon="2.32674">
        <ele>43.2</ele>
        <time>2023-12-19T07:27:34Z</time>
      </trkpt>
      <trkpt lat="49.88413" lon="2.32671">
        <ele>43.2</ele>
        <time>2023-12-19T07:27:35Z</time>
      </trkpt>
      <trkpt lat="49.88413" lon="2.3267">
        <ele>43.2</ele>
        <time>2023-12-19T07:27:36Z</time>
      </trkpt>
      <trkpt lat="49.88413" lon="2.32668">
        <ele>43.2</ele>
        <time>2023-12-19T07:27:37Z</time>
      </trkpt>
      <trkpt lat="49.88412" lon="2.32666">
        <ele>43.2</ele>
        <time>2023-12-19T07:27:38Z</time>
      </trkpt>
      <trkpt lat="49.88412" lon="2.32665">
        <ele>43.3</ele>
        <time>2023-12-19T07:27:39Z</time>
      </trkpt>
      <trkpt lat="49.88412" lon="2.32663">
        <ele>43.3</ele>
        <time>2023-12-19T07:27:40Z</time>
      </trkpt>
      <trkpt lat="49.88412" lon="2.32661">
        <ele>43.3</ele>
        <time>2023-12-19T07:27:41Z</time>
      </trkpt>
      <trkpt lat="49.88412" lon="2.32659">
        <ele>43.3</ele>
        <time>2023-12-19T07:27:42Z</time>
      </trkpt>
      <trkpt lat="49.88412" lon="2.32658">
        <ele>43.3</ele>
        <time>2023-12-19T07:27:44Z</time>
      </trkpt>
      <trkpt lat="49.88412" lon="2.32656">
        <ele>43.4</ele>
        <time>2023-12-19T07:27:45Z</time>
      </trkpt>
      <trkpt lat="49.88412" lon="2.32655">
        <ele>43.4</ele>
        <time>2023-12-19T07:27:46Z</time>
      </trkpt>
      <trkpt lat="49.88412" lon="2.32653">
        <ele>43.4</ele>
        <time>2023-12-19T07:27:47Z</time>
      </trkpt>
      <trkpt lat="49.88411" lon="2.32651">
        <ele>43.4</ele>
        <time>2023-12-19T07:27:48Z</time>
      </trkpt>
      <trkpt lat="49.88411" lon="2.3265">
        <ele>43.5</ele>
        <time>2023-12-19T07:27:49Z</time>
      </trkpt>
      <trkpt lat="49.88411" lon="2.32648">
        <ele>43.5</ele>
        <time>2023-12-19T07:27:50Z</time>
      </trkpt>
      <trkpt lat="49.8841" lon="2.32646">
        <ele>43.5</ele>
        <time>2023-12-19T07:27:52Z</time>
      </trkpt>
      <trkpt lat="49.8841" lon="2.32645">
        <ele>43.5</ele>
        <time>2023-12-19T07:27:53Z</time>
      </trkpt>
      <trkpt lat="49.88409" lon="2.32644">
        <ele>43.6</ele>
        <time>2023-12-19T07:27:54Z</time>
      </trkpt>
      <trkpt lat="49.88409" lon="2.32642">
        <ele>43.6</ele>
        <time>2023-12-19T07:27:55Z</time>
      </trkpt>
      <trkpt lat="49.88409" lon="2.32641">
        <ele>43.6</ele>
        <time>2023-12-19T07:27:56Z</time>
      </trkpt>
      <trkpt lat="49.88408" lon="2.3264">
        <ele>43.6</ele>
        <time>2023-12-19T07:27:57Z</time>
      </trkpt>
      <trkpt lat="49.88408" lon="2.32639">
        <ele>43.6</ele>
        <time>2023-12-19T07:27:59Z</time>
      </trkpt>
      <trkpt lat="49.88408" lon="2.32637">
        <ele>43.6</ele>
        <time>2023-12-19T07:28:00Z</time>
      </trkpt>
      <trkpt lat="49.88407" lon="2.32636">
        <ele>43.7</ele>
        <time>2023-12-19T07:28:01Z</time>
      </trkpt>
      <trkpt lat="49.88407" lon="2.32635">
        <ele>43.7</ele>
        <time>2023-12-19T07:28:02Z</time>
      </trkpt>
      <trkpt lat="49.88406" lon="2.32634">
        <ele>43.7</ele>
        <time>2023-12-19T07:28:03Z</time>
      </trkpt>
      <trkpt lat="49.88406" lon="2.32634">
        <ele>43.7</ele>
        <time>2023-12-19T07:28:04Z</time>
      </trkpt>
      <trkpt lat="49.88405" lon="2.32632">
        <ele>43.7</ele>
        <time>2023-12-19T07:28:05Z</time>
      </trkpt>
      <trkpt lat="49.88405" lon="2.32631">
        <ele>43.8</ele>
        <time>2023-12-19T07:28:06Z</time>
      </trkpt>
      <trkpt lat="49.88405" lon="2.32629">
        <ele>43.8</ele>
        <time>2023-12-19T07:28:07Z</time>
      </trkpt>
      <trkpt lat="49.88404" lon="2.32627">
        <ele>43.8</ele>
        <time>2023-12-19T07:28:09Z</time>
      </trkpt>
      <trkpt lat="49.88403" lon="2.32626">
        <ele>43.8</ele>
        <time>2023-12-19T07:28:10Z</time>
      </trkpt>
      <trkpt lat="49.88402" lon="2.32624">
        <ele>43.9</ele>
        <time>2023-12-19T07:28:12Z</time>
      </trkpt>
      <trkpt lat="49.88401" lon="2.32623">
        <ele>43.9</ele>
        <time>2023-12-19T07:28:13Z</time>
      </trkpt>
      <trkpt lat="49.88401" lon="2.32622">
        <ele>43.9</ele>
        <time>2023-12-19T07:28:14Z</time>
      </trkpt>
      <trkpt lat="49.884" lon="2.32621">
        <ele>43.9</ele>
        <time>2023-12-19T07:28:15Z</time>
      </trkpt>
      <trkpt lat="49.88399" lon="2.32619">
        <ele>43.9</ele>
        <time>2023-12-19T07:28:16Z</time>
      </trkpt>
      <trkpt lat="49.88398" lon="2.32616">
        <ele>44</ele>
        <time>2023-12-19T07:28:17Z</time>
      </trkpt>
      <trkpt lat="49.88398" lon="2.32615">
        <ele>44</ele>
        <time>2023-12-19T07:28:18Z</time>
      </trkpt>
      <trkpt lat="49.88398" lon="2.32613">
        <ele>44</ele>
        <time>2023-12-19T07:28:19Z</time>
      </trkpt>
      <trkpt lat="49.88397" lon="2.3261">
        <ele>44.1</ele>
        <time>2023-12-19T07:28:21Z</time>
      </trkpt>
      <trkpt lat="49.88396" lon="2.32609">
        <ele>44.1</ele>
        <time>2023-12-19T07:28:22Z</time>
      </trkpt>
      <trkpt lat="49.88396" lon="2.32608">
        <ele>44.1</ele>
        <time>2023-12-19T07:28:23Z</time>
      </trkpt>
      <trkpt lat="49.88395" lon="2.32605">
        <ele>44.1</ele>
        <time>2023-12-19T07:28:24Z</time>
      </trkpt>
      <trkpt lat="49.88395" lon="2.32604">
        <ele>44.2</ele>
        <time>2023-12-19T07:28:25Z</time>
      </trkpt>
      <trkpt lat="49.88394" lon="2.32603">
        <ele>44.2</ele>
        <time>2023-12-19T07:28:26Z</time>
      </trkpt>
      <trkpt lat="49.88394" lon="2.32601">
        <ele>44.2</ele>
        <time>2023-12-19T07:28:27Z</time>
      </trkpt>
      <trkpt lat="49.88393" lon="2.32599">
        <ele>44.3</ele>
        <time>2023-12-19T07:28:28Z</time>
      </trkpt>
      <trkpt lat="49.88392" lon="2.32596">
        <ele>44.3</ele>
        <time>2023-12-19T07:28:29Z</time>
      </trkpt>
      <trkpt lat="49.88392" lon="2.32594">
        <ele>44.3</ele>
        <time>2023-12-19T07:28:31Z</time>
      </trkpt>
      <trkpt lat="49.88391" lon="2.32593">
        <ele>44.4</ele>
        <time>2023-12-19T07:28:32Z</time>
      </trkpt>
      <trkpt lat="49.88391" lon="2.32591">
        <ele>44.4</ele>
        <time>2023-12-19T07:28:33Z</time>
      </trkpt>
      <trkpt lat="49.8839" lon="2.3259">
        <ele>44.4</ele>
        <time>2023-12-19T07:28:34Z</time>
      </trkpt>
      <trkpt lat="49.8839" lon="2.32588">
        <ele>44.5</ele>
        <time>2023-12-19T07:28:35Z</time>
      </trkpt>
      <trkpt lat="49.8839" lon="2.32586">
        <ele>44.5</ele>
        <time>2023-12-19T07:28:36Z</time>
      </trkpt>
      <trkpt lat="49.8839" lon="2.32585">
        <ele>44.5</ele>
        <time>2023-12-19T07:28:37Z</time>
      </trkpt>
      <trkpt lat="49.8839" lon="2.32583">
        <ele>44.5</ele>
        <time>2023-12-19T07:28:38Z</time>
      </trkpt>
      <trkpt lat="49.8839" lon="2.32581">
        <ele>44.6</ele>
        <time>2023-12-19T07:28:39Z</time>
      </trkpt>
      <trkpt lat="49.8839" lon="2.32579">
        <ele>44.6</ele>
        <time>2023-12-19T07:28:40Z</time>
      </trkpt>
      <trkpt lat="49.8839" lon="2.32577">
        <ele>44.6</ele>
        <time>2023-12-19T07:28:42Z</time>
      </trkpt>
      <trkpt lat="49.8839" lon="2.32574">
        <ele>44.7</ele>
        <time>2023-12-19T07:28:43Z</time>
      </trkpt>
      <trkpt lat="49.8839" lon="2.32573">
        <ele>44.7</ele>
        <time>2023-12-19T07:28:44Z</time>
      </trkpt>
      <trkpt lat="49.8839" lon="2.32571">
        <ele>44.7</ele>
        <time>2023-12-19T07:28:45Z</time>
      </trkpt>
      <trkpt lat="49.8839" lon="2.32568">
        <ele>44.8</ele>
        <time>2023-12-19T07:28:46Z</time>
      </trkpt>
      <trkpt lat="49.8839" lon="2.32567">
        <ele>44.8</ele>
        <time>2023-12-19T07:28:47Z</time>
      </trkpt>
      <trkpt lat="49.8839" lon="2.32566">
        <ele>44.8</ele>
        <time>2023-12-19T07:28:48Z</time>
      </trkpt>
      <trkpt lat="49.88389" lon="2.32562">
        <ele>44.9</ele>
        <time>2023-12-19T07:28:49Z</time>
      </trkpt>
      <trkpt lat="49.88389" lon="2.32561">
        <ele>44.9</ele>
        <time>2023-12-19T07:28:50Z</time>
      </trkpt>
      <trkpt lat="49.88389" lon="2.3256">
        <ele>44.9</ele>
        <time>2023-12-19T07:28:51Z</time>
      </trkpt>
      <trkpt lat="49.88388" lon="2.32556">
        <ele>45</ele>
        <time>2023-12-19T07:28:53Z</time>
      </trkpt>
      <trkpt lat="49.88388" lon="2.32555">
        <ele>45</ele>
        <time>2023-12-19T07:28:54Z</time>
      </trkpt>
      <trkpt lat="49.88388" lon="2.32554">
        <ele>45</ele>
        <time>2023-12-19T07:28:55Z</time>
      </trkpt>
      <trkpt lat="49.88387" lon="2.32552">
        <ele>45</ele>
        <time>2023-12-19T07:28:56Z</time>
      </trkpt>
      <trkpt lat="49.88387" lon="2.3255">
        <ele>45.1</ele>
        <time>2023-12-19T07:28:57Z</time>
      </trkpt>
      <trkpt lat="49.88386" lon="2.32549">
        <ele>45.1</ele>
        <time>2023-12-19T07:28:58Z</time>
      </trkpt>
      <trkpt lat="49.88386" lon="2.32547">
        <ele>45.1</ele>
        <time>2023-12-19T07:28:59Z</time>
      </trkpt>
      <trkpt lat="49.88386" lon="2.32545">
        <ele>45.2</ele>
        <time>2023-12-19T07:29:00Z</time>
      </trkpt>
      <trkpt lat="49.88386" lon="2.32544">
        <ele>45.2</ele>
        <time>2023-12-19T07:29:01Z</time>
      </trkpt>
      <trkpt lat="49.88386" lon="2.32542">
        <ele>45.2</ele>
        <time>2023-12-19T07:29:02Z</time>
      </trkpt>
      <trkpt lat="49.88387" lon="2.3254">
        <ele>45.3</ele>
        <time>2023-12-19T07:29:03Z</time>
      </trkpt>
      <trkpt lat="49.88387" lon="2.32538">
        <ele>45.3</ele>
        <time>2023-12-19T07:29:05Z</time>
      </trkpt>
      <trkpt lat="49.88387" lon="2.32536">
        <ele>45.3</ele>
        <time>2023-12-19T07:29:06Z</time>
      </trkpt>
      <trkpt lat="49.88387" lon="2.32535">
        <ele>45.3</ele>
        <time>2023-12-19T07:29:07Z</time>
      </trkpt>
      <trkpt lat="49.88387" lon="2.32533">
        <ele>45.4</ele>
        <time>2023-12-19T07:29:08Z</time>
      </trkpt>
      <trkpt lat="49.88386" lon="2.32529">
        <ele>45.4</ele>
        <time>2023-12-19T07:29:09Z</time>
      </trkpt>
      <trkpt lat="49.88386" lon="2.32528">
        <ele>45.5</ele>
        <time>2023-12-19T07:29:11Z</time>
      </trkpt>
      <trkpt lat="49.88386" lon="2.32527">
        <ele>45.5</ele>
        <time>2023-12-19T07:29:12Z</time>
      </trkpt>
      <trkpt lat="49.88385" lon="2.32524">
        <ele>45.6</ele>
        <time>2023-12-19T07:29:13Z</time>
      </trkpt>
      <trkpt lat="49.88385" lon="2.32522">
        <ele>45.6</ele>
        <time>2023-12-19T07:29:14Z</time>
      </trkpt>
      <trkpt lat="49.88385" lon="2.32521">
        <ele>45.6</ele>
        <time>2023-12-19T07:29:15Z</time>
      </trkpt>
      <trkpt lat="49.88384" lon="2.32518">
        <ele>45.7</ele>
        <time>2023-12-19T07:29:16Z</time>
      </trkpt>
      <trkpt lat="49.88384" lon="2.32517">
        <ele>45.7</ele>
        <time>2023-12-19T07:29:17Z</time>
      </trkpt>
      <trkpt lat="49.88383" lon="2.32515">
        <ele>45.7</ele>
        <time>2023-12-19T07:29:18Z</time>
      </trkpt>
      <trkpt lat="49.88383" lon="2.32513">
        <ele>45.8</ele>
        <time>2023-12-19T07:29:20Z</time>
      </trkpt>
      <trkpt lat="49.88382" lon="2.32512">
        <ele>45.8</ele>
        <time>2023-12-19T07:29:21Z</time>
      </trkpt>
      <trkpt lat="49.88382" lon="2.32511">
        <ele>45.8</ele>
        <time>2023-12-19T07:29:22Z</time>
      </trkpt>
      <trkpt lat="49.88381" lon="2.32508">
        <ele>45.9</ele>
        <time>2023-12-19T07:29:23Z</time>
      </trkpt>
      <trkpt lat="49.88381" lon="2.32507">
        <ele>45.9</ele>
        <time>2023-12-19T07:29:24Z</time>
      </trkpt>
      <trkpt lat="49.88381" lon="2.32505">
        <ele>45.9</ele>
        <time>2023-12-19T07:29:25Z</time>
      </trkpt>
      <trkpt lat="49.8838" lon="2.32502">
        <ele>46</ele>
        <time>2023-12-19T07:29:26Z</time>
      </trkpt>
      <trkpt lat="49.88379" lon="2.325">
        <ele>46.1</ele>
        <time>2023-12-19T07:29:28Z</time>
      </trkpt>
      <trkpt lat="49.88379" lon="2.32499">
        <ele>46.1</ele>
        <time>2023-12-19T07:29:29Z</time>
      </trkpt>
      <trkpt lat="49.88378" lon="2.32497">
        <ele>46.1</ele>
        <time>2023-12-19T07:29:30Z</time>
      </trkpt>
      <trkpt lat="49.88378" lon="2.32496">
        <ele>46.2</ele>
        <time>2023-12-19T07:29:31Z</time>
      </trkpt>
      <trkpt lat="49.88377" lon="2.32492">
        <ele>46.2</ele>
        <time>2023-12-19T07:29:33Z</time>
      </trkpt>
      <trkpt lat="49.88377" lon="2.32491">
        <ele>46.3</ele>
        <time>2023-12-19T07:29:34Z</time>
      </trkpt>
      <trkpt lat="49.88377" lon="2.3249">
        <ele>46.3</ele>
        <time>2023-12-19T07:29:35Z</time>
      </trkpt>
      <trkpt lat="49.88376" lon="2.32488">
        <ele>46.3</ele>
        <time>2023-12-19T07:29:36Z</time>
      </trkpt>
      <trkpt lat="49.88376" lon="2.32486">
        <ele>46.4</ele>
        <time>2023-12-19T07:29:37Z</time>
      </trkpt>
      <trkpt lat="49.88376" lon="2.32485">
        <ele>46.4</ele>
        <time>2023-12-19T07:29:39Z</time>
      </trkpt>
      <trkpt lat="49.88375" lon="2.32483">
        <ele>46.5</ele>
        <time>2023-12-19T07:29:40Z</time>
      </trkpt>
      <trkpt lat="49.88375" lon="2.32481">
        <ele>46.5</ele>
        <time>2023-12-19T07:29:41Z</time>
      </trkpt>
      <trkpt lat="49.88375" lon="2.3248">
        <ele>46.5</ele>
        <time>2023-12-19T07:29:42Z</time>
      </trkpt>
      <trkpt lat="49.88375" lon="2.32478">
        <ele>46.6</ele>
        <time>2023-12-19T07:29:43Z</time>
      </trkpt>
      <trkpt lat="49.88374" lon="2.32477">
        <ele>46.6</ele>
        <time>2023-12-19T07:29:44Z</time>
      </trkpt>
      <trkpt lat="49.88374" lon="2.32476">
        <ele>46.6</ele>
        <time>2023-12-19T07:29:45Z</time>
      </trkpt>
      <trkpt lat="49.88374" lon="2.32475">
        <ele>46.6</ele>
        <time>2023-12-19T07:29:46Z</time>
      </trkpt>
      <trkpt lat="49.88373" lon="2.32473">
        <ele>46.7</ele>
        <time>2023-12-19T07:29:48Z</time>
      </trkpt>
      <trkpt lat="49.88372" lon="2.32473">
        <ele>46.7</ele>
        <time>2023-12-19T07:29:49Z</time>
      </trkpt>
      <trkpt lat="49.88372" lon="2.32472">
        <ele>46.7</ele>
        <time>2023-12-19T07:29:50Z</time>
      </trkpt>
      <trkpt lat="49.88371" lon="2.32472">
        <ele>46.8</ele>
        <time>2023-12-19T07:29:51Z</time>
      </trkpt>
      <trkpt lat="49.88369" lon="2.32471">
        <ele>46.8</ele>
        <time>2023-12-19T07:29:52Z</time>
      </trkpt>
      <trkpt lat="49.88368" lon="2.3247">
        <ele>46.9</ele>
        <time>2023-12-19T07:29:53Z</time>
      </trkpt>
      <trkpt lat="49.88367" lon="2.3247">
        <ele>46.9</ele>
        <time>2023-12-19T07:29:54Z</time>
      </trkpt>
      <trkpt lat="49.88366" lon="2.32469">
        <ele>46.9</ele>
        <time>2023-12-19T07:29:55Z</time>
      </trkpt>
      <trkpt lat="49.88364" lon="2.32468">
        <ele>47</ele>
        <time>2023-12-19T07:29:57Z</time>
      </trkpt>
      <trkpt lat="49.88363" lon="2.32467">
        <ele>47</ele>
        <time>2023-12-19T07:29:58Z</time>
      </trkpt>
      <trkpt lat="49.88361" lon="2.32466">
        <ele>47.1</ele>
        <time>2023-12-19T07:29:59Z</time>
      </trkpt>
      <trkpt lat="49.8836" lon="2.32465">
        <ele>47.2</ele>
        <time>2023-12-19T07:30:00Z</time>
      </trkpt>
      <trkpt lat="49.88358" lon="2.32463">
        <ele>47.2</ele>
        <time>2023-12-19T07:30:01Z</time>
      </trkpt>
      <trkpt lat="49.88357" lon="2.32461">
        <ele>47.2</ele>
        <time>2023-12-19T07:30:02Z</time>
      </trkpt>
      <trkpt lat="49.88357" lon="2.32459">
        <ele>47.2</ele>
        <time>2023-12-19T07:30:03Z</time>
      </trkpt>
      <trkpt lat="49.88356" lon="2.32455">
        <ele>47.3</ele>
        <time>2023-12-19T07:30:04Z</time>
      </trkpt>
      <trkpt lat="49.88356" lon="2.32454">
        <ele>47.3</ele>
        <time>2023-12-19T07:30:05Z</time>
      </trkpt>
      <trkpt lat="49.88356" lon="2.32449">
        <ele>47.3</ele>
        <time>2023-12-19T07:30:06Z</time>
      </trkpt>
      <trkpt lat="49.88356" lon="2.32447">
        <ele>47.3</ele>
        <time>2023-12-19T07:30:07Z</time>
      </trkpt>
      <trkpt lat="49.88355" lon="2.32444">
        <ele>47.3</ele>
        <time>2023-12-19T07:30:08Z</time>
      </trkpt>
      <trkpt lat="49.88356" lon="2.32441">
        <ele>47.3</ele>
        <time>2023-12-19T07:30:10Z</time>
      </trkpt>
      <trkpt lat="49.88357" lon="2.32437">
        <ele>47.3</ele>
        <time>2023-12-19T07:30:11Z</time>
      </trkpt>
      <trkpt lat="49.88358" lon="2.32436">
        <ele>47.3</ele>
        <time>2023-12-19T07:30:12Z</time>
      </trkpt>
      <trkpt lat="49.88359" lon="2.32434">
        <ele>47.3</ele>
        <time>2023-12-19T07:30:13Z</time>
      </trkpt>
      <trkpt lat="49.8836" lon="2.32432">
        <ele>47.3</ele>
        <time>2023-12-19T07:30:14Z</time>
      </trkpt>
      <trkpt lat="49.88361" lon="2.3243">
        <ele>47.3</ele>
        <time>2023-12-19T07:30:15Z</time>
      </trkpt>
      <trkpt lat="49.88362" lon="2.32429">
        <ele>47.3</ele>
        <time>2023-12-19T07:30:16Z</time>
      </trkpt>
      <trkpt lat="49.88363" lon="2.32427">
        <ele>47.3</ele>
        <time>2023-12-19T07:30:17Z</time>
      </trkpt>
      <trkpt lat="49.88364" lon="2.32426">
        <ele>47.4</ele>
        <time>2023-12-19T07:30:19Z</time>
      </trkpt>
      <trkpt lat="49.88365" lon="2.32425">
        <ele>47.4</ele>
        <time>2023-12-19T07:30:20Z</time>
      </trkpt>
      <trkpt lat="49.88366" lon="2.32423">
        <ele>47.4</ele>
        <time>2023-12-19T07:30:21Z</time>
      </trkpt>
      <trkpt lat="49.88367" lon="2.32421">
        <ele>47.4</ele>
        <time>2023-12-19T07:30:22Z</time>
      </trkpt>
      <trkpt lat="49.88367" lon="2.32419">
        <ele>47.4</ele>
        <time>2023-12-19T07:30:23Z</time>
      </trkpt>
      <trkpt lat="49.88368" lon="2.32417">
        <ele>47.5</ele>
        <time>2023-12-19T07:30:24Z</time>
      </trkpt>
      <trkpt lat="49.88368" lon="2.32415">
        <ele>47.5</ele>
        <time>2023-12-19T07:30:25Z</time>
      </trkpt>
      <trkpt lat="49.88369" lon="2.32413">
        <ele>47.5</ele>
        <time>2023-12-19T07:30:27Z</time>
      </trkpt>
      <trkpt lat="49.8837" lon="2.3241">
        <ele>47.5</ele>
        <time>2023-12-19T07:30:28Z</time>
      </trkpt>
      <trkpt lat="49.88371" lon="2.32409">
        <ele>47.5</ele>
        <time>2023-12-19T07:30:29Z</time>
      </trkpt>
      <trkpt lat="49.88371" lon="2.32408">
        <ele>47.5</ele>
        <time>2023-12-19T07:30:30Z</time>
      </trkpt>
      <trkpt lat="49.88372" lon="2.32406">
        <ele>47.5</ele>
        <time>2023-12-19T07:30:31Z</time>
      </trkpt>
      <trkpt lat="49.88373" lon="2.32404">
        <ele>47.5</ele>
        <time>2023-12-19T07:30:32Z</time>
      </trkpt>
      <trkpt lat="49.88374" lon="2.32402">
        <ele>47.5</ele>
        <time>2023-12-19T07:30:33Z</time>
      </trkpt>
      <trkpt lat="49.88374" lon="2.324">
        <ele>47.5</ele>
        <time>2023-12-19T07:30:34Z</time>
      </trkpt>
      <trkpt lat="49.88375" lon="2.32398">
        <ele>47.5</ele>
        <time>2023-12-19T07:30:36Z</time>
      </trkpt>
      <trkpt lat="49.88376" lon="2.32396">
        <ele>47.5</ele>
        <time>2023-12-19T07:30:37Z</time>
      </trkpt>
      <trkpt lat="49.88377" lon="2.32393">
        <ele>47.5</ele>
        <time>2023-12-19T07:30:39Z</time>
      </trkpt>
      <trkpt lat="49.88378" lon="2.32391">
        <ele>47.5</ele>
        <time>2023-12-19T07:30:40Z</time>
      </trkpt>
      <trkpt lat="49.88379" lon="2.32388">
        <ele>47.5</ele>
        <time>2023-12-19T07:30:41Z</time>
      </trkpt>
      <trkpt lat="49.8838" lon="2.32387">
        <ele>47.5</ele>
        <time>2023-12-19T07:30:42Z</time>
      </trkpt>
      <trkpt lat="49.8838" lon="2.32387">
        <ele>47.5</ele>
        <time>2023-12-19T07:30:43Z</time>
      </trkpt>
      <trkpt lat="49.88382" lon="2.32385">
        <ele>47.5</ele>
        <time>2023-12-19T07:30:45Z</time>
      </trkpt>
      <trkpt lat="49.88383" lon="2.32384">
        <ele>47.5</ele>
        <time>2023-12-19T07:30:46Z</time>
      </trkpt>
      <trkpt lat="49.88384" lon="2.32383">
        <ele>47.5</ele>
        <time>2023-12-19T07:30:47Z</time>
      </trkpt>
      <trkpt lat="49.88385" lon="2.32382">
        <ele>47.5</ele>
        <time>2023-12-19T07:30:48Z</time>
      </trkpt>
      <trkpt lat="49.88386" lon="2.32381">
        <ele>47.5</ele>
        <time>2023-12-19T07:30:49Z</time>
      </trkpt>
      <trkpt lat="49.88386" lon="2.32379">
        <ele>47.5</ele>
        <time>2023-12-19T07:30:50Z</time>
      </trkpt>
      <trkpt lat="49.88387" lon="2.32378">
        <ele>47.5</ele>
        <time>2023-12-19T07:30:51Z</time>
      </trkpt>
      <trkpt lat="49.88387" lon="2.32377">
        <ele>47.5</ele>
        <time>2023-12-19T07:30:52Z</time>
      </trkpt>
      <trkpt lat="49.88387" lon="2.32376">
        <ele>47.5</ele>
        <time>2023-12-19T07:30:53Z</time>
      </trkpt>
      <trkpt lat="49.88387" lon="2.32374">
        <ele>47.5</ele>
        <time>2023-12-19T07:30:54Z</time>
      </trkpt>
      <trkpt lat="49.88387" lon="2.32372">
        <ele>47.5</ele>
        <time>2023-12-19T07:30:56Z</time>
      </trkpt>
      <trkpt lat="49.88387" lon="2.32371">
        <ele>47.4</ele>
        <time>2023-12-19T07:30:57Z</time>
      </trkpt>
      <trkpt lat="49.88388" lon="2.32369">
        <ele>47.4</ele>
        <time>2023-12-19T07:30:58Z</time>
      </trkpt>
      <trkpt lat="49.88388" lon="2.32368">
        <ele>47.4</ele>
        <time>2023-12-19T07:30:59Z</time>
      </trkpt>
      <trkpt lat="49.88388" lon="2.32366">
        <ele>47.4</ele>
        <time>2023-12-19T07:31:00Z</time>
      </trkpt>
      <trkpt lat="49.88389" lon="2.32364">
        <ele>47.4</ele>
        <time>2023-12-19T07:31:01Z</time>
      </trkpt>
      <trkpt lat="49.88389" lon="2.32363">
        <ele>47.4</ele>
        <time>2023-12-19T07:31:02Z</time>
      </trkpt>
      <trkpt lat="49.8839" lon="2.32362">
        <ele>47.4</ele>
        <time>2023-12-19T07:31:03Z</time>
      </trkpt>
      <trkpt lat="49.8839" lon="2.3236">
        <ele>47.4</ele>
        <time>2023-12-19T07:31:04Z</time>
      </trkpt>
      <trkpt lat="49.88391" lon="2.32359">
        <ele>47.4</ele>
        <time>2023-12-19T07:31:05Z</time>
      </trkpt>
      <trkpt lat="49.88391" lon="2.32358">
        <ele>47.4</ele>
        <time>2023-12-19T07:31:07Z</time>
      </trkpt>
      <trkpt lat="49.88391" lon="2.32356">
        <ele>47.4</ele>
        <time>2023-12-19T07:31:08Z</time>
      </trkpt>
      <trkpt lat="49.88392" lon="2.32355">
        <ele>47.4</ele>
        <time>2023-12-19T07:31:09Z</time>
      </trkpt>
      <trkpt lat="49.88392" lon="2.32353">
        <ele>47.4</ele>
        <time>2023-12-19T07:31:10Z</time>
      </trkpt>
      <trkpt lat="49.88393" lon="2.32351">
        <ele>47.4</ele>
        <time>2023-12-19T07:31:11Z</time>
      </trkpt>
      <trkpt lat="49.88394" lon="2.32349">
        <ele>47.4</ele>
        <time>2023-12-19T07:31:13Z</time>
      </trkpt>
      <trkpt lat="49.88394" lon="2.32348">
        <ele>47.4</ele>
        <time>2023-12-19T07:31:14Z</time>
      </trkpt>
      <trkpt lat="49.88395" lon="2.32347">
        <ele>47.4</ele>
        <time>2023-12-19T07:31:15Z</time>
      </trkpt>
      <trkpt lat="49.88395" lon="2.32345">
        <ele>47.3</ele>
        <time>2023-12-19T07:31:16Z</time>
      </trkpt>
      <trkpt lat="49.88396" lon="2.32344">
        <ele>47.3</ele>
        <time>2023-12-19T07:31:17Z</time>
      </trkpt>
      <trkpt lat="49.88396" lon="2.32343">
        <ele>47.3</ele>
        <time>2023-12-19T07:31:18Z</time>
      </trkpt>
      <trkpt lat="49.88397" lon="2.32341">
        <ele>47.3</ele>
        <time>2023-12-19T07:31:19Z</time>
      </trkpt>
      <trkpt lat="49.88398" lon="2.3234">
        <ele>47.3</ele>
        <time>2023-12-19T07:31:20Z</time>
      </trkpt>
      <trkpt lat="49.88398" lon="2.32338">
        <ele>47.3</ele>
        <time>2023-12-19T07:31:21Z</time>
      </trkpt>
      <trkpt lat="49.88399" lon="2.32335">
        <ele>47.3</ele>
        <time>2023-12-19T07:31:22Z</time>
      </trkpt>
      <trkpt lat="49.884" lon="2.32334">
        <ele>47.3</ele>
        <time>2023-12-19T07:31:23Z</time>
      </trkpt>
      <trkpt lat="49.884" lon="2.32333">
        <ele>47.3</ele>
        <time>2023-12-19T07:31:24Z</time>
      </trkpt>
      <trkpt lat="49.88401" lon="2.32329">
        <ele>47.3</ele>
        <time>2023-12-19T07:31:25Z</time>
      </trkpt>
      <trkpt lat="49.88402" lon="2.32328">
        <ele>47.3</ele>
        <time>2023-12-19T07:31:27Z</time>
      </trkpt>
      <trkpt lat="49.88403" lon="2.32326">
        <ele>47.3</ele>
        <time>2023-12-19T07:31:28Z</time>
      </trkpt>
      <trkpt lat="49.88403" lon="2.32325">
        <ele>47.3</ele>
        <time>2023-12-19T07:31:29Z</time>
      </trkpt>
      <trkpt lat="49.88404" lon="2.32323">
        <ele>47.3</ele>
        <time>2023-12-19T07:31:30Z</time>
      </trkpt>
      <trkpt lat="49.88404" lon="2.32321">
        <ele>47.3</ele>
        <time>2023-12-19T07:31:32Z</time>
      </trkpt>
      <trkpt lat="49.88405" lon="2.32319">
        <ele>47.3</ele>
        <time>2023-12-19T07:31:33Z</time>
      </trkpt>
      <trkpt lat="49.88406" lon="2.32317">
        <ele>47.3</ele>
        <time>2023-12-19T07:31:34Z</time>
      </trkpt>
      <trkpt lat="49.88407" lon="2.32315">
        <ele>47.3</ele>
        <time>2023-12-19T07:31:35Z</time>
      </trkpt>
      <trkpt lat="49.8841" lon="2.32312">
        <ele>47.3</ele>
        <time>2023-12-19T07:31:36Z</time>
      </trkpt>
      <trkpt lat="49.88411" lon="2.32311">
        <ele>47.3</ele>
        <time>2023-12-19T07:31:37Z</time>
      </trkpt>
      <trkpt lat="49.88412" lon="2.3231">
        <ele>47.3</ele>
        <time>2023-12-19T07:31:38Z</time>
      </trkpt>
      <trkpt lat="49.88413" lon="2.32308">
        <ele>47.3</ele>
        <time>2023-12-19T07:31:40Z</time>
      </trkpt>
      <trkpt lat="49.88414" lon="2.32307">
        <ele>47.3</ele>
        <time>2023-12-19T07:31:41Z</time>
      </trkpt>
      <trkpt lat="49.88413" lon="2.32305">
        <ele>47.3</ele>
        <time>2023-12-19T07:31:42Z</time>
      </trkpt>
      <trkpt lat="49.88413" lon="2.32303">
        <ele>47.3</ele>
        <time>2023-12-19T07:31:43Z</time>
      </trkpt>
      <trkpt lat="49.88412" lon="2.32302">
        <ele>47.4</ele>
        <time>2023-12-19T07:31:44Z</time>
      </trkpt>
      <trkpt lat="49.88411" lon="2.323">
        <ele>47.4</ele>
        <time>2023-12-19T07:31:45Z</time>
      </trkpt>
      <trkpt lat="49.88409" lon="2.32299">
        <ele>47.4</ele>
        <time>2023-12-19T07:31:46Z</time>
      </trkpt>
      <trkpt lat="49.88408" lon="2.32298">
        <ele>47.4</ele>
        <time>2023-12-19T07:31:47Z</time>
      </trkpt>
      <trkpt lat="49.88406" lon="2.32297">
        <ele>47.4</ele>
        <time>2023-12-19T07:31:49Z</time>
      </trkpt>
      <trkpt lat="49.88405" lon="2.32296">
        <ele>47.4</ele>
        <time>2023-12-19T07:31:50Z</time>
      </trkpt>
      <trkpt lat="49.88403" lon="2.32295">
        <ele>47.4</ele>
        <time>2023-12-19T07:31:51Z</time>
      </trkpt>
      <trkpt lat="49.88402" lon="2.32295">
        <ele>47.4</ele>
        <time>2023-12-19T07:31:52Z</time>
      </trkpt>
      <trkpt lat="49.88399" lon="2.32294">
        <ele>47.4</ele>
        <time>2023-12-19T07:31:53Z</time>
      </trkpt>
      <trkpt lat="49.88398" lon="2.32293">
        <ele>47.4</ele>
        <time>2023-12-19T07:31:54Z</time>
      </trkpt>
      <trkpt lat="49.88396" lon="2.32292">
        <ele>47.5</ele>
        <time>2023-12-19T07:31:55Z</time>
      </trkpt>
      <trkpt lat="49.88394" lon="2.32292">
        <ele>47.5</ele>
        <time>2023-12-19T07:31:57Z</time>
      </trkpt>
      <trkpt lat="49.88391" lon="2.32291">
        <ele>47.5</ele>
        <time>2023-12-19T07:31:58Z</time>
      </trkpt>
      <trkpt lat="49.8839" lon="2.32291">
        <ele>47.5</ele>
        <time>2023-12-19T07:31:59Z</time>
      </trkpt>
      <trkpt lat="49.88389" lon="2.3229">
        <ele>47.5</ele>
        <time>2023-12-19T07:32:00Z</time>
      </trkpt>
      <trkpt lat="49.88387" lon="2.3229">
        <ele>47.6</ele>
        <time>2023-12-19T07:32:01Z</time>
      </trkpt>
      <trkpt lat="49.88386" lon="2.32289">
        <ele>47.6</ele>
        <time>2023-12-19T07:32:02Z</time>
      </trkpt>
      <trkpt lat="49.88384" lon="2.32288">
        <ele>47.6</ele>
        <time>2023-12-19T07:32:04Z</time>
      </trkpt>
      <trkpt lat="49.88382" lon="2.32287">
        <ele>47.6</ele>
        <time>2023-12-19T07:32:05Z</time>
      </trkpt>
      <trkpt lat="49.88381" lon="2.32287">
        <ele>47.6</ele>
        <time>2023-12-19T07:32:06Z</time>
      </trkpt>
      <trkpt lat="49.88379" lon="2.32287">
        <ele>47.7</ele>
        <time>2023-12-19T07:32:07Z</time>
      </trkpt>
      <trkpt lat="49.88377" lon="2.32287">
        <ele>47.7</ele>
        <time>2023-12-19T07:32:08Z</time>
      </trkpt>
      <trkpt lat="49.88375" lon="2.32286">
        <ele>47.7</ele>
        <time>2023-12-19T07:32:09Z</time>
      </trkpt>
      <trkpt lat="49.88374" lon="2.32286">
        <ele>47.7</ele>
        <time>2023-12-19T07:32:10Z</time>
      </trkpt>
      <trkpt lat="49.88372" lon="2.32286">
        <ele>47.7</ele>
        <time>2023-12-19T07:32:11Z</time>
      </trkpt>
      <trkpt lat="49.8837" lon="2.32286">
        <ele>47.8</ele>
        <time>2023-12-19T07:32:12Z</time>
      </trkpt>
      <trkpt lat="49.88369" lon="2.32286">
        <ele>47.8</ele>
        <time>2023-12-19T07:32:13Z</time>
      </trkpt>
      <trkpt lat="49.88367" lon="2.32285">
        <ele>47.8</ele>
        <time>2023-12-19T07:32:14Z</time>
      </trkpt>
      <trkpt lat="49.88366" lon="2.32285">
        <ele>47.8</ele>
        <time>2023-12-19T07:32:15Z</time>
      </trkpt>
      <trkpt lat="49.88364" lon="2.32285">
        <ele>47.8</ele>
        <time>2023-12-19T07:32:16Z</time>
      </trkpt>
      <trkpt lat="49.88363" lon="2.32285">
        <ele>47.9</ele>
        <time>2023-12-19T07:32:18Z</time>
      </trkpt>
      <trkpt lat="49.88361" lon="2.32285">
        <ele>47.9</ele>
        <time>2023-12-19T07:32:19Z</time>
      </trkpt>
      <trkpt lat="49.8836" lon="2.32284">
        <ele>47.9</ele>
        <time>2023-12-19T07:32:20Z</time>
      </trkpt>
      <trkpt lat="49.88358" lon="2.32284">
        <ele>47.9</ele>
        <time>2023-12-19T07:32:21Z</time>
      </trkpt>
      <trkpt lat="49.88357" lon="2.32283">
        <ele>47.9</ele>
        <time>2023-12-19T07:32:22Z</time>
      </trkpt>
      <trkpt lat="49.88355" lon="2.32283">
        <ele>48</ele>
        <time>2023-12-19T07:32:23Z</time>
      </trkpt>
      <trkpt lat="49.88354" lon="2.32282">
        <ele>48</ele>
        <time>2023-12-19T07:32:24Z</time>
      </trkpt>
      <trkpt lat="49.88353" lon="2.32281">
        <ele>48</ele>
        <time>2023-12-19T07:32:25Z</time>
      </trkpt>
      <trkpt lat="49.88351" lon="2.3228">
        <ele>48</ele>
        <time>2023-12-19T07:32:27Z</time>
      </trkpt>
      <trkpt lat="49.8835" lon="2.32278">
        <ele>48</ele>
        <time>2023-12-19T07:32:28Z</time>
      </trkpt>
      <trkpt lat="49.88349" lon="2.32276">
        <ele>48.1</ele>
        <time>2023-12-19T07:32:29Z</time>
      </trkpt>
      <trkpt lat="49.88348" lon="2.32275">
        <ele>48.1</ele>
        <time>2023-12-19T07:32:30Z</time>
      </trkpt>
      <trkpt lat="49.88347" lon="2.32275">
        <ele>48.1</ele>
        <time>2023-12-19T07:32:31Z</time>
      </trkpt>
      <trkpt lat="49.88346" lon="2.32274">
        <ele>48.1</ele>
        <time>2023-12-19T07:32:32Z</time>
      </trkpt>
      <trkpt lat="49.88345" lon="2.32273">
        <ele>48.1</ele>
        <time>2023-12-19T07:32:33Z</time>
      </trkpt>
      <trkpt lat="49.88344" lon="2.32273">
        <ele>48.2</ele>
        <time>2023-12-19T07:32:34Z</time>
      </trkpt>
      <trkpt lat="49.88343" lon="2.32273">
        <ele>48.2</ele>
        <time>2023-12-19T07:32:35Z</time>
      </trkpt>
      <trkpt lat="49.88342" lon="2.32272">
        <ele>48.2</ele>
        <time>2023-12-19T07:32:36Z</time>
      </trkpt>
      <trkpt lat="49.88341" lon="2.32272">
        <ele>48.2</ele>
        <time>2023-12-19T07:32:38Z</time>
      </trkpt>
      <trkpt lat="49.88339" lon="2.32271">
        <ele>48.3</ele>
        <time>2023-12-19T07:32:39Z</time>
      </trkpt>
      <trkpt lat="49.88338" lon="2.32271">
        <ele>48.3</ele>
        <time>2023-12-19T07:32:40Z</time>
      </trkpt>
      <trkpt lat="49.88337" lon="2.3227">
        <ele>48.3</ele>
        <time>2023-12-19T07:32:41Z</time>
      </trkpt>
      <trkpt lat="49.88336" lon="2.3227">
        <ele>48.3</ele>
        <time>2023-12-19T07:32:42Z</time>
      </trkpt>
      <trkpt lat="49.88335" lon="2.32269">
        <ele>48.4</ele>
        <time>2023-12-19T07:32:43Z</time>
      </trkpt>
      <trkpt lat="49.88334" lon="2.32268">
        <ele>48.4</ele>
        <time>2023-12-19T07:32:44Z</time>
      </trkpt>
      <trkpt lat="49.88333" lon="2.32267">
        <ele>48.4</ele>
        <time>2023-12-19T07:32:45Z</time>
      </trkpt>
      <trkpt lat="49.88331" lon="2.32266">
        <ele>48.4</ele>
        <time>2023-12-19T07:32:47Z</time>
      </trkpt>
      <trkpt lat="49.8833" lon="2.32264">
        <ele>48.5</ele>
        <time>2023-12-19T07:32:49Z</time>
      </trkpt>
      <trkpt lat="49.8833" lon="2.32263">
        <ele>48.5</ele>
        <time>2023-12-19T07:32:50Z</time>
      </trkpt>
      <trkpt lat="49.88329" lon="2.32261">
        <ele>48.5</ele>
        <time>2023-12-19T07:32:52Z</time>
      </trkpt>
      <trkpt lat="49.88328" lon="2.3226">
        <ele>48.5</ele>
        <time>2023-12-19T07:32:53Z</time>
      </trkpt>
      <trkpt lat="49.88328" lon="2.32259">
        <ele>48.6</ele>
        <time>2023-12-19T07:32:55Z</time>
      </trkpt>
      <trkpt lat="49.88327" lon="2.32257">
        <ele>48.6</ele>
        <time>2023-12-19T07:32:56Z</time>
      </trkpt>
      <trkpt lat="49.88327" lon="2.32257">
        <ele>48.6</ele>
        <time>2023-12-19T07:32:58Z</time>
      </trkpt>
      <trkpt lat="49.88326" lon="2.32257">
        <ele>48.6</ele>
        <time>2023-12-19T07:32:59Z</time>
      </trkpt>
      <trkpt lat="49.88327" lon="2.32257">
        <ele>48.6</ele>
        <time>2023-12-19T07:33:00Z</time>
      </trkpt>
      <trkpt lat="49.88327" lon="2.32258">
        <ele>48.6</ele>
        <time>2023-12-19T07:33:02Z</time>
      </trkpt>
      <trkpt lat="49.88327" lon="2.32258">
        <ele>48.6</ele>
        <time>2023-12-19T07:33:03Z</time>
      </trkpt>
      <trkpt lat="49.88327" lon="2.32258">
        <ele>48.6</ele>
        <time>2023-12-19T07:33:04Z</time>
      </trkpt>
      <trkpt lat="49.88327" lon="2.32259">
        <ele>48.6</ele>
        <time>2023-12-19T07:33:06Z</time>
      </trkpt>
      <trkpt lat="49.88327" lon="2.32259">
        <ele>48.6</ele>
        <time>2023-12-19T07:33:07Z</time>
      </trkpt>
      <trkpt lat="49.88327" lon="2.32259">
        <ele>48.6</ele>
        <time>2023-12-19T07:33:08Z</time>
      </trkpt>
      <trkpt lat="49.88327" lon="2.32259">
        <ele>48.6</ele>
        <time>2023-12-19T07:33:10Z</time>
      </trkpt>
      <trkpt lat="49.88327" lon="2.32259">
        <ele>48.6</ele>
        <time>2023-12-19T07:33:11Z</time>
      </trkpt>
      <trkpt lat="49.88327" lon="2.32259">
        <ele>48.6</ele>
        <time>2023-12-19T07:33:12Z</time>
      </trkpt>
      <trkpt lat="49.88327" lon="2.32259">
        <ele>48.6</ele>
        <time>2023-12-19T07:33:13Z</time>
      </trkpt>
      <trkpt lat="49.88323" lon="2.32257">
        <ele>48.7</ele>
        <time>2023-12-19T07:33:49Z</time>
      </trkpt>
      <trkpt lat="49.88323" lon="2.32257">
        <ele>48.7</ele>
        <time>2023-12-19T07:33:50Z</time>
      </trkpt>
      <trkpt lat="49.88322" lon="2.32258">
        <ele>48.7</ele>
        <time>2023-12-19T07:33:52Z</time>
      </trkpt>
      <trkpt lat="49.88322" lon="2.32258">
        <ele>48.7</ele>
        <time>2023-12-19T07:33:53Z</time>
      </trkpt>
      <trkpt lat="49.88321" lon="2.32258">
        <ele>48.7</ele>
        <time>2023-12-19T07:33:54Z</time>
      </trkpt>
      <trkpt lat="49.88321" lon="2.32258">
        <ele>48.7</ele>
        <time>2023-12-19T07:33:56Z</time>
      </trkpt>
      <trkpt lat="49.8832" lon="2.32257">
        <ele>48.8</ele>
        <time>2023-12-19T07:33:58Z</time>
      </trkpt>
      <trkpt lat="49.8832" lon="2.32257">
        <ele>48.8</ele>
        <time>2023-12-19T07:33:59Z</time>
      </trkpt>
      <trkpt lat="49.8832" lon="2.32257">
        <ele>48.8</ele>
        <time>2023-12-19T07:34:00Z</time>
      </trkpt>
      <trkpt lat="49.8832" lon="2.32256">
        <ele>48.8</ele>
        <time>2023-12-19T07:34:01Z</time>
      </trkpt>
      <trkpt lat="49.8832" lon="2.32256">
        <ele>48.8</ele>
        <time>2023-12-19T07:34:02Z</time>
      </trkpt>
      <trkpt lat="49.8832" lon="2.32255">
        <ele>48.8</ele>
        <time>2023-12-19T07:34:03Z</time>
      </trkpt>
      <trkpt lat="49.8832" lon="2.32254">
        <ele>48.8</ele>
        <time>2023-12-19T07:34:04Z</time>
      </trkpt>
      <trkpt lat="49.8832" lon="2.32253">
        <ele>48.8</ele>
        <time>2023-12-19T07:34:06Z</time>
      </trkpt>
      <trkpt lat="49.88319" lon="2.32253">
        <ele>48.8</ele>
        <time>2023-12-19T07:34:07Z</time>
      </trkpt>
      <trkpt lat="49.88317" lon="2.32252">
        <ele>48.8</ele>
        <time>2023-12-19T07:34:08Z</time>
      </trkpt>
      <trkpt lat="49.88316" lon="2.32251">
        <ele>48.9</ele>
        <time>2023-12-19T07:34:09Z</time>
      </trkpt>
      <trkpt lat="49.88315" lon="2.3225">
        <ele>48.9</ele>
        <time>2023-12-19T07:34:10Z</time>
      </trkpt>
      <trkpt lat="49.88313" lon="2.32249">
        <ele>48.9</ele>
        <time>2023-12-19T07:34:11Z</time>
      </trkpt>
      <trkpt lat="49.88312" lon="2.32249">
        <ele>48.9</ele>
        <time>2023-12-19T07:34:12Z</time>
      </trkpt>
      <trkpt lat="49.88311" lon="2.32248">
        <ele>49</ele>
        <time>2023-12-19T07:34:14Z</time>
      </trkpt>
      <trkpt lat="49.88311" lon="2.32247">
        <ele>49</ele>
        <time>2023-12-19T07:34:15Z</time>
      </trkpt>
      <trkpt lat="49.8831" lon="2.32246">
        <ele>49</ele>
        <time>2023-12-19T07:34:16Z</time>
      </trkpt>
      <trkpt lat="49.88309" lon="2.32245">
        <ele>49</ele>
        <time>2023-12-19T07:34:17Z</time>
      </trkpt>
      <trkpt lat="49.88309" lon="2.32244">
        <ele>49</ele>
        <time>2023-12-19T07:34:18Z</time>
      </trkpt>
      <trkpt lat="49.88308" lon="2.32243">
        <ele>49</ele>
        <time>2023-12-19T07:34:19Z</time>
      </trkpt>
      <trkpt lat="49.88307" lon="2.32241">
        <ele>49.1</ele>
        <time>2023-12-19T07:34:21Z</time>
      </trkpt>
      <trkpt lat="49.88308" lon="2.3224">
        <ele>49.1</ele>
        <time>2023-12-19T07:34:22Z</time>
      </trkpt>
      <trkpt lat="49.88308" lon="2.32239">
        <ele>49.1</ele>
        <time>2023-12-19T07:34:23Z</time>
      </trkpt>
      <trkpt lat="49.88306" lon="2.32237">
        <ele>49.1</ele>
        <time>2023-12-19T07:34:24Z</time>
      </trkpt>
      <trkpt lat="49.88305" lon="2.32236">
        <ele>49.1</ele>
        <time>2023-12-19T07:34:25Z</time>
      </trkpt>
      <trkpt lat="49.88305" lon="2.32235">
        <ele>49.1</ele>
        <time>2023-12-19T07:34:26Z</time>
      </trkpt>
      <trkpt lat="49.88303" lon="2.32233">
        <ele>49.2</ele>
        <time>2023-12-19T07:34:27Z</time>
      </trkpt>
      <trkpt lat="49.88302" lon="2.32232">
        <ele>49.2</ele>
        <time>2023-12-19T07:34:28Z</time>
      </trkpt>
      <trkpt lat="49.88301" lon="2.32231">
        <ele>49.2</ele>
        <time>2023-12-19T07:34:30Z</time>
      </trkpt>
      <trkpt lat="49.883" lon="2.3223">
        <ele>49.3</ele>
        <time>2023-12-19T07:34:31Z</time>
      </trkpt>
      <trkpt lat="49.883" lon="2.32229">
        <ele>49.3</ele>
        <time>2023-12-19T07:34:32Z</time>
      </trkpt>
      <trkpt lat="49.883" lon="2.32229">
        <ele>49.3</ele>
        <time>2023-12-19T07:34:33Z</time>
      </trkpt>
      <trkpt lat="49.88301" lon="2.32229">
        <ele>49.3</ele>
        <time>2023-12-19T07:34:35Z</time>
      </trkpt>
      <trkpt lat="49.88302" lon="2.32228">
        <ele>49.3</ele>
        <time>2023-12-19T07:34:36Z</time>
      </trkpt>
      <trkpt lat="49.88302" lon="2.32228">
        <ele>49.3</ele>
        <time>2023-12-19T07:34:37Z</time>
      </trkpt>
      <trkpt lat="49.88302" lon="2.32228">
        <ele>49.3</ele>
        <time>2023-12-19T07:34:38Z</time>
      </trkpt>
      <trkpt lat="49.88302" lon="2.32228">
        <ele>49.3</ele>
        <time>2023-12-19T07:34:39Z</time>
      </trkpt>
      <trkpt lat="49.88301" lon="2.32229">
        <ele>49.4</ele>
        <time>2023-12-19T07:34:40Z</time>
      </trkpt>
      <trkpt lat="49.883" lon="2.32229">
        <ele>49.4</ele>
        <time>2023-12-19T07:34:42Z</time>
      </trkpt>
      <trkpt lat="49.88299" lon="2.32228">
        <ele>49.4</ele>
        <time>2023-12-19T07:34:43Z</time>
      </trkpt>
      <trkpt lat="49.88298" lon="2.32228">
        <ele>49.4</ele>
        <time>2023-12-19T07:34:44Z</time>
      </trkpt>
      <trkpt lat="49.88297" lon="2.32227">
        <ele>49.4</ele>
        <time>2023-12-19T07:34:45Z</time>
      </trkpt>
      <trkpt lat="49.88295" lon="2.32227">
        <ele>49.5</ele>
        <time>2023-12-19T07:34:46Z</time>
      </trkpt>
      <trkpt lat="49.88294" lon="2.32226">
        <ele>49.5</ele>
        <time>2023-12-19T07:34:47Z</time>
      </trkpt>
      <trkpt lat="49.88294" lon="2.32226">
        <ele>49.5</ele>
        <time>2023-12-19T07:34:48Z</time>
      </trkpt>
      <trkpt lat="49.88292" lon="2.32225">
        <ele>49.6</ele>
        <time>2023-12-19T07:34:50Z</time>
      </trkpt>
      <trkpt lat="49.88291" lon="2.32224">
        <ele>49.6</ele>
        <time>2023-12-19T07:34:51Z</time>
      </trkpt>
      <trkpt lat="49.8829" lon="2.32224">
        <ele>49.6</ele>
        <time>2023-12-19T07:34:52Z</time>
      </trkpt>
      <trkpt lat="49.88289" lon="2.32223">
        <ele>49.6</ele>
        <time>2023-12-19T07:34:53Z</time>
      </trkpt>
      <trkpt lat="49.88288" lon="2.32223">
        <ele>49.6</ele>
        <time>2023-12-19T07:34:54Z</time>
      </trkpt>
      <trkpt lat="49.88287" lon="2.32222">
        <ele>49.7</ele>
        <time>2023-12-19T07:34:55Z</time>
      </trkpt>
      <trkpt lat="49.88285" lon="2.32221">
        <ele>49.7</ele>
        <time>2023-12-19T07:34:56Z</time>
      </trkpt>
      <trkpt lat="49.88285" lon="2.3222">
        <ele>49.7</ele>
        <time>2023-12-19T07:34:57Z</time>
      </trkpt>
      <trkpt lat="49.88284" lon="2.3222">
        <ele>49.7</ele>
        <time>2023-12-19T07:34:59Z</time>
      </trkpt>
      <trkpt lat="49.88283" lon="2.32219">
        <ele>49.7</ele>
        <time>2023-12-19T07:35:00Z</time>
      </trkpt>
      <trkpt lat="49.88282" lon="2.32218">
        <ele>49.8</ele>
        <time>2023-12-19T07:35:01Z</time>
      </trkpt>
      <trkpt lat="49.88282" lon="2.32218">
        <ele>49.8</ele>
        <time>2023-12-19T07:35:02Z</time>
      </trkpt>
      <trkpt lat="49.88281" lon="2.32217">
        <ele>49.8</ele>
        <time>2023-12-19T07:35:03Z</time>
      </trkpt>
      <trkpt lat="49.8828" lon="2.32216">
        <ele>49.8</ele>
        <time>2023-12-19T07:35:04Z</time>
      </trkpt>
      <trkpt lat="49.88279" lon="2.32215">
        <ele>49.8</ele>
        <time>2023-12-19T07:35:05Z</time>
      </trkpt>
      <trkpt lat="49.88277" lon="2.32214">
        <ele>49.9</ele>
        <time>2023-12-19T07:35:06Z</time>
      </trkpt>
      <trkpt lat="49.88276" lon="2.32213">
        <ele>49.9</ele>
        <time>2023-12-19T07:35:07Z</time>
      </trkpt>
      <trkpt lat="49.88274" lon="2.32212">
        <ele>49.9</ele>
        <time>2023-12-19T07:35:09Z</time>
      </trkpt>
      <trkpt lat="49.88273" lon="2.3221">
        <ele>50</ele>
        <time>2023-12-19T07:35:10Z</time>
      </trkpt>
      <trkpt lat="49.8827" lon="2.32209">
        <ele>50</ele>
        <time>2023-12-19T07:35:11Z</time>
      </trkpt>
      <trkpt lat="49.88269" lon="2.32208">
        <ele>50</ele>
        <time>2023-12-19T07:35:12Z</time>
      </trkpt>
      <trkpt lat="49.88266" lon="2.32206">
        <ele>50.1</ele>
        <time>2023-12-19T07:35:13Z</time>
      </trkpt>
      <trkpt lat="49.88263" lon="2.32203">
        <ele>50.2</ele>
        <time>2023-12-19T07:35:14Z</time>
      </trkpt>
      <trkpt lat="49.88262" lon="2.32203">
        <ele>50.2</ele>
        <time>2023-12-19T07:35:15Z</time>
      </trkpt>
      <trkpt lat="49.88261" lon="2.32201">
        <ele>50.2</ele>
        <time>2023-12-19T07:35:16Z</time>
      </trkpt>
      <trkpt lat="49.88259" lon="2.32199">
        <ele>50.2</ele>
        <time>2023-12-19T07:35:18Z</time>
      </trkpt>
      <trkpt lat="49.88258" lon="2.32198">
        <ele>50.3</ele>
        <time>2023-12-19T07:35:19Z</time>
      </trkpt>
      <trkpt lat="49.88257" lon="2.32197">
        <ele>50.3</ele>
        <time>2023-12-19T07:35:20Z</time>
      </trkpt>
      <trkpt lat="49.88256" lon="2.32195">
        <ele>50.3</ele>
        <time>2023-12-19T07:35:21Z</time>
      </trkpt>
      <trkpt lat="49.88254" lon="2.32193">
        <ele>50.4</ele>
        <time>2023-12-19T07:35:22Z</time>
      </trkpt>
      <trkpt lat="49.88254" lon="2.32192">
        <ele>50.4</ele>
        <time>2023-12-19T07:35:23Z</time>
      </trkpt>
      <trkpt lat="49.88253" lon="2.3219">
        <ele>50.4</ele>
        <time>2023-12-19T07:35:24Z</time>
      </trkpt>
      <trkpt lat="49.88252" lon="2.32188">
        <ele>50.4</ele>
        <time>2023-12-19T07:35:26Z</time>
      </trkpt>
      <trkpt lat="49.88251" lon="2.32186">
        <ele>50.5</ele>
        <time>2023-12-19T07:35:27Z</time>
      </trkpt>
      <trkpt lat="49.8825" lon="2.32185">
        <ele>50.5</ele>
        <time>2023-12-19T07:35:28Z</time>
      </trkpt>
      <trkpt lat="49.88249" lon="2.32185">
        <ele>50.5</ele>
        <time>2023-12-19T07:35:29Z</time>
      </trkpt>
      <trkpt lat="49.88247" lon="2.32183">
        <ele>50.6</ele>
        <time>2023-12-19T07:35:30Z</time>
      </trkpt>
      <trkpt lat="49.88247" lon="2.32182">
        <ele>50.6</ele>
        <time>2023-12-19T07:35:31Z</time>
      </trkpt>
      <trkpt lat="49.88246" lon="2.32181">
        <ele>50.6</ele>
        <time>2023-12-19T07:35:32Z</time>
      </trkpt>
      <trkpt lat="49.88245" lon="2.3218">
        <ele>50.6</ele>
        <time>2023-12-19T07:35:33Z</time>
      </trkpt>
      <trkpt lat="49.88244" lon="2.32179">
        <ele>50.7</ele>
        <time>2023-12-19T07:35:35Z</time>
      </trkpt>
      <trkpt lat="49.88243" lon="2.32179">
        <ele>50.7</ele>
        <time>2023-12-19T07:35:36Z</time>
      </trkpt>
      <trkpt lat="49.88242" lon="2.32178">
        <ele>50.7</ele>
        <time>2023-12-19T07:35:37Z</time>
      </trkpt>
      <trkpt lat="49.88242" lon="2.32177">
        <ele>50.7</ele>
        <time>2023-12-19T07:35:38Z</time>
      </trkpt>
      <trkpt lat="49.88241" lon="2.32176">
        <ele>50.8</ele>
        <time>2023-12-19T07:35:39Z</time>
      </trkpt>
      <trkpt lat="49.88241" lon="2.32175">
        <ele>50.8</ele>
        <time>2023-12-19T07:35:40Z</time>
      </trkpt>
      <trkpt lat="49.8824" lon="2.32173">
        <ele>50.8</ele>
        <time>2023-12-19T07:35:41Z</time>
      </trkpt>
      <trkpt lat="49.88239" lon="2.32172">
        <ele>50.8</ele>
        <time>2023-12-19T07:35:42Z</time>
      </trkpt>
      <trkpt lat="49.88239" lon="2.32171">
        <ele>50.8</ele>
        <time>2023-12-19T07:35:44Z</time>
      </trkpt>
      <trkpt lat="49.88238" lon="2.32171">
        <ele>50.9</ele>
        <time>2023-12-19T07:35:45Z</time>
      </trkpt>
      <trkpt lat="49.88237" lon="2.3217">
        <ele>50.9</ele>
        <time>2023-12-19T07:35:46Z</time>
      </trkpt>
      <trkpt lat="49.88237" lon="2.32169">
        <ele>50.9</ele>
        <time>2023-12-19T07:35:47Z</time>
      </trkpt>
      <trkpt lat="49.88236" lon="2.32169">
        <ele>50.9</ele>
        <time>2023-12-19T07:35:48Z</time>
      </trkpt>
      <trkpt lat="49.88235" lon="2.32168">
        <ele>51</ele>
        <time>2023-12-19T07:35:49Z</time>
      </trkpt>
      <trkpt lat="49.88234" lon="2.32167">
        <ele>51</ele>
        <time>2023-12-19T07:35:50Z</time>
      </trkpt>
      <trkpt lat="49.88233" lon="2.32167">
        <ele>51</ele>
        <time>2023-12-19T07:35:52Z</time>
      </trkpt>
      <trkpt lat="49.88232" lon="2.32166">
        <ele>51</ele>
        <time>2023-12-19T07:35:53Z</time>
      </trkpt>
      <trkpt lat="49.88231" lon="2.32165">
        <ele>51.1</ele>
        <time>2023-12-19T07:35:54Z</time>
      </trkpt>
      <trkpt lat="49.88229" lon="2.32164">
        <ele>51.1</ele>
        <time>2023-12-19T07:35:56Z</time>
      </trkpt>
      <trkpt lat="49.88228" lon="2.32163">
        <ele>51.1</ele>
        <time>2023-12-19T07:35:57Z</time>
      </trkpt>
      <trkpt lat="49.88228" lon="2.32163">
        <ele>51.1</ele>
        <time>2023-12-19T07:35:58Z</time>
      </trkpt>
      <trkpt lat="49.88227" lon="2.32162">
        <ele>51.2</ele>
        <time>2023-12-19T07:35:59Z</time>
      </trkpt>
      <trkpt lat="49.88226" lon="2.32161">
        <ele>51.2</ele>
        <time>2023-12-19T07:36:00Z</time>
      </trkpt>
      <trkpt lat="49.88225" lon="2.3216">
        <ele>51.2</ele>
        <time>2023-12-19T07:36:01Z</time>
      </trkpt>
      <trkpt lat="49.88223" lon="2.3216">
        <ele>51.3</ele>
        <time>2023-12-19T07:36:02Z</time>
      </trkpt>
      <trkpt lat="49.88222" lon="2.3216">
        <ele>51.3</ele>
        <time>2023-12-19T07:36:03Z</time>
      </trkpt>
      <trkpt lat="49.8822" lon="2.32159">
        <ele>51.3</ele>
        <time>2023-12-19T07:36:05Z</time>
      </trkpt>
      <trkpt lat="49.88219" lon="2.32159">
        <ele>51.4</ele>
        <time>2023-12-19T07:36:06Z</time>
      </trkpt>
      <trkpt lat="49.88218" lon="2.32158">
        <ele>51.4</ele>
        <time>2023-12-19T07:36:07Z</time>
      </trkpt>
      <trkpt lat="49.88217" lon="2.32158">
        <ele>51.4</ele>
        <time>2023-12-19T07:36:08Z</time>
      </trkpt>
      <trkpt lat="49.88216" lon="2.32157">
        <ele>51.4</ele>
        <time>2023-12-19T07:36:09Z</time>
      </trkpt>
      <trkpt lat="49.88214" lon="2.32156">
        <ele>51.5</ele>
        <time>2023-12-19T07:36:10Z</time>
      </trkpt>
      <trkpt lat="49.88213" lon="2.32156">
        <ele>51.5</ele>
        <time>2023-12-19T07:36:11Z</time>
      </trkpt>
      <trkpt lat="49.88212" lon="2.32155">
        <ele>51.5</ele>
        <time>2023-12-19T07:36:12Z</time>
      </trkpt>
      <trkpt lat="49.88211" lon="2.32154">
        <ele>51.6</ele>
        <time>2023-12-19T07:36:14Z</time>
      </trkpt>
      <trkpt lat="49.8821" lon="2.32153">
        <ele>51.6</ele>
        <time>2023-12-19T07:36:15Z</time>
      </trkpt>
      <trkpt lat="49.88208" lon="2.32151">
        <ele>51.7</ele>
        <time>2023-12-19T07:36:16Z</time>
      </trkpt>
      <trkpt lat="49.88208" lon="2.3215">
        <ele>51.7</ele>
        <time>2023-12-19T07:36:17Z</time>
      </trkpt>
      <trkpt lat="49.88207" lon="2.32149">
        <ele>51.7</ele>
        <time>2023-12-19T07:36:18Z</time>
      </trkpt>
      <trkpt lat="49.88205" lon="2.32148">
        <ele>51.8</ele>
        <time>2023-12-19T07:36:19Z</time>
      </trkpt>
      <trkpt lat="49.88204" lon="2.32148">
        <ele>51.8</ele>
        <time>2023-12-19T07:36:21Z</time>
      </trkpt>
      <trkpt lat="49.88203" lon="2.32147">
        <ele>51.8</ele>
        <time>2023-12-19T07:36:22Z</time>
      </trkpt>
      <trkpt lat="49.88202" lon="2.32147">
        <ele>51.8</ele>
        <time>2023-12-19T07:36:23Z</time>
      </trkpt>
      <trkpt lat="49.88202" lon="2.32146">
        <ele>51.9</ele>
        <time>2023-12-19T07:36:24Z</time>
      </trkpt>
      <trkpt lat="49.88201" lon="2.32145">
        <ele>51.9</ele>
        <time>2023-12-19T07:36:25Z</time>
      </trkpt>
      <trkpt lat="49.882" lon="2.32144">
        <ele>51.9</ele>
        <time>2023-12-19T07:36:26Z</time>
      </trkpt>
      <trkpt lat="49.88199" lon="2.32143">
        <ele>52</ele>
        <time>2023-12-19T07:36:27Z</time>
      </trkpt>
      <trkpt lat="49.88198" lon="2.32142">
        <ele>52</ele>
        <time>2023-12-19T07:36:29Z</time>
      </trkpt>
      <trkpt lat="49.88197" lon="2.32142">
        <ele>52</ele>
        <time>2023-12-19T07:36:30Z</time>
      </trkpt>
      <trkpt lat="49.88196" lon="2.32141">
        <ele>52</ele>
        <time>2023-12-19T07:36:31Z</time>
      </trkpt>
      <trkpt lat="49.88195" lon="2.32141">
        <ele>52.1</ele>
        <time>2023-12-19T07:36:32Z</time>
      </trkpt>
      <trkpt lat="49.88194" lon="2.3214">
        <ele>52.1</ele>
        <time>2023-12-19T07:36:33Z</time>
      </trkpt>
      <trkpt lat="49.88193" lon="2.3214">
        <ele>52.1</ele>
        <time>2023-12-19T07:36:34Z</time>
      </trkpt>
      <trkpt lat="49.88192" lon="2.32139">
        <ele>52.2</ele>
        <time>2023-12-19T07:36:35Z</time>
      </trkpt>
      <trkpt lat="49.88191" lon="2.32139">
        <ele>52.2</ele>
        <time>2023-12-19T07:36:37Z</time>
      </trkpt>
      <trkpt lat="49.88191" lon="2.32138">
        <ele>52.2</ele>
        <time>2023-12-19T07:36:38Z</time>
      </trkpt>
      <trkpt lat="49.8819" lon="2.32137">
        <ele>52.2</ele>
        <time>2023-12-19T07:36:39Z</time>
      </trkpt>
      <trkpt lat="49.88189" lon="2.32136">
        <ele>52.3</ele>
        <time>2023-12-19T07:36:40Z</time>
      </trkpt>
      <trkpt lat="49.88188" lon="2.32135">
        <ele>52.3</ele>
        <time>2023-12-19T07:36:41Z</time>
      </trkpt>
      <trkpt lat="49.88188" lon="2.32134">
        <ele>52.3</ele>
        <time>2023-12-19T07:36:42Z</time>
      </trkpt>
      <trkpt lat="49.88187" lon="2.32134">
        <ele>52.4</ele>
        <time>2023-12-19T07:36:43Z</time>
      </trkpt>
      <trkpt lat="49.88186" lon="2.32133">
        <ele>52.4</ele>
        <time>2023-12-19T07:36:45Z</time>
      </trkpt>
      <trkpt lat="49.88185" lon="2.32132">
        <ele>52.4</ele>
        <time>2023-12-19T07:36:46Z</time>
      </trkpt>
      <trkpt lat="49.88184" lon="2.32131">
        <ele>52.5</ele>
        <time>2023-12-19T07:36:47Z</time>
      </trkpt>
      <trkpt lat="49.88183" lon="2.3213">
        <ele>52.5</ele>
        <time>2023-12-19T07:36:48Z</time>
      </trkpt>
      <trkpt lat="49.88182" lon="2.32127">
        <ele>52.6</ele>
        <time>2023-12-19T07:36:49Z</time>
      </trkpt>
      <trkpt lat="49.88181" lon="2.32126">
        <ele>52.6</ele>
        <time>2023-12-19T07:36:50Z</time>
      </trkpt>
      <trkpt lat="49.8818" lon="2.32125">
        <ele>52.6</ele>
        <time>2023-12-19T07:36:51Z</time>
      </trkpt>
      <trkpt lat="49.88179" lon="2.32124">
        <ele>52.7</ele>
        <time>2023-12-19T07:36:53Z</time>
      </trkpt>
      <trkpt lat="49.88179" lon="2.32122">
        <ele>52.7</ele>
        <time>2023-12-19T07:36:54Z</time>
      </trkpt>
      <trkpt lat="49.88177" lon="2.32121">
        <ele>52.8</ele>
        <time>2023-12-19T07:36:55Z</time>
      </trkpt>
      <trkpt lat="49.88176" lon="2.32119">
        <ele>52.8</ele>
        <time>2023-12-19T07:36:56Z</time>
      </trkpt>
      <trkpt lat="49.88175" lon="2.32118">
        <ele>52.9</ele>
        <time>2023-12-19T07:36:57Z</time>
      </trkpt>
      <trkpt lat="49.88174" lon="2.32117">
        <ele>52.9</ele>
        <time>2023-12-19T07:36:58Z</time>
      </trkpt>
      <trkpt lat="49.88172" lon="2.32115">
        <ele>53</ele>
        <time>2023-12-19T07:36:59Z</time>
      </trkpt>
      <trkpt lat="49.88172" lon="2.32114">
        <ele>53</ele>
        <time>2023-12-19T07:37:01Z</time>
      </trkpt>
      <trkpt lat="49.88171" lon="2.32113">
        <ele>53.1</ele>
        <time>2023-12-19T07:37:02Z</time>
      </trkpt>
      <trkpt lat="49.88169" lon="2.32112">
        <ele>53.2</ele>
        <time>2023-12-19T07:37:03Z</time>
      </trkpt>
      <trkpt lat="49.88168" lon="2.32111">
        <ele>53.2</ele>
        <time>2023-12-19T07:37:04Z</time>
      </trkpt>
      <trkpt lat="49.88168" lon="2.3211">
        <ele>53.2</ele>
        <time>2023-12-19T07:37:05Z</time>
      </trkpt>
      <trkpt lat="49.88166" lon="2.3211">
        <ele>53.3</ele>
        <time>2023-12-19T07:37:06Z</time>
      </trkpt>
      <trkpt lat="49.88165" lon="2.32109">
        <ele>53.3</ele>
        <time>2023-12-19T07:37:07Z</time>
      </trkpt>
      <trkpt lat="49.88164" lon="2.32108">
        <ele>53.3</ele>
        <time>2023-12-19T07:37:09Z</time>
      </trkpt>
      <trkpt lat="49.88162" lon="2.32107">
        <ele>53.4</ele>
        <time>2023-12-19T07:37:10Z</time>
      </trkpt>
      <trkpt lat="49.88161" lon="2.32107">
        <ele>53.5</ele>
        <time>2023-12-19T07:37:11Z</time>
      </trkpt>
      <trkpt lat="49.88161" lon="2.32107">
        <ele>53.5</ele>
        <time>2023-12-19T07:37:12Z</time>
      </trkpt>
      <trkpt lat="49.88159" lon="2.32106">
        <ele>53.5</ele>
        <time>2023-12-19T07:37:13Z</time>
      </trkpt>
      <trkpt lat="49.88158" lon="2.32106">
        <ele>53.6</ele>
        <time>2023-12-19T07:37:14Z</time>
      </trkpt>
      <trkpt lat="49.88157" lon="2.32105">
        <ele>53.6</ele>
        <time>2023-12-19T07:37:15Z</time>
      </trkpt>
      <trkpt lat="49.88155" lon="2.32104">
        <ele>53.7</ele>
        <time>2023-12-19T07:37:16Z</time>
      </trkpt>
      <trkpt lat="49.88154" lon="2.32104">
        <ele>53.7</ele>
        <time>2023-12-19T07:37:18Z</time>
      </trkpt>
      <trkpt lat="49.88154" lon="2.32103">
        <ele>53.8</ele>
        <time>2023-12-19T07:37:19Z</time>
      </trkpt>
      <trkpt lat="49.88152" lon="2.32103">
        <ele>53.8</ele>
        <time>2023-12-19T07:37:20Z</time>
      </trkpt>
      <trkpt lat="49.88151" lon="2.32103">
        <ele>53.9</ele>
        <time>2023-12-19T07:37:21Z</time>
      </trkpt>
      <trkpt lat="49.8815" lon="2.32102">
        <ele>53.9</ele>
        <time>2023-12-19T07:37:22Z</time>
      </trkpt>
      <trkpt lat="49.88149" lon="2.32102">
        <ele>53.9</ele>
        <time>2023-12-19T07:37:23Z</time>
      </trkpt>
      <trkpt lat="49.88147" lon="2.32102">
        <ele>54</ele>
        <time>2023-12-19T07:37:24Z</time>
      </trkpt>
      <trkpt lat="49.88146" lon="2.32102">
        <ele>54</ele>
        <time>2023-12-19T07:37:26Z</time>
      </trkpt>
      <trkpt lat="49.88145" lon="2.32101">
        <ele>54.1</ele>
        <time>2023-12-19T07:37:27Z</time>
      </trkpt>
      <trkpt lat="49.88144" lon="2.321">
        <ele>54.1</ele>
        <time>2023-12-19T07:37:28Z</time>
      </trkpt>
      <trkpt lat="49.88143" lon="2.32099">
        <ele>54.2</ele>
        <time>2023-12-19T07:37:29Z</time>
      </trkpt>
      <trkpt lat="49.88142" lon="2.32097">
        <ele>54.2</ele>
        <time>2023-12-19T07:37:30Z</time>
      </trkpt>
      <trkpt lat="49.88141" lon="2.32096">
        <ele>54.3</ele>
        <time>2023-12-19T07:37:31Z</time>
      </trkpt>
      <trkpt lat="49.8814" lon="2.32093">
        <ele>54.4</ele>
        <time>2023-12-19T07:37:32Z</time>
      </trkpt>
      <trkpt lat="49.8814" lon="2.32092">
        <ele>54.4</ele>
        <time>2023-12-19T07:37:34Z</time>
      </trkpt>
      <trkpt lat="49.88139" lon="2.32091">
        <ele>54.5</ele>
        <time>2023-12-19T07:37:35Z</time>
      </trkpt>
      <trkpt lat="49.88138" lon="2.3209">
        <ele>54.5</ele>
        <time>2023-12-19T07:37:36Z</time>
      </trkpt>
      <trkpt lat="49.88138" lon="2.32089">
        <ele>54.5</ele>
        <time>2023-12-19T07:37:37Z</time>
      </trkpt>
      <trkpt lat="49.88137" lon="2.32088">
        <ele>54.6</ele>
        <time>2023-12-19T07:37:38Z</time>
      </trkpt>
      <trkpt lat="49.88136" lon="2.32087">
        <ele>54.6</ele>
        <time>2023-12-19T07:37:39Z</time>
      </trkpt>
      <trkpt lat="49.88135" lon="2.32086">
        <ele>54.7</ele>
        <time>2023-12-19T07:37:40Z</time>
      </trkpt>
      <trkpt lat="49.88134" lon="2.32084">
        <ele>54.7</ele>
        <time>2023-12-19T07:37:42Z</time>
      </trkpt>
      <trkpt lat="49.88133" lon="2.32083">
        <ele>54.8</ele>
        <time>2023-12-19T07:37:43Z</time>
      </trkpt>
      <trkpt lat="49.88132" lon="2.32082">
        <ele>54.8</ele>
        <time>2023-12-19T07:37:44Z</time>
      </trkpt>
      <trkpt lat="49.88131" lon="2.32081">
        <ele>54.9</ele>
        <time>2023-12-19T07:37:45Z</time>
      </trkpt>
      <trkpt lat="49.8813" lon="2.32078">
        <ele>55</ele>
        <time>2023-12-19T07:37:46Z</time>
      </trkpt>
      <trkpt lat="49.8813" lon="2.32077">
        <ele>55</ele>
        <time>2023-12-19T07:37:47Z</time>
      </trkpt>
      <trkpt lat="49.88129" lon="2.32076">
        <ele>55</ele>
        <time>2023-12-19T07:37:48Z</time>
      </trkpt>
      <trkpt lat="49.88128" lon="2.32073">
        <ele>55.2</ele>
        <time>2023-12-19T07:37:50Z</time>
      </trkpt>
      <trkpt lat="49.88127" lon="2.32072">
        <ele>55.2</ele>
        <time>2023-12-19T07:37:51Z</time>
      </trkpt>
      <trkpt lat="49.88126" lon="2.32071">
        <ele>55.2</ele>
        <time>2023-12-19T07:37:52Z</time>
      </trkpt>
      <trkpt lat="49.88125" lon="2.3207">
        <ele>55.3</ele>
        <time>2023-12-19T07:37:54Z</time>
      </trkpt>
      <trkpt lat="49.88124" lon="2.32069">
        <ele>55.4</ele>
        <time>2023-12-19T07:37:55Z</time>
      </trkpt>
      <trkpt lat="49.88123" lon="2.32068">
        <ele>55.4</ele>
        <time>2023-12-19T07:37:56Z</time>
      </trkpt>
      <trkpt lat="49.88122" lon="2.32067">
        <ele>55.5</ele>
        <time>2023-12-19T07:37:57Z</time>
      </trkpt>
      <trkpt lat="49.88121" lon="2.32066">
        <ele>55.5</ele>
        <time>2023-12-19T07:37:58Z</time>
      </trkpt>
      <trkpt lat="49.8812" lon="2.32065">
        <ele>55.6</ele>
        <time>2023-12-19T07:38:00Z</time>
      </trkpt>
      <trkpt lat="49.88119" lon="2.32064">
        <ele>55.6</ele>
        <time>2023-12-19T07:38:01Z</time>
      </trkpt>
      <trkpt lat="49.88118" lon="2.32064">
        <ele>55.7</ele>
        <time>2023-12-19T07:38:02Z</time>
      </trkpt>
      <trkpt lat="49.88117" lon="2.32063">
        <ele>55.7</ele>
        <time>2023-12-19T07:38:03Z</time>
      </trkpt>
      <trkpt lat="49.88116" lon="2.32062">
        <ele>55.8</ele>
        <time>2023-12-19T07:38:04Z</time>
      </trkpt>
      <trkpt lat="49.88115" lon="2.32061">
        <ele>55.8</ele>
        <time>2023-12-19T07:38:06Z</time>
      </trkpt>
      <trkpt lat="49.88114" lon="2.3206">
        <ele>55.9</ele>
        <time>2023-12-19T07:38:07Z</time>
      </trkpt>
      <trkpt lat="49.88113" lon="2.3206">
        <ele>55.9</ele>
        <time>2023-12-19T07:38:08Z</time>
      </trkpt>
      <trkpt lat="49.88112" lon="2.32059">
        <ele>56</ele>
        <time>2023-12-19T07:38:09Z</time>
      </trkpt>
      <trkpt lat="49.8811" lon="2.32057">
        <ele>56.1</ele>
        <time>2023-12-19T07:38:10Z</time>
      </trkpt>
      <trkpt lat="49.88109" lon="2.32057">
        <ele>56.1</ele>
        <time>2023-12-19T07:38:12Z</time>
      </trkpt>
      <trkpt lat="49.88108" lon="2.32056">
        <ele>56.1</ele>
        <time>2023-12-19T07:38:13Z</time>
      </trkpt>
      <trkpt lat="49.88107" lon="2.32057">
        <ele>56.2</ele>
        <time>2023-12-19T07:38:14Z</time>
      </trkpt>
      <trkpt lat="49.88106" lon="2.32059">
        <ele>56.3</ele>
        <time>2023-12-19T07:38:15Z</time>
      </trkpt>
      <trkpt lat="49.88105" lon="2.32062">
        <ele>56.3</ele>
        <time>2023-12-19T07:38:16Z</time>
      </trkpt>
      <trkpt lat="49.88104" lon="2.32063">
        <ele>56.4</ele>
        <time>2023-12-19T07:38:18Z</time>
      </trkpt>
      <trkpt lat="49.88104" lon="2.32064">
        <ele>56.4</ele>
        <time>2023-12-19T07:38:19Z</time>
      </trkpt>
      <trkpt lat="49.88102" lon="2.32066">
        <ele>56.4</ele>
        <time>2023-12-19T07:38:20Z</time>
      </trkpt>
      <trkpt lat="49.88101" lon="2.32067">
        <ele>56.5</ele>
        <time>2023-12-19T07:38:21Z</time>
      </trkpt>
      <trkpt lat="49.88101" lon="2.32068">
        <ele>56.5</ele>
        <time>2023-12-19T07:38:22Z</time>
      </trkpt>
      <trkpt lat="49.881" lon="2.32071">
        <ele>56.6</ele>
        <time>2023-12-19T07:38:23Z</time>
      </trkpt>
      <trkpt lat="49.88099" lon="2.32072">
        <ele>56.6</ele>
        <time>2023-12-19T07:38:25Z</time>
      </trkpt>
      <trkpt lat="49.88098" lon="2.32072">
        <ele>56.6</ele>
        <time>2023-12-19T07:38:26Z</time>
      </trkpt>
      <trkpt lat="49.88098" lon="2.32073">
        <ele>56.6</ele>
        <time>2023-12-19T07:38:27Z</time>
      </trkpt>
      <trkpt lat="49.88097" lon="2.32072">
        <ele>56.7</ele>
        <time>2023-12-19T07:38:28Z</time>
      </trkpt>
      <trkpt lat="49.88096" lon="2.32072">
        <ele>56.7</ele>
        <time>2023-12-19T07:38:29Z</time>
      </trkpt>
      <trkpt lat="49.88095" lon="2.32071">
        <ele>56.7</ele>
        <time>2023-12-19T07:38:31Z</time>
      </trkpt>
      <trkpt lat="49.88094" lon="2.32069">
        <ele>56.8</ele>
        <time>2023-12-19T07:38:32Z</time>
      </trkpt>
      <trkpt lat="49.88094" lon="2.32067">
        <ele>56.8</ele>
        <time>2023-12-19T07:38:33Z</time>
      </trkpt>
      <trkpt lat="49.88094" lon="2.32064">
        <ele>56.8</ele>
        <time>2023-12-19T07:38:34Z</time>
      </trkpt>
      <trkpt lat="49.88094" lon="2.32062">
        <ele>56.9</ele>
        <time>2023-12-19T07:38:35Z</time>
      </trkpt>
      <trkpt lat="49.88095" lon="2.3206">
        <ele>56.9</ele>
        <time>2023-12-19T07:38:36Z</time>
      </trkpt>
      <trkpt lat="49.88095" lon="2.32057">
        <ele>57</ele>
        <time>2023-12-19T07:38:38Z</time>
      </trkpt>
      <trkpt lat="49.88095" lon="2.32055">
        <ele>57</ele>
        <time>2023-12-19T07:38:39Z</time>
      </trkpt>
      <trkpt lat="49.88095" lon="2.32053">
        <ele>57.1</ele>
        <time>2023-12-19T07:38:40Z</time>
      </trkpt>
      <trkpt lat="49.88094" lon="2.3205">
        <ele>57.1</ele>
        <time>2023-12-19T07:38:41Z</time>
      </trkpt>
      <trkpt lat="49.88093" lon="2.32049">
        <ele>57.2</ele>
        <time>2023-12-19T07:38:42Z</time>
      </trkpt>
      <trkpt lat="49.88093" lon="2.32048">
        <ele>57.2</ele>
        <time>2023-12-19T07:38:43Z</time>
      </trkpt>
      <trkpt lat="49.88091" lon="2.32047">
        <ele>57.3</ele>
        <time>2023-12-19T07:38:44Z</time>
      </trkpt>
      <trkpt lat="49.8809" lon="2.32046">
        <ele>57.3</ele>
        <time>2023-12-19T07:38:45Z</time>
      </trkpt>
      <trkpt lat="49.88089" lon="2.32045">
        <ele>57.3</ele>
        <time>2023-12-19T07:38:47Z</time>
      </trkpt>
      <trkpt lat="49.88088" lon="2.32044">
        <ele>57.4</ele>
        <time>2023-12-19T07:38:48Z</time>
      </trkpt>
      <trkpt lat="49.88088" lon="2.32043">
        <ele>57.4</ele>
        <time>2023-12-19T07:38:49Z</time>
      </trkpt>
      <trkpt lat="49.88087" lon="2.32042">
        <ele>57.4</ele>
        <time>2023-12-19T07:38:50Z</time>
      </trkpt>
      <trkpt lat="49.88086" lon="2.3204">
        <ele>57.5</ele>
        <time>2023-12-19T07:38:51Z</time>
      </trkpt>
      <trkpt lat="49.88085" lon="2.32039">
        <ele>57.5</ele>
        <time>2023-12-19T07:38:52Z</time>
      </trkpt>
      <trkpt lat="49.88084" lon="2.32037">
        <ele>57.6</ele>
        <time>2023-12-19T07:38:54Z</time>
      </trkpt>
      <trkpt lat="49.88083" lon="2.32036">
        <ele>57.6</ele>
        <time>2023-12-19T07:38:55Z</time>
      </trkpt>
      <trkpt lat="49.88082" lon="2.32035">
        <ele>57.7</ele>
        <time>2023-12-19T07:38:56Z</time>
      </trkpt>
      <trkpt lat="49.88081" lon="2.32034">
        <ele>57.7</ele>
        <time>2023-12-19T07:38:57Z</time>
      </trkpt>
      <trkpt lat="49.88081" lon="2.32033">
        <ele>57.8</ele>
        <time>2023-12-19T07:38:58Z</time>
      </trkpt>
      <trkpt lat="49.8808" lon="2.32031">
        <ele>57.8</ele>
        <time>2023-12-19T07:38:59Z</time>
      </trkpt>
      <trkpt lat="49.88079" lon="2.3203">
        <ele>57.9</ele>
        <time>2023-12-19T07:39:00Z</time>
      </trkpt>
      <trkpt lat="49.88079" lon="2.32029">
        <ele>57.9</ele>
        <time>2023-12-19T07:39:02Z</time>
      </trkpt>
      <trkpt lat="49.88078" lon="2.32027">
        <ele>57.9</ele>
        <time>2023-12-19T07:39:03Z</time>
      </trkpt>
      <trkpt lat="49.88077" lon="2.32026">
        <ele>58</ele>
        <time>2023-12-19T07:39:04Z</time>
      </trkpt>
      <trkpt lat="49.88076" lon="2.32024">
        <ele>58.1</ele>
        <time>2023-12-19T07:39:05Z</time>
      </trkpt>
      <trkpt lat="49.88076" lon="2.32023">
        <ele>58.1</ele>
        <time>2023-12-19T07:39:06Z</time>
      </trkpt>
      <trkpt lat="49.88075" lon="2.32022">
        <ele>58.1</ele>
        <time>2023-12-19T07:39:07Z</time>
      </trkpt>
      <trkpt lat="49.88075" lon="2.3202">
        <ele>58.2</ele>
        <time>2023-12-19T07:39:09Z</time>
      </trkpt>
      <trkpt lat="49.88074" lon="2.32019">
        <ele>58.2</ele>
        <time>2023-12-19T07:39:10Z</time>
      </trkpt>
      <trkpt lat="49.88073" lon="2.32018">
        <ele>58.3</ele>
        <time>2023-12-19T07:39:11Z</time>
      </trkpt>
      <trkpt lat="49.88071" lon="2.32016">
        <ele>58.4</ele>
        <time>2023-12-19T07:39:12Z</time>
      </trkpt>
      <trkpt lat="49.8807" lon="2.32016">
        <ele>58.4</ele>
        <time>2023-12-19T07:39:13Z</time>
      </trkpt>
      <trkpt lat="49.8807" lon="2.32015">
        <ele>58.4</ele>
        <time>2023-12-19T07:39:14Z</time>
      </trkpt>
      <trkpt lat="49.88069" lon="2.32014">
        <ele>58.5</ele>
        <time>2023-12-19T07:39:15Z</time>
      </trkpt>
      <trkpt lat="49.88068" lon="2.32013">
        <ele>58.5</ele>
        <time>2023-12-19T07:39:17Z</time>
      </trkpt>
      <trkpt lat="49.88067" lon="2.32012">
        <ele>58.6</ele>
        <time>2023-12-19T07:39:18Z</time>
      </trkpt>
      <trkpt lat="49.88066" lon="2.32011">
        <ele>58.6</ele>
        <time>2023-12-19T07:39:19Z</time>
      </trkpt>
      <trkpt lat="49.88065" lon="2.3201">
        <ele>58.7</ele>
        <time>2023-12-19T07:39:20Z</time>
      </trkpt>
      <trkpt lat="49.88064" lon="2.32009">
        <ele>58.7</ele>
        <time>2023-12-19T07:39:21Z</time>
      </trkpt>
      <trkpt lat="49.88063" lon="2.32008">
        <ele>58.8</ele>
        <time>2023-12-19T07:39:22Z</time>
      </trkpt>
      <trkpt lat="49.88062" lon="2.32007">
        <ele>58.8</ele>
        <time>2023-12-19T07:39:24Z</time>
      </trkpt>
      <trkpt lat="49.88061" lon="2.32006">
        <ele>58.9</ele>
        <time>2023-12-19T07:39:25Z</time>
      </trkpt>
      <trkpt lat="49.8806" lon="2.32006">
        <ele>58.9</ele>
        <time>2023-12-19T07:39:26Z</time>
      </trkpt>
      <trkpt lat="49.88059" lon="2.32005">
        <ele>59</ele>
        <time>2023-12-19T07:39:27Z</time>
      </trkpt>
      <trkpt lat="49.88058" lon="2.32005">
        <ele>59</ele>
        <time>2023-12-19T07:39:28Z</time>
      </trkpt>
      <trkpt lat="49.88057" lon="2.32005">
        <ele>59</ele>
        <time>2023-12-19T07:39:29Z</time>
      </trkpt>
      <trkpt lat="49.88056" lon="2.32005">
        <ele>59.1</ele>
        <time>2023-12-19T07:39:31Z</time>
      </trkpt>
      <trkpt lat="49.88055" lon="2.32005">
        <ele>59.1</ele>
        <time>2023-12-19T07:39:32Z</time>
      </trkpt>
      <trkpt lat="49.88054" lon="2.32006">
        <ele>59.1</ele>
        <time>2023-12-19T07:39:33Z</time>
      </trkpt>
      <trkpt lat="49.88053" lon="2.32006">
        <ele>59.2</ele>
        <time>2023-12-19T07:39:34Z</time>
      </trkpt>
      <trkpt lat="49.88052" lon="2.32007">
        <ele>59.2</ele>
        <time>2023-12-19T07:39:35Z</time>
      </trkpt>
      <trkpt lat="49.88052" lon="2.32007">
        <ele>59.2</ele>
        <time>2023-12-19T07:39:36Z</time>
      </trkpt>
      <trkpt lat="49.88051" lon="2.32008">
        <ele>59.3</ele>
        <time>2023-12-19T07:39:37Z</time>
      </trkpt>
      <trkpt lat="49.88049" lon="2.32009">
        <ele>59.3</ele>
        <time>2023-12-19T07:39:38Z</time>
      </trkpt>
      <trkpt lat="49.88048" lon="2.3201">
        <ele>59.4</ele>
        <time>2023-12-19T07:39:39Z</time>
      </trkpt>
      <trkpt lat="49.88047" lon="2.32011">
        <ele>59.4</ele>
        <time>2023-12-19T07:39:41Z</time>
      </trkpt>
      <trkpt lat="49.88046" lon="2.32012">
        <ele>59.4</ele>
        <time>2023-12-19T07:39:42Z</time>
      </trkpt>
      <trkpt lat="49.88045" lon="2.32012">
        <ele>59.4</ele>
        <time>2023-12-19T07:39:43Z</time>
      </trkpt>
      <trkpt lat="49.88045" lon="2.32013">
        <ele>59.5</ele>
        <time>2023-12-19T07:39:44Z</time>
      </trkpt>
      <trkpt lat="49.88043" lon="2.32013">
        <ele>59.5</ele>
        <time>2023-12-19T07:39:45Z</time>
      </trkpt>
      <trkpt lat="49.88042" lon="2.32012">
        <ele>59.5</ele>
        <time>2023-12-19T07:39:46Z</time>
      </trkpt>
      <trkpt lat="49.88041" lon="2.32011">
        <ele>59.5</ele>
        <time>2023-12-19T07:39:48Z</time>
      </trkpt>
      <trkpt lat="49.8804" lon="2.3201">
        <ele>59.6</ele>
        <time>2023-12-19T07:39:49Z</time>
      </trkpt>
      <trkpt lat="49.88038" lon="2.32008">
        <ele>59.6</ele>
        <time>2023-12-19T07:39:50Z</time>
      </trkpt>
      <trkpt lat="49.88037" lon="2.32007">
        <ele>59.6</ele>
        <time>2023-12-19T07:39:51Z</time>
      </trkpt>
      <trkpt lat="49.88037" lon="2.32007">
        <ele>59.6</ele>
        <time>2023-12-19T07:39:52Z</time>
      </trkpt>
      <trkpt lat="49.88035" lon="2.32006">
        <ele>59.7</ele>
        <time>2023-12-19T07:39:53Z</time>
      </trkpt>
      <trkpt lat="49.88034" lon="2.32005">
        <ele>59.7</ele>
        <time>2023-12-19T07:39:54Z</time>
      </trkpt>
      <trkpt lat="49.88033" lon="2.32004">
        <ele>59.7</ele>
        <time>2023-12-19T07:39:56Z</time>
      </trkpt>
      <trkpt lat="49.88031" lon="2.32002">
        <ele>59.7</ele>
        <time>2023-12-19T07:39:57Z</time>
      </trkpt>
      <trkpt lat="49.88031" lon="2.32001">
        <ele>59.8</ele>
        <time>2023-12-19T07:39:58Z</time>
      </trkpt>
      <trkpt lat="49.8803" lon="2.32001">
        <ele>59.8</ele>
        <time>2023-12-19T07:39:59Z</time>
      </trkpt>
      <trkpt lat="49.88029" lon="2.32">
        <ele>59.8</ele>
        <time>2023-12-19T07:40:00Z</time>
      </trkpt>
      <trkpt lat="49.88028" lon="2.31998">
        <ele>59.8</ele>
        <time>2023-12-19T07:40:01Z</time>
      </trkpt>
      <trkpt lat="49.88027" lon="2.31997">
        <ele>59.8</ele>
        <time>2023-12-19T07:40:02Z</time>
      </trkpt>
      <trkpt lat="49.88027" lon="2.31996">
        <ele>59.9</ele>
        <time>2023-12-19T07:40:04Z</time>
      </trkpt>
      <trkpt lat="49.88026" lon="2.31995">
        <ele>59.9</ele>
        <time>2023-12-19T07:40:05Z</time>
      </trkpt>
      <trkpt lat="49.88025" lon="2.31995">
        <ele>59.9</ele>
        <time>2023-12-19T07:40:06Z</time>
      </trkpt>
      <trkpt lat="49.88024" lon="2.31994">
        <ele>59.9</ele>
        <time>2023-12-19T07:40:07Z</time>
      </trkpt>
      <trkpt lat="49.88023" lon="2.31993">
        <ele>60</ele>
        <time>2023-12-19T07:40:08Z</time>
      </trkpt>
      <trkpt lat="49.88021" lon="2.31993">
        <ele>60</ele>
        <time>2023-12-19T07:40:10Z</time>
      </trkpt>
      <trkpt lat="49.8802" lon="2.31993">
        <ele>60</ele>
        <time>2023-12-19T07:40:11Z</time>
      </trkpt>
      <trkpt lat="49.88019" lon="2.31993">
        <ele>60.1</ele>
        <time>2023-12-19T07:40:12Z</time>
      </trkpt>
      <trkpt lat="49.88018" lon="2.31993">
        <ele>60.1</ele>
        <time>2023-12-19T07:40:13Z</time>
      </trkpt>
      <trkpt lat="49.88017" lon="2.31993">
        <ele>60.1</ele>
        <time>2023-12-19T07:40:14Z</time>
      </trkpt>
      <trkpt lat="49.88016" lon="2.31993">
        <ele>60.2</ele>
        <time>2023-12-19T07:40:15Z</time>
      </trkpt>
      <trkpt lat="49.88015" lon="2.31993">
        <ele>60.2</ele>
        <time>2023-12-19T07:40:16Z</time>
      </trkpt>
      <trkpt lat="49.88014" lon="2.31993">
        <ele>60.2</ele>
        <time>2023-12-19T07:40:17Z</time>
      </trkpt>
      <trkpt lat="49.88012" lon="2.31994">
        <ele>60.2</ele>
        <time>2023-12-19T07:40:18Z</time>
      </trkpt>
      <trkpt lat="49.88011" lon="2.31994">
        <ele>60.3</ele>
        <time>2023-12-19T07:40:20Z</time>
      </trkpt>
      <trkpt lat="49.88009" lon="2.31993">
        <ele>60.3</ele>
        <time>2023-12-19T07:40:21Z</time>
      </trkpt>
      <trkpt lat="49.88008" lon="2.31993">
        <ele>60.4</ele>
        <time>2023-12-19T07:40:22Z</time>
      </trkpt>
      <trkpt lat="49.88007" lon="2.31993">
        <ele>60.4</ele>
        <time>2023-12-19T07:40:23Z</time>
      </trkpt>
      <trkpt lat="49.88005" lon="2.31993">
        <ele>60.4</ele>
        <time>2023-12-19T07:40:24Z</time>
      </trkpt>
      <trkpt lat="49.88004" lon="2.31993">
        <ele>60.4</ele>
        <time>2023-12-19T07:40:25Z</time>
      </trkpt>
      <trkpt lat="49.88004" lon="2.31993">
        <ele>60.5</ele>
        <time>2023-12-19T07:40:26Z</time>
      </trkpt>
      <trkpt lat="49.88001" lon="2.31992">
        <ele>60.5</ele>
        <time>2023-12-19T07:40:27Z</time>
      </trkpt>
      <trkpt lat="49.88001" lon="2.31992">
        <ele>60.5</ele>
        <time>2023-12-19T07:40:29Z</time>
      </trkpt>
      <trkpt lat="49.88" lon="2.31992">
        <ele>60.6</ele>
        <time>2023-12-19T07:40:30Z</time>
      </trkpt>
      <trkpt lat="49.87998" lon="2.31992">
        <ele>60.6</ele>
        <time>2023-12-19T07:40:31Z</time>
      </trkpt>
      <trkpt lat="49.87997" lon="2.31992">
        <ele>60.6</ele>
        <time>2023-12-19T07:40:32Z</time>
      </trkpt>
      <trkpt lat="49.87996" lon="2.31991">
        <ele>60.7</ele>
        <time>2023-12-19T07:40:33Z</time>
      </trkpt>
      <trkpt lat="49.87994" lon="2.31991">
        <ele>60.7</ele>
        <time>2023-12-19T07:40:34Z</time>
      </trkpt>
      <trkpt lat="49.87993" lon="2.31991">
        <ele>60.7</ele>
        <time>2023-12-19T07:40:36Z</time>
      </trkpt>
      <trkpt lat="49.87992" lon="2.31991">
        <ele>60.8</ele>
        <time>2023-12-19T07:40:37Z</time>
      </trkpt>
      <trkpt lat="49.87991" lon="2.3199">
        <ele>60.8</ele>
        <time>2023-12-19T07:40:38Z</time>
      </trkpt>
      <trkpt lat="49.8799" lon="2.3199">
        <ele>60.8</ele>
        <time>2023-12-19T07:40:39Z</time>
      </trkpt>
      <trkpt lat="49.87989" lon="2.3199">
        <ele>60.8</ele>
        <time>2023-12-19T07:40:40Z</time>
      </trkpt>
      <trkpt lat="49.87988" lon="2.31989">
        <ele>60.9</ele>
        <time>2023-12-19T07:40:41Z</time>
      </trkpt>
      <trkpt lat="49.87986" lon="2.31989">
        <ele>60.9</ele>
        <time>2023-12-19T07:40:42Z</time>
      </trkpt>
      <trkpt lat="49.87985" lon="2.31989">
        <ele>60.9</ele>
        <time>2023-12-19T07:40:44Z</time>
      </trkpt>
      <trkpt lat="49.87984" lon="2.31988">
        <ele>60.9</ele>
        <time>2023-12-19T07:40:45Z</time>
      </trkpt>
      <trkpt lat="49.87983" lon="2.31988">
        <ele>61</ele>
        <time>2023-12-19T07:40:46Z</time>
      </trkpt>
      <trkpt lat="49.87982" lon="2.31988">
        <ele>61</ele>
        <time>2023-12-19T07:40:47Z</time>
      </trkpt>
      <trkpt lat="49.87981" lon="2.31987">
        <ele>61</ele>
        <time>2023-12-19T07:40:48Z</time>
      </trkpt>
      <trkpt lat="49.8798" lon="2.31987">
        <ele>61</ele>
        <time>2023-12-19T07:40:49Z</time>
      </trkpt>
      <trkpt lat="49.87979" lon="2.31986">
        <ele>61.1</ele>
        <time>2023-12-19T07:40:51Z</time>
      </trkpt>
      <trkpt lat="49.87977" lon="2.31986">
        <ele>61.1</ele>
        <time>2023-12-19T07:40:52Z</time>
      </trkpt>
      <trkpt lat="49.87976" lon="2.31986">
        <ele>61.1</ele>
        <time>2023-12-19T07:40:53Z</time>
      </trkpt>
      <trkpt lat="49.87976" lon="2.31985">
        <ele>61.1</ele>
        <time>2023-12-19T07:40:54Z</time>
      </trkpt>
      <trkpt lat="49.87975" lon="2.31985">
        <ele>61.1</ele>
        <time>2023-12-19T07:40:55Z</time>
      </trkpt>
      <trkpt lat="49.87974" lon="2.31985">
        <ele>61.2</ele>
        <time>2023-12-19T07:40:56Z</time>
      </trkpt>
      <trkpt lat="49.87972" lon="2.31984">
        <ele>61.2</ele>
        <time>2023-12-19T07:40:57Z</time>
      </trkpt>
      <trkpt lat="49.87972" lon="2.31983">
        <ele>61.2</ele>
        <time>2023-12-19T07:40:58Z</time>
      </trkpt>
      <trkpt lat="49.87971" lon="2.31983">
        <ele>61.3</ele>
        <time>2023-12-19T07:40:59Z</time>
      </trkpt>
      <trkpt lat="49.8797" lon="2.31982">
        <ele>61.3</ele>
        <time>2023-12-19T07:41:00Z</time>
      </trkpt>
      <trkpt lat="49.87969" lon="2.31982">
        <ele>61.3</ele>
        <time>2023-12-19T07:41:02Z</time>
      </trkpt>
      <trkpt lat="49.87968" lon="2.31982">
        <ele>61.3</ele>
        <time>2023-12-19T07:41:03Z</time>
      </trkpt>
      <trkpt lat="49.87967" lon="2.31982">
        <ele>61.3</ele>
        <time>2023-12-19T07:41:04Z</time>
      </trkpt>
      <trkpt lat="49.87966" lon="2.31983">
        <ele>61.4</ele>
        <time>2023-12-19T07:41:05Z</time>
      </trkpt>
      <trkpt lat="49.87965" lon="2.31984">
        <ele>61.4</ele>
        <time>2023-12-19T07:41:06Z</time>
      </trkpt>
      <trkpt lat="49.87964" lon="2.31984">
        <ele>61.4</ele>
        <time>2023-12-19T07:41:07Z</time>
      </trkpt>
      <trkpt lat="49.87964" lon="2.31985">
        <ele>61.4</ele>
        <time>2023-12-19T07:41:09Z</time>
      </trkpt>
      <trkpt lat="49.87963" lon="2.31985">
        <ele>61.5</ele>
        <time>2023-12-19T07:41:10Z</time>
      </trkpt>
      <trkpt lat="49.87962" lon="2.31986">
        <ele>61.5</ele>
        <time>2023-12-19T07:41:11Z</time>
      </trkpt>
      <trkpt lat="49.87961" lon="2.31987">
        <ele>61.5</ele>
        <time>2023-12-19T07:41:12Z</time>
      </trkpt>
      <trkpt lat="49.87959" lon="2.31987">
        <ele>61.5</ele>
        <time>2023-12-19T07:41:13Z</time>
      </trkpt>
      <trkpt lat="49.87958" lon="2.31988">
        <ele>61.6</ele>
        <time>2023-12-19T07:41:14Z</time>
      </trkpt>
      <trkpt lat="49.87957" lon="2.31988">
        <ele>61.6</ele>
        <time>2023-12-19T07:41:15Z</time>
      </trkpt>
      <trkpt lat="49.87956" lon="2.31989">
        <ele>61.6</ele>
        <time>2023-12-19T07:41:17Z</time>
      </trkpt>
      <trkpt lat="49.87955" lon="2.3199">
        <ele>61.6</ele>
        <time>2023-12-19T07:41:18Z</time>
      </trkpt>
      <trkpt lat="49.87954" lon="2.3199">
        <ele>61.6</ele>
        <time>2023-12-19T07:41:19Z</time>
      </trkpt>
      <trkpt lat="49.87953" lon="2.31989">
        <ele>61.6</ele>
        <time>2023-12-19T07:41:20Z</time>
      </trkpt>
      <trkpt lat="49.87952" lon="2.31988">
        <ele>61.6</ele>
        <time>2023-12-19T07:41:21Z</time>
      </trkpt>
      <trkpt lat="49.8795" lon="2.31986">
        <ele>61.6</ele>
        <time>2023-12-19T07:41:23Z</time>
      </trkpt>
      <trkpt lat="49.8795" lon="2.31985">
        <ele>61.6</ele>
        <time>2023-12-19T07:41:24Z</time>
      </trkpt>
      <trkpt lat="49.87949" lon="2.31984">
        <ele>61.6</ele>
        <time>2023-12-19T07:41:25Z</time>
      </trkpt>
      <trkpt lat="49.87948" lon="2.31983">
        <ele>61.6</ele>
        <time>2023-12-19T07:41:26Z</time>
      </trkpt>
      <trkpt lat="49.87947" lon="2.3198">
        <ele>61.6</ele>
        <time>2023-12-19T07:41:27Z</time>
      </trkpt>
      <trkpt lat="49.87947" lon="2.31979">
        <ele>61.6</ele>
        <time>2023-12-19T07:41:28Z</time>
      </trkpt>
      <trkpt lat="49.87946" lon="2.31977">
        <ele>61.6</ele>
        <time>2023-12-19T07:41:29Z</time>
      </trkpt>
      <trkpt lat="49.87945" lon="2.31974">
        <ele>61.7</ele>
        <time>2023-12-19T07:41:31Z</time>
      </trkpt>
      <trkpt lat="49.87944" lon="2.31973">
        <ele>61.7</ele>
        <time>2023-12-19T07:41:32Z</time>
      </trkpt>
      <trkpt lat="49.87944" lon="2.31972">
        <ele>61.7</ele>
        <time>2023-12-19T07:41:33Z</time>
      </trkpt>
      <trkpt lat="49.87943" lon="2.31969">
        <ele>61.7</ele>
        <time>2023-12-19T07:41:34Z</time>
      </trkpt>
      <trkpt lat="49.87943" lon="2.31968">
        <ele>61.8</ele>
        <time>2023-12-19T07:41:35Z</time>
      </trkpt>
      <trkpt lat="49.87943" lon="2.31966">
        <ele>61.8</ele>
        <time>2023-12-19T07:41:36Z</time>
      </trkpt>
      <trkpt lat="49.87943" lon="2.31965">
        <ele>61.8</ele>
        <time>2023-12-19T07:41:38Z</time>
      </trkpt>
      <trkpt lat="49.87942" lon="2.31963">
        <ele>61.8</ele>
        <time>2023-12-19T07:41:39Z</time>
      </trkpt>
      <trkpt lat="49.87942" lon="2.31961">
        <ele>61.8</ele>
        <time>2023-12-19T07:41:40Z</time>
      </trkpt>
      <trkpt lat="49.87942" lon="2.3196">
        <ele>61.9</ele>
        <time>2023-12-19T07:41:41Z</time>
      </trkpt>
      <trkpt lat="49.87942" lon="2.31958">
        <ele>61.9</ele>
        <time>2023-12-19T07:41:42Z</time>
      </trkpt>
      <trkpt lat="49.87941" lon="2.31957">
        <ele>61.9</ele>
        <time>2023-12-19T07:41:43Z</time>
      </trkpt>
      <trkpt lat="49.87941" lon="2.31955">
        <ele>61.9</ele>
        <time>2023-12-19T07:41:44Z</time>
      </trkpt>
      <trkpt lat="49.87941" lon="2.31953">
        <ele>62</ele>
        <time>2023-12-19T07:41:46Z</time>
      </trkpt>
      <trkpt lat="49.87942" lon="2.31952">
        <ele>62</ele>
        <time>2023-12-19T07:41:47Z</time>
      </trkpt>
      <trkpt lat="49.87942" lon="2.3195">
        <ele>62</ele>
        <time>2023-12-19T07:41:48Z</time>
      </trkpt>
      <trkpt lat="49.87942" lon="2.31949">
        <ele>62</ele>
        <time>2023-12-19T07:41:49Z</time>
      </trkpt>
      <trkpt lat="49.87942" lon="2.31947">
        <ele>62</ele>
        <time>2023-12-19T07:41:50Z</time>
      </trkpt>
      <trkpt lat="49.87942" lon="2.31944">
        <ele>62.1</ele>
        <time>2023-12-19T07:41:51Z</time>
      </trkpt>
      <trkpt lat="49.87942" lon="2.31942">
        <ele>62.1</ele>
        <time>2023-12-19T07:41:52Z</time>
      </trkpt>
      <trkpt lat="49.87943" lon="2.3194">
        <ele>62.1</ele>
        <time>2023-12-19T07:41:54Z</time>
      </trkpt>
      <trkpt lat="49.87943" lon="2.31939">
        <ele>62.1</ele>
        <time>2023-12-19T07:41:55Z</time>
      </trkpt>
      <trkpt lat="49.87943" lon="2.31937">
        <ele>62.1</ele>
        <time>2023-12-19T07:41:56Z</time>
      </trkpt>
      <trkpt lat="49.87943" lon="2.31936">
        <ele>62.2</ele>
        <time>2023-12-19T07:41:57Z</time>
      </trkpt>
      <trkpt lat="49.87943" lon="2.31932">
        <ele>62.2</ele>
        <time>2023-12-19T07:41:58Z</time>
      </trkpt>
      <trkpt lat="49.87942" lon="2.31931">
        <ele>62.2</ele>
        <time>2023-12-19T07:41:59Z</time>
      </trkpt>
      <trkpt lat="49.87942" lon="2.3193">
        <ele>62.2</ele>
        <time>2023-12-19T07:42:00Z</time>
      </trkpt>
      <trkpt lat="49.87942" lon="2.31928">
        <ele>62.2</ele>
        <time>2023-12-19T07:42:01Z</time>
      </trkpt>
      <trkpt lat="49.87941" lon="2.31926">
        <ele>62.3</ele>
        <time>2023-12-19T07:42:03Z</time>
      </trkpt>
      <trkpt lat="49.8794" lon="2.31924">
        <ele>62.3</ele>
        <time>2023-12-19T07:42:04Z</time>
      </trkpt>
      <trkpt lat="49.8794" lon="2.31921">
        <ele>62.3</ele>
        <time>2023-12-19T07:42:05Z</time>
      </trkpt>
      <trkpt lat="49.87939" lon="2.3192">
        <ele>62.3</ele>
        <time>2023-12-19T07:42:06Z</time>
      </trkpt>
      <trkpt lat="49.87938" lon="2.31918">
        <ele>62.3</ele>
        <time>2023-12-19T07:42:07Z</time>
      </trkpt>
      <trkpt lat="49.87938" lon="2.31916">
        <ele>62.3</ele>
        <time>2023-12-19T07:42:08Z</time>
      </trkpt>
      <trkpt lat="49.87937" lon="2.31914">
        <ele>62.4</ele>
        <time>2023-12-19T07:42:09Z</time>
      </trkpt>
      <trkpt lat="49.87936" lon="2.31913">
        <ele>62.4</ele>
        <time>2023-12-19T07:42:11Z</time>
      </trkpt>
      <trkpt lat="49.87934" lon="2.3191">
        <ele>62.4</ele>
        <time>2023-12-19T07:42:13Z</time>
      </trkpt>
      <trkpt lat="49.87934" lon="2.3191">
        <ele>62.4</ele>
        <time>2023-12-19T07:42:14Z</time>
      </trkpt>
      <trkpt lat="49.87933" lon="2.31908">
        <ele>62.4</ele>
        <time>2023-12-19T07:42:15Z</time>
      </trkpt>
      <trkpt lat="49.87932" lon="2.31907">
        <ele>62.4</ele>
        <time>2023-12-19T07:42:16Z</time>
      </trkpt>
      <trkpt lat="49.87931" lon="2.31906">
        <ele>62.4</ele>
        <time>2023-12-19T07:42:17Z</time>
      </trkpt>
      <trkpt lat="49.87931" lon="2.31905">
        <ele>62.4</ele>
        <time>2023-12-19T07:42:19Z</time>
      </trkpt>
      <trkpt lat="49.8793" lon="2.31904">
        <ele>62.4</ele>
        <time>2023-12-19T07:42:20Z</time>
      </trkpt>
      <trkpt lat="49.87929" lon="2.31903">
        <ele>62.4</ele>
        <time>2023-12-19T07:42:21Z</time>
      </trkpt>
      <trkpt lat="49.87928" lon="2.31902">
        <ele>62.4</ele>
        <time>2023-12-19T07:42:22Z</time>
      </trkpt>
      <trkpt lat="49.87927" lon="2.31901">
        <ele>62.5</ele>
        <time>2023-12-19T07:42:23Z</time>
      </trkpt>
      <trkpt lat="49.87926" lon="2.319">
        <ele>62.5</ele>
        <time>2023-12-19T07:42:24Z</time>
      </trkpt>
      <trkpt lat="49.87925" lon="2.31899">
        <ele>62.5</ele>
        <time>2023-12-19T07:42:25Z</time>
      </trkpt>
      <trkpt lat="49.87925" lon="2.31897">
        <ele>62.5</ele>
        <time>2023-12-19T07:42:27Z</time>
      </trkpt>
      <trkpt lat="49.87924" lon="2.31896">
        <ele>62.5</ele>
        <time>2023-12-19T07:42:28Z</time>
      </trkpt>
      <trkpt lat="49.87923" lon="2.31895">
        <ele>62.5</ele>
        <time>2023-12-19T07:42:29Z</time>
      </trkpt>
      <trkpt lat="49.87923" lon="2.31893">
        <ele>62.4</ele>
        <time>2023-12-19T07:42:30Z</time>
      </trkpt>
      <trkpt lat="49.87922" lon="2.31891">
        <ele>62.4</ele>
        <time>2023-12-19T07:42:31Z</time>
      </trkpt>
      <trkpt lat="49.87923" lon="2.3189">
        <ele>62.4</ele>
        <time>2023-12-19T07:42:32Z</time>
      </trkpt>
      <trkpt lat="49.87923" lon="2.31889">
        <ele>62.4</ele>
        <time>2023-12-19T07:42:34Z</time>
      </trkpt>
      <trkpt lat="49.87923" lon="2.31888">
        <ele>62.4</ele>
        <time>2023-12-19T07:42:35Z</time>
      </trkpt>
      <trkpt lat="49.87924" lon="2.31885">
        <ele>62.4</ele>
        <time>2023-12-19T07:42:36Z</time>
      </trkpt>
      <trkpt lat="49.87924" lon="2.31884">
        <ele>62.4</ele>
        <time>2023-12-19T07:42:37Z</time>
      </trkpt>
      <trkpt lat="49.87924" lon="2.31883">
        <ele>62.4</ele>
        <time>2023-12-19T07:42:38Z</time>
      </trkpt>
      <trkpt lat="49.87925" lon="2.31881">
        <ele>62.4</ele>
        <time>2023-12-19T07:42:39Z</time>
      </trkpt>
      <trkpt lat="49.87925" lon="2.31879">
        <ele>62.4</ele>
        <time>2023-12-19T07:42:40Z</time>
      </trkpt>
      <trkpt lat="49.87925" lon="2.31877">
        <ele>62.4</ele>
        <time>2023-12-19T07:42:42Z</time>
      </trkpt>
      <trkpt lat="49.87926" lon="2.31875">
        <ele>62.4</ele>
        <time>2023-12-19T07:42:43Z</time>
      </trkpt>
      <trkpt lat="49.87926" lon="2.31874">
        <ele>62.4</ele>
        <time>2023-12-19T07:42:44Z</time>
      </trkpt>
      <trkpt lat="49.87926" lon="2.31872">
        <ele>62.4</ele>
        <time>2023-12-19T07:42:45Z</time>
      </trkpt>
      <trkpt lat="49.87927" lon="2.31871">
        <ele>62.4</ele>
        <time>2023-12-19T07:42:46Z</time>
      </trkpt>
      <trkpt lat="49.87927" lon="2.31869">
        <ele>62.4</ele>
        <time>2023-12-19T07:42:47Z</time>
      </trkpt>
      <trkpt lat="49.87928" lon="2.31868">
        <ele>62.4</ele>
        <time>2023-12-19T07:42:48Z</time>
      </trkpt>
      <trkpt lat="49.87928" lon="2.31866">
        <ele>62.4</ele>
        <time>2023-12-19T07:42:50Z</time>
      </trkpt>
      <trkpt lat="49.87929" lon="2.31865">
        <ele>62.4</ele>
        <time>2023-12-19T07:42:51Z</time>
      </trkpt>
      <trkpt lat="49.8793" lon="2.31864">
        <ele>62.4</ele>
        <time>2023-12-19T07:42:52Z</time>
      </trkpt>
      <trkpt lat="49.87932" lon="2.31862">
        <ele>62.5</ele>
        <time>2023-12-19T07:42:53Z</time>
      </trkpt>
      <trkpt lat="49.87932" lon="2.31861">
        <ele>62.5</ele>
        <time>2023-12-19T07:42:54Z</time>
      </trkpt>
      <trkpt lat="49.87933" lon="2.3186">
        <ele>62.5</ele>
        <time>2023-12-19T07:42:55Z</time>
      </trkpt>
      <trkpt lat="49.87933" lon="2.31859">
        <ele>62.5</ele>
        <time>2023-12-19T07:42:57Z</time>
      </trkpt>
      <trkpt lat="49.87933" lon="2.31857">
        <ele>62.5</ele>
        <time>2023-12-19T07:42:58Z</time>
      </trkpt>
      <trkpt lat="49.87933" lon="2.31855">
        <ele>62.5</ele>
        <time>2023-12-19T07:42:59Z</time>
      </trkpt>
      <trkpt lat="49.87932" lon="2.31853">
        <ele>62.5</ele>
        <time>2023-12-19T07:43:00Z</time>
      </trkpt>
      <trkpt lat="49.87931" lon="2.31851">
        <ele>62.5</ele>
        <time>2023-12-19T07:43:01Z</time>
      </trkpt>
      <trkpt lat="49.8793" lon="2.3185">
        <ele>62.5</ele>
        <time>2023-12-19T07:43:02Z</time>
      </trkpt>
      <trkpt lat="49.87929" lon="2.31849">
        <ele>62.5</ele>
        <time>2023-12-19T07:43:03Z</time>
      </trkpt>
      <trkpt lat="49.87928" lon="2.31849">
        <ele>62.5</ele>
        <time>2023-12-19T07:43:05Z</time>
      </trkpt>
      <trkpt lat="49.87927" lon="2.31849">
        <ele>62.6</ele>
        <time>2023-12-19T07:43:06Z</time>
      </trkpt>
      <trkpt lat="49.87925" lon="2.31849">
        <ele>62.6</ele>
        <time>2023-12-19T07:43:07Z</time>
      </trkpt>
      <trkpt lat="49.87924" lon="2.31849">
        <ele>62.6</ele>
        <time>2023-12-19T07:43:08Z</time>
      </trkpt>
      <trkpt lat="49.87923" lon="2.31849">
        <ele>62.6</ele>
        <time>2023-12-19T07:43:09Z</time>
      </trkpt>
      <trkpt lat="49.87921" lon="2.3185">
        <ele>62.7</ele>
        <time>2023-12-19T07:43:10Z</time>
      </trkpt>
      <trkpt lat="49.8792" lon="2.3185">
        <ele>62.7</ele>
        <time>2023-12-19T07:43:12Z</time>
      </trkpt>
      <trkpt lat="49.87918" lon="2.3185">
        <ele>62.7</ele>
        <time>2023-12-19T07:43:13Z</time>
      </trkpt>
      <trkpt lat="49.87917" lon="2.3185">
        <ele>62.8</ele>
        <time>2023-12-19T07:43:14Z</time>
      </trkpt>
      <trkpt lat="49.87915" lon="2.31851">
        <ele>62.8</ele>
        <time>2023-12-19T07:43:15Z</time>
      </trkpt>
      <trkpt lat="49.87914" lon="2.31852">
        <ele>62.8</ele>
        <time>2023-12-19T07:43:16Z</time>
      </trkpt>
      <trkpt lat="49.87913" lon="2.31852">
        <ele>62.8</ele>
        <time>2023-12-19T07:43:17Z</time>
      </trkpt>
      <trkpt lat="49.87913" lon="2.31853">
        <ele>62.9</ele>
        <time>2023-12-19T07:43:18Z</time>
      </trkpt>
      <trkpt lat="49.87912" lon="2.31854">
        <ele>62.9</ele>
        <time>2023-12-19T07:43:19Z</time>
      </trkpt>
      <trkpt lat="49.87911" lon="2.31855">
        <ele>62.9</ele>
        <time>2023-12-19T07:43:20Z</time>
      </trkpt>
      <trkpt lat="49.8791" lon="2.31856">
        <ele>63</ele>
        <time>2023-12-19T07:43:22Z</time>
      </trkpt>
      <trkpt lat="49.87909" lon="2.31857">
        <ele>63</ele>
        <time>2023-12-19T07:43:23Z</time>
      </trkpt>
      <trkpt lat="49.87908" lon="2.31857">
        <ele>63</ele>
        <time>2023-12-19T07:43:24Z</time>
      </trkpt>
      <trkpt lat="49.87907" lon="2.31858">
        <ele>63</ele>
        <time>2023-12-19T07:43:25Z</time>
      </trkpt>
      <trkpt lat="49.87906" lon="2.31858">
        <ele>63.1</ele>
        <time>2023-12-19T07:43:26Z</time>
      </trkpt>
      <trkpt lat="49.87905" lon="2.31858">
        <ele>63.1</ele>
        <time>2023-12-19T07:43:27Z</time>
      </trkpt>
      <trkpt lat="49.87904" lon="2.31858">
        <ele>63.1</ele>
        <time>2023-12-19T07:43:29Z</time>
      </trkpt>
      <trkpt lat="49.87903" lon="2.31858">
        <ele>63.1</ele>
        <time>2023-12-19T07:43:30Z</time>
      </trkpt>
      <trkpt lat="49.87901" lon="2.31858">
        <ele>63.2</ele>
        <time>2023-12-19T07:43:31Z</time>
      </trkpt>
      <trkpt lat="49.879" lon="2.31857">
        <ele>63.2</ele>
        <time>2023-12-19T07:43:32Z</time>
      </trkpt>
      <trkpt lat="49.87899" lon="2.31856">
        <ele>63.3</ele>
        <time>2023-12-19T07:43:33Z</time>
      </trkpt>
      <trkpt lat="49.87897" lon="2.31855">
        <ele>63.4</ele>
        <time>2023-12-19T07:43:34Z</time>
      </trkpt>
      <trkpt lat="49.87896" lon="2.31854">
        <ele>63.4</ele>
        <time>2023-12-19T07:43:36Z</time>
      </trkpt>
      <trkpt lat="49.87895" lon="2.31853">
        <ele>63.5</ele>
        <time>2023-12-19T07:43:37Z</time>
      </trkpt>
      <trkpt lat="49.87894" lon="2.31852">
        <ele>63.6</ele>
        <time>2023-12-19T07:43:38Z</time>
      </trkpt>
      <trkpt lat="49.87892" lon="2.31851">
        <ele>63.7</ele>
        <time>2023-12-19T07:43:39Z</time>
      </trkpt>
      <trkpt lat="49.87891" lon="2.3185">
        <ele>63.7</ele>
        <time>2023-12-19T07:43:40Z</time>
      </trkpt>
      <trkpt lat="49.8789" lon="2.31849">
        <ele>63.8</ele>
        <time>2023-12-19T07:43:41Z</time>
      </trkpt>
      <trkpt lat="49.87888" lon="2.31848">
        <ele>63.9</ele>
        <time>2023-12-19T07:43:43Z</time>
      </trkpt>
      <trkpt lat="49.87888" lon="2.31847">
        <ele>63.9</ele>
        <time>2023-12-19T07:43:44Z</time>
      </trkpt>
      <trkpt lat="49.87887" lon="2.31846">
        <ele>63.9</ele>
        <time>2023-12-19T07:43:45Z</time>
      </trkpt>
      <trkpt lat="49.87886" lon="2.31845">
        <ele>64</ele>
        <time>2023-12-19T07:43:46Z</time>
      </trkpt>
      <trkpt lat="49.87885" lon="2.31845">
        <ele>64</ele>
        <time>2023-12-19T07:43:47Z</time>
      </trkpt>
      <trkpt lat="49.87884" lon="2.31844">
        <ele>64.1</ele>
        <time>2023-12-19T07:43:48Z</time>
      </trkpt>
      <trkpt lat="49.87883" lon="2.31842">
        <ele>64.1</ele>
        <time>2023-12-19T07:43:49Z</time>
      </trkpt>
      <trkpt lat="49.87883" lon="2.31841">
        <ele>64.2</ele>
        <time>2023-12-19T07:43:51Z</time>
      </trkpt>
      <trkpt lat="49.87882" lon="2.3184">
        <ele>64.2</ele>
        <time>2023-12-19T07:43:52Z</time>
      </trkpt>
      <trkpt lat="49.87881" lon="2.31839">
        <ele>64.3</ele>
        <time>2023-12-19T07:43:53Z</time>
      </trkpt>
      <trkpt lat="49.8788" lon="2.31838">
        <ele>64.3</ele>
        <time>2023-12-19T07:43:54Z</time>
      </trkpt>
      <trkpt lat="49.8788" lon="2.31837">
        <ele>64.4</ele>
        <time>2023-12-19T07:43:55Z</time>
      </trkpt>
      <trkpt lat="49.87879" lon="2.31836">
        <ele>64.4</ele>
        <time>2023-12-19T07:43:56Z</time>
      </trkpt>
      <trkpt lat="49.87878" lon="2.31835">
        <ele>64.5</ele>
        <time>2023-12-19T07:43:58Z</time>
      </trkpt>
      <trkpt lat="49.87878" lon="2.31834">
        <ele>64.5</ele>
        <time>2023-12-19T07:43:59Z</time>
      </trkpt>
      <trkpt lat="49.87877" lon="2.31833">
        <ele>64.5</ele>
        <time>2023-12-19T07:44:00Z</time>
      </trkpt>
      <trkpt lat="49.87876" lon="2.31833">
        <ele>64.6</ele>
        <time>2023-12-19T07:44:01Z</time>
      </trkpt>
      <trkpt lat="49.87876" lon="2.31832">
        <ele>64.6</ele>
        <time>2023-12-19T07:44:02Z</time>
      </trkpt>
      <trkpt lat="49.87875" lon="2.31831">
        <ele>64.7</ele>
        <time>2023-12-19T07:44:03Z</time>
      </trkpt>
      <trkpt lat="49.87875" lon="2.3183">
        <ele>64.7</ele>
        <time>2023-12-19T07:44:04Z</time>
      </trkpt>
      <trkpt lat="49.87874" lon="2.31829">
        <ele>64.7</ele>
        <time>2023-12-19T07:44:05Z</time>
      </trkpt>
      <trkpt lat="49.87873" lon="2.31828">
        <ele>64.8</ele>
        <time>2023-12-19T07:44:07Z</time>
      </trkpt>
      <trkpt lat="49.87872" lon="2.31828">
        <ele>64.8</ele>
        <time>2023-12-19T07:44:08Z</time>
      </trkpt>
      <trkpt lat="49.87872" lon="2.31827">
        <ele>64.9</ele>
        <time>2023-12-19T07:44:09Z</time>
      </trkpt>
      <trkpt lat="49.87871" lon="2.31826">
        <ele>64.9</ele>
        <time>2023-12-19T07:44:10Z</time>
      </trkpt>
      <trkpt lat="49.8787" lon="2.31825">
        <ele>65</ele>
        <time>2023-12-19T07:44:11Z</time>
      </trkpt>
      <trkpt lat="49.8787" lon="2.31824">
        <ele>65</ele>
        <time>2023-12-19T07:44:13Z</time>
      </trkpt>
      <trkpt lat="49.87869" lon="2.31822">
        <ele>65</ele>
        <time>2023-12-19T07:44:14Z</time>
      </trkpt>
      <trkpt lat="49.87869" lon="2.31821">
        <ele>65</ele>
        <time>2023-12-19T07:44:15Z</time>
      </trkpt>
      <trkpt lat="49.87869" lon="2.31819">
        <ele>65</ele>
        <time>2023-12-19T07:44:16Z</time>
      </trkpt>
      <trkpt lat="49.87868" lon="2.31817">
        <ele>65</ele>
        <time>2023-12-19T07:44:17Z</time>
      </trkpt>
      <trkpt lat="49.87867" lon="2.31816">
        <ele>65</ele>
        <time>2023-12-19T07:44:18Z</time>
      </trkpt>
      <trkpt lat="49.87867" lon="2.31814">
        <ele>65</ele>
        <time>2023-12-19T07:44:20Z</time>
      </trkpt>
      <trkpt lat="49.87866" lon="2.31812">
        <ele>65.1</ele>
        <time>2023-12-19T07:44:21Z</time>
      </trkpt>
      <trkpt lat="49.87866" lon="2.3181">
        <ele>65.1</ele>
        <time>2023-12-19T07:44:22Z</time>
      </trkpt>
      <trkpt lat="49.87865" lon="2.31808">
        <ele>65.1</ele>
        <time>2023-12-19T07:44:23Z</time>
      </trkpt>
      <trkpt lat="49.87864" lon="2.31806">
        <ele>65.1</ele>
        <time>2023-12-19T07:44:24Z</time>
      </trkpt>
      <trkpt lat="49.87863" lon="2.31804">
        <ele>65.1</ele>
        <time>2023-12-19T07:44:25Z</time>
      </trkpt>
      <trkpt lat="49.87862" lon="2.31802">
        <ele>65.1</ele>
        <time>2023-12-19T07:44:26Z</time>
      </trkpt>
      <trkpt lat="49.87861" lon="2.318">
        <ele>65.1</ele>
        <time>2023-12-19T07:44:27Z</time>
      </trkpt>
      <trkpt lat="49.8786" lon="2.31798">
        <ele>65.1</ele>
        <time>2023-12-19T07:44:29Z</time>
      </trkpt>
      <trkpt lat="49.87858" lon="2.31796">
        <ele>65.1</ele>
        <time>2023-12-19T07:44:30Z</time>
      </trkpt>
      <trkpt lat="49.87857" lon="2.31795">
        <ele>65.2</ele>
        <time>2023-12-19T07:44:31Z</time>
      </trkpt>
      <trkpt lat="49.87856" lon="2.31794">
        <ele>65.2</ele>
        <time>2023-12-19T07:44:32Z</time>
      </trkpt>
      <trkpt lat="49.87855" lon="2.31793">
        <ele>65.2</ele>
        <time>2023-12-19T07:44:34Z</time>
      </trkpt>
      <trkpt lat="49.87854" lon="2.31792">
        <ele>65.2</ele>
        <time>2023-12-19T07:44:35Z</time>
      </trkpt>
      <trkpt lat="49.87854" lon="2.31792">
        <ele>65.2</ele>
        <time>2023-12-19T07:44:36Z</time>
      </trkpt>
      <trkpt lat="49.87853" lon="2.31792">
        <ele>65.2</ele>
        <time>2023-12-19T07:44:37Z</time>
      </trkpt>
      <trkpt lat="49.87853" lon="2.31791">
        <ele>65.2</ele>
        <time>2023-12-19T07:44:38Z</time>
      </trkpt>
      <trkpt lat="49.87852" lon="2.3179">
        <ele>65.2</ele>
        <time>2023-12-19T07:44:39Z</time>
      </trkpt>
      <trkpt lat="49.87851" lon="2.3179">
        <ele>65.2</ele>
        <time>2023-12-19T07:44:41Z</time>
      </trkpt>
      <trkpt lat="49.87851" lon="2.31789">
        <ele>65.2</ele>
        <time>2023-12-19T07:44:42Z</time>
      </trkpt>
      <trkpt lat="49.8785" lon="2.31788">
        <ele>65.2</ele>
        <time>2023-12-19T07:44:43Z</time>
      </trkpt>
      <trkpt lat="49.8785" lon="2.31787">
        <ele>65.2</ele>
        <time>2023-12-19T07:44:44Z</time>
      </trkpt>
      <trkpt lat="49.87849" lon="2.31786">
        <ele>65.2</ele>
        <time>2023-12-19T07:44:45Z</time>
      </trkpt>
      <trkpt lat="49.87848" lon="2.31785">
        <ele>65.2</ele>
        <time>2023-12-19T07:44:46Z</time>
      </trkpt>
      <trkpt lat="49.87848" lon="2.31784">
        <ele>65.2</ele>
        <time>2023-12-19T07:44:48Z</time>
      </trkpt>
      <trkpt lat="49.87847" lon="2.31783">
        <ele>65.2</ele>
        <time>2023-12-19T07:44:49Z</time>
      </trkpt>
      <trkpt lat="49.87846" lon="2.31782">
        <ele>65.3</ele>
        <time>2023-12-19T07:44:50Z</time>
      </trkpt>
      <trkpt lat="49.87845" lon="2.31781">
        <ele>65.3</ele>
        <time>2023-12-19T07:44:51Z</time>
      </trkpt>
      <trkpt lat="49.87844" lon="2.3178">
        <ele>65.3</ele>
        <time>2023-12-19T07:44:52Z</time>
      </trkpt>
      <trkpt lat="49.87843" lon="2.3178">
        <ele>65.3</ele>
        <time>2023-12-19T07:44:53Z</time>
      </trkpt>
      <trkpt lat="49.87842" lon="2.31779">
        <ele>65.3</ele>
        <time>2023-12-19T07:44:55Z</time>
      </trkpt>
      <trkpt lat="49.87841" lon="2.31778">
        <ele>65.3</ele>
        <time>2023-12-19T07:44:56Z</time>
      </trkpt>
      <trkpt lat="49.8784" lon="2.31777">
        <ele>65.3</ele>
        <time>2023-12-19T07:44:57Z</time>
      </trkpt>
      <trkpt lat="49.8784" lon="2.31775">
        <ele>65.3</ele>
        <time>2023-12-19T07:44:58Z</time>
      </trkpt>
      <trkpt lat="49.87839" lon="2.31774">
        <ele>65.3</ele>
        <time>2023-12-19T07:44:59Z</time>
      </trkpt>
      <trkpt lat="49.87838" lon="2.31773">
        <ele>65.3</ele>
        <time>2023-12-19T07:45:00Z</time>
      </trkpt>
      <trkpt lat="49.87837" lon="2.31772">
        <ele>65.3</ele>
        <time>2023-12-19T07:45:01Z</time>
      </trkpt>
      <trkpt lat="49.87836" lon="2.3177">
        <ele>65.3</ele>
        <time>2023-12-19T07:45:03Z</time>
      </trkpt>
      <trkpt lat="49.87836" lon="2.31769">
        <ele>65.3</ele>
        <time>2023-12-19T07:45:04Z</time>
      </trkpt>
      <trkpt lat="49.87835" lon="2.31768">
        <ele>65.3</ele>
        <time>2023-12-19T07:45:05Z</time>
      </trkpt>
      <trkpt lat="49.87834" lon="2.31767">
        <ele>65.3</ele>
        <time>2023-12-19T07:45:06Z</time>
      </trkpt>
      <trkpt lat="49.87833" lon="2.31767">
        <ele>65.3</ele>
        <time>2023-12-19T07:45:07Z</time>
      </trkpt>
      <trkpt lat="49.87832" lon="2.31767">
        <ele>65.3</ele>
        <time>2023-12-19T07:45:08Z</time>
      </trkpt>
      <trkpt lat="49.87831" lon="2.31766">
        <ele>65.3</ele>
        <time>2023-12-19T07:45:10Z</time>
      </trkpt>
      <trkpt lat="49.8783" lon="2.31766">
        <ele>65.3</ele>
        <time>2023-12-19T07:45:11Z</time>
      </trkpt>
      <trkpt lat="49.87829" lon="2.31765">
        <ele>65.3</ele>
        <time>2023-12-19T07:45:12Z</time>
      </trkpt>
      <trkpt lat="49.87828" lon="2.31765">
        <ele>65.3</ele>
        <time>2023-12-19T07:45:13Z</time>
      </trkpt>
      <trkpt lat="49.87827" lon="2.31764">
        <ele>65.3</ele>
        <time>2023-12-19T07:45:14Z</time>
      </trkpt>
      <trkpt lat="49.87826" lon="2.31763">
        <ele>65.3</ele>
        <time>2023-12-19T07:45:16Z</time>
      </trkpt>
      <trkpt lat="49.87826" lon="2.31762">
        <ele>65.3</ele>
        <time>2023-12-19T07:45:17Z</time>
      </trkpt>
      <trkpt lat="49.87825" lon="2.31761">
        <ele>65.2</ele>
        <time>2023-12-19T07:45:18Z</time>
      </trkpt>
      <trkpt lat="49.87824" lon="2.3176">
        <ele>65.2</ele>
        <time>2023-12-19T07:45:19Z</time>
      </trkpt>
      <trkpt lat="49.87823" lon="2.31759">
        <ele>65.2</ele>
        <time>2023-12-19T07:45:20Z</time>
      </trkpt>
      <trkpt lat="49.87822" lon="2.31759">
        <ele>65.2</ele>
        <time>2023-12-19T07:45:21Z</time>
      </trkpt>
      <trkpt lat="49.87822" lon="2.31757">
        <ele>65.2</ele>
        <time>2023-12-19T07:45:22Z</time>
      </trkpt>
      <trkpt lat="49.87821" lon="2.31756">
        <ele>65.2</ele>
        <time>2023-12-19T07:45:24Z</time>
      </trkpt>
      <trkpt lat="49.87821" lon="2.31755">
        <ele>65.2</ele>
        <time>2023-12-19T07:45:25Z</time>
      </trkpt>
      <trkpt lat="49.87821" lon="2.31754">
        <ele>65.2</ele>
        <time>2023-12-19T07:45:26Z</time>
      </trkpt>
      <trkpt lat="49.87821" lon="2.31753">
        <ele>65.2</ele>
        <time>2023-12-19T07:45:27Z</time>
      </trkpt>
      <trkpt lat="49.87821" lon="2.31752">
        <ele>65.2</ele>
        <time>2023-12-19T07:45:28Z</time>
      </trkpt>
      <trkpt lat="49.8782" lon="2.31751">
        <ele>65.2</ele>
        <time>2023-12-19T07:45:29Z</time>
      </trkpt>
      <trkpt lat="49.8782" lon="2.31751">
        <ele>65.2</ele>
        <time>2023-12-19T07:45:31Z</time>
      </trkpt>
      <trkpt lat="49.87819" lon="2.3175">
        <ele>65.2</ele>
        <time>2023-12-19T07:45:32Z</time>
      </trkpt>
      <trkpt lat="49.87818" lon="2.31749">
        <ele>65.2</ele>
        <time>2023-12-19T07:45:33Z</time>
      </trkpt>
      <trkpt lat="49.87817" lon="2.31749">
        <ele>65.3</ele>
        <time>2023-12-19T07:45:34Z</time>
      </trkpt>
      <trkpt lat="49.87816" lon="2.31748">
        <ele>65.3</ele>
        <time>2023-12-19T07:45:35Z</time>
      </trkpt>
      <trkpt lat="49.87815" lon="2.31747">
        <ele>65.3</ele>
        <time>2023-12-19T07:45:36Z</time>
      </trkpt>
      <trkpt lat="49.87814" lon="2.31746">
        <ele>65.3</ele>
        <time>2023-12-19T07:45:38Z</time>
      </trkpt>
      <trkpt lat="49.87813" lon="2.31745">
        <ele>65.3</ele>
        <time>2023-12-19T07:45:39Z</time>
      </trkpt>
      <trkpt lat="49.87812" lon="2.31744">
        <ele>65.3</ele>
        <time>2023-12-19T07:45:40Z</time>
      </trkpt>
      <trkpt lat="49.87811" lon="2.31742">
        <ele>65.3</ele>
        <time>2023-12-19T07:45:41Z</time>
      </trkpt>
      <trkpt lat="49.8781" lon="2.31741">
        <ele>65.3</ele>
        <time>2023-12-19T07:45:42Z</time>
      </trkpt>
      <trkpt lat="49.8781" lon="2.3174">
        <ele>65.3</ele>
        <time>2023-12-19T07:45:43Z</time>
      </trkpt>
      <trkpt lat="49.87809" lon="2.31739">
        <ele>65.4</ele>
        <time>2023-12-19T07:45:44Z</time>
      </trkpt>
      <trkpt lat="49.87807" lon="2.31738">
        <ele>65.4</ele>
        <time>2023-12-19T07:45:45Z</time>
      </trkpt>
      <trkpt lat="49.87806" lon="2.31736">
        <ele>65.4</ele>
        <time>2023-12-19T07:45:46Z</time>
      </trkpt>
      <trkpt lat="49.87805" lon="2.31734">
        <ele>65.4</ele>
        <time>2023-12-19T07:45:48Z</time>
      </trkpt>
      <trkpt lat="49.87804" lon="2.31732">
        <ele>65.4</ele>
        <time>2023-12-19T07:45:49Z</time>
      </trkpt>
      <trkpt lat="49.87803" lon="2.3173">
        <ele>65.5</ele>
        <time>2023-12-19T07:45:50Z</time>
      </trkpt>
      <trkpt lat="49.87802" lon="2.31728">
        <ele>65.5</ele>
        <time>2023-12-19T07:45:51Z</time>
      </trkpt>
      <trkpt lat="49.878" lon="2.31726">
        <ele>65.5</ele>
        <time>2023-12-19T07:45:52Z</time>
      </trkpt>
      <trkpt lat="49.878" lon="2.31724">
        <ele>65.5</ele>
        <time>2023-12-19T07:45:53Z</time>
      </trkpt>
      <trkpt lat="49.87799" lon="2.31722">
        <ele>65.5</ele>
        <time>2023-12-19T07:45:55Z</time>
      </trkpt>
      <trkpt lat="49.87798" lon="2.3172">
        <ele>65.5</ele>
        <time>2023-12-19T07:45:56Z</time>
      </trkpt>
      <trkpt lat="49.87797" lon="2.31718">
        <ele>65.5</ele>
        <time>2023-12-19T07:45:57Z</time>
      </trkpt>
      <trkpt lat="49.87795" lon="2.31715">
        <ele>65.5</ele>
        <time>2023-12-19T07:45:58Z</time>
      </trkpt>
      <trkpt lat="49.87795" lon="2.31715">
        <ele>65.5</ele>
        <time>2023-12-19T07:45:59Z</time>
      </trkpt>
      <trkpt lat="49.87794" lon="2.31714">
        <ele>65.5</ele>
        <time>2023-12-19T07:46:00Z</time>
      </trkpt>
      <trkpt lat="49.87793" lon="2.31712">
        <ele>65.5</ele>
        <time>2023-12-19T07:46:01Z</time>
      </trkpt>
      <trkpt lat="49.87792" lon="2.31711">
        <ele>65.5</ele>
        <time>2023-12-19T07:46:03Z</time>
      </trkpt>
      <trkpt lat="49.87791" lon="2.3171">
        <ele>65.5</ele>
        <time>2023-12-19T07:46:04Z</time>
      </trkpt>
      <trkpt lat="49.87791" lon="2.31709">
        <ele>65.5</ele>
        <time>2023-12-19T07:46:05Z</time>
      </trkpt>
      <trkpt lat="49.8779" lon="2.31708">
        <ele>65.5</ele>
        <time>2023-12-19T07:46:06Z</time>
      </trkpt>
      <trkpt lat="49.87789" lon="2.31707">
        <ele>65.5</ele>
        <time>2023-12-19T07:46:07Z</time>
      </trkpt>
      <trkpt lat="49.87788" lon="2.31706">
        <ele>65.5</ele>
        <time>2023-12-19T07:46:08Z</time>
      </trkpt>
      <trkpt lat="49.87787" lon="2.31706">
        <ele>65.5</ele>
        <time>2023-12-19T07:46:10Z</time>
      </trkpt>
      <trkpt lat="49.87786" lon="2.31705">
        <ele>65.5</ele>
        <time>2023-12-19T07:46:11Z</time>
      </trkpt>
      <trkpt lat="49.87785" lon="2.31704">
        <ele>65.5</ele>
        <time>2023-12-19T07:46:12Z</time>
      </trkpt>
      <trkpt lat="49.87785" lon="2.31703">
        <ele>65.5</ele>
        <time>2023-12-19T07:46:13Z</time>
      </trkpt>
      <trkpt lat="49.87784" lon="2.31702">
        <ele>65.6</ele>
        <time>2023-12-19T07:46:14Z</time>
      </trkpt>
      <trkpt lat="49.87783" lon="2.31701">
        <ele>65.6</ele>
        <time>2023-12-19T07:46:15Z</time>
      </trkpt>
      <trkpt lat="49.87782" lon="2.31699">
        <ele>65.6</ele>
        <time>2023-12-19T07:46:17Z</time>
      </trkpt>
      <trkpt lat="49.87781" lon="2.31698">
        <ele>65.6</ele>
        <time>2023-12-19T07:46:18Z</time>
      </trkpt>
      <trkpt lat="49.87781" lon="2.31697">
        <ele>65.6</ele>
        <time>2023-12-19T07:46:19Z</time>
      </trkpt>
      <trkpt lat="49.8778" lon="2.31695">
        <ele>65.6</ele>
        <time>2023-12-19T07:46:20Z</time>
      </trkpt>
      <trkpt lat="49.8778" lon="2.31694">
        <ele>65.6</ele>
        <time>2023-12-19T07:46:21Z</time>
      </trkpt>
      <trkpt lat="49.87778" lon="2.31691">
        <ele>65.6</ele>
        <time>2023-12-19T07:46:22Z</time>
      </trkpt>
      <trkpt lat="49.87778" lon="2.3169">
        <ele>65.6</ele>
        <time>2023-12-19T07:46:23Z</time>
      </trkpt>
      <trkpt lat="49.87777" lon="2.31689">
        <ele>65.6</ele>
        <time>2023-12-19T07:46:24Z</time>
      </trkpt>
      <trkpt lat="49.87776" lon="2.31688">
        <ele>65.6</ele>
        <time>2023-12-19T07:46:26Z</time>
      </trkpt>
      <trkpt lat="49.87776" lon="2.31687">
        <ele>65.6</ele>
        <time>2023-12-19T07:46:27Z</time>
      </trkpt>
      <trkpt lat="49.87775" lon="2.31685">
        <ele>65.6</ele>
        <time>2023-12-19T07:46:28Z</time>
      </trkpt>
      <trkpt lat="49.87774" lon="2.31683">
        <ele>65.6</ele>
        <time>2023-12-19T07:46:29Z</time>
      </trkpt>
      <trkpt lat="49.87774" lon="2.31682">
        <ele>65.6</ele>
        <time>2023-12-19T07:46:30Z</time>
      </trkpt>
      <trkpt lat="49.87773" lon="2.3168">
        <ele>65.6</ele>
        <time>2023-12-19T07:46:31Z</time>
      </trkpt>
      <trkpt lat="49.87772" lon="2.31678">
        <ele>65.6</ele>
        <time>2023-12-19T07:46:33Z</time>
      </trkpt>
      <trkpt lat="49.87771" lon="2.31677">
        <ele>65.6</ele>
        <time>2023-12-19T07:46:34Z</time>
      </trkpt>
      <trkpt lat="49.87771" lon="2.31676">
        <ele>65.6</ele>
        <time>2023-12-19T07:46:35Z</time>
      </trkpt>
      <trkpt lat="49.8777" lon="2.31674">
        <ele>65.6</ele>
        <time>2023-12-19T07:46:36Z</time>
      </trkpt>
      <trkpt lat="49.87769" lon="2.31673">
        <ele>65.6</ele>
        <time>2023-12-19T07:46:37Z</time>
      </trkpt>
      <trkpt lat="49.87768" lon="2.31672">
        <ele>65.6</ele>
        <time>2023-12-19T07:46:39Z</time>
      </trkpt>
      <trkpt lat="49.87767" lon="2.3167">
        <ele>65.6</ele>
        <time>2023-12-19T07:46:40Z</time>
      </trkpt>
      <trkpt lat="49.87766" lon="2.31669">
        <ele>65.6</ele>
        <time>2023-12-19T07:46:41Z</time>
      </trkpt>
      <trkpt lat="49.87766" lon="2.31668">
        <ele>65.6</ele>
        <time>2023-12-19T07:46:42Z</time>
      </trkpt>
      <trkpt lat="49.87766" lon="2.31666">
        <ele>65.6</ele>
        <time>2023-12-19T07:46:43Z</time>
      </trkpt>
      <trkpt lat="49.87766" lon="2.31664">
        <ele>65.6</ele>
        <time>2023-12-19T07:46:44Z</time>
      </trkpt>
      <trkpt lat="49.87766" lon="2.31662">
        <ele>65.6</ele>
        <time>2023-12-19T07:46:45Z</time>
      </trkpt>
      <trkpt lat="49.87767" lon="2.31661">
        <ele>65.6</ele>
        <time>2023-12-19T07:46:47Z</time>
      </trkpt>
      <trkpt lat="49.87767" lon="2.3166">
        <ele>65.6</ele>
        <time>2023-12-19T07:46:48Z</time>
      </trkpt>
      <trkpt lat="49.87768" lon="2.31659">
        <ele>65.6</ele>
        <time>2023-12-19T07:46:49Z</time>
      </trkpt>
      <trkpt lat="49.8777" lon="2.31659">
        <ele>65.6</ele>
        <time>2023-12-19T07:46:50Z</time>
      </trkpt>
      <trkpt lat="49.87771" lon="2.31658">
        <ele>65.6</ele>
        <time>2023-12-19T07:46:51Z</time>
      </trkpt>
      <trkpt lat="49.87772" lon="2.31657">
        <ele>65.6</ele>
        <time>2023-12-19T07:46:53Z</time>
      </trkpt>
      <trkpt lat="49.87773" lon="2.31657">
        <ele>65.5</ele>
        <time>2023-12-19T07:46:54Z</time>
      </trkpt>
      <trkpt lat="49.87775" lon="2.31657">
        <ele>65.5</ele>
        <time>2023-12-19T07:46:55Z</time>
      </trkpt>
      <trkpt lat="49.87775" lon="2.31656">
        <ele>65.5</ele>
        <time>2023-12-19T07:46:56Z</time>
      </trkpt>
      <trkpt lat="49.87776" lon="2.31655">
        <ele>65.5</ele>
        <time>2023-12-19T07:46:57Z</time>
      </trkpt>
      <trkpt lat="49.87776" lon="2.31654">
        <ele>65.5</ele>
        <time>2023-12-19T07:46:58Z</time>
      </trkpt>
      <trkpt lat="49.87776" lon="2.31653">
        <ele>65.5</ele>
        <time>2023-12-19T07:46:59Z</time>
      </trkpt>
      <trkpt lat="49.87776" lon="2.31651">
        <ele>65.5</ele>
        <time>2023-12-19T07:47:00Z</time>
      </trkpt>
      <trkpt lat="49.87775" lon="2.31649">
        <ele>65.5</ele>
        <time>2023-12-19T07:47:01Z</time>
      </trkpt>
      <trkpt lat="49.87775" lon="2.31648">
        <ele>65.5</ele>
        <time>2023-12-19T07:47:03Z</time>
      </trkpt>
      <trkpt lat="49.87775" lon="2.31646">
        <ele>65.5</ele>
        <time>2023-12-19T07:47:04Z</time>
      </trkpt>
      <trkpt lat="49.87775" lon="2.31644">
        <ele>65.5</ele>
        <time>2023-12-19T07:47:05Z</time>
      </trkpt>
      <trkpt lat="49.87775" lon="2.31643">
        <ele>65.5</ele>
        <time>2023-12-19T07:47:06Z</time>
      </trkpt>
      <trkpt lat="49.87776" lon="2.31641">
        <ele>65.4</ele>
        <time>2023-12-19T07:47:07Z</time>
      </trkpt>
      <trkpt lat="49.87778" lon="2.31639">
        <ele>65.4</ele>
        <time>2023-12-19T07:47:09Z</time>
      </trkpt>
      <trkpt lat="49.87779" lon="2.31638">
        <ele>65.4</ele>
        <time>2023-12-19T07:47:10Z</time>
      </trkpt>
      <trkpt lat="49.8778" lon="2.31637">
        <ele>65.4</ele>
        <time>2023-12-19T07:47:11Z</time>
      </trkpt>
      <trkpt lat="49.87781" lon="2.31636">
        <ele>65.4</ele>
        <time>2023-12-19T07:47:12Z</time>
      </trkpt>
      <trkpt lat="49.87783" lon="2.31635">
        <ele>65.4</ele>
        <time>2023-12-19T07:47:14Z</time>
      </trkpt>
      <trkpt lat="49.87784" lon="2.31634">
        <ele>65.4</ele>
        <time>2023-12-19T07:47:15Z</time>
      </trkpt>
      <trkpt lat="49.87786" lon="2.31633">
        <ele>65.4</ele>
        <time>2023-12-19T07:47:16Z</time>
      </trkpt>
      <trkpt lat="49.87787" lon="2.31632">
        <ele>65.4</ele>
        <time>2023-12-19T07:47:17Z</time>
      </trkpt>
      <trkpt lat="49.87788" lon="2.31629">
        <ele>65.3</ele>
        <time>2023-12-19T07:47:18Z</time>
      </trkpt>
      <trkpt lat="49.87789" lon="2.31628">
        <ele>65.3</ele>
        <time>2023-12-19T07:47:19Z</time>
      </trkpt>
      <trkpt lat="49.87789" lon="2.31627">
        <ele>65.3</ele>
        <time>2023-12-19T07:47:20Z</time>
      </trkpt>
      <trkpt lat="49.87788" lon="2.31625">
        <ele>65.3</ele>
        <time>2023-12-19T07:47:22Z</time>
      </trkpt>
      <trkpt lat="49.87788" lon="2.31623">
        <ele>65.3</ele>
        <time>2023-12-19T07:47:23Z</time>
      </trkpt>
      <trkpt lat="49.87787" lon="2.31621">
        <ele>65.3</ele>
        <time>2023-12-19T07:47:24Z</time>
      </trkpt>
      <trkpt lat="49.87786" lon="2.31619">
        <ele>65.3</ele>
        <time>2023-12-19T07:47:25Z</time>
      </trkpt>
      <trkpt lat="49.87785" lon="2.31616">
        <ele>65.3</ele>
        <time>2023-12-19T07:47:26Z</time>
      </trkpt>
      <trkpt lat="49.87785" lon="2.31615">
        <ele>65.3</ele>
        <time>2023-12-19T07:47:27Z</time>
      </trkpt>
      <trkpt lat="49.87784" lon="2.31614">
        <ele>65.3</ele>
        <time>2023-12-19T07:47:28Z</time>
      </trkpt>
      <trkpt lat="49.87783" lon="2.31611">
        <ele>65.3</ele>
        <time>2023-12-19T07:47:30Z</time>
      </trkpt>
      <trkpt lat="49.87783" lon="2.3161">
        <ele>65.3</ele>
        <time>2023-12-19T07:47:31Z</time>
      </trkpt>
      <trkpt lat="49.87782" lon="2.31609">
        <ele>65.3</ele>
        <time>2023-12-19T07:47:32Z</time>
      </trkpt>
      <trkpt lat="49.87781" lon="2.31608">
        <ele>65.4</ele>
        <time>2023-12-19T07:47:33Z</time>
      </trkpt>
      <trkpt lat="49.87781" lon="2.31607">
        <ele>65.4</ele>
        <time>2023-12-19T07:47:34Z</time>
      </trkpt>
      <trkpt lat="49.8778" lon="2.31605">
        <ele>65.4</ele>
        <time>2023-12-19T07:47:35Z</time>
      </trkpt>
      <trkpt lat="49.8778" lon="2.31604">
        <ele>65.4</ele>
        <time>2023-12-19T07:47:36Z</time>
      </trkpt>
      <trkpt lat="49.87779" lon="2.31602">
        <ele>65.4</ele>
        <time>2023-12-19T07:47:38Z</time>
      </trkpt>
      <trkpt lat="49.87779" lon="2.316">
        <ele>65.4</ele>
        <time>2023-12-19T07:47:39Z</time>
      </trkpt>
      <trkpt lat="49.87778" lon="2.31599">
        <ele>65.5</ele>
        <time>2023-12-19T07:47:40Z</time>
      </trkpt>
      <trkpt lat="49.87777" lon="2.31597">
        <ele>65.5</ele>
        <time>2023-12-19T07:47:41Z</time>
      </trkpt>
      <trkpt lat="49.87776" lon="2.31596">
        <ele>65.5</ele>
        <time>2023-12-19T07:47:42Z</time>
      </trkpt>
      <trkpt lat="49.87775" lon="2.31594">
        <ele>65.5</ele>
        <time>2023-12-19T07:47:43Z</time>
      </trkpt>
      <trkpt lat="49.87774" lon="2.31593">
        <ele>65.5</ele>
        <time>2023-12-19T07:47:44Z</time>
      </trkpt>
      <trkpt lat="49.87774" lon="2.31592">
        <ele>65.6</ele>
        <time>2023-12-19T07:47:45Z</time>
      </trkpt>
      <trkpt lat="49.87772" lon="2.3159">
        <ele>65.6</ele>
        <time>2023-12-19T07:47:47Z</time>
      </trkpt>
      <trkpt lat="49.87772" lon="2.31589">
        <ele>65.6</ele>
        <time>2023-12-19T07:47:48Z</time>
      </trkpt>
      <trkpt lat="49.87771" lon="2.31588">
        <ele>65.6</ele>
        <time>2023-12-19T07:47:49Z</time>
      </trkpt>
      <trkpt lat="49.8777" lon="2.31587">
        <ele>65.7</ele>
        <time>2023-12-19T07:47:50Z</time>
      </trkpt>
      <trkpt lat="49.87769" lon="2.31586">
        <ele>65.7</ele>
        <time>2023-12-19T07:47:51Z</time>
      </trkpt>
      <trkpt lat="49.87769" lon="2.31584">
        <ele>65.7</ele>
        <time>2023-12-19T07:47:52Z</time>
      </trkpt>
      <trkpt lat="49.87767" lon="2.31582">
        <ele>65.8</ele>
        <time>2023-12-19T07:47:54Z</time>
      </trkpt>
      <trkpt lat="49.87767" lon="2.31581">
        <ele>65.8</ele>
        <time>2023-12-19T07:47:55Z</time>
      </trkpt>
      <trkpt lat="49.87766" lon="2.3158">
        <ele>65.8</ele>
        <time>2023-12-19T07:47:56Z</time>
      </trkpt>
      <trkpt lat="49.87766" lon="2.31578">
        <ele>65.8</ele>
        <time>2023-12-19T07:47:57Z</time>
      </trkpt>
      <trkpt lat="49.87765" lon="2.31577">
        <ele>65.8</ele>
        <time>2023-12-19T07:47:58Z</time>
      </trkpt>
      <trkpt lat="49.87764" lon="2.31576">
        <ele>65.8</ele>
        <time>2023-12-19T07:47:59Z</time>
      </trkpt>
      <trkpt lat="49.87763" lon="2.31574">
        <ele>65.9</ele>
        <time>2023-12-19T07:48:00Z</time>
      </trkpt>
      <trkpt lat="49.87762" lon="2.31573">
        <ele>65.9</ele>
        <time>2023-12-19T07:48:01Z</time>
      </trkpt>
      <trkpt lat="49.87761" lon="2.31571">
        <ele>65.9</ele>
        <time>2023-12-19T07:48:02Z</time>
      </trkpt>
      <trkpt lat="49.8776" lon="2.3157">
        <ele>65.9</ele>
        <time>2023-12-19T07:48:04Z</time>
      </trkpt>
      <trkpt lat="49.87759" lon="2.31568">
        <ele>65.9</ele>
        <time>2023-12-19T07:48:05Z</time>
      </trkpt>
      <trkpt lat="49.87758" lon="2.31567">
        <ele>66</ele>
        <time>2023-12-19T07:48:06Z</time>
      </trkpt>
      <trkpt lat="49.87758" lon="2.31565">
        <ele>66</ele>
        <time>2023-12-19T07:48:07Z</time>
      </trkpt>
      <trkpt lat="49.87757" lon="2.31564">
        <ele>66</ele>
        <time>2023-12-19T07:48:08Z</time>
      </trkpt>
      <trkpt lat="49.87756" lon="2.31563">
        <ele>66</ele>
        <time>2023-12-19T07:48:09Z</time>
      </trkpt>
      <trkpt lat="49.87755" lon="2.31561">
        <ele>66</ele>
        <time>2023-12-19T07:48:10Z</time>
      </trkpt>
      <trkpt lat="49.87754" lon="2.3156">
        <ele>66</ele>
        <time>2023-12-19T07:48:12Z</time>
      </trkpt>
      <trkpt lat="49.87754" lon="2.31559">
        <ele>66</ele>
        <time>2023-12-19T07:48:13Z</time>
      </trkpt>
      <trkpt lat="49.87753" lon="2.31557">
        <ele>66.1</ele>
        <time>2023-12-19T07:48:14Z</time>
      </trkpt>
      <trkpt lat="49.87752" lon="2.31556">
        <ele>66.1</ele>
        <time>2023-12-19T07:48:15Z</time>
      </trkpt>
      <trkpt lat="49.87751" lon="2.31554">
        <ele>66.1</ele>
        <time>2023-12-19T07:48:16Z</time>
      </trkpt>
      <trkpt lat="49.87751" lon="2.31553">
        <ele>66.1</ele>
        <time>2023-12-19T07:48:17Z</time>
      </trkpt>
      <trkpt lat="49.8775" lon="2.31552">
        <ele>66.1</ele>
        <time>2023-12-19T07:48:18Z</time>
      </trkpt>
      <trkpt lat="49.87749" lon="2.3155">
        <ele>66.1</ele>
        <time>2023-12-19T07:48:19Z</time>
      </trkpt>
      <trkpt lat="49.87748" lon="2.31549">
        <ele>66.1</ele>
        <time>2023-12-19T07:48:21Z</time>
      </trkpt>
      <trkpt lat="49.87747" lon="2.31548">
        <ele>66.1</ele>
        <time>2023-12-19T07:48:22Z</time>
      </trkpt>
      <trkpt lat="49.87747" lon="2.31546">
        <ele>66.1</ele>
        <time>2023-12-19T07:48:23Z</time>
      </trkpt>
      <trkpt lat="49.87746" lon="2.31543">
        <ele>66.1</ele>
        <time>2023-12-19T07:48:24Z</time>
      </trkpt>
      <trkpt lat="49.87745" lon="2.31542">
        <ele>66.1</ele>
        <time>2023-12-19T07:48:25Z</time>
      </trkpt>
      <trkpt lat="49.87745" lon="2.31541">
        <ele>66.1</ele>
        <time>2023-12-19T07:48:26Z</time>
      </trkpt>
      <trkpt lat="49.87744" lon="2.31538">
        <ele>66.1</ele>
        <time>2023-12-19T07:48:27Z</time>
      </trkpt>
      <trkpt lat="49.87743" lon="2.31537">
        <ele>66.1</ele>
        <time>2023-12-19T07:48:28Z</time>
      </trkpt>
      <trkpt lat="49.87743" lon="2.31536">
        <ele>66.1</ele>
        <time>2023-12-19T07:48:29Z</time>
      </trkpt>
      <trkpt lat="49.87742" lon="2.31533">
        <ele>66.1</ele>
        <time>2023-12-19T07:48:31Z</time>
      </trkpt>
      <trkpt lat="49.87742" lon="2.31531">
        <ele>66.1</ele>
        <time>2023-12-19T07:48:32Z</time>
      </trkpt>
      <trkpt lat="49.87741" lon="2.31529">
        <ele>66.1</ele>
        <time>2023-12-19T07:48:33Z</time>
      </trkpt>
      <trkpt lat="49.8774" lon="2.31527">
        <ele>66.1</ele>
        <time>2023-12-19T07:48:34Z</time>
      </trkpt>
      <trkpt lat="49.8774" lon="2.31525">
        <ele>66.1</ele>
        <time>2023-12-19T07:48:35Z</time>
      </trkpt>
      <trkpt lat="49.87739" lon="2.31523">
        <ele>66.1</ele>
        <time>2023-12-19T07:48:36Z</time>
      </trkpt>
      <trkpt lat="49.87739" lon="2.31521">
        <ele>66.1</ele>
        <time>2023-12-19T07:48:37Z</time>
      </trkpt>
      <trkpt lat="49.87738" lon="2.31519">
        <ele>66</ele>
        <time>2023-12-19T07:48:38Z</time>
      </trkpt>
      <trkpt lat="49.87737" lon="2.31517">
        <ele>66</ele>
        <time>2023-12-19T07:48:40Z</time>
      </trkpt>
      <trkpt lat="49.87736" lon="2.31516">
        <ele>66</ele>
        <time>2023-12-19T07:48:41Z</time>
      </trkpt>
      <trkpt lat="49.87736" lon="2.31515">
        <ele>66</ele>
        <time>2023-12-19T07:48:42Z</time>
      </trkpt>
      <trkpt lat="49.87735" lon="2.31513">
        <ele>66</ele>
        <time>2023-12-19T07:48:43Z</time>
      </trkpt>
      <trkpt lat="49.87734" lon="2.31512">
        <ele>66</ele>
        <time>2023-12-19T07:48:44Z</time>
      </trkpt>
      <trkpt lat="49.87733" lon="2.3151">
        <ele>66</ele>
        <time>2023-12-19T07:48:45Z</time>
      </trkpt>
      <trkpt lat="49.87732" lon="2.31508">
        <ele>65.9</ele>
        <time>2023-12-19T07:48:46Z</time>
      </trkpt>
      <trkpt lat="49.87732" lon="2.31507">
        <ele>65.9</ele>
        <time>2023-12-19T07:48:47Z</time>
      </trkpt>
      <trkpt lat="49.87731" lon="2.31506">
        <ele>65.9</ele>
        <time>2023-12-19T07:48:48Z</time>
      </trkpt>
      <trkpt lat="49.8773" lon="2.31503">
        <ele>65.9</ele>
        <time>2023-12-19T07:48:50Z</time>
      </trkpt>
      <trkpt lat="49.87729" lon="2.31502">
        <ele>65.9</ele>
        <time>2023-12-19T07:48:51Z</time>
      </trkpt>
      <trkpt lat="49.87729" lon="2.31501">
        <ele>65.8</ele>
        <time>2023-12-19T07:48:52Z</time>
      </trkpt>
      <trkpt lat="49.87728" lon="2.315">
        <ele>65.8</ele>
        <time>2023-12-19T07:48:53Z</time>
      </trkpt>
      <trkpt lat="49.87727" lon="2.31499">
        <ele>65.8</ele>
        <time>2023-12-19T07:48:54Z</time>
      </trkpt>
      <trkpt lat="49.87726" lon="2.31497">
        <ele>65.8</ele>
        <time>2023-12-19T07:48:55Z</time>
      </trkpt>
      <trkpt lat="49.87726" lon="2.31495">
        <ele>65.8</ele>
        <time>2023-12-19T07:48:56Z</time>
      </trkpt>
      <trkpt lat="49.87725" lon="2.31494">
        <ele>65.7</ele>
        <time>2023-12-19T07:48:57Z</time>
      </trkpt>
      <trkpt lat="49.87724" lon="2.31492">
        <ele>65.7</ele>
        <time>2023-12-19T07:48:59Z</time>
      </trkpt>
      <trkpt lat="49.87724" lon="2.3149">
        <ele>65.7</ele>
        <time>2023-12-19T07:49:00Z</time>
      </trkpt>
      <trkpt lat="49.87723" lon="2.31488">
        <ele>65.6</ele>
        <time>2023-12-19T07:49:01Z</time>
      </trkpt>
      <trkpt lat="49.87723" lon="2.31486">
        <ele>65.6</ele>
        <time>2023-12-19T07:49:02Z</time>
      </trkpt>
      <trkpt lat="49.87722" lon="2.31484">
        <ele>65.6</ele>
        <time>2023-12-19T07:49:03Z</time>
      </trkpt>
      <trkpt lat="49.87722" lon="2.31483">
        <ele>65.6</ele>
        <time>2023-12-19T07:49:04Z</time>
      </trkpt>
      <trkpt lat="49.87721" lon="2.31481">
        <ele>65.5</ele>
        <time>2023-12-19T07:49:05Z</time>
      </trkpt>
      <trkpt lat="49.8772" lon="2.31479">
        <ele>65.5</ele>
        <time>2023-12-19T07:49:06Z</time>
      </trkpt>
      <trkpt lat="49.8772" lon="2.31478">
        <ele>65.5</ele>
        <time>2023-12-19T07:49:08Z</time>
      </trkpt>
      <trkpt lat="49.87719" lon="2.31476">
        <ele>65.4</ele>
        <time>2023-12-19T07:49:09Z</time>
      </trkpt>
      <trkpt lat="49.87718" lon="2.31475">
        <ele>65.4</ele>
        <time>2023-12-19T07:49:10Z</time>
      </trkpt>
      <trkpt lat="49.87717" lon="2.31474">
        <ele>65.4</ele>
        <time>2023-12-19T07:49:11Z</time>
      </trkpt>
      <trkpt lat="49.87717" lon="2.31472">
        <ele>65.4</ele>
        <time>2023-12-19T07:49:12Z</time>
      </trkpt>
      <trkpt lat="49.87717" lon="2.31471">
        <ele>65.4</ele>
        <time>2023-12-19T07:49:13Z</time>
      </trkpt>
      <trkpt lat="49.87717" lon="2.3147">
        <ele>65.3</ele>
        <time>2023-12-19T07:49:14Z</time>
      </trkpt>
      <trkpt lat="49.87717" lon="2.31469">
        <ele>65.3</ele>
        <time>2023-12-19T07:49:15Z</time>
      </trkpt>
      <trkpt lat="49.87716" lon="2.31466">
        <ele>65.3</ele>
        <time>2023-12-19T07:49:16Z</time>
      </trkpt>
      <trkpt lat="49.87715" lon="2.31465">
        <ele>65.3</ele>
        <time>2023-12-19T07:49:17Z</time>
      </trkpt>
      <trkpt lat="49.87715" lon="2.31464">
        <ele>65.2</ele>
        <time>2023-12-19T07:49:18Z</time>
      </trkpt>
      <trkpt lat="49.87715" lon="2.31462">
        <ele>65.2</ele>
        <time>2023-12-19T07:49:19Z</time>
      </trkpt>
      <trkpt lat="49.87714" lon="2.31461">
        <ele>65.2</ele>
        <time>2023-12-19T07:49:20Z</time>
      </trkpt>
      <trkpt lat="49.87714" lon="2.31461">
        <ele>65.2</ele>
        <time>2023-12-19T07:49:21Z</time>
      </trkpt>
      <trkpt lat="49.87713" lon="2.3146">
        <ele>65.2</ele>
        <time>2023-12-19T07:49:23Z</time>
      </trkpt>
      <trkpt lat="49.87712" lon="2.31458">
        <ele>65.1</ele>
        <time>2023-12-19T07:49:24Z</time>
      </trkpt>
      <trkpt lat="49.87711" lon="2.31456">
        <ele>65.1</ele>
        <time>2023-12-19T07:49:25Z</time>
      </trkpt>
      <trkpt lat="49.8771" lon="2.31454">
        <ele>65.1</ele>
        <time>2023-12-19T07:49:26Z</time>
      </trkpt>
      <trkpt lat="49.87708" lon="2.3145">
        <ele>65</ele>
        <time>2023-12-19T07:49:28Z</time>
      </trkpt>
      <trkpt lat="49.87706" lon="2.31447">
        <ele>65</ele>
        <time>2023-12-19T07:49:29Z</time>
      </trkpt>
      <trkpt lat="49.87706" lon="2.31447">
        <ele>65</ele>
        <time>2023-12-19T07:49:30Z</time>
      </trkpt>
      <trkpt lat="49.87705" lon="2.31445">
        <ele>65</ele>
        <time>2023-12-19T07:49:31Z</time>
      </trkpt>
      <trkpt lat="49.87705" lon="2.31444">
        <ele>64.9</ele>
        <time>2023-12-19T07:49:33Z</time>
      </trkpt>
      <trkpt lat="49.87704" lon="2.31443">
        <ele>64.9</ele>
        <time>2023-12-19T07:49:34Z</time>
      </trkpt>
      <trkpt lat="49.87703" lon="2.31441">
        <ele>64.9</ele>
        <time>2023-12-19T07:49:35Z</time>
      </trkpt>
      <trkpt lat="49.87702" lon="2.3144">
        <ele>64.9</ele>
        <time>2023-12-19T07:49:36Z</time>
      </trkpt>
      <trkpt lat="49.87702" lon="2.31439">
        <ele>64.9</ele>
        <time>2023-12-19T07:49:37Z</time>
      </trkpt>
      <trkpt lat="49.877" lon="2.31436">
        <ele>64.8</ele>
        <time>2023-12-19T07:49:38Z</time>
      </trkpt>
      <trkpt lat="49.877" lon="2.31435">
        <ele>64.8</ele>
        <time>2023-12-19T07:49:39Z</time>
      </trkpt>
      <trkpt lat="49.87699" lon="2.31434">
        <ele>64.8</ele>
        <time>2023-12-19T07:49:40Z</time>
      </trkpt>
      <trkpt lat="49.87698" lon="2.31432">
        <ele>64.8</ele>
        <time>2023-12-19T07:49:41Z</time>
      </trkpt>
      <trkpt lat="49.87697" lon="2.31431">
        <ele>64.8</ele>
        <time>2023-12-19T07:49:42Z</time>
      </trkpt>
      <trkpt lat="49.87697" lon="2.3143">
        <ele>64.7</ele>
        <time>2023-12-19T07:49:44Z</time>
      </trkpt>
      <trkpt lat="49.87695" lon="2.31427">
        <ele>64.7</ele>
        <time>2023-12-19T07:49:45Z</time>
      </trkpt>
      <trkpt lat="49.87695" lon="2.31426">
        <ele>64.7</ele>
        <time>2023-12-19T07:49:46Z</time>
      </trkpt>
      <trkpt lat="49.87694" lon="2.31425">
        <ele>64.7</ele>
        <time>2023-12-19T07:49:47Z</time>
      </trkpt>
      <trkpt lat="49.87693" lon="2.31423">
        <ele>64.7</ele>
        <time>2023-12-19T07:49:48Z</time>
      </trkpt>
      <trkpt lat="49.87692" lon="2.31421">
        <ele>64.7</ele>
        <time>2023-12-19T07:49:49Z</time>
      </trkpt>
      <trkpt lat="49.87692" lon="2.3142">
        <ele>64.7</ele>
        <time>2023-12-19T07:49:50Z</time>
      </trkpt>
      <trkpt lat="49.8769" lon="2.31418">
        <ele>64.7</ele>
        <time>2023-12-19T07:49:51Z</time>
      </trkpt>
      <trkpt lat="49.8769" lon="2.31417">
        <ele>64.8</ele>
        <time>2023-12-19T07:49:52Z</time>
      </trkpt>
      <trkpt lat="49.87689" lon="2.31415">
        <ele>64.8</ele>
        <time>2023-12-19T07:49:54Z</time>
      </trkpt>
      <trkpt lat="49.87688" lon="2.31414">
        <ele>64.8</ele>
        <time>2023-12-19T07:49:55Z</time>
      </trkpt>
      <trkpt lat="49.87688" lon="2.31413">
        <ele>64.8</ele>
        <time>2023-12-19T07:49:56Z</time>
      </trkpt>
      <trkpt lat="49.87687" lon="2.31412">
        <ele>64.8</ele>
        <time>2023-12-19T07:49:57Z</time>
      </trkpt>
      <trkpt lat="49.87686" lon="2.31409">
        <ele>64.8</ele>
        <time>2023-12-19T07:49:58Z</time>
      </trkpt>
      <trkpt lat="49.87685" lon="2.31408">
        <ele>64.8</ele>
        <time>2023-12-19T07:49:59Z</time>
      </trkpt>
      <trkpt lat="49.87684" lon="2.31407">
        <ele>64.8</ele>
        <time>2023-12-19T07:50:00Z</time>
      </trkpt>
      <trkpt lat="49.87684" lon="2.31405">
        <ele>64.8</ele>
        <time>2023-12-19T07:50:01Z</time>
      </trkpt>
      <trkpt lat="49.87683" lon="2.31404">
        <ele>64.8</ele>
        <time>2023-12-19T07:50:02Z</time>
      </trkpt>
      <trkpt lat="49.87682" lon="2.31403">
        <ele>64.8</ele>
        <time>2023-12-19T07:50:04Z</time>
      </trkpt>
      <trkpt lat="49.87682" lon="2.31401">
        <ele>64.8</ele>
        <time>2023-12-19T07:50:05Z</time>
      </trkpt>
      <trkpt lat="49.87681" lon="2.314">
        <ele>64.8</ele>
        <time>2023-12-19T07:50:06Z</time>
      </trkpt>
      <trkpt lat="49.87681" lon="2.31398">
        <ele>64.8</ele>
        <time>2023-12-19T07:50:07Z</time>
      </trkpt>
      <trkpt lat="49.8768" lon="2.31395">
        <ele>64.8</ele>
        <time>2023-12-19T07:50:08Z</time>
      </trkpt>
      <trkpt lat="49.8768" lon="2.31394">
        <ele>64.8</ele>
        <time>2023-12-19T07:50:09Z</time>
      </trkpt>
      <trkpt lat="49.87679" lon="2.31393">
        <ele>64.8</ele>
        <time>2023-12-19T07:50:10Z</time>
      </trkpt>
      <trkpt lat="49.87678" lon="2.3139">
        <ele>64.8</ele>
        <time>2023-12-19T07:50:11Z</time>
      </trkpt>
      <trkpt lat="49.87678" lon="2.31389">
        <ele>64.8</ele>
        <time>2023-12-19T07:50:12Z</time>
      </trkpt>
      <trkpt lat="49.87677" lon="2.31387">
        <ele>64.8</ele>
        <time>2023-12-19T07:50:14Z</time>
      </trkpt>
      <trkpt lat="49.87676" lon="2.31386">
        <ele>64.8</ele>
        <time>2023-12-19T07:50:15Z</time>
      </trkpt>
      <trkpt lat="49.87676" lon="2.31385">
        <ele>64.8</ele>
        <time>2023-12-19T07:50:16Z</time>
      </trkpt>
      <trkpt lat="49.87675" lon="2.31384">
        <ele>64.8</ele>
        <time>2023-12-19T07:50:17Z</time>
      </trkpt>
      <trkpt lat="49.87675" lon="2.31382">
        <ele>64.8</ele>
        <time>2023-12-19T07:50:18Z</time>
      </trkpt>
      <trkpt lat="49.87674" lon="2.3138">
        <ele>64.8</ele>
        <time>2023-12-19T07:50:19Z</time>
      </trkpt>
      <trkpt lat="49.87673" lon="2.31379">
        <ele>64.8</ele>
        <time>2023-12-19T07:50:20Z</time>
      </trkpt>
      <trkpt lat="49.87672" lon="2.31377">
        <ele>64.7</ele>
        <time>2023-12-19T07:50:21Z</time>
      </trkpt>
      <trkpt lat="49.87671" lon="2.31375">
        <ele>64.7</ele>
        <time>2023-12-19T07:50:23Z</time>
      </trkpt>
      <trkpt lat="49.8767" lon="2.31374">
        <ele>64.7</ele>
        <time>2023-12-19T07:50:24Z</time>
      </trkpt>
      <trkpt lat="49.87669" lon="2.31372">
        <ele>64.7</ele>
        <time>2023-12-19T07:50:25Z</time>
      </trkpt>
      <trkpt lat="49.87668" lon="2.3137">
        <ele>64.6</ele>
        <time>2023-12-19T07:50:26Z</time>
      </trkpt>
      <trkpt lat="49.87667" lon="2.31369">
        <ele>64.6</ele>
        <time>2023-12-19T07:50:27Z</time>
      </trkpt>
      <trkpt lat="49.87667" lon="2.31367">
        <ele>64.6</ele>
        <time>2023-12-19T07:50:28Z</time>
      </trkpt>
      <trkpt lat="49.87666" lon="2.31366">
        <ele>64.6</ele>
        <time>2023-12-19T07:50:29Z</time>
      </trkpt>
      <trkpt lat="49.87665" lon="2.31365">
        <ele>64.5</ele>
        <time>2023-12-19T07:50:30Z</time>
      </trkpt>
      <trkpt lat="49.87665" lon="2.31363">
        <ele>64.5</ele>
        <time>2023-12-19T07:50:32Z</time>
      </trkpt>
      <trkpt lat="49.87664" lon="2.31362">
        <ele>64.5</ele>
        <time>2023-12-19T07:50:33Z</time>
      </trkpt>
      <trkpt lat="49.87664" lon="2.31361">
        <ele>64.5</ele>
        <time>2023-12-19T07:50:34Z</time>
      </trkpt>
      <trkpt lat="49.87663" lon="2.3136">
        <ele>64.5</ele>
        <time>2023-12-19T07:50:35Z</time>
      </trkpt>
      <trkpt lat="49.87662" lon="2.31359">
        <ele>64.5</ele>
        <time>2023-12-19T07:50:36Z</time>
      </trkpt>
      <trkpt lat="49.87661" lon="2.31358">
        <ele>64.5</ele>
        <time>2023-12-19T07:50:37Z</time>
      </trkpt>
      <trkpt lat="49.87661" lon="2.31357">
        <ele>64.5</ele>
        <time>2023-12-19T07:50:39Z</time>
      </trkpt>
      <trkpt lat="49.8766" lon="2.31356">
        <ele>64.6</ele>
        <time>2023-12-19T07:50:40Z</time>
      </trkpt>
      <trkpt lat="49.8766" lon="2.31357">
        <ele>64.6</ele>
        <time>2023-12-19T07:50:41Z</time>
      </trkpt>
      <trkpt lat="49.87659" lon="2.31357">
        <ele>64.6</ele>
        <time>2023-12-19T07:50:42Z</time>
      </trkpt>
      <trkpt lat="49.87659" lon="2.31357">
        <ele>64.6</ele>
        <time>2023-12-19T07:50:43Z</time>
      </trkpt>
      <trkpt lat="49.87659" lon="2.31356">
        <ele>64.6</ele>
        <time>2023-12-19T07:50:44Z</time>
      </trkpt>
      <trkpt lat="49.87659" lon="2.31354">
        <ele>64.8</ele>
        <time>2023-12-19T07:50:45Z</time>
      </trkpt>
      <trkpt lat="49.8766" lon="2.31353">
        <ele>65</ele>
        <time>2023-12-19T07:50:46Z</time>
      </trkpt>
      <trkpt lat="49.87661" lon="2.31352">
        <ele>65.3</ele>
        <time>2023-12-19T07:50:48Z</time>
      </trkpt>
      <trkpt lat="49.87662" lon="2.3135">
        <ele>65.6</ele>
        <time>2023-12-19T07:50:49Z</time>
      </trkpt>
      <trkpt lat="49.87663" lon="2.31348">
        <ele>65.8</ele>
        <time>2023-12-19T07:50:50Z</time>
      </trkpt>
      <trkpt lat="49.87664" lon="2.31347">
        <ele>65.8</ele>
        <time>2023-12-19T07:50:51Z</time>
      </trkpt>
      <trkpt lat="49.87665" lon="2.31345">
        <ele>65.8</ele>
        <time>2023-12-19T07:50:52Z</time>
      </trkpt>
      <trkpt lat="49.87666" lon="2.31344">
        <ele>65.7</ele>
        <time>2023-12-19T07:50:53Z</time>
      </trkpt>
      <trkpt lat="49.87667" lon="2.31342">
        <ele>65.7</ele>
        <time>2023-12-19T07:50:54Z</time>
      </trkpt>
      <trkpt lat="49.87668" lon="2.31341">
        <ele>65.7</ele>
        <time>2023-12-19T07:50:55Z</time>
      </trkpt>
      <trkpt lat="49.8767" lon="2.3134">
        <ele>65.6</ele>
        <time>2023-12-19T07:50:57Z</time>
      </trkpt>
      <trkpt lat="49.87671" lon="2.31338">
        <ele>65.6</ele>
        <time>2023-12-19T07:50:58Z</time>
      </trkpt>
      <trkpt lat="49.87673" lon="2.31337">
        <ele>65.5</ele>
        <time>2023-12-19T07:50:59Z</time>
      </trkpt>
      <trkpt lat="49.87675" lon="2.31335">
        <ele>65.5</ele>
        <time>2023-12-19T07:51:00Z</time>
      </trkpt>
      <trkpt lat="49.87676" lon="2.31334">
        <ele>65.4</ele>
        <time>2023-12-19T07:51:01Z</time>
      </trkpt>
      <trkpt lat="49.87678" lon="2.31333">
        <ele>65.4</ele>
        <time>2023-12-19T07:51:02Z</time>
      </trkpt>
      <trkpt lat="49.87679" lon="2.31332">
        <ele>65.4</ele>
        <time>2023-12-19T07:51:03Z</time>
      </trkpt>
      <trkpt lat="49.87681" lon="2.31331">
        <ele>65.3</ele>
        <time>2023-12-19T07:51:04Z</time>
      </trkpt>
      <trkpt lat="49.87682" lon="2.3133">
        <ele>65.3</ele>
        <time>2023-12-19T07:51:06Z</time>
      </trkpt>
      <trkpt lat="49.87684" lon="2.31329">
        <ele>65.2</ele>
        <time>2023-12-19T07:51:07Z</time>
      </trkpt>
      <trkpt lat="49.87685" lon="2.31328">
        <ele>65.2</ele>
        <time>2023-12-19T07:51:08Z</time>
      </trkpt>
      <trkpt lat="49.87687" lon="2.31327">
        <ele>65.2</ele>
        <time>2023-12-19T07:51:09Z</time>
      </trkpt>
      <trkpt lat="49.87688" lon="2.31327">
        <ele>65.1</ele>
        <time>2023-12-19T07:51:10Z</time>
      </trkpt>
      <trkpt lat="49.8769" lon="2.31326">
        <ele>65.1</ele>
        <time>2023-12-19T07:51:11Z</time>
      </trkpt>
      <trkpt lat="49.87692" lon="2.31326">
        <ele>65</ele>
        <time>2023-12-19T07:51:12Z</time>
      </trkpt>
      <trkpt lat="49.87693" lon="2.31326">
        <ele>65</ele>
        <time>2023-12-19T07:51:13Z</time>
      </trkpt>
      <trkpt lat="49.87694" lon="2.31326">
        <ele>64.9</ele>
        <time>2023-12-19T07:51:15Z</time>
      </trkpt>
      <trkpt lat="49.87696" lon="2.31325">
        <ele>64.9</ele>
        <time>2023-12-19T07:51:16Z</time>
      </trkpt>
      <trkpt lat="49.87697" lon="2.31325">
        <ele>64.8</ele>
        <time>2023-12-19T07:51:17Z</time>
      </trkpt>
      <trkpt lat="49.87699" lon="2.31324">
        <ele>64.8</ele>
        <time>2023-12-19T07:51:18Z</time>
      </trkpt>
      <trkpt lat="49.87701" lon="2.31323">
        <ele>64.7</ele>
        <time>2023-12-19T07:51:20Z</time>
      </trkpt>
      <trkpt lat="49.87702" lon="2.31323">
        <ele>64.7</ele>
        <time>2023-12-19T07:51:21Z</time>
      </trkpt>
      <trkpt lat="49.87704" lon="2.31322">
        <ele>64.6</ele>
        <time>2023-12-19T07:51:22Z</time>
      </trkpt>
      <trkpt lat="49.87705" lon="2.31322">
        <ele>64.6</ele>
        <time>2023-12-19T07:51:23Z</time>
      </trkpt>
      <trkpt lat="49.87707" lon="2.31321">
        <ele>64.6</ele>
        <time>2023-12-19T07:51:24Z</time>
      </trkpt>
      <trkpt lat="49.87708" lon="2.3132">
        <ele>64.5</ele>
        <time>2023-12-19T07:51:25Z</time>
      </trkpt>
      <trkpt lat="49.8771" lon="2.31319">
        <ele>64.5</ele>
        <time>2023-12-19T07:51:26Z</time>
      </trkpt>
      <trkpt lat="49.87712" lon="2.31317">
        <ele>64.4</ele>
        <time>2023-12-19T07:51:27Z</time>
      </trkpt>
      <trkpt lat="49.87713" lon="2.31316">
        <ele>64.4</ele>
        <time>2023-12-19T07:51:29Z</time>
      </trkpt>
      <trkpt lat="49.87713" lon="2.31315">
        <ele>64.3</ele>
        <time>2023-12-19T07:51:30Z</time>
      </trkpt>
      <trkpt lat="49.87714" lon="2.31314">
        <ele>64.3</ele>
        <time>2023-12-19T07:51:31Z</time>
      </trkpt>
      <trkpt lat="49.87715" lon="2.31312">
        <ele>64.3</ele>
        <time>2023-12-19T07:51:32Z</time>
      </trkpt>
      <trkpt lat="49.87716" lon="2.31309">
        <ele>64.2</ele>
        <time>2023-12-19T07:51:33Z</time>
      </trkpt>
      <trkpt lat="49.87716" lon="2.31308">
        <ele>64.2</ele>
        <time>2023-12-19T07:51:34Z</time>
      </trkpt>
      <trkpt lat="49.87716" lon="2.31307">
        <ele>64.2</ele>
        <time>2023-12-19T07:51:35Z</time>
      </trkpt>
      <trkpt lat="49.87717" lon="2.31304">
        <ele>64.1</ele>
        <time>2023-12-19T07:51:37Z</time>
      </trkpt>
      <trkpt lat="49.87717" lon="2.31303">
        <ele>64.1</ele>
        <time>2023-12-19T07:51:38Z</time>
      </trkpt>
      <trkpt lat="49.87717" lon="2.31301">
        <ele>64.1</ele>
        <time>2023-12-19T07:51:39Z</time>
      </trkpt>
      <trkpt lat="49.87717" lon="2.31299">
        <ele>64.1</ele>
        <time>2023-12-19T07:51:40Z</time>
      </trkpt>
      <trkpt lat="49.87717" lon="2.31297">
        <ele>64</ele>
        <time>2023-12-19T07:51:41Z</time>
      </trkpt>
      <trkpt lat="49.87716" lon="2.31295">
        <ele>64</ele>
        <time>2023-12-19T07:51:42Z</time>
      </trkpt>
      <trkpt lat="49.87716" lon="2.31292">
        <ele>63.9</ele>
        <time>2023-12-19T07:51:44Z</time>
      </trkpt>
      <trkpt lat="49.87716" lon="2.31289">
        <ele>63.9</ele>
        <time>2023-12-19T07:51:45Z</time>
      </trkpt>
      <trkpt lat="49.87716" lon="2.31287">
        <ele>63.8</ele>
        <time>2023-12-19T07:51:46Z</time>
      </trkpt>
      <trkpt lat="49.87718" lon="2.31285">
        <ele>63.8</ele>
        <time>2023-12-19T07:51:47Z</time>
      </trkpt>
      <trkpt lat="49.87719" lon="2.31284">
        <ele>63.8</ele>
        <time>2023-12-19T07:51:49Z</time>
      </trkpt>
      <trkpt lat="49.87719" lon="2.31283">
        <ele>63.7</ele>
        <time>2023-12-19T07:51:50Z</time>
      </trkpt>
      <trkpt lat="49.8772" lon="2.31282">
        <ele>63.7</ele>
        <time>2023-12-19T07:51:51Z</time>
      </trkpt>
      <trkpt lat="49.87721" lon="2.3128">
        <ele>63.7</ele>
        <time>2023-12-19T07:51:52Z</time>
      </trkpt>
      <trkpt lat="49.87724" lon="2.31278">
        <ele>63.6</ele>
        <time>2023-12-19T07:51:53Z</time>
      </trkpt>
      <trkpt lat="49.87725" lon="2.31277">
        <ele>63.5</ele>
        <time>2023-12-19T07:51:54Z</time>
      </trkpt>
      <trkpt lat="49.87726" lon="2.31276">
        <ele>63.5</ele>
        <time>2023-12-19T07:51:55Z</time>
      </trkpt>
      <trkpt lat="49.87727" lon="2.31276">
        <ele>63.5</ele>
        <time>2023-12-19T07:51:56Z</time>
      </trkpt>
      <trkpt lat="49.87728" lon="2.31275">
        <ele>63.5</ele>
        <time>2023-12-19T07:51:58Z</time>
      </trkpt>
      <trkpt lat="49.87729" lon="2.31275">
        <ele>63.4</ele>
        <time>2023-12-19T07:51:59Z</time>
      </trkpt>
      <trkpt lat="49.8773" lon="2.31274">
        <ele>63.4</ele>
        <time>2023-12-19T07:52:00Z</time>
      </trkpt>
      <trkpt lat="49.87731" lon="2.31274">
        <ele>63.4</ele>
        <time>2023-12-19T07:52:01Z</time>
      </trkpt>
      <trkpt lat="49.87732" lon="2.31273">
        <ele>63.4</ele>
        <time>2023-12-19T07:52:02Z</time>
      </trkpt>
      <trkpt lat="49.87733" lon="2.31273">
        <ele>63.3</ele>
        <time>2023-12-19T07:52:03Z</time>
      </trkpt>
      <trkpt lat="49.87734" lon="2.31273">
        <ele>63.3</ele>
        <time>2023-12-19T07:52:04Z</time>
      </trkpt>
      <trkpt lat="49.87736" lon="2.31271">
        <ele>63.2</ele>
        <time>2023-12-19T07:52:05Z</time>
      </trkpt>
      <trkpt lat="49.87738" lon="2.3127">
        <ele>63.2</ele>
        <time>2023-12-19T07:52:07Z</time>
      </trkpt>
      <trkpt lat="49.8774" lon="2.31268">
        <ele>63.1</ele>
        <time>2023-12-19T07:52:08Z</time>
      </trkpt>
      <trkpt lat="49.87741" lon="2.31267">
        <ele>63.1</ele>
        <time>2023-12-19T07:52:09Z</time>
      </trkpt>
      <trkpt lat="49.87743" lon="2.31267">
        <ele>63</ele>
        <time>2023-12-19T07:52:10Z</time>
      </trkpt>
      <trkpt lat="49.87744" lon="2.31266">
        <ele>63</ele>
        <time>2023-12-19T07:52:11Z</time>
      </trkpt>
      <trkpt lat="49.87746" lon="2.31265">
        <ele>62.9</ele>
        <time>2023-12-19T07:52:12Z</time>
      </trkpt>
      <trkpt lat="49.87747" lon="2.31265">
        <ele>62.9</ele>
        <time>2023-12-19T07:52:13Z</time>
      </trkpt>
      <trkpt lat="49.87749" lon="2.31264">
        <ele>62.9</ele>
        <time>2023-12-19T07:52:14Z</time>
      </trkpt>
      <trkpt lat="49.8775" lon="2.31263">
        <ele>62.8</ele>
        <time>2023-12-19T07:52:15Z</time>
      </trkpt>
      <trkpt lat="49.87752" lon="2.31262">
        <ele>62.8</ele>
        <time>2023-12-19T07:52:17Z</time>
      </trkpt>
      <trkpt lat="49.87753" lon="2.31261">
        <ele>62.8</ele>
        <time>2023-12-19T07:52:18Z</time>
      </trkpt>
      <trkpt lat="49.87755" lon="2.3126">
        <ele>62.7</ele>
        <time>2023-12-19T07:52:19Z</time>
      </trkpt>
      <trkpt lat="49.87756" lon="2.31259">
        <ele>62.7</ele>
        <time>2023-12-19T07:52:20Z</time>
      </trkpt>
      <trkpt lat="49.87758" lon="2.31258">
        <ele>62.6</ele>
        <time>2023-12-19T07:52:21Z</time>
      </trkpt>
      <trkpt lat="49.87759" lon="2.31257">
        <ele>62.6</ele>
        <time>2023-12-19T07:52:22Z</time>
      </trkpt>
      <trkpt lat="49.8776" lon="2.31257">
        <ele>62.6</ele>
        <time>2023-12-19T07:52:23Z</time>
      </trkpt>
      <trkpt lat="49.87761" lon="2.31256">
        <ele>62.6</ele>
        <time>2023-12-19T07:52:24Z</time>
      </trkpt>
      <trkpt lat="49.87762" lon="2.31256">
        <ele>62.6</ele>
        <time>2023-12-19T07:52:25Z</time>
      </trkpt>
      <trkpt lat="49.87763" lon="2.31255">
        <ele>62.5</ele>
        <time>2023-12-19T07:52:27Z</time>
      </trkpt>
      <trkpt lat="49.87764" lon="2.31255">
        <ele>62.5</ele>
        <time>2023-12-19T07:52:28Z</time>
      </trkpt>
      <trkpt lat="49.87765" lon="2.31254">
        <ele>62.5</ele>
        <time>2023-12-19T07:52:29Z</time>
      </trkpt>
      <trkpt lat="49.87766" lon="2.31254">
        <ele>62.5</ele>
        <time>2023-12-19T07:52:30Z</time>
      </trkpt>
      <trkpt lat="49.87766" lon="2.31253">
        <ele>62.4</ele>
        <time>2023-12-19T07:52:32Z</time>
      </trkpt>
      <trkpt lat="49.87766" lon="2.31251">
        <ele>62.4</ele>
        <time>2023-12-19T07:52:33Z</time>
      </trkpt>
      <trkpt lat="49.87765" lon="2.3125">
        <ele>62.4</ele>
        <time>2023-12-19T07:52:34Z</time>
      </trkpt>
      <trkpt lat="49.87765" lon="2.31249">
        <ele>62.4</ele>
        <time>2023-12-19T07:52:36Z</time>
      </trkpt>
      <trkpt lat="49.87765" lon="2.31247">
        <ele>62.3</ele>
        <time>2023-12-19T07:52:37Z</time>
      </trkpt>
      <trkpt lat="49.87764" lon="2.31246">
        <ele>62.3</ele>
        <time>2023-12-19T07:52:38Z</time>
      </trkpt>
      <trkpt lat="49.87764" lon="2.31244">
        <ele>62.3</ele>
        <time>2023-12-19T07:52:39Z</time>
      </trkpt>
      <trkpt lat="49.87764" lon="2.31243">
        <ele>62.3</ele>
        <time>2023-12-19T07:52:40Z</time>
      </trkpt>
      <trkpt lat="49.87764" lon="2.31242">
        <ele>62.3</ele>
        <time>2023-12-19T07:52:41Z</time>
      </trkpt>
      <trkpt lat="49.87764" lon="2.31241">
        <ele>62.2</ele>
        <time>2023-12-19T07:52:42Z</time>
      </trkpt>
      <trkpt lat="49.87765" lon="2.3124">
        <ele>62.2</ele>
        <time>2023-12-19T07:52:43Z</time>
      </trkpt>
      <trkpt lat="49.87766" lon="2.31238">
        <ele>62.2</ele>
        <time>2023-12-19T07:52:45Z</time>
      </trkpt>
      <trkpt lat="49.87767" lon="2.31238">
        <ele>62.2</ele>
        <time>2023-12-19T07:52:46Z</time>
      </trkpt>
      <trkpt lat="49.87767" lon="2.31237">
        <ele>62.2</ele>
        <time>2023-12-19T07:52:47Z</time>
      </trkpt>
      <trkpt lat="49.87768" lon="2.31237">
        <ele>62.1</ele>
        <time>2023-12-19T07:52:48Z</time>
      </trkpt>
      <trkpt lat="49.87769" lon="2.31237">
        <ele>62.1</ele>
        <time>2023-12-19T07:52:49Z</time>
      </trkpt>
      <trkpt lat="49.8777" lon="2.31236">
        <ele>62.1</ele>
        <time>2023-12-19T07:52:50Z</time>
      </trkpt>
      <trkpt lat="49.87771" lon="2.31236">
        <ele>62.1</ele>
        <time>2023-12-19T07:52:51Z</time>
      </trkpt>
      <trkpt lat="49.87772" lon="2.31235">
        <ele>62.1</ele>
        <time>2023-12-19T07:52:52Z</time>
      </trkpt>
      <trkpt lat="49.87773" lon="2.31234">
        <ele>62</ele>
        <time>2023-12-19T07:52:54Z</time>
      </trkpt>
      <trkpt lat="49.87774" lon="2.31233">
        <ele>62</ele>
        <time>2023-12-19T07:52:55Z</time>
      </trkpt>
      <trkpt lat="49.87775" lon="2.31233">
        <ele>62</ele>
        <time>2023-12-19T07:52:56Z</time>
      </trkpt>
      <trkpt lat="49.87776" lon="2.31232">
        <ele>62</ele>
        <time>2023-12-19T07:52:57Z</time>
      </trkpt>
      <trkpt lat="49.87777" lon="2.31231">
        <ele>62</ele>
        <time>2023-12-19T07:52:58Z</time>
      </trkpt>
      <trkpt lat="49.87778" lon="2.31229">
        <ele>61.9</ele>
        <time>2023-12-19T07:52:59Z</time>
      </trkpt>
      <trkpt lat="49.87779" lon="2.31228">
        <ele>61.9</ele>
        <time>2023-12-19T07:53:00Z</time>
      </trkpt>
      <trkpt lat="49.87779" lon="2.31227">
        <ele>61.9</ele>
        <time>2023-12-19T07:53:01Z</time>
      </trkpt>
      <trkpt lat="49.87779" lon="2.31223">
        <ele>61.9</ele>
        <time>2023-12-19T07:53:02Z</time>
      </trkpt>
      <trkpt lat="49.87778" lon="2.31221">
        <ele>61.9</ele>
        <time>2023-12-19T07:53:03Z</time>
      </trkpt>
      <trkpt lat="49.87778" lon="2.31219">
        <ele>62</ele>
        <time>2023-12-19T07:53:05Z</time>
      </trkpt>
      <trkpt lat="49.87777" lon="2.31217">
        <ele>62</ele>
        <time>2023-12-19T07:53:06Z</time>
      </trkpt>
      <trkpt lat="49.87776" lon="2.31215">
        <ele>62</ele>
        <time>2023-12-19T07:53:07Z</time>
      </trkpt>
      <trkpt lat="49.87772" lon="2.3121">
        <ele>62</ele>
        <time>2023-12-19T07:53:08Z</time>
      </trkpt>
      <trkpt lat="49.8777" lon="2.31207">
        <ele>62</ele>
        <time>2023-12-19T07:53:09Z</time>
      </trkpt>
      <trkpt lat="49.87768" lon="2.31202">
        <ele>62.1</ele>
        <time>2023-12-19T07:53:10Z</time>
      </trkpt>
      <trkpt lat="49.87767" lon="2.31201">
        <ele>62.1</ele>
        <time>2023-12-19T07:53:11Z</time>
      </trkpt>
      <trkpt lat="49.87765" lon="2.31197">
        <ele>62.1</ele>
        <time>2023-12-19T07:53:12Z</time>
      </trkpt>
      <trkpt lat="49.87765" lon="2.31196">
        <ele>62.1</ele>
        <time>2023-12-19T07:53:13Z</time>
      </trkpt>
      <trkpt lat="49.87764" lon="2.31194">
        <ele>62.1</ele>
        <time>2023-12-19T07:53:15Z</time>
      </trkpt>
      <trkpt lat="49.87763" lon="2.31192">
        <ele>62.1</ele>
        <time>2023-12-19T07:53:16Z</time>
      </trkpt>
      <trkpt lat="49.87763" lon="2.3119">
        <ele>62.1</ele>
        <time>2023-12-19T07:53:17Z</time>
      </trkpt>
      <trkpt lat="49.87762" lon="2.31188">
        <ele>62.1</ele>
        <time>2023-12-19T07:53:18Z</time>
      </trkpt>
      <trkpt lat="49.87762" lon="2.31186">
        <ele>62.1</ele>
        <time>2023-12-19T07:53:20Z</time>
      </trkpt>
      <trkpt lat="49.87761" lon="2.31183">
        <ele>62.1</ele>
        <time>2023-12-19T07:53:21Z</time>
      </trkpt>
      <trkpt lat="49.87761" lon="2.31182">
        <ele>62.1</ele>
        <time>2023-12-19T07:53:22Z</time>
      </trkpt>
      <trkpt lat="49.87761" lon="2.3118">
        <ele>62.1</ele>
        <time>2023-12-19T07:53:23Z</time>
      </trkpt>
      <trkpt lat="49.8776" lon="2.31178">
        <ele>62.1</ele>
        <time>2023-12-19T07:53:24Z</time>
      </trkpt>
      <trkpt lat="49.8776" lon="2.31175">
        <ele>62.1</ele>
        <time>2023-12-19T07:53:25Z</time>
      </trkpt>
      <trkpt lat="49.8776" lon="2.31174">
        <ele>62.1</ele>
        <time>2023-12-19T07:53:26Z</time>
      </trkpt>
      <trkpt lat="49.8776" lon="2.31173">
        <ele>62.1</ele>
        <time>2023-12-19T07:53:27Z</time>
      </trkpt>
      <trkpt lat="49.87758" lon="2.31169">
        <ele>62.1</ele>
        <time>2023-12-19T07:53:28Z</time>
      </trkpt>
      <trkpt lat="49.87758" lon="2.31168">
        <ele>62.1</ele>
        <time>2023-12-19T07:53:30Z</time>
      </trkpt>
      <trkpt lat="49.87757" lon="2.31166">
        <ele>62.2</ele>
        <time>2023-12-19T07:53:31Z</time>
      </trkpt>
      <trkpt lat="49.87757" lon="2.31165">
        <ele>62.2</ele>
        <time>2023-12-19T07:53:32Z</time>
      </trkpt>
      <trkpt lat="49.87756" lon="2.31163">
        <ele>62.2</ele>
        <time>2023-12-19T07:53:33Z</time>
      </trkpt>
      <trkpt lat="49.87755" lon="2.31161">
        <ele>62.2</ele>
        <time>2023-12-19T07:53:34Z</time>
      </trkpt>
      <trkpt lat="49.87754" lon="2.31159">
        <ele>62.2</ele>
        <time>2023-12-19T07:53:35Z</time>
      </trkpt>
      <trkpt lat="49.87754" lon="2.31157">
        <ele>62.2</ele>
        <time>2023-12-19T07:53:36Z</time>
      </trkpt>
      <trkpt lat="49.87753" lon="2.31155">
        <ele>62.2</ele>
        <time>2023-12-19T07:53:37Z</time>
      </trkpt>
      <trkpt lat="49.87752" lon="2.31153">
        <ele>62.2</ele>
        <time>2023-12-19T07:53:38Z</time>
      </trkpt>
      <trkpt lat="49.87751" lon="2.31151">
        <ele>62.2</ele>
        <time>2023-12-19T07:53:40Z</time>
      </trkpt>
      <trkpt lat="49.87751" lon="2.31149">
        <ele>62.2</ele>
        <time>2023-12-19T07:53:41Z</time>
      </trkpt>
      <trkpt lat="49.87751" lon="2.31148">
        <ele>62.2</ele>
        <time>2023-12-19T07:53:42Z</time>
      </trkpt>
      <trkpt lat="49.8775" lon="2.31146">
        <ele>62.2</ele>
        <time>2023-12-19T07:53:43Z</time>
      </trkpt>
      <trkpt lat="49.87749" lon="2.31145">
        <ele>62.2</ele>
        <time>2023-12-19T07:53:44Z</time>
      </trkpt>
      <trkpt lat="49.87748" lon="2.31143">
        <ele>62.2</ele>
        <time>2023-12-19T07:53:45Z</time>
      </trkpt>
      <trkpt lat="49.87749" lon="2.31142">
        <ele>62.2</ele>
        <time>2023-12-19T07:53:46Z</time>
      </trkpt>
      <trkpt lat="49.8775" lon="2.31138">
        <ele>62.2</ele>
        <time>2023-12-19T07:53:48Z</time>
      </trkpt>
      <trkpt lat="49.8775" lon="2.31137">
        <ele>62.2</ele>
        <time>2023-12-19T07:53:49Z</time>
      </trkpt>
      <trkpt lat="49.8775" lon="2.31136">
        <ele>62.2</ele>
        <time>2023-12-19T07:53:50Z</time>
      </trkpt>
      <trkpt lat="49.87751" lon="2.31133">
        <ele>62.2</ele>
        <time>2023-12-19T07:53:51Z</time>
      </trkpt>
      <trkpt lat="49.87751" lon="2.31131">
        <ele>62.2</ele>
        <time>2023-12-19T07:53:52Z</time>
      </trkpt>
      <trkpt lat="49.8775" lon="2.31128">
        <ele>62.2</ele>
        <time>2023-12-19T07:53:53Z</time>
      </trkpt>
      <trkpt lat="49.87749" lon="2.31126">
        <ele>62.2</ele>
        <time>2023-12-19T07:53:54Z</time>
      </trkpt>
      <trkpt lat="49.87748" lon="2.31123">
        <ele>62.2</ele>
        <time>2023-12-19T07:53:55Z</time>
      </trkpt>
      <trkpt lat="49.87748" lon="2.31121">
        <ele>62.2</ele>
        <time>2023-12-19T07:53:57Z</time>
      </trkpt>
      <trkpt lat="49.87747" lon="2.31119">
        <ele>62.2</ele>
        <time>2023-12-19T07:53:58Z</time>
      </trkpt>
      <trkpt lat="49.87746" lon="2.31118">
        <ele>62.2</ele>
        <time>2023-12-19T07:53:59Z</time>
      </trkpt>
      <trkpt lat="49.87745" lon="2.31115">
        <ele>62.2</ele>
        <time>2023-12-19T07:54:00Z</time>
      </trkpt>
      <trkpt lat="49.87744" lon="2.31114">
        <ele>62.2</ele>
        <time>2023-12-19T07:54:01Z</time>
      </trkpt>
      <trkpt lat="49.87744" lon="2.31113">
        <ele>62.2</ele>
        <time>2023-12-19T07:54:02Z</time>
      </trkpt>
      <trkpt lat="49.87743" lon="2.31111">
        <ele>62.2</ele>
        <time>2023-12-19T07:54:03Z</time>
      </trkpt>
      <trkpt lat="49.87743" lon="2.3111">
        <ele>62.2</ele>
        <time>2023-12-19T07:54:05Z</time>
      </trkpt>
      <trkpt lat="49.87743" lon="2.31109">
        <ele>62.2</ele>
        <time>2023-12-19T07:54:06Z</time>
      </trkpt>
      <trkpt lat="49.87744" lon="2.31106">
        <ele>62.2</ele>
        <time>2023-12-19T07:54:07Z</time>
      </trkpt>
      <trkpt lat="49.87744" lon="2.31105">
        <ele>62.2</ele>
        <time>2023-12-19T07:54:08Z</time>
      </trkpt>
      <trkpt lat="49.87745" lon="2.31103">
        <ele>62.2</ele>
        <time>2023-12-19T07:54:09Z</time>
      </trkpt>
      <trkpt lat="49.87746" lon="2.31101">
        <ele>62.2</ele>
        <time>2023-12-19T07:54:10Z</time>
      </trkpt>
      <trkpt lat="49.87747" lon="2.31099">
        <ele>62.2</ele>
        <time>2023-12-19T07:54:11Z</time>
      </trkpt>
      <trkpt lat="49.87748" lon="2.31096">
        <ele>62.2</ele>
        <time>2023-12-19T07:54:12Z</time>
      </trkpt>
      <trkpt lat="49.87749" lon="2.31094">
        <ele>62.2</ele>
        <time>2023-12-19T07:54:14Z</time>
      </trkpt>
      <trkpt lat="49.87749" lon="2.31092">
        <ele>62.2</ele>
        <time>2023-12-19T07:54:15Z</time>
      </trkpt>
      <trkpt lat="49.87751" lon="2.31091">
        <ele>62.2</ele>
        <time>2023-12-19T07:54:16Z</time>
      </trkpt>
      <trkpt lat="49.87752" lon="2.31089">
        <ele>62.2</ele>
        <time>2023-12-19T07:54:17Z</time>
      </trkpt>
      <trkpt lat="49.87752" lon="2.31088">
        <ele>62.2</ele>
        <time>2023-12-19T07:54:18Z</time>
      </trkpt>
      <trkpt lat="49.8775" lon="2.31087">
        <ele>62.2</ele>
        <time>2023-12-19T07:54:19Z</time>
      </trkpt>
      <trkpt lat="49.87747" lon="2.31086">
        <ele>62.2</ele>
        <time>2023-12-19T07:54:20Z</time>
      </trkpt>
      <trkpt lat="49.87745" lon="2.31086">
        <ele>62.2</ele>
        <time>2023-12-19T07:54:21Z</time>
      </trkpt>
      <trkpt lat="49.87743" lon="2.31086">
        <ele>62.2</ele>
        <time>2023-12-19T07:54:23Z</time>
      </trkpt>
      <trkpt lat="49.87741" lon="2.31086">
        <ele>62.2</ele>
        <time>2023-12-19T07:54:24Z</time>
      </trkpt>
      <trkpt lat="49.8774" lon="2.31085">
        <ele>62.2</ele>
        <time>2023-12-19T07:54:25Z</time>
      </trkpt>
      <trkpt lat="49.87738" lon="2.31085">
        <ele>62.2</ele>
        <time>2023-12-19T07:54:26Z</time>
      </trkpt>
      <trkpt lat="49.87737" lon="2.31084">
        <ele>62.2</ele>
        <time>2023-12-19T07:54:27Z</time>
      </trkpt>
      <trkpt lat="49.87736" lon="2.31084">
        <ele>62.2</ele>
        <time>2023-12-19T07:54:28Z</time>
      </trkpt>
      <trkpt lat="49.87737" lon="2.31081">
        <ele>62.2</ele>
        <time>2023-12-19T07:54:29Z</time>
      </trkpt>
      <trkpt lat="49.87739" lon="2.31079">
        <ele>62.2</ele>
        <time>2023-12-19T07:54:31Z</time>
      </trkpt>
      <trkpt lat="49.8774" lon="2.31077">
        <ele>62.2</ele>
        <time>2023-12-19T07:54:32Z</time>
      </trkpt>
      <trkpt lat="49.87739" lon="2.31076">
        <ele>62.2</ele>
        <time>2023-12-19T07:54:33Z</time>
      </trkpt>
      <trkpt lat="49.87738" lon="2.31075">
        <ele>62.2</ele>
        <time>2023-12-19T07:54:34Z</time>
      </trkpt>
      <trkpt lat="49.87737" lon="2.31075">
        <ele>62.2</ele>
        <time>2023-12-19T07:54:35Z</time>
      </trkpt>
      <trkpt lat="49.87737" lon="2.31075">
        <ele>62.2</ele>
        <time>2023-12-19T07:54:36Z</time>
      </trkpt>
      <trkpt lat="49.87735" lon="2.31074">
        <ele>62.2</ele>
        <time>2023-12-19T07:54:38Z</time>
      </trkpt>
      <trkpt lat="49.87736" lon="2.31073">
        <ele>62.2</ele>
        <time>2023-12-19T07:54:39Z</time>
      </trkpt>
      <trkpt lat="49.87736" lon="2.31072">
        <ele>62.1</ele>
        <time>2023-12-19T07:54:40Z</time>
      </trkpt>
      <trkpt lat="49.87738" lon="2.31069">
        <ele>62.1</ele>
        <time>2023-12-19T07:54:41Z</time>
      </trkpt>
      <trkpt lat="49.87738" lon="2.31067">
        <ele>62.1</ele>
        <time>2023-12-19T07:54:42Z</time>
      </trkpt>
      <trkpt lat="49.87739" lon="2.31066">
        <ele>62.1</ele>
        <time>2023-12-19T07:54:43Z</time>
      </trkpt>
      <trkpt lat="49.87739" lon="2.31064">
        <ele>62.1</ele>
        <time>2023-12-19T07:54:44Z</time>
      </trkpt>
      <trkpt lat="49.8774" lon="2.31061">
        <ele>62.1</ele>
        <time>2023-12-19T07:54:45Z</time>
      </trkpt>
      <trkpt lat="49.8774" lon="2.31059">
        <ele>62.1</ele>
        <time>2023-12-19T07:54:47Z</time>
      </trkpt>
      <trkpt lat="49.8774" lon="2.31056">
        <ele>62.1</ele>
        <time>2023-12-19T07:54:48Z</time>
      </trkpt>
      <trkpt lat="49.8774" lon="2.31054">
        <ele>62.1</ele>
        <time>2023-12-19T07:54:49Z</time>
      </trkpt>
      <trkpt lat="49.87741" lon="2.31053">
        <ele>62.1</ele>
        <time>2023-12-19T07:54:50Z</time>
      </trkpt>
      <trkpt lat="49.87741" lon="2.31051">
        <ele>62.1</ele>
        <time>2023-12-19T07:54:51Z</time>
      </trkpt>
      <trkpt lat="49.87741" lon="2.31049">
        <ele>62.1</ele>
        <time>2023-12-19T07:54:52Z</time>
      </trkpt>
      <trkpt lat="49.87743" lon="2.31047">
        <ele>62.1</ele>
        <time>2023-12-19T07:54:53Z</time>
      </trkpt>
      <trkpt lat="49.87743" lon="2.31046">
        <ele>62.1</ele>
        <time>2023-12-19T07:54:54Z</time>
      </trkpt>
      <trkpt lat="49.87744" lon="2.31045">
        <ele>62.1</ele>
        <time>2023-12-19T07:54:56Z</time>
      </trkpt>
      <trkpt lat="49.87745" lon="2.31044">
        <ele>62.1</ele>
        <time>2023-12-19T07:54:57Z</time>
      </trkpt>
      <trkpt lat="49.87746" lon="2.31043">
        <ele>62.1</ele>
        <time>2023-12-19T07:54:58Z</time>
      </trkpt>
      <trkpt lat="49.87747" lon="2.31042">
        <ele>62.1</ele>
        <time>2023-12-19T07:54:59Z</time>
      </trkpt>
      <trkpt lat="49.87748" lon="2.31042">
        <ele>62.1</ele>
        <time>2023-12-19T07:55:00Z</time>
      </trkpt>
      <trkpt lat="49.87749" lon="2.31041">
        <ele>62.1</ele>
        <time>2023-12-19T07:55:01Z</time>
      </trkpt>
      <trkpt lat="49.8775" lon="2.31039">
        <ele>62.1</ele>
        <time>2023-12-19T07:55:02Z</time>
      </trkpt>
      <trkpt lat="49.8775" lon="2.31037">
        <ele>62</ele>
        <time>2023-12-19T07:55:04Z</time>
      </trkpt>
      <trkpt lat="49.87751" lon="2.31036">
        <ele>62</ele>
        <time>2023-12-19T07:55:05Z</time>
      </trkpt>
      <trkpt lat="49.87752" lon="2.31035">
        <ele>62</ele>
        <time>2023-12-19T07:55:06Z</time>
      </trkpt>
      <trkpt lat="49.87753" lon="2.31034">
        <ele>62</ele>
        <time>2023-12-19T07:55:07Z</time>
      </trkpt>
      <trkpt lat="49.87754" lon="2.31033">
        <ele>62</ele>
        <time>2023-12-19T07:55:08Z</time>
      </trkpt>
      <trkpt lat="49.87756" lon="2.31032">
        <ele>62</ele>
        <time>2023-12-19T07:55:09Z</time>
      </trkpt>
      <trkpt lat="49.87756" lon="2.31032">
        <ele>62</ele>
        <time>2023-12-19T07:55:10Z</time>
      </trkpt>
      <trkpt lat="49.87757" lon="2.31031">
        <ele>62</ele>
        <time>2023-12-19T07:55:11Z</time>
      </trkpt>
      <trkpt lat="49.87759" lon="2.3103">
        <ele>62</ele>
        <time>2023-12-19T07:55:13Z</time>
      </trkpt>
      <trkpt lat="49.8776" lon="2.3103">
        <ele>62</ele>
        <time>2023-12-19T07:55:14Z</time>
      </trkpt>
      <trkpt lat="49.87761" lon="2.31029">
        <ele>62</ele>
        <time>2023-12-19T07:55:15Z</time>
      </trkpt>
      <trkpt lat="49.87762" lon="2.31029">
        <ele>62</ele>
        <time>2023-12-19T07:55:16Z</time>
      </trkpt>
      <trkpt lat="49.87763" lon="2.31027">
        <ele>62</ele>
        <time>2023-12-19T07:55:17Z</time>
      </trkpt>
      <trkpt lat="49.87763" lon="2.31026">
        <ele>62</ele>
        <time>2023-12-19T07:55:18Z</time>
      </trkpt>
      <trkpt lat="49.87764" lon="2.31025">
        <ele>62</ele>
        <time>2023-12-19T07:55:19Z</time>
      </trkpt>
      <trkpt lat="49.87765" lon="2.31023">
        <ele>62</ele>
        <time>2023-12-19T07:55:20Z</time>
      </trkpt>
      <trkpt lat="49.87766" lon="2.31022">
        <ele>62</ele>
        <time>2023-12-19T07:55:22Z</time>
      </trkpt>
      <trkpt lat="49.87767" lon="2.31019">
        <ele>62</ele>
        <time>2023-12-19T07:55:23Z</time>
      </trkpt>
      <trkpt lat="49.87768" lon="2.31018">
        <ele>62</ele>
        <time>2023-12-19T07:55:24Z</time>
      </trkpt>
      <trkpt lat="49.87768" lon="2.31017">
        <ele>62</ele>
        <time>2023-12-19T07:55:25Z</time>
      </trkpt>
      <trkpt lat="49.87769" lon="2.31015">
        <ele>62</ele>
        <time>2023-12-19T07:55:26Z</time>
      </trkpt>
      <trkpt lat="49.8777" lon="2.31013">
        <ele>62</ele>
        <time>2023-12-19T07:55:27Z</time>
      </trkpt>
      <trkpt lat="49.87771" lon="2.31011">
        <ele>62</ele>
        <time>2023-12-19T07:55:28Z</time>
      </trkpt>
      <trkpt lat="49.87772" lon="2.3101">
        <ele>62</ele>
        <time>2023-12-19T07:55:29Z</time>
      </trkpt>
      <trkpt lat="49.87773" lon="2.31008">
        <ele>61.9</ele>
        <time>2023-12-19T07:55:31Z</time>
      </trkpt>
      <trkpt lat="49.87773" lon="2.31007">
        <ele>61.9</ele>
        <time>2023-12-19T07:55:32Z</time>
      </trkpt>
      <trkpt lat="49.87774" lon="2.31005">
        <ele>61.9</ele>
        <time>2023-12-19T07:55:33Z</time>
      </trkpt>
      <trkpt lat="49.87775" lon="2.31003">
        <ele>61.9</ele>
        <time>2023-12-19T07:55:34Z</time>
      </trkpt>
      <trkpt lat="49.87776" lon="2.31002">
        <ele>61.9</ele>
        <time>2023-12-19T07:55:35Z</time>
      </trkpt>
      <trkpt lat="49.87776" lon="2.31001">
        <ele>61.9</ele>
        <time>2023-12-19T07:55:36Z</time>
      </trkpt>
      <trkpt lat="49.87778" lon="2.30999">
        <ele>61.9</ele>
        <time>2023-12-19T07:55:38Z</time>
      </trkpt>
      <trkpt lat="49.87779" lon="2.30998">
        <ele>61.9</ele>
        <time>2023-12-19T07:55:39Z</time>
      </trkpt>
      <trkpt lat="49.87779" lon="2.30997">
        <ele>61.9</ele>
        <time>2023-12-19T07:55:40Z</time>
      </trkpt>
      <trkpt lat="49.87779" lon="2.30997">
        <ele>61.9</ele>
        <time>2023-12-19T07:55:41Z</time>
      </trkpt>
      <trkpt lat="49.87783" lon="2.30993">
        <ele>61.9</ele>
        <time>2023-12-19T07:55:43Z</time>
      </trkpt>
      <trkpt lat="49.87782" lon="2.30993">
        <ele>61.9</ele>
        <time>2023-12-19T07:55:44Z</time>
      </trkpt>
      <trkpt lat="49.87782" lon="2.30992">
        <ele>61.9</ele>
        <time>2023-12-19T07:55:46Z</time>
      </trkpt>
      <trkpt lat="49.87783" lon="2.30993">
        <ele>61.8</ele>
        <time>2023-12-19T07:55:47Z</time>
      </trkpt>
      <trkpt lat="49.87783" lon="2.30994">
        <ele>61.8</ele>
        <time>2023-12-19T07:55:48Z</time>
      </trkpt>
      <trkpt lat="49.87783" lon="2.30994">
        <ele>61.8</ele>
        <time>2023-12-19T07:55:49Z</time>
      </trkpt>
      <trkpt lat="49.87784" lon="2.30994">
        <ele>61.8</ele>
        <time>2023-12-19T07:55:50Z</time>
      </trkpt>
      <trkpt lat="49.87785" lon="2.30993">
        <ele>61.8</ele>
        <time>2023-12-19T07:55:51Z</time>
      </trkpt>
      <trkpt lat="49.87787" lon="2.30993">
        <ele>61.8</ele>
        <time>2023-12-19T07:55:53Z</time>
      </trkpt>
      <trkpt lat="49.87788" lon="2.30993">
        <ele>61.8</ele>
        <time>2023-12-19T07:55:54Z</time>
      </trkpt>
      <trkpt lat="49.87789" lon="2.30993">
        <ele>61.7</ele>
        <time>2023-12-19T07:55:55Z</time>
      </trkpt>
      <trkpt lat="49.8779" lon="2.30992">
        <ele>61.7</ele>
        <time>2023-12-19T07:55:56Z</time>
      </trkpt>
      <trkpt lat="49.87792" lon="2.30992">
        <ele>61.7</ele>
        <time>2023-12-19T07:55:57Z</time>
      </trkpt>
      <trkpt lat="49.87793" lon="2.30992">
        <ele>61.7</ele>
        <time>2023-12-19T07:55:58Z</time>
      </trkpt>
      <trkpt lat="49.87795" lon="2.30992">
        <ele>61.6</ele>
        <time>2023-12-19T07:56:00Z</time>
      </trkpt>
      <trkpt lat="49.87796" lon="2.30992">
        <ele>61.6</ele>
        <time>2023-12-19T07:56:01Z</time>
      </trkpt>
      <trkpt lat="49.87798" lon="2.30992">
        <ele>61.6</ele>
        <time>2023-12-19T07:56:02Z</time>
      </trkpt>
      <trkpt lat="49.87799" lon="2.30992">
        <ele>61.6</ele>
        <time>2023-12-19T07:56:03Z</time>
      </trkpt>
      <trkpt lat="49.87801" lon="2.30992">
        <ele>61.5</ele>
        <time>2023-12-19T07:56:04Z</time>
      </trkpt>
      <trkpt lat="49.87802" lon="2.30992">
        <ele>61.5</ele>
        <time>2023-12-19T07:56:05Z</time>
      </trkpt>
      <trkpt lat="49.87803" lon="2.30992">
        <ele>61.5</ele>
        <time>2023-12-19T07:56:06Z</time>
      </trkpt>
      <trkpt lat="49.87806" lon="2.30991">
        <ele>61.5</ele>
        <time>2023-12-19T07:56:08Z</time>
      </trkpt>
      <trkpt lat="49.87807" lon="2.30991">
        <ele>61.5</ele>
        <time>2023-12-19T07:56:09Z</time>
      </trkpt>
      <trkpt lat="49.87809" lon="2.30991">
        <ele>61.5</ele>
        <time>2023-12-19T07:56:10Z</time>
      </trkpt>
      <trkpt lat="49.8781" lon="2.30991">
        <ele>61.5</ele>
        <time>2023-12-19T07:56:11Z</time>
      </trkpt>
      <trkpt lat="49.87812" lon="2.30991">
        <ele>61.5</ele>
        <time>2023-12-19T07:56:12Z</time>
      </trkpt>
      <trkpt lat="49.87813" lon="2.30992">
        <ele>61.5</ele>
        <time>2023-12-19T07:56:13Z</time>
      </trkpt>
      <trkpt lat="49.87815" lon="2.30992">
        <ele>61.5</ele>
        <time>2023-12-19T07:56:14Z</time>
      </trkpt>
      <trkpt lat="49.87817" lon="2.30992">
        <ele>61.5</ele>
        <time>2023-12-19T07:56:15Z</time>
      </trkpt>
      <trkpt lat="49.87818" lon="2.30992">
        <ele>61.5</ele>
        <time>2023-12-19T07:56:17Z</time>
      </trkpt>
      <trkpt lat="49.8782" lon="2.30992">
        <ele>61.5</ele>
        <time>2023-12-19T07:56:18Z</time>
      </trkpt>
      <trkpt lat="49.87821" lon="2.30992">
        <ele>61.5</ele>
        <time>2023-12-19T07:56:19Z</time>
      </trkpt>
      <trkpt lat="49.87822" lon="2.30992">
        <ele>61.5</ele>
        <time>2023-12-19T07:56:20Z</time>
      </trkpt>
      <trkpt lat="49.87823" lon="2.30992">
        <ele>61.5</ele>
        <time>2023-12-19T07:56:21Z</time>
      </trkpt>
      <trkpt lat="49.87823" lon="2.30989">
        <ele>61.5</ele>
        <time>2023-12-19T07:56:23Z</time>
      </trkpt>
      <trkpt lat="49.87824" lon="2.30988">
        <ele>61.5</ele>
        <time>2023-12-19T07:56:25Z</time>
      </trkpt>
      <trkpt lat="49.87824" lon="2.30986">
        <ele>61.5</ele>
        <time>2023-12-19T07:56:26Z</time>
      </trkpt>
      <trkpt lat="49.87822" lon="2.30984">
        <ele>61.5</ele>
        <time>2023-12-19T07:56:27Z</time>
      </trkpt>
      <trkpt lat="49.8782" lon="2.30982">
        <ele>61.5</ele>
        <time>2023-12-19T07:56:28Z</time>
      </trkpt>
      <trkpt lat="49.87819" lon="2.3098">
        <ele>61.5</ele>
        <time>2023-12-19T07:56:29Z</time>
      </trkpt>
      <trkpt lat="49.87818" lon="2.30977">
        <ele>61.6</ele>
        <time>2023-12-19T07:56:30Z</time>
      </trkpt>
      <trkpt lat="49.87817" lon="2.30975">
        <ele>61.6</ele>
        <time>2023-12-19T07:56:32Z</time>
      </trkpt>
      <trkpt lat="49.87816" lon="2.30974">
        <ele>61.6</ele>
        <time>2023-12-19T07:56:33Z</time>
      </trkpt>
      <trkpt lat="49.87815" lon="2.30972">
        <ele>61.6</ele>
        <time>2023-12-19T07:56:34Z</time>
      </trkpt>
      <trkpt lat="49.87814" lon="2.30971">
        <ele>61.7</ele>
        <time>2023-12-19T07:56:35Z</time>
      </trkpt>
      <trkpt lat="49.87813" lon="2.30969">
        <ele>61.7</ele>
        <time>2023-12-19T07:56:36Z</time>
      </trkpt>
      <trkpt lat="49.8781" lon="2.30964">
        <ele>61.7</ele>
        <time>2023-12-19T07:56:37Z</time>
      </trkpt>
      <trkpt lat="49.8781" lon="2.30963">
        <ele>61.7</ele>
        <time>2023-12-19T07:56:39Z</time>
      </trkpt>
      <trkpt lat="49.87809" lon="2.30961">
        <ele>61.8</ele>
        <time>2023-12-19T07:56:40Z</time>
      </trkpt>
      <trkpt lat="49.87809" lon="2.30959">
        <ele>61.8</ele>
        <time>2023-12-19T07:56:41Z</time>
      </trkpt>
      <trkpt lat="49.8781" lon="2.30957">
        <ele>61.8</ele>
        <time>2023-12-19T07:56:42Z</time>
      </trkpt>
      <trkpt lat="49.87809" lon="2.30955">
        <ele>61.8</ele>
        <time>2023-12-19T07:56:43Z</time>
      </trkpt>
      <trkpt lat="49.8781" lon="2.30953">
        <ele>61.8</ele>
        <time>2023-12-19T07:56:44Z</time>
      </trkpt>
      <trkpt lat="49.8781" lon="2.30952">
        <ele>61.8</ele>
        <time>2023-12-19T07:56:45Z</time>
      </trkpt>
      <trkpt lat="49.87811" lon="2.3095">
        <ele>61.9</ele>
        <time>2023-12-19T07:56:46Z</time>
      </trkpt>
      <trkpt lat="49.87814" lon="2.30949">
        <ele>61.9</ele>
        <time>2023-12-19T07:56:50Z</time>
      </trkpt>
      <trkpt lat="49.87817" lon="2.30949">
        <ele>61.9</ele>
        <time>2023-12-19T07:56:53Z</time>
      </trkpt>
      <trkpt lat="49.87819" lon="2.30949">
        <ele>61.8</ele>
        <time>2023-12-19T07:56:54Z</time>
      </trkpt>
      <trkpt lat="49.87822" lon="2.3095">
        <ele>61.8</ele>
        <time>2023-12-19T07:56:55Z</time>
      </trkpt>
      <trkpt lat="49.87822" lon="2.30948">
        <ele>61.8</ele>
        <time>2023-12-19T07:56:56Z</time>
      </trkpt>
      <trkpt lat="49.87822" lon="2.30947">
        <ele>61.8</ele>
        <time>2023-12-19T07:56:57Z</time>
      </trkpt>
      <trkpt lat="49.87822" lon="2.30945">
        <ele>61.8</ele>
        <time>2023-12-19T07:56:58Z</time>
      </trkpt>
      <trkpt lat="49.87821" lon="2.30942">
        <ele>61.8</ele>
        <time>2023-12-19T07:57:00Z</time>
      </trkpt>
      <trkpt lat="49.87821" lon="2.3094">
        <ele>61.8</ele>
        <time>2023-12-19T07:57:01Z</time>
      </trkpt>
      <trkpt lat="49.8782" lon="2.30938">
        <ele>61.8</ele>
        <time>2023-12-19T07:57:02Z</time>
      </trkpt>
      <trkpt lat="49.87819" lon="2.30936">
        <ele>61.8</ele>
        <time>2023-12-19T07:57:03Z</time>
      </trkpt>
      <trkpt lat="49.87819" lon="2.30935">
        <ele>61.8</ele>
        <time>2023-12-19T07:57:04Z</time>
      </trkpt>
      <trkpt lat="49.87819" lon="2.30935">
        <ele>61.8</ele>
        <time>2023-12-19T07:57:05Z</time>
      </trkpt>
      <trkpt lat="49.87818" lon="2.30935">
        <ele>61.8</ele>
        <time>2023-12-19T07:57:07Z</time>
      </trkpt>
      <trkpt lat="49.87818" lon="2.30936">
        <ele>61.8</ele>
        <time>2023-12-19T07:57:08Z</time>
      </trkpt>
      <trkpt lat="49.87817" lon="2.30938">
        <ele>61.8</ele>
        <time>2023-12-19T07:57:10Z</time>
      </trkpt>
      <trkpt lat="49.87817" lon="2.30939">
        <ele>61.8</ele>
        <time>2023-12-19T07:57:11Z</time>
      </trkpt>
      <trkpt lat="49.87816" lon="2.30941">
        <ele>61.8</ele>
        <time>2023-12-19T07:57:12Z</time>
      </trkpt>
      <trkpt lat="49.87816" lon="2.3094">
        <ele>61.8</ele>
        <time>2023-12-19T07:57:14Z</time>
      </trkpt>
      <trkpt lat="49.87816" lon="2.30939">
        <ele>61.8</ele>
        <time>2023-12-19T07:57:15Z</time>
      </trkpt>
      <trkpt lat="49.87816" lon="2.30938">
        <ele>61.8</ele>
        <time>2023-12-19T07:57:17Z</time>
      </trkpt>
      <trkpt lat="49.87816" lon="2.30938">
        <ele>61.8</ele>
        <time>2023-12-19T07:57:18Z</time>
      </trkpt>
      <trkpt lat="49.87816" lon="2.30937">
        <ele>61.8</ele>
        <time>2023-12-19T07:57:33Z</time>
      </trkpt>
      <trkpt lat="49.87816" lon="2.30936">
        <ele>61.8</ele>
        <time>2023-12-19T07:57:35Z</time>
      </trkpt>
      <trkpt lat="49.87816" lon="2.30935">
        <ele>61.8</ele>
        <time>2023-12-19T07:57:42Z</time>
      </trkpt>
      <trkpt lat="49.87816" lon="2.30935">
        <ele>61.8</ele>
        <time>2023-12-19T07:57:49Z</time>
      </trkpt>
      <trkpt lat="49.87816" lon="2.30934">
        <ele>61.8</ele>
        <time>2023-12-19T07:57:50Z</time>
      </trkpt>
      <trkpt lat="49.87816" lon="2.30933">
        <ele>61.8</ele>
        <time>2023-12-19T07:57:51Z</time>
      </trkpt>
      <trkpt lat="49.87816" lon="2.30932">
        <ele>61.8</ele>
        <time>2023-12-19T07:57:52Z</time>
      </trkpt>
      <trkpt lat="49.87816" lon="2.30932">
        <ele>61.8</ele>
        <time>2023-12-19T07:57:53Z</time>
      </trkpt>
      <trkpt lat="49.87816" lon="2.30931">
        <ele>61.8</ele>
        <time>2023-12-19T07:57:58Z</time>
      </trkpt>
      <trkpt lat="49.87816" lon="2.3093">
        <ele>61.8</ele>
        <time>2023-12-19T07:57:59Z</time>
      </trkpt>
      <trkpt lat="49.87816" lon="2.3093">
        <ele>61.8</ele>
        <time>2023-12-19T07:58:01Z</time>
      </trkpt>
      <trkpt lat="49.87816" lon="2.30929">
        <ele>61.8</ele>
        <time>2023-12-19T07:58:08Z</time>
      </trkpt>
      <trkpt lat="49.87816" lon="2.30928">
        <ele>61.8</ele>
        <time>2023-12-19T07:58:10Z</time>
      </trkpt>
      <trkpt lat="49.87816" lon="2.30927">
        <ele>61.8</ele>
        <time>2023-12-19T07:58:12Z</time>
      </trkpt>
      <trkpt lat="49.87816" lon="2.30927">
        <ele>61.8</ele>
        <time>2023-12-19T07:58:13Z</time>
      </trkpt>
      <trkpt lat="49.87816" lon="2.30926">
        <ele>61.8</ele>
        <time>2023-12-19T07:58:14Z</time>
      </trkpt>
      <trkpt lat="49.87816" lon="2.30925">
        <ele>61.8</ele>
        <time>2023-12-19T07:58:18Z</time>
      </trkpt>
      <trkpt lat="49.87816" lon="2.30924">
        <ele>61.8</ele>
        <time>2023-12-19T07:58:48Z</time>
      </trkpt>
      <trkpt lat="49.87816" lon="2.30924">
        <ele>61.8</ele>
        <time>2023-12-19T07:58:53Z</time>
      </trkpt>
      <trkpt lat="49.87816" lon="2.30923">
        <ele>61.8</ele>
        <time>2023-12-19T07:59:03Z</time>
      </trkpt>
      <trkpt lat="49.87816" lon="2.30922">
        <ele>61.8</ele>
        <time>2023-12-19T07:59:13Z</time>
      </trkpt>
      <trkpt lat="49.87816" lon="2.30921">
        <ele>61.8</ele>
        <time>2023-12-19T07:59:18Z</time>
      </trkpt>
      <trkpt lat="49.87816" lon="2.30921">
        <ele>61.8</ele>
        <time>2023-12-19T07:59:59Z</time>
      </trkpt>
      <trkpt lat="49.87816" lon="2.3092">
        <ele>61.8</ele>
        <time>2023-12-19T08:00:06Z</time>
      </trkpt>
      <trkpt lat="49.87816" lon="2.30919">
        <ele>61.8</ele>
        <time>2023-12-19T08:00:27Z</time>
      </trkpt>
      <trkpt lat="49.87816" lon="2.30918">
        <ele>61.8</ele>
        <time>2023-12-19T08:00:32Z</time>
      </trkpt>
      <trkpt lat="49.87816" lon="2.30918">
        <ele>61.8</ele>
        <time>2023-12-19T08:00:37Z</time>
      </trkpt>
      <trkpt lat="49.87816" lon="2.30917">
        <ele>61.8</ele>
        <time>2023-12-19T08:00:42Z</time>
      </trkpt>
      <trkpt lat="49.87816" lon="2.30916">
        <ele>61.8</ele>
        <time>2023-12-19T08:00:52Z</time>
      </trkpt>
      <trkpt lat="49.87816" lon="2.30916">
        <ele>61.8</ele>
        <time>2023-12-19T08:01:07Z</time>
      </trkpt>
      <trkpt lat="49.87816" lon="2.30915">
        <ele>61.8</ele>
        <time>2023-12-19T08:01:12Z</time>
      </trkpt>
      <trkpt lat="49.87816" lon="2.30914">
        <ele>61.8</ele>
        <time>2023-12-19T08:01:17Z</time>
      </trkpt>
      <trkpt lat="49.87816" lon="2.30913">
        <ele>61.8</ele>
        <time>2023-12-19T08:01:27Z</time>
      </trkpt>
      <trkpt lat="49.87816" lon="2.30913">
        <ele>61.8</ele>
        <time>2023-12-19T08:01:43Z</time>
      </trkpt>
      <trkpt lat="49.87816" lon="2.30912">
        <ele>61.8</ele>
        <time>2023-12-19T08:01:48Z</time>
      </trkpt>
      <trkpt lat="49.87816" lon="2.30911">
        <ele>61.8</ele>
        <time>2023-12-19T08:01:53Z</time>
      </trkpt>
      <trkpt lat="49.87816" lon="2.3091">
        <ele>61.8</ele>
        <time>2023-12-19T08:01:58Z</time>
      </trkpt>
      <trkpt lat="49.87816" lon="2.3091">
        <ele>61.8</ele>
        <time>2023-12-19T08:02:08Z</time>
      </trkpt>
      <trkpt lat="49.87816" lon="2.30909">
        <ele>61.8</ele>
        <time>2023-12-19T08:02:13Z</time>
      </trkpt>
      <trkpt lat="49.87816" lon="2.30908">
        <ele>61.8</ele>
        <time>2023-12-19T08:02:18Z</time>
      </trkpt>
      <trkpt lat="49.87816" lon="2.30907">
        <ele>61.8</ele>
        <time>2023-12-19T08:02:23Z</time>
      </trkpt>
      <trkpt lat="49.87816" lon="2.30907">
        <ele>61.8</ele>
        <time>2023-12-19T08:02:28Z</time>
      </trkpt>
      <trkpt lat="49.87816" lon="2.30906">
        <ele>61.8</ele>
        <time>2023-12-19T08:02:48Z</time>
      </trkpt>
      <trkpt lat="49.87816" lon="2.30905">
        <ele>61.8</ele>
        <time>2023-12-19T08:02:53Z</time>
      </trkpt>
      <trkpt lat="49.87816" lon="2.30904">
        <ele>61.8</ele>
        <time>2023-12-19T08:02:58Z</time>
      </trkpt>
      <trkpt lat="49.87816" lon="2.30904">
        <ele>61.8</ele>
        <time>2023-12-19T08:03:03Z</time>
      </trkpt>
      <trkpt lat="49.87816" lon="2.30903">
        <ele>61.8</ele>
        <time>2023-12-19T08:05:30Z</time>
      </trkpt>
      <trkpt lat="49.87816" lon="2.30902">
        <ele>61.8</ele>
        <time>2023-12-19T08:05:35Z</time>
      </trkpt>
      <trkpt lat="49.87816" lon="2.30902">
        <ele>61.8</ele>
        <time>2023-12-19T08:05:40Z</time>
      </trkpt>
      <trkpt lat="49.87816" lon="2.30901">
        <ele>61.8</ele>
        <time>2023-12-19T08:05:43Z</time>
      </trkpt>
      <trkpt lat="49.87816" lon="2.309">
        <ele>61.8</ele>
        <time>2023-12-19T08:05:50Z</time>
      </trkpt>
      <trkpt lat="49.87816" lon="2.30899">
        <ele>61.8</ele>
        <time>2023-12-19T08:05:55Z</time>
      </trkpt>
      <trkpt lat="49.87816" lon="2.30899">
        <ele>61.8</ele>
        <time>2023-12-19T08:06:01Z</time>
      </trkpt>
      <trkpt lat="49.87816" lon="2.30898">
        <ele>61.8</ele>
        <time>2023-12-19T08:06:02Z</time>
      </trkpt>
      <trkpt lat="49.87816" lon="2.30897">
        <ele>61.8</ele>
        <time>2023-12-19T08:06:03Z</time>
      </trkpt>
      <trkpt lat="49.8782" lon="2.30893">
        <ele>61.6</ele>
        <time>2023-12-19T08:06:04Z</time>
      </trkpt>
      <trkpt lat="49.87823" lon="2.30895">
        <ele>61.6</ele>
        <time>2023-12-19T08:06:05Z</time>
      </trkpt>
      <trkpt lat="49.87826" lon="2.30896">
        <ele>61.5</ele>
        <time>2023-12-19T08:06:06Z</time>
      </trkpt>
      <trkpt lat="49.87829" lon="2.30897">
        <ele>61.5</ele>
        <time>2023-12-19T08:06:07Z</time>
      </trkpt>
      <trkpt lat="49.87832" lon="2.30899">
        <ele>61.5</ele>
        <time>2023-12-19T08:06:08Z</time>
      </trkpt>
      <trkpt lat="49.87834" lon="2.309">
        <ele>61.5</ele>
        <time>2023-12-19T08:06:09Z</time>
      </trkpt>
      <trkpt lat="49.87834" lon="2.30901">
        <ele>61.5</ele>
        <time>2023-12-19T08:06:10Z</time>
      </trkpt>
      <trkpt lat="49.87834" lon="2.30901">
        <ele>61.5</ele>
        <time>2023-12-19T08:06:11Z</time>
      </trkpt>
      <trkpt lat="49.87833" lon="2.30902">
        <ele>61.5</ele>
        <time>2023-12-19T08:06:12Z</time>
      </trkpt>
      <trkpt lat="49.87833" lon="2.30903">
        <ele>61.5</ele>
        <time>2023-12-19T08:06:13Z</time>
      </trkpt>
      <trkpt lat="49.87832" lon="2.30904">
        <ele>61.5</ele>
        <time>2023-12-19T08:06:14Z</time>
      </trkpt>
      <trkpt lat="49.87832" lon="2.30904">
        <ele>61.5</ele>
        <time>2023-12-19T08:06:15Z</time>
      </trkpt>
      <trkpt lat="49.87831" lon="2.30905">
        <ele>61.5</ele>
        <time>2023-12-19T08:06:16Z</time>
      </trkpt>
      <trkpt lat="49.87831" lon="2.30906">
        <ele>61.5</ele>
        <time>2023-12-19T08:06:17Z</time>
      </trkpt>
      <trkpt lat="49.8783" lon="2.30906">
        <ele>61.5</ele>
        <time>2023-12-19T08:06:18Z</time>
      </trkpt>
      <trkpt lat="49.8783" lon="2.30907">
        <ele>61.5</ele>
        <time>2023-12-19T08:09:02Z</time>
      </trkpt>
      <trkpt lat="49.87829" lon="2.30908">
        <ele>61.5</ele>
        <time>2023-12-19T08:09:03Z</time>
      </trkpt>
      <trkpt lat="49.87829" lon="2.30909">
        <ele>61.5</ele>
        <time>2023-12-19T08:09:05Z</time>
      </trkpt>
      <trkpt lat="49.87828" lon="2.30909">
        <ele>61.5</ele>
        <time>2023-12-19T08:09:06Z</time>
      </trkpt>
      <trkpt lat="49.87828" lon="2.3091">
        <ele>61.5</ele>
        <time>2023-12-19T08:09:07Z</time>
      </trkpt>
      <trkpt lat="49.87827" lon="2.30911">
        <ele>61.5</ele>
        <time>2023-12-19T08:09:09Z</time>
      </trkpt>
      <trkpt lat="49.87827" lon="2.30911">
        <ele>61.5</ele>
        <time>2023-12-19T08:09:10Z</time>
      </trkpt>
      <trkpt lat="49.87826" lon="2.30912">
        <ele>61.5</ele>
        <time>2023-12-19T08:09:11Z</time>
      </trkpt>
      <trkpt lat="49.87826" lon="2.30913">
        <ele>61.5</ele>
        <time>2023-12-19T08:09:13Z</time>
      </trkpt>
      <trkpt lat="49.87825" lon="2.30913">
        <ele>61.5</ele>
        <time>2023-12-19T08:09:14Z</time>
      </trkpt>
      <trkpt lat="49.87825" lon="2.30914">
        <ele>61.5</ele>
        <time>2023-12-19T08:09:15Z</time>
      </trkpt>
      <trkpt lat="49.87824" lon="2.30915">
        <ele>61.6</ele>
        <time>2023-12-19T08:09:16Z</time>
      </trkpt>
      <trkpt lat="49.87824" lon="2.30916">
        <ele>61.6</ele>
        <time>2023-12-19T08:09:17Z</time>
      </trkpt>
      <trkpt lat="49.87823" lon="2.30916">
        <ele>61.6</ele>
        <time>2023-12-19T08:09:19Z</time>
      </trkpt>
      <trkpt lat="49.87823" lon="2.30917">
        <ele>61.6</ele>
        <time>2023-12-19T08:09:20Z</time>
      </trkpt>
      <trkpt lat="49.87822" lon="2.30918">
        <ele>61.6</ele>
        <time>2023-12-19T08:09:21Z</time>
      </trkpt>
      <trkpt lat="49.87822" lon="2.30918">
        <ele>61.6</ele>
        <time>2023-12-19T08:09:22Z</time>
      </trkpt>
      <trkpt lat="49.87821" lon="2.30919">
        <ele>61.6</ele>
        <time>2023-12-19T08:09:23Z</time>
      </trkpt>
      <trkpt lat="49.87821" lon="2.3092">
        <ele>61.6</ele>
        <time>2023-12-19T08:09:24Z</time>
      </trkpt>
      <trkpt lat="49.8782" lon="2.30921">
        <ele>61.6</ele>
        <time>2023-12-19T08:09:25Z</time>
      </trkpt>
      <trkpt lat="49.8782" lon="2.30921">
        <ele>61.6</ele>
        <time>2023-12-19T08:09:26Z</time>
      </trkpt>
      <trkpt lat="49.87819" lon="2.30922">
        <ele>61.6</ele>
        <time>2023-12-19T08:09:27Z</time>
      </trkpt>
      <trkpt lat="49.87819" lon="2.30923">
        <ele>61.6</ele>
        <time>2023-12-19T08:09:28Z</time>
      </trkpt>
      <trkpt lat="49.87818" lon="2.30923">
        <ele>61.6</ele>
        <time>2023-12-19T08:09:29Z</time>
      </trkpt>
      <trkpt lat="49.87819" lon="2.30924">
        <ele>61.6</ele>
        <time>2023-12-19T08:09:30Z</time>
      </trkpt>
      <trkpt lat="49.8782" lon="2.30924">
        <ele>61.6</ele>
        <time>2023-12-19T08:09:31Z</time>
      </trkpt>
      <trkpt lat="49.8782" lon="2.30925">
        <ele>61.6</ele>
        <time>2023-12-19T08:09:32Z</time>
      </trkpt>
      <trkpt lat="49.87821" lon="2.30925">
        <ele>61.6</ele>
        <time>2023-12-19T08:09:33Z</time>
      </trkpt>
      <trkpt lat="49.87821" lon="2.30925">
        <ele>61.6</ele>
        <time>2023-12-19T08:09:34Z</time>
      </trkpt>
      <trkpt lat="49.87821" lon="2.30925">
        <ele>61.6</ele>
        <time>2023-12-19T08:09:35Z</time>
      </trkpt>
      <trkpt lat="49.8782" lon="2.30924">
        <ele>61.6</ele>
        <time>2023-12-19T08:09:36Z</time>
      </trkpt>
      <trkpt lat="49.87819" lon="2.30924">
        <ele>61.6</ele>
        <time>2023-12-19T08:09:37Z</time>
      </trkpt>
      <trkpt lat="49.87818" lon="2.30923">
        <ele>61.6</ele>
        <time>2023-12-19T08:09:38Z</time>
      </trkpt>
      <trkpt lat="49.87817" lon="2.30923">
        <ele>61.6</ele>
        <time>2023-12-19T08:09:39Z</time>
      </trkpt>
      <trkpt lat="49.87818" lon="2.30923">
        <ele>61.6</ele>
        <time>2023-12-19T08:09:40Z</time>
      </trkpt>
      <trkpt lat="49.87819" lon="2.30924">
        <ele>61.6</ele>
        <time>2023-12-19T08:09:41Z</time>
      </trkpt>
      <trkpt lat="49.8782" lon="2.30925">
        <ele>61.6</ele>
        <time>2023-12-19T08:09:42Z</time>
      </trkpt>
      <trkpt lat="49.87821" lon="2.30923">
        <ele>61.7</ele>
        <time>2023-12-19T08:09:43Z</time>
      </trkpt>
      <trkpt lat="49.87821" lon="2.3092">
        <ele>61.7</ele>
        <time>2023-12-19T08:09:44Z</time>
      </trkpt>
      <trkpt lat="49.87821" lon="2.30918">
        <ele>61.7</ele>
        <time>2023-12-19T08:09:45Z</time>
      </trkpt>
      <trkpt lat="49.87821" lon="2.30915">
        <ele>61.7</ele>
        <time>2023-12-19T08:09:46Z</time>
      </trkpt>
      <trkpt lat="49.87821" lon="2.30914">
        <ele>61.7</ele>
        <time>2023-12-19T08:09:47Z</time>
      </trkpt>
      <trkpt lat="49.87821" lon="2.30912">
        <ele>61.7</ele>
        <time>2023-12-19T08:09:48Z</time>
      </trkpt>
      <trkpt lat="49.87821" lon="2.30911">
        <ele>61.7</ele>
        <time>2023-12-19T08:09:49Z</time>
      </trkpt>
      <trkpt lat="49.87821" lon="2.3091">
        <ele>61.7</ele>
        <time>2023-12-19T08:09:50Z</time>
      </trkpt>
      <trkpt lat="49.87821" lon="2.30909">
        <ele>61.7</ele>
        <time>2023-12-19T08:09:51Z</time>
      </trkpt>
      <trkpt lat="49.87821" lon="2.309">
        <ele>61.7</ele>
        <time>2023-12-19T08:09:52Z</time>
      </trkpt>
      <trkpt lat="49.87821" lon="2.309">
        <ele>61.7</ele>
        <time>2023-12-19T08:09:53Z</time>
      </trkpt>
      <trkpt lat="49.87821" lon="2.309">
        <ele>61.7</ele>
        <time>2023-12-19T08:09:54Z</time>
      </trkpt>
      <trkpt lat="49.87821" lon="2.309">
        <ele>61.7</ele>
        <time>2023-12-19T08:09:55Z</time>
      </trkpt>
      <trkpt lat="49.87821" lon="2.309">
        <ele>61.7</ele>
        <time>2023-12-19T08:09:56Z</time>
      </trkpt>
      <trkpt lat="49.87821" lon="2.309">
        <ele>61.7</ele>
        <time>2023-12-19T08:09:57Z</time>
      </trkpt>
      <trkpt lat="49.87821" lon="2.309">
        <ele>61.7</ele>
        <time>2023-12-19T08:09:58Z</time>
      </trkpt>
      <trkpt lat="49.87821" lon="2.309">
        <ele>61.7</ele>
        <time>2023-12-19T08:09:59Z</time>
      </trkpt>
      <trkpt lat="49.87821" lon="2.309">
        <ele>61.7</ele>
        <time>2023-12-19T08:10:00Z</time>
      </trkpt>
      <trkpt lat="49.87821" lon="2.309">
        <ele>61.7</ele>
        <time>2023-12-19T08:10:01Z</time>
      </trkpt>
      <trkpt lat="49.87821" lon="2.309">
        <ele>61.7</ele>
        <time>2023-12-19T08:10:02Z</time>
      </trkpt>
      <trkpt lat="49.87821" lon="2.309">
        <ele>61.7</ele>
        <time>2023-12-19T08:10:03Z</time>
      </trkpt>
      <trkpt lat="49.87821" lon="2.309">
        <ele>61.7</ele>
        <time>2023-12-19T08:10:04Z</time>
      </trkpt>
      <trkpt lat="49.87821" lon="2.309">
        <ele>61.7</ele>
        <time>2023-12-19T08:10:05Z</time>
      </trkpt>
      <trkpt lat="49.87821" lon="2.309">
        <ele>61.7</ele>
        <time>2023-12-19T08:10:06Z</time>
      </trkpt>
      <trkpt lat="49.87821" lon="2.309">
        <ele>61.7</ele>
        <time>2023-12-19T08:10:07Z</time>
      </trkpt>
      <trkpt lat="49.87821" lon="2.309">
        <ele>61.7</ele>
        <time>2023-12-19T08:10:08Z</time>
      </trkpt>
      <trkpt lat="49.87821" lon="2.309">
        <ele>61.7</ele>
        <time>2023-12-19T08:10:09Z</time>
      </trkpt>
      <trkpt lat="49.87821" lon="2.309">
        <ele>61.7</ele>
        <time>2023-12-19T08:10:10Z</time>
      </trkpt>
      <trkpt lat="49.87821" lon="2.30899">
        <ele>61.7</ele>
        <time>2023-12-19T08:10:11Z</time>
      </trkpt>
      <trkpt lat="49.87821" lon="2.30899">
        <ele>61.7</ele>
        <time>2023-12-19T08:10:12Z</time>
      </trkpt>
      <trkpt lat="49.87821" lon="2.30899">
        <ele>61.7</ele>
        <time>2023-12-19T08:10:13Z</time>
      </trkpt>
      <trkpt lat="49.87821" lon="2.30899">
        <ele>61.7</ele>
        <time>2023-12-19T08:10:14Z</time>
      </trkpt>
      <trkpt lat="49.87821" lon="2.30899">
        <ele>61.7</ele>
        <time>2023-12-19T08:10:15Z</time>
      </trkpt>
      <trkpt lat="49.87821" lon="2.30899">
        <ele>61.7</ele>
        <time>2023-12-19T08:10:16Z</time>
      </trkpt>
      <trkpt lat="49.87821" lon="2.30899">
        <ele>61.7</ele>
        <time>2023-12-19T08:10:17Z</time>
      </trkpt>
      <trkpt lat="49.87821" lon="2.30899">
        <ele>61.7</ele>
        <time>2023-12-19T08:10:18Z</time>
      </trkpt>
      <trkpt lat="49.87821" lon="2.30899">
        <ele>61.7</ele>
        <time>2023-12-19T08:10:19Z</time>
      </trkpt>
      <trkpt lat="49.87821" lon="2.30899">
        <ele>61.7</ele>
        <time>2023-12-19T08:10:20Z</time>
      </trkpt>
      <trkpt lat="49.87821" lon="2.30899">
        <ele>61.7</ele>
        <time>2023-12-19T08:10:21Z</time>
      </trkpt>
      <trkpt lat="49.87821" lon="2.30899">
        <ele>61.7</ele>
        <time>2023-12-19T08:10:22Z</time>
      </trkpt>
      <trkpt lat="49.87821" lon="2.30899">
        <ele>61.7</ele>
        <time>2023-12-19T08:10:23Z</time>
      </trkpt>
      <trkpt lat="49.87821" lon="2.30899">
        <ele>61.7</ele>
        <time>2023-12-19T08:10:24Z</time>
      </trkpt>
      <trkpt lat="49.87821" lon="2.30899">
        <ele>61.7</ele>
        <time>2023-12-19T08:10:25Z</time>
      </trkpt>
      <trkpt lat="49.87821" lon="2.30899">
        <ele>61.7</ele>
        <time>2023-12-19T08:10:26Z</time>
      </trkpt>
      <trkpt lat="49.87821" lon="2.30899">
        <ele>61.7</ele>
        <time>2023-12-19T08:10:27Z</time>
      </trkpt>
      <trkpt lat="49.87821" lon="2.30899">
        <ele>61.7</ele>
        <time>2023-12-19T08:10:28Z</time>
      </trkpt>
      <trkpt lat="49.87821" lon="2.30899">
        <ele>61.7</ele>
        <time>2023-12-19T08:10:29Z</time>
      </trkpt>
      <trkpt lat="49.8782" lon="2.30899">
        <ele>61.7</ele>
        <time>2023-12-19T08:10:30Z</time>
      </trkpt>
      <trkpt lat="49.8782" lon="2.30899">
        <ele>61.7</ele>
        <time>2023-12-19T08:10:31Z</time>
      </trkpt>
      <trkpt lat="49.8782" lon="2.30898">
        <ele>61.7</ele>
        <time>2023-12-19T08:10:32Z</time>
      </trkpt>
      <trkpt lat="49.8782" lon="2.30898">
        <ele>61.7</ele>
        <time>2023-12-19T08:10:33Z</time>
      </trkpt>
      <trkpt lat="49.8782" lon="2.30898">
        <ele>61.7</ele>
        <time>2023-12-19T08:10:34Z</time>
      </trkpt>
      <trkpt lat="49.8782" lon="2.30898">
        <ele>61.7</ele>
        <time>2023-12-19T08:10:35Z</time>
      </trkpt>
      <trkpt lat="49.8782" lon="2.30898">
        <ele>61.7</ele>
        <time>2023-12-19T08:10:36Z</time>
      </trkpt>
      <trkpt lat="49.8782" lon="2.30898">
        <ele>61.7</ele>
        <time>2023-12-19T08:10:37Z</time>
      </trkpt>
      <trkpt lat="49.8782" lon="2.30898">
        <ele>61.7</ele>
        <time>2023-12-19T08:10:38Z</time>
      </trkpt>
      <trkpt lat="49.8782" lon="2.30898">
        <ele>61.7</ele>
        <time>2023-12-19T08:10:39Z</time>
      </trkpt>
      <trkpt lat="49.8782" lon="2.30898">
        <ele>61.7</ele>
        <time>2023-12-19T08:10:40Z</time>
      </trkpt>
      <trkpt lat="49.8782" lon="2.30898">
        <ele>61.7</ele>
        <time>2023-12-19T08:10:41Z</time>
      </trkpt>
      <trkpt lat="49.8782" lon="2.30898">
        <ele>61.7</ele>
        <time>2023-12-19T08:10:42Z</time>
      </trkpt>
      <trkpt lat="49.8782" lon="2.30898">
        <ele>61.7</ele>
        <time>2023-12-19T08:10:43Z</time>
      </trkpt>
      <trkpt lat="49.8782" lon="2.30898">
        <ele>61.7</ele>
        <time>2023-12-19T08:10:44Z</time>
      </trkpt>
      <trkpt lat="49.8782" lon="2.30898">
        <ele>61.7</ele>
        <time>2023-12-19T08:10:45Z</time>
      </trkpt>
      <trkpt lat="49.8782" lon="2.30898">
        <ele>61.7</ele>
        <time>2023-12-19T08:10:46Z</time>
      </trkpt>
      <trkpt lat="49.8782" lon="2.30898">
        <ele>61.7</ele>
        <time>2023-12-19T08:10:47Z</time>
      </trkpt>
      <trkpt lat="49.8782" lon="2.30898">
        <ele>61.7</ele>
        <time>2023-12-19T08:10:48Z</time>
      </trkpt>
      <trkpt lat="49.8782" lon="2.30898">
        <ele>61.7</ele>
        <time>2023-12-19T08:10:49Z</time>
      </trkpt>
      <trkpt lat="49.8782" lon="2.30898">
        <ele>61.7</ele>
        <time>2023-12-19T08:10:50Z</time>
      </trkpt>
      <trkpt lat="49.8782" lon="2.30898">
        <ele>61.7</ele>
        <time>2023-12-19T08:10:51Z</time>
      </trkpt>
      <trkpt lat="49.8782" lon="2.30898">
        <ele>61.7</ele>
        <time>2023-12-19T08:10:52Z</time>
      </trkpt>
      <trkpt lat="49.8782" lon="2.30897">
        <ele>61.7</ele>
        <time>2023-12-19T08:10:53Z</time>
      </trkpt>
      <trkpt lat="49.8782" lon="2.30897">
        <ele>61.7</ele>
        <time>2023-12-19T08:10:54Z</time>
      </trkpt>
      <trkpt lat="49.8782" lon="2.30897">
        <ele>61.7</ele>
        <time>2023-12-19T08:10:55Z</time>
      </trkpt>
      <trkpt lat="49.8782" lon="2.30897">
        <ele>61.7</ele>
        <time>2023-12-19T08:10:56Z</time>
      </trkpt>
      <trkpt lat="49.8782" lon="2.30897">
        <ele>61.7</ele>
        <time>2023-12-19T08:10:57Z</time>
      </trkpt>
      <trkpt lat="49.8782" lon="2.30897">
        <ele>61.7</ele>
        <time>2023-12-19T08:10:58Z</time>
      </trkpt>
      <trkpt lat="49.8782" lon="2.30897">
        <ele>61.7</ele>
        <time>2023-12-19T08:10:59Z</time>
      </trkpt>
      <trkpt lat="49.8782" lon="2.30897">
        <ele>61.7</ele>
        <time>2023-12-19T08:11:00Z</time>
      </trkpt>
      <trkpt lat="49.8782" lon="2.30897">
        <ele>61.7</ele>
        <time>2023-12-19T08:11:01Z</time>
      </trkpt>
      <trkpt lat="49.8782" lon="2.30897">
        <ele>61.7</ele>
        <time>2023-12-19T08:11:02Z</time>
      </trkpt>
      <trkpt lat="49.8782" lon="2.30897">
        <ele>61.7</ele>
        <time>2023-12-19T08:11:03Z</time>
      </trkpt>
      <trkpt lat="49.8782" lon="2.30897">
        <ele>61.7</ele>
        <time>2023-12-19T08:11:04Z</time>
      </trkpt>
      <trkpt lat="49.8782" lon="2.30897">
        <ele>61.7</ele>
        <time>2023-12-19T08:11:05Z</time>
      </trkpt>
      <trkpt lat="49.8782" lon="2.30897">
        <ele>61.7</ele>
        <time>2023-12-19T08:11:06Z</time>
      </trkpt>
      <trkpt lat="49.8782" lon="2.30897">
        <ele>61.7</ele>
        <time>2023-12-19T08:11:07Z</time>
      </trkpt>
      <trkpt lat="49.8782" lon="2.30897">
        <ele>61.7</ele>
        <time>2023-12-19T08:11:08Z</time>
      </trkpt>
      <trkpt lat="49.87819" lon="2.30897">
        <ele>61.7</ele>
        <time>2023-12-19T08:11:09Z</time>
      </trkpt>
      <trkpt lat="49.87819" lon="2.30897">
        <ele>61.7</ele>
        <time>2023-12-19T08:11:10Z</time>
      </trkpt>
      <trkpt lat="49.87819" lon="2.30897">
        <ele>61.7</ele>
        <time>2023-12-19T08:11:11Z</time>
      </trkpt>
      <trkpt lat="49.87819" lon="2.30897">
        <ele>61.7</ele>
        <time>2023-12-19T08:11:12Z</time>
      </trkpt>
      <trkpt lat="49.87819" lon="2.30896">
        <ele>61.7</ele>
        <time>2023-12-19T08:11:13Z</time>
      </trkpt>
      <trkpt lat="49.87819" lon="2.30896">
        <ele>61.7</ele>
        <time>2023-12-19T08:11:14Z</time>
      </trkpt>
      <trkpt lat="49.87819" lon="2.30896">
        <ele>61.7</ele>
        <time>2023-12-19T08:11:15Z</time>
      </trkpt>
      <trkpt lat="49.87819" lon="2.30896">
        <ele>61.7</ele>
        <time>2023-12-19T08:11:16Z</time>
      </trkpt>
      <trkpt lat="49.87819" lon="2.30896">
        <ele>61.7</ele>
        <time>2023-12-19T08:11:17Z</time>
      </trkpt>
      <trkpt lat="49.87819" lon="2.30896">
        <ele>61.7</ele>
        <time>2023-12-19T08:11:18Z</time>
      </trkpt>
      <trkpt lat="49.87819" lon="2.30896">
        <ele>61.7</ele>
        <time>2023-12-19T08:11:19Z</time>
      </trkpt>
      <trkpt lat="49.87819" lon="2.30896">
        <ele>61.7</ele>
        <time>2023-12-19T08:11:20Z</time>
      </trkpt>
      <trkpt lat="49.87819" lon="2.30896">
        <ele>61.7</ele>
        <time>2023-12-19T08:11:21Z</time>
      </trkpt>
      <trkpt lat="49.87819" lon="2.30896">
        <ele>61.7</ele>
        <time>2023-12-19T08:11:22Z</time>
      </trkpt>
      <trkpt lat="49.87819" lon="2.30896">
        <ele>61.7</ele>
        <time>2023-12-19T08:11:23Z</time>
      </trkpt>
      <trkpt lat="49.87819" lon="2.30896">
        <ele>61.8</ele>
        <time>2023-12-19T08:11:24Z</time>
      </trkpt>
      <trkpt lat="49.87819" lon="2.30896">
        <ele>61.8</ele>
        <time>2023-12-19T08:11:25Z</time>
      </trkpt>
      <trkpt lat="49.87819" lon="2.30896">
        <ele>61.8</ele>
        <time>2023-12-19T08:11:26Z</time>
      </trkpt>
      <trkpt lat="49.87819" lon="2.30896">
        <ele>61.8</ele>
        <time>2023-12-19T08:11:27Z</time>
      </trkpt>
      <trkpt lat="49.87819" lon="2.30896">
        <ele>61.8</ele>
        <time>2023-12-19T08:11:28Z</time>
      </trkpt>
      <trkpt lat="49.87819" lon="2.30896">
        <ele>61.8</ele>
        <time>2023-12-19T08:11:29Z</time>
      </trkpt>
      <trkpt lat="49.87817" lon="2.30893">
        <ele>61.8</ele>
        <time>2023-12-19T08:11:30Z</time>
      </trkpt>
      <trkpt lat="49.87816" lon="2.30892">
        <ele>61.8</ele>
        <time>2023-12-19T08:11:31Z</time>
      </trkpt>
      <trkpt lat="49.87815" lon="2.3089">
        <ele>61.8</ele>
        <time>2023-12-19T08:11:32Z</time>
      </trkpt>
      <trkpt lat="49.87814" lon="2.30889">
        <ele>61.8</ele>
        <time>2023-12-19T08:11:33Z</time>
      </trkpt>
      <trkpt lat="49.87813" lon="2.30888">
        <ele>61.8</ele>
        <time>2023-12-19T08:11:34Z</time>
      </trkpt>
      <trkpt lat="49.87812" lon="2.30887">
        <ele>61.8</ele>
        <time>2023-12-19T08:11:35Z</time>
      </trkpt>
      <trkpt lat="49.87811" lon="2.30886">
        <ele>61.8</ele>
        <time>2023-12-19T08:11:36Z</time>
      </trkpt>
      <trkpt lat="49.87811" lon="2.30886">
        <ele>61.8</ele>
        <time>2023-12-19T08:11:37Z</time>
      </trkpt>
      <trkpt lat="49.8781" lon="2.30885">
        <ele>61.8</ele>
        <time>2023-12-19T08:11:38Z</time>
      </trkpt>
      <trkpt lat="49.8781" lon="2.30884">
        <ele>61.8</ele>
        <time>2023-12-19T08:11:39Z</time>
      </trkpt>
      <trkpt lat="49.8781" lon="2.30884">
        <ele>61.8</ele>
        <time>2023-12-19T08:11:40Z</time>
      </trkpt>
      <trkpt lat="49.87809" lon="2.30884">
        <ele>61.8</ele>
        <time>2023-12-19T08:11:41Z</time>
      </trkpt>
      <trkpt lat="49.87809" lon="2.30884">
        <ele>61.8</ele>
        <time>2023-12-19T08:11:42Z</time>
      </trkpt>
      <trkpt lat="49.87807" lon="2.30882">
        <ele>61.8</ele>
        <time>2023-12-19T08:11:43Z</time>
      </trkpt>
      <trkpt lat="49.87807" lon="2.30882">
        <ele>61.8</ele>
        <time>2023-12-19T08:11:44Z</time>
      </trkpt>
      <trkpt lat="49.87807" lon="2.30882">
        <ele>61.8</ele>
        <time>2023-12-19T08:11:45Z</time>
      </trkpt>
      <trkpt lat="49.87807" lon="2.30882">
        <ele>61.8</ele>
        <time>2023-12-19T08:11:46Z</time>
      </trkpt>
      <trkpt lat="49.87807" lon="2.30882">
        <ele>61.8</ele>
        <time>2023-12-19T08:11:47Z</time>
      </trkpt>
      <trkpt lat="49.87807" lon="2.30882">
        <ele>61.8</ele>
        <time>2023-12-19T08:11:48Z</time>
      </trkpt>
      <trkpt lat="49.87807" lon="2.30881">
        <ele>61.8</ele>
        <time>2023-12-19T08:11:49Z</time>
      </trkpt>
      <trkpt lat="49.87807" lon="2.30881">
        <ele>61.8</ele>
        <time>2023-12-19T08:11:50Z</time>
      </trkpt>
      <trkpt lat="49.87807" lon="2.30881">
        <ele>61.8</ele>
        <time>2023-12-19T08:11:51Z</time>
      </trkpt>
      <trkpt lat="49.87807" lon="2.30881">
        <ele>61.8</ele>
        <time>2023-12-19T08:11:52Z</time>
      </trkpt>
      <trkpt lat="49.87807" lon="2.30881">
        <ele>61.8</ele>
        <time>2023-12-19T08:11:53Z</time>
      </trkpt>
      <trkpt lat="49.87807" lon="2.30881">
        <ele>61.8</ele>
        <time>2023-12-19T08:11:54Z</time>
      </trkpt>
      <trkpt lat="49.87807" lon="2.30881">
        <ele>61.8</ele>
        <time>2023-12-19T08:11:55Z</time>
      </trkpt>
      <trkpt lat="49.87807" lon="2.30881">
        <ele>61.8</ele>
        <time>2023-12-19T08:11:56Z</time>
      </trkpt>
      <trkpt lat="49.87807" lon="2.30881">
        <ele>61.8</ele>
        <time>2023-12-19T08:11:57Z</time>
      </trkpt>
      <trkpt lat="49.87807" lon="2.30881">
        <ele>61.8</ele>
        <time>2023-12-19T08:11:58Z</time>
      </trkpt>
      <trkpt lat="49.87807" lon="2.30882">
        <ele>61.8</ele>
        <time>2023-12-19T08:11:59Z</time>
      </trkpt>
      <trkpt lat="49.87807" lon="2.30882">
        <ele>61.8</ele>
        <time>2023-12-19T08:12:00Z</time>
      </trkpt>
      <trkpt lat="49.87807" lon="2.30883">
        <ele>61.8</ele>
        <time>2023-12-19T08:12:01Z</time>
      </trkpt>
      <trkpt lat="49.87809" lon="2.30889">
        <ele>61.9</ele>
        <time>2023-12-19T08:12:02Z</time>
      </trkpt>
      <trkpt lat="49.87809" lon="2.30889">
        <ele>61.9</ele>
        <time>2023-12-19T08:12:03Z</time>
      </trkpt>
      <trkpt lat="49.87809" lon="2.30889">
        <ele>61.9</ele>
        <time>2023-12-19T08:12:04Z</time>
      </trkpt>
      <trkpt lat="49.87809" lon="2.30889">
        <ele>61.9</ele>
        <time>2023-12-19T08:12:05Z</time>
      </trkpt>
      <trkpt lat="49.87809" lon="2.30889">
        <ele>61.9</ele>
        <time>2023-12-19T08:12:06Z</time>
      </trkpt>
      <trkpt lat="49.87809" lon="2.30889">
        <ele>61.9</ele>
        <time>2023-12-19T08:12:07Z</time>
      </trkpt>
      <trkpt lat="49.87809" lon="2.30889">
        <ele>61.9</ele>
        <time>2023-12-19T08:12:08Z</time>
      </trkpt>
      <trkpt lat="49.87809" lon="2.30889">
        <ele>61.9</ele>
        <time>2023-12-19T08:12:09Z</time>
      </trkpt>
      <trkpt lat="49.87809" lon="2.30889">
        <ele>61.9</ele>
        <time>2023-12-19T08:12:10Z</time>
      </trkpt>
      <trkpt lat="49.87808" lon="2.30889">
        <ele>61.9</ele>
        <time>2023-12-19T08:30:34Z</time>
      </trkpt>
      <trkpt lat="49.87808" lon="2.30889">
        <ele>61.9</ele>
        <time>2023-12-19T08:30:35Z</time>
      </trkpt>
      <trkpt lat="49.87808" lon="2.30889">
        <ele>61.9</ele>
        <time>2023-12-19T08:30:36Z</time>
      </trkpt>
      <trkpt lat="49.87808" lon="2.30889">
        <ele>61.9</ele>
        <time>2023-12-19T08:30:37Z</time>
      </trkpt>
      <trkpt lat="49.87808" lon="2.30889">
        <ele>61.9</ele>
        <time>2023-12-19T08:30:38Z</time>
      </trkpt>
      <trkpt lat="49.87808" lon="2.30889">
        <ele>61.9</ele>
        <time>2023-12-19T08:30:39Z</time>
      </trkpt>
      <trkpt lat="49.87808" lon="2.30889">
        <ele>61.9</ele>
        <time>2023-12-19T08:30:40Z</time>
      </trkpt>
      <trkpt lat="49.87808" lon="2.30889">
        <ele>61.9</ele>
        <time>2023-12-19T08:30:41Z</time>
      </trkpt>
      <trkpt lat="49.87808" lon="2.30889">
        <ele>61.9</ele>
        <time>2023-12-19T08:30:42Z</time>
      </trkpt>
      <trkpt lat="49.87808" lon="2.30889">
        <ele>61.9</ele>
        <time>2023-12-19T08:30:43Z</time>
      </trkpt>
      <trkpt lat="49.87808" lon="2.30889">
        <ele>61.9</ele>
        <time>2023-12-19T08:30:44Z</time>
      </trkpt>
      <trkpt lat="49.87808" lon="2.30888">
        <ele>61.9</ele>
        <time>2023-12-19T08:30:45Z</time>
      </trkpt>
      <trkpt lat="49.87808" lon="2.30888">
        <ele>61.9</ele>
        <time>2023-12-19T08:30:46Z</time>
      </trkpt>
      <trkpt lat="49.87808" lon="2.30888">
        <ele>61.9</ele>
        <time>2023-12-19T08:30:47Z</time>
      </trkpt>
      <trkpt lat="49.87808" lon="2.30888">
        <ele>61.9</ele>
        <time>2023-12-19T08:30:48Z</time>
      </trkpt>
      <trkpt lat="49.87808" lon="2.30888">
        <ele>61.9</ele>
        <time>2023-12-19T08:30:49Z</time>
      </trkpt>
      <trkpt lat="49.87808" lon="2.30888">
        <ele>61.9</ele>
        <time>2023-12-19T08:30:50Z</time>
      </trkpt>
      <trkpt lat="49.87808" lon="2.30888">
        <ele>61.9</ele>
        <time>2023-12-19T08:30:51Z</time>
      </trkpt>
      <trkpt lat="49.87808" lon="2.30888">
        <ele>61.9</ele>
        <time>2023-12-19T08:30:52Z</time>
      </trkpt>
      <trkpt lat="49.87808" lon="2.30888">
        <ele>61.9</ele>
        <time>2023-12-19T08:30:53Z</time>
      </trkpt>
      <trkpt lat="49.87808" lon="2.30888">
        <ele>61.9</ele>
        <time>2023-12-19T08:30:54Z</time>
      </trkpt>
      <trkpt lat="49.87808" lon="2.30888">
        <ele>61.9</ele>
        <time>2023-12-19T08:30:55Z</time>
      </trkpt>
      <trkpt lat="49.87808" lon="2.30888">
        <ele>61.9</ele>
        <time>2023-12-19T08:30:56Z</time>
      </trkpt>
      <trkpt lat="49.87808" lon="2.30888">
        <ele>61.9</ele>
        <time>2023-12-19T08:30:57Z</time>
      </trkpt>
      <trkpt lat="49.87808" lon="2.30888">
        <ele>61.9</ele>
        <time>2023-12-19T08:30:58Z</time>
      </trkpt>
      <trkpt lat="49.87808" lon="2.30888">
        <ele>61.9</ele>
        <time>2023-12-19T08:30:59Z</time>
      </trkpt>
      <trkpt lat="49.87808" lon="2.30888">
        <ele>61.9</ele>
        <time>2023-12-19T08:31:00Z</time>
      </trkpt>
      <trkpt lat="49.87808" lon="2.30888">
        <ele>61.9</ele>
        <time>2023-12-19T08:31:01Z</time>
      </trkpt>
      <trkpt lat="49.87807" lon="2.30888">
        <ele>61.9</ele>
        <time>2023-12-19T08:31:02Z</time>
      </trkpt>
      <trkpt lat="49.87807" lon="2.30888">
        <ele>61.9</ele>
        <time>2023-12-19T08:31:03Z</time>
      </trkpt>
      <trkpt lat="49.87807" lon="2.30888">
        <ele>61.9</ele>
        <time>2023-12-19T08:31:04Z</time>
      </trkpt>
      <trkpt lat="49.87807" lon="2.30888">
        <ele>61.9</ele>
        <time>2023-12-19T08:31:05Z</time>
      </trkpt>
      <trkpt lat="49.87807" lon="2.30888">
        <ele>61.9</ele>
        <time>2023-12-19T08:31:06Z</time>
      </trkpt>
      <trkpt lat="49.87807" lon="2.30888">
        <ele>61.9</ele>
        <time>2023-12-19T08:31:07Z</time>
      </trkpt>
      <trkpt lat="49.87807" lon="2.30887">
        <ele>61.9</ele>
        <time>2023-12-19T08:31:08Z</time>
      </trkpt>
      <trkpt lat="49.87807" lon="2.30887">
        <ele>61.9</ele>
        <time>2023-12-19T08:31:09Z</time>
      </trkpt>
      <trkpt lat="49.87807" lon="2.30887">
        <ele>61.9</ele>
        <time>2023-12-19T08:31:10Z</time>
      </trkpt>
      <trkpt lat="49.87807" lon="2.30887">
        <ele>61.9</ele>
        <time>2023-12-19T08:31:11Z</time>
      </trkpt>
      <trkpt lat="49.87807" lon="2.30887">
        <ele>61.9</ele>
        <time>2023-12-19T08:31:12Z</time>
      </trkpt>
      <trkpt lat="49.87807" lon="2.30887">
        <ele>61.9</ele>
        <time>2023-12-19T08:31:13Z</time>
      </trkpt>
      <trkpt lat="49.87807" lon="2.30887">
        <ele>61.9</ele>
        <time>2023-12-19T08:31:14Z</time>
      </trkpt>
      <trkpt lat="49.87807" lon="2.30887">
        <ele>61.9</ele>
        <time>2023-12-19T08:31:15Z</time>
      </trkpt>
      <trkpt lat="49.87807" lon="2.30887">
        <ele>61.9</ele>
        <time>2023-12-19T08:31:16Z</time>
      </trkpt>
      <trkpt lat="49.87807" lon="2.30887">
        <ele>61.9</ele>
        <time>2023-12-19T08:31:17Z</time>
      </trkpt>
      <trkpt lat="49.87807" lon="2.30887">
        <ele>61.9</ele>
        <time>2023-12-19T08:31:18Z</time>
      </trkpt>
      <trkpt lat="49.87807" lon="2.30887">
        <ele>61.9</ele>
        <time>2023-12-19T08:31:19Z</time>
      </trkpt>
      <trkpt lat="49.87807" lon="2.30887">
        <ele>61.9</ele>
        <time>2023-12-19T08:31:20Z</time>
      </trkpt>
      <trkpt lat="49.87807" lon="2.30887">
        <ele>61.9</ele>
        <time>2023-12-19T08:31:21Z</time>
      </trkpt>
      <trkpt lat="49.87807" lon="2.30887">
        <ele>61.9</ele>
        <time>2023-12-19T08:31:22Z</time>
      </trkpt>
      <trkpt lat="49.87807" lon="2.30887">
        <ele>61.9</ele>
        <time>2023-12-19T08:31:23Z</time>
      </trkpt>
      <trkpt lat="49.87807" lon="2.30887">
        <ele>61.9</ele>
        <time>2023-12-19T08:31:24Z</time>
      </trkpt>
      <trkpt lat="49.87807" lon="2.30887">
        <ele>61.9</ele>
        <time>2023-12-19T08:31:25Z</time>
      </trkpt>
      <trkpt lat="49.87807" lon="2.30887">
        <ele>61.9</ele>
        <time>2023-12-19T08:31:26Z</time>
      </trkpt>
      <trkpt lat="49.87807" lon="2.30887">
        <ele>61.9</ele>
        <time>2023-12-19T08:31:27Z</time>
      </trkpt>
      <trkpt lat="49.87807" lon="2.30887">
        <ele>61.9</ele>
        <time>2023-12-19T08:31:28Z</time>
      </trkpt>
      <trkpt lat="49.87807" lon="2.30887">
        <ele>61.9</ele>
        <time>2023-12-19T08:31:29Z</time>
      </trkpt>
      <trkpt lat="49.87806" lon="2.30887">
        <ele>61.9</ele>
        <time>2023-12-19T08:31:30Z</time>
      </trkpt>
      <trkpt lat="49.87806" lon="2.30886">
        <ele>61.9</ele>
        <time>2023-12-19T08:31:31Z</time>
      </trkpt>
      <trkpt lat="49.87806" lon="2.30886">
        <ele>61.9</ele>
        <time>2023-12-19T08:31:32Z</time>
      </trkpt>
      <trkpt lat="49.87806" lon="2.30886">
        <ele>61.9</ele>
        <time>2023-12-19T08:31:33Z</time>
      </trkpt>
      <trkpt lat="49.87806" lon="2.30886">
        <ele>61.9</ele>
        <time>2023-12-19T08:31:34Z</time>
      </trkpt>
      <trkpt lat="49.87806" lon="2.30886">
        <ele>61.9</ele>
        <time>2023-12-19T08:31:35Z</time>
      </trkpt>
      <trkpt lat="49.87806" lon="2.30886">
        <ele>61.9</ele>
        <time>2023-12-19T08:31:36Z</time>
      </trkpt>
      <trkpt lat="49.87806" lon="2.30886">
        <ele>61.9</ele>
        <time>2023-12-19T08:31:37Z</time>
      </trkpt>
      <trkpt lat="49.87806" lon="2.30886">
        <ele>61.9</ele>
        <time>2023-12-19T08:31:38Z</time>
      </trkpt>
      <trkpt lat="49.87806" lon="2.30886">
        <ele>61.9</ele>
        <time>2023-12-19T08:31:39Z</time>
      </trkpt>
      <trkpt lat="49.87806" lon="2.30886">
        <ele>61.9</ele>
        <time>2023-12-19T08:31:40Z</time>
      </trkpt>
      <trkpt lat="49.87806" lon="2.30886">
        <ele>61.9</ele>
        <time>2023-12-19T08:31:41Z</time>
      </trkpt>
      <trkpt lat="49.87806" lon="2.30886">
        <ele>61.9</ele>
        <time>2023-12-19T08:31:42Z</time>
      </trkpt>
      <trkpt lat="49.87806" lon="2.30886">
        <ele>61.9</ele>
        <time>2023-12-19T08:31:43Z</time>
      </trkpt>
      <trkpt lat="49.87806" lon="2.30886">
        <ele>61.9</ele>
        <time>2023-12-19T08:31:44Z</time>
      </trkpt>
      <trkpt lat="49.87806" lon="2.30886">
        <ele>61.9</ele>
        <time>2023-12-19T08:31:45Z</time>
      </trkpt>
      <trkpt lat="49.87806" lon="2.30886">
        <ele>61.9</ele>
        <time>2023-12-19T08:31:46Z</time>
      </trkpt>
      <trkpt lat="49.87806" lon="2.30886">
        <ele>61.9</ele>
        <time>2023-12-19T08:31:47Z</time>
      </trkpt>
      <trkpt lat="49.87806" lon="2.30886">
        <ele>61.9</ele>
        <time>2023-12-19T08:31:48Z</time>
      </trkpt>
      <trkpt lat="49.87806" lon="2.30886">
        <ele>61.9</ele>
        <time>2023-12-19T08:31:49Z</time>
      </trkpt>
      <trkpt lat="49.87806" lon="2.30886">
        <ele>61.9</ele>
        <time>2023-12-19T08:31:50Z</time>
      </trkpt>
      <trkpt lat="49.87806" lon="2.30886">
        <ele>61.9</ele>
        <time>2023-12-19T08:31:51Z</time>
      </trkpt>
      <trkpt lat="49.87806" lon="2.30886">
        <ele>61.9</ele>
        <time>2023-12-19T08:31:52Z</time>
      </trkpt>
      <trkpt lat="49.87806" lon="2.30886">
        <ele>61.9</ele>
        <time>2023-12-19T08:31:53Z</time>
      </trkpt>
      <trkpt lat="49.87806" lon="2.30886">
        <ele>61.9</ele>
        <time>2023-12-19T08:31:54Z</time>
      </trkpt>
      <trkpt lat="49.87806" lon="2.30885">
        <ele>61.9</ele>
        <time>2023-12-19T08:31:55Z</time>
      </trkpt>
      <trkpt lat="49.87806" lon="2.30885">
        <ele>61.9</ele>
        <time>2023-12-19T08:31:56Z</time>
      </trkpt>
      <trkpt lat="49.87805" lon="2.30885">
        <ele>61.9</ele>
        <time>2023-12-19T08:31:57Z</time>
      </trkpt>
      <trkpt lat="49.87805" lon="2.30885">
        <ele>61.9</ele>
        <time>2023-12-19T08:31:58Z</time>
      </trkpt>
      <trkpt lat="49.87805" lon="2.30885">
        <ele>61.9</ele>
        <time>2023-12-19T08:31:59Z</time>
      </trkpt>
      <trkpt lat="49.87805" lon="2.30885">
        <ele>61.9</ele>
        <time>2023-12-19T08:32:00Z</time>
      </trkpt>
      <trkpt lat="49.87805" lon="2.30885">
        <ele>61.9</ele>
        <time>2023-12-19T08:32:01Z</time>
      </trkpt>
      <trkpt lat="49.87805" lon="2.30885">
        <ele>61.9</ele>
        <time>2023-12-19T08:32:02Z</time>
      </trkpt>
      <trkpt lat="49.87805" lon="2.30885">
        <ele>61.9</ele>
        <time>2023-12-19T08:32:03Z</time>
      </trkpt>
      <trkpt lat="49.87805" lon="2.30885">
        <ele>61.9</ele>
        <time>2023-12-19T08:32:04Z</time>
      </trkpt>
      <trkpt lat="49.87805" lon="2.30885">
        <ele>61.9</ele>
        <time>2023-12-19T08:32:05Z</time>
      </trkpt>
      <trkpt lat="49.87805" lon="2.30885">
        <ele>61.9</ele>
        <time>2023-12-19T08:32:06Z</time>
      </trkpt>
      <trkpt lat="49.87805" lon="2.30885">
        <ele>61.9</ele>
        <time>2023-12-19T08:32:07Z</time>
      </trkpt>
      <trkpt lat="49.87805" lon="2.30885">
        <ele>61.9</ele>
        <time>2023-12-19T08:32:08Z</time>
      </trkpt>
      <trkpt lat="49.87805" lon="2.30885">
        <ele>61.9</ele>
        <time>2023-12-19T08:32:09Z</time>
      </trkpt>
      <trkpt lat="49.87805" lon="2.30885">
        <ele>61.9</ele>
        <time>2023-12-19T08:32:10Z</time>
      </trkpt>
      <trkpt lat="49.87805" lon="2.30885">
        <ele>61.9</ele>
        <time>2023-12-19T08:32:11Z</time>
      </trkpt>
      <trkpt lat="49.87805" lon="2.30885">
        <ele>61.9</ele>
        <time>2023-12-19T08:32:12Z</time>
      </trkpt>
      <trkpt lat="49.87805" lon="2.30885">
        <ele>61.9</ele>
        <time>2023-12-19T08:32:13Z</time>
      </trkpt>
      <trkpt lat="49.87805" lon="2.30885">
        <ele>61.9</ele>
        <time>2023-12-19T08:32:14Z</time>
      </trkpt>
      <trkpt lat="49.87805" lon="2.30885">
        <ele>61.9</ele>
        <time>2023-12-19T08:32:15Z</time>
      </trkpt>
      <trkpt lat="49.87805" lon="2.30885">
        <ele>61.9</ele>
        <time>2023-12-19T08:32:16Z</time>
      </trkpt>
      <trkpt lat="49.87805" lon="2.30885">
        <ele>61.9</ele>
        <time>2023-12-19T08:32:17Z</time>
      </trkpt>
      <trkpt lat="49.87805" lon="2.30884">
        <ele>61.9</ele>
        <time>2023-12-19T08:32:18Z</time>
      </trkpt>
      <trkpt lat="49.87805" lon="2.30884">
        <ele>61.9</ele>
        <time>2023-12-19T08:32:19Z</time>
      </trkpt>
      <trkpt lat="49.87805" lon="2.30884">
        <ele>61.9</ele>
        <time>2023-12-19T08:32:20Z</time>
      </trkpt>
      <trkpt lat="49.87805" lon="2.30884">
        <ele>61.9</ele>
        <time>2023-12-19T08:32:21Z</time>
      </trkpt>
      <trkpt lat="49.87805" lon="2.30884">
        <ele>61.9</ele>
        <time>2023-12-19T08:32:22Z</time>
      </trkpt>
      <trkpt lat="49.87805" lon="2.30884">
        <ele>61.9</ele>
        <time>2023-12-19T08:32:23Z</time>
      </trkpt>
      <trkpt lat="49.87805" lon="2.30884">
        <ele>61.9</ele>
        <time>2023-12-19T08:32:24Z</time>
      </trkpt>
      <trkpt lat="49.87804" lon="2.30884">
        <ele>61.9</ele>
        <time>2023-12-19T08:32:25Z</time>
      </trkpt>
      <trkpt lat="49.87804" lon="2.30884">
        <ele>61.9</ele>
        <time>2023-12-19T08:32:26Z</time>
      </trkpt>
      <trkpt lat="49.87804" lon="2.30884">
        <ele>61.9</ele>
        <time>2023-12-19T08:32:27Z</time>
      </trkpt>
      <trkpt lat="49.87804" lon="2.30884">
        <ele>61.9</ele>
        <time>2023-12-19T08:32:28Z</time>
      </trkpt>
      <trkpt lat="49.87804" lon="2.30884">
        <ele>61.9</ele>
        <time>2023-12-19T08:32:29Z</time>
      </trkpt>
      <trkpt lat="49.87804" lon="2.30884">
        <ele>61.9</ele>
        <time>2023-12-19T08:32:30Z</time>
      </trkpt>
      <trkpt lat="49.87804" lon="2.30884">
        <ele>61.9</ele>
        <time>2023-12-19T08:32:31Z</time>
      </trkpt>
      <trkpt lat="49.87804" lon="2.30884">
        <ele>61.9</ele>
        <time>2023-12-19T08:32:32Z</time>
      </trkpt>
      <trkpt lat="49.87804" lon="2.30884">
        <ele>61.9</ele>
        <time>2023-12-19T08:32:33Z</time>
      </trkpt>
      <trkpt lat="49.87804" lon="2.30884">
        <ele>61.9</ele>
        <time>2023-12-19T08:32:34Z</time>
      </trkpt>
      <trkpt lat="49.87804" lon="2.30884">
        <ele>61.9</ele>
        <time>2023-12-19T08:32:35Z</time>
      </trkpt>
      <trkpt lat="49.87804" lon="2.30884">
        <ele>61.9</ele>
        <time>2023-12-19T08:32:36Z</time>
      </trkpt>
      <trkpt lat="49.87804" lon="2.30884">
        <ele>61.9</ele>
        <time>2023-12-19T08:32:37Z</time>
      </trkpt>
      <trkpt lat="49.87804" lon="2.30884">
        <ele>61.9</ele>
        <time>2023-12-19T08:32:38Z</time>
      </trkpt>
      <trkpt lat="49.87804" lon="2.30884">
        <ele>61.9</ele>
        <time>2023-12-19T08:32:39Z</time>
      </trkpt>
      <trkpt lat="49.87804" lon="2.30884">
        <ele>61.9</ele>
        <time>2023-12-19T08:32:40Z</time>
      </trkpt>
      <trkpt lat="49.87804" lon="2.30883">
        <ele>61.9</ele>
        <time>2023-12-19T08:32:41Z</time>
      </trkpt>
      <trkpt lat="49.87804" lon="2.30883">
        <ele>61.9</ele>
        <time>2023-12-19T08:32:42Z</time>
      </trkpt>
      <trkpt lat="49.87804" lon="2.30883">
        <ele>61.9</ele>
        <time>2023-12-19T08:32:43Z</time>
      </trkpt>
      <trkpt lat="49.87804" lon="2.30883">
        <ele>61.9</ele>
        <time>2023-12-19T08:32:44Z</time>
      </trkpt>
      <trkpt lat="49.87804" lon="2.30883">
        <ele>61.9</ele>
        <time>2023-12-19T08:32:45Z</time>
      </trkpt>
      <trkpt lat="49.87804" lon="2.30883">
        <ele>61.9</ele>
        <time>2023-12-19T08:32:46Z</time>
      </trkpt>
      <trkpt lat="49.87804" lon="2.30883">
        <ele>61.9</ele>
        <time>2023-12-19T08:32:47Z</time>
      </trkpt>
      <trkpt lat="49.87804" lon="2.30883">
        <ele>61.9</ele>
        <time>2023-12-19T08:32:48Z</time>
      </trkpt>
      <trkpt lat="49.87804" lon="2.30883">
        <ele>61.9</ele>
        <time>2023-12-19T08:32:49Z</time>
      </trkpt>
      <trkpt lat="49.87804" lon="2.30883">
        <ele>61.9</ele>
        <time>2023-12-19T08:32:50Z</time>
      </trkpt>
      <trkpt lat="49.87804" lon="2.30883">
        <ele>61.9</ele>
        <time>2023-12-19T08:32:51Z</time>
      </trkpt>
      <trkpt lat="49.87804" lon="2.30883">
        <ele>61.9</ele>
        <time>2023-12-19T08:32:52Z</time>
      </trkpt>
      <trkpt lat="49.87803" lon="2.30883">
        <ele>61.9</ele>
        <time>2023-12-19T08:32:53Z</time>
      </trkpt>
      <trkpt lat="49.87803" lon="2.30883">
        <ele>61.9</ele>
        <time>2023-12-19T08:32:54Z</time>
      </trkpt>
      <trkpt lat="49.87803" lon="2.30883">
        <ele>61.9</ele>
        <time>2023-12-19T08:32:55Z</time>
      </trkpt>
      <trkpt lat="49.87803" lon="2.30883">
        <ele>61.9</ele>
        <time>2023-12-19T08:32:56Z</time>
      </trkpt>
      <trkpt lat="49.87803" lon="2.30883">
        <ele>61.9</ele>
        <time>2023-12-19T08:32:57Z</time>
      </trkpt>
      <trkpt lat="49.87803" lon="2.30883">
        <ele>61.9</ele>
        <time>2023-12-19T08:32:58Z</time>
      </trkpt>
      <trkpt lat="49.87803" lon="2.30883">
        <ele>61.9</ele>
        <time>2023-12-19T08:32:59Z</time>
      </trkpt>
      <trkpt lat="49.87803" lon="2.30883">
        <ele>61.9</ele>
        <time>2023-12-19T08:33:00Z</time>
      </trkpt>
      <trkpt lat="49.87803" lon="2.30883">
        <ele>61.9</ele>
        <time>2023-12-19T08:33:01Z</time>
      </trkpt>
      <trkpt lat="49.87803" lon="2.30883">
        <ele>61.9</ele>
        <time>2023-12-19T08:33:02Z</time>
      </trkpt>
      <trkpt lat="49.87803" lon="2.30883">
        <ele>61.9</ele>
        <time>2023-12-19T08:33:03Z</time>
      </trkpt>
      <trkpt lat="49.87803" lon="2.30882">
        <ele>61.9</ele>
        <time>2023-12-19T08:33:04Z</time>
      </trkpt>
      <trkpt lat="49.87803" lon="2.30882">
        <ele>61.9</ele>
        <time>2023-12-19T08:33:05Z</time>
      </trkpt>
      <trkpt lat="49.87803" lon="2.30882">
        <ele>61.9</ele>
        <time>2023-12-19T08:33:06Z</time>
      </trkpt>
      <trkpt lat="49.87803" lon="2.30882">
        <ele>61.9</ele>
        <time>2023-12-19T08:33:07Z</time>
      </trkpt>
      <trkpt lat="49.87803" lon="2.30882">
        <ele>61.9</ele>
        <time>2023-12-19T08:33:08Z</time>
      </trkpt>
      <trkpt lat="49.87803" lon="2.30882">
        <ele>61.9</ele>
        <time>2023-12-19T08:33:09Z</time>
      </trkpt>
      <trkpt lat="49.87803" lon="2.30882">
        <ele>61.9</ele>
        <time>2023-12-19T08:33:10Z</time>
      </trkpt>
      <trkpt lat="49.87803" lon="2.30882">
        <ele>61.9</ele>
        <time>2023-12-19T08:33:11Z</time>
      </trkpt>
      <trkpt lat="49.87803" lon="2.30882">
        <ele>61.9</ele>
        <time>2023-12-19T08:33:12Z</time>
      </trkpt>
      <trkpt lat="49.87803" lon="2.30882">
        <ele>61.9</ele>
        <time>2023-12-19T08:33:13Z</time>
      </trkpt>
      <trkpt lat="49.87803" lon="2.30882">
        <ele>61.9</ele>
        <time>2023-12-19T08:33:14Z</time>
      </trkpt>
      <trkpt lat="49.87803" lon="2.30882">
        <ele>61.9</ele>
        <time>2023-12-19T08:33:15Z</time>
      </trkpt>
      <trkpt lat="49.87803" lon="2.30882">
        <ele>61.9</ele>
        <time>2023-12-19T08:33:16Z</time>
      </trkpt>
      <trkpt lat="49.87803" lon="2.30882">
        <ele>61.9</ele>
        <time>2023-12-19T08:33:17Z</time>
      </trkpt>
      <trkpt lat="49.87803" lon="2.30882">
        <ele>61.9</ele>
        <time>2023-12-19T08:33:18Z</time>
      </trkpt>
      <trkpt lat="49.87803" lon="2.30882">
        <ele>61.9</ele>
        <time>2023-12-19T08:33:19Z</time>
      </trkpt>
      <trkpt lat="49.87803" lon="2.30882">
        <ele>61.9</ele>
        <time>2023-12-19T08:33:20Z</time>
      </trkpt>
      <trkpt lat="49.87802" lon="2.30882">
        <ele>61.9</ele>
        <time>2023-12-19T08:33:21Z</time>
      </trkpt>
      <trkpt lat="49.87802" lon="2.30882">
        <ele>61.9</ele>
        <time>2023-12-19T08:33:22Z</time>
      </trkpt>
      <trkpt lat="49.87802" lon="2.30882">
        <ele>61.9</ele>
        <time>2023-12-19T08:33:23Z</time>
      </trkpt>
      <trkpt lat="49.87802" lon="2.30882">
        <ele>61.9</ele>
        <time>2023-12-19T08:33:24Z</time>
      </trkpt>
      <trkpt lat="49.87802" lon="2.30882">
        <ele>61.9</ele>
        <time>2023-12-19T08:33:25Z</time>
      </trkpt>
      <trkpt lat="49.87802" lon="2.30882">
        <ele>61.9</ele>
        <time>2023-12-19T08:33:26Z</time>
      </trkpt>
      <trkpt lat="49.87802" lon="2.30881">
        <ele>61.9</ele>
        <time>2023-12-19T08:33:27Z</time>
      </trkpt>
      <trkpt lat="49.87802" lon="2.30881">
        <ele>61.9</ele>
        <time>2023-12-19T08:33:28Z</time>
      </trkpt>
      <trkpt lat="49.87802" lon="2.30881">
        <ele>61.9</ele>
        <time>2023-12-19T08:33:29Z</time>
      </trkpt>
      <trkpt lat="49.87802" lon="2.30881">
        <ele>61.9</ele>
        <time>2023-12-19T08:33:30Z</time>
      </trkpt>
      <trkpt lat="49.87802" lon="2.30881">
        <ele>61.9</ele>
        <time>2023-12-19T08:33:31Z</time>
      </trkpt>
      <trkpt lat="49.87801" lon="2.30881">
        <ele>61.9</ele>
        <time>2023-12-19T08:33:32Z</time>
      </trkpt>
      <trkpt lat="49.87802" lon="2.30881">
        <ele>61.9</ele>
        <time>2023-12-19T08:33:33Z</time>
      </trkpt>
      <trkpt lat="49.87802" lon="2.30882">
        <ele>61.9</ele>
        <time>2023-12-19T08:33:34Z</time>
      </trkpt>
      <trkpt lat="49.87802" lon="2.30882">
        <ele>61.9</ele>
        <time>2023-12-19T08:33:35Z</time>
      </trkpt>
      <trkpt lat="49.87802" lon="2.30883">
        <ele>61.9</ele>
        <time>2023-12-19T08:33:36Z</time>
      </trkpt>
      <trkpt lat="49.87802" lon="2.30884">
        <ele>61.9</ele>
        <time>2023-12-19T08:33:37Z</time>
      </trkpt>
      <trkpt lat="49.87802" lon="2.30884">
        <ele>61.9</ele>
        <time>2023-12-19T08:33:38Z</time>
      </trkpt>
      <trkpt lat="49.87803" lon="2.30885">
        <ele>61.9</ele>
        <time>2023-12-19T08:33:39Z</time>
      </trkpt>
      <trkpt lat="49.87803" lon="2.30885">
        <ele>61.9</ele>
        <time>2023-12-19T08:33:40Z</time>
      </trkpt>
      <trkpt lat="49.87803" lon="2.30886">
        <ele>61.9</ele>
        <time>2023-12-19T08:33:41Z</time>
      </trkpt>
      <trkpt lat="49.87803" lon="2.30886">
        <ele>61.9</ele>
        <time>2023-12-19T08:33:42Z</time>
      </trkpt>
      <trkpt lat="49.87803" lon="2.30887">
        <ele>61.9</ele>
        <time>2023-12-19T08:33:43Z</time>
      </trkpt>
      <trkpt lat="49.87803" lon="2.30888">
        <ele>61.9</ele>
        <time>2023-12-19T08:33:44Z</time>
      </trkpt>
      <trkpt lat="49.87804" lon="2.30888">
        <ele>61.9</ele>
        <time>2023-12-19T08:33:45Z</time>
      </trkpt>
      <trkpt lat="49.87804" lon="2.30889">
        <ele>61.9</ele>
        <time>2023-12-19T08:33:46Z</time>
      </trkpt>
      <trkpt lat="49.87804" lon="2.30889">
        <ele>61.9</ele>
        <time>2023-12-19T08:33:47Z</time>
      </trkpt>
      <trkpt lat="49.87804" lon="2.3089">
        <ele>61.9</ele>
        <time>2023-12-19T08:33:48Z</time>
      </trkpt>
      <trkpt lat="49.87804" lon="2.30891">
        <ele>61.9</ele>
        <time>2023-12-19T08:33:49Z</time>
      </trkpt>
      <trkpt lat="49.87804" lon="2.30891">
        <ele>61.8</ele>
        <time>2023-12-19T08:33:50Z</time>
      </trkpt>
      <trkpt lat="49.87804" lon="2.30892">
        <ele>61.8</ele>
        <time>2023-12-19T08:33:51Z</time>
      </trkpt>
      <trkpt lat="49.87805" lon="2.30892">
        <ele>61.8</ele>
        <time>2023-12-19T08:33:52Z</time>
      </trkpt>
      <trkpt lat="49.87805" lon="2.30893">
        <ele>61.8</ele>
        <time>2023-12-19T08:33:53Z</time>
      </trkpt>
      <trkpt lat="49.87805" lon="2.30894">
        <ele>61.8</ele>
        <time>2023-12-19T08:33:54Z</time>
      </trkpt>
      <trkpt lat="49.87805" lon="2.30894">
        <ele>61.8</ele>
        <time>2023-12-19T08:33:55Z</time>
      </trkpt>
      <trkpt lat="49.87805" lon="2.30895">
        <ele>61.8</ele>
        <time>2023-12-19T08:33:56Z</time>
      </trkpt>
      <trkpt lat="49.87805" lon="2.30895">
        <ele>61.8</ele>
        <time>2023-12-19T08:33:57Z</time>
      </trkpt>
      <trkpt lat="49.87806" lon="2.30896">
        <ele>61.8</ele>
        <time>2023-12-19T08:33:58Z</time>
      </trkpt>
      <trkpt lat="49.87806" lon="2.30897">
        <ele>61.8</ele>
        <time>2023-12-19T08:33:59Z</time>
      </trkpt>
      <trkpt lat="49.87806" lon="2.30897">
        <ele>61.8</ele>
        <time>2023-12-19T08:34:00Z</time>
      </trkpt>
      <trkpt lat="49.87806" lon="2.30898">
        <ele>61.8</ele>
        <time>2023-12-19T08:34:01Z</time>
      </trkpt>
      <trkpt lat="49.87806" lon="2.30898">
        <ele>61.8</ele>
        <time>2023-12-19T08:34:02Z</time>
      </trkpt>
      <trkpt lat="49.87806" lon="2.30899">
        <ele>61.8</ele>
        <time>2023-12-19T08:34:03Z</time>
      </trkpt>
      <trkpt lat="49.87806" lon="2.309">
        <ele>61.8</ele>
        <time>2023-12-19T08:34:04Z</time>
      </trkpt>
      <trkpt lat="49.87807" lon="2.309">
        <ele>61.8</ele>
        <time>2023-12-19T08:34:05Z</time>
      </trkpt>
      <trkpt lat="49.87807" lon="2.30901">
        <ele>61.8</ele>
        <time>2023-12-19T08:34:06Z</time>
      </trkpt>
      <trkpt lat="49.87807" lon="2.30901">
        <ele>61.8</ele>
        <time>2023-12-19T08:34:07Z</time>
      </trkpt>
      <trkpt lat="49.87807" lon="2.30902">
        <ele>61.8</ele>
        <time>2023-12-19T08:34:08Z</time>
      </trkpt>
      <trkpt lat="49.87807" lon="2.30902">
        <ele>61.8</ele>
        <time>2023-12-19T08:34:09Z</time>
      </trkpt>
      <trkpt lat="49.87807" lon="2.30903">
        <ele>61.8</ele>
        <time>2023-12-19T08:34:10Z</time>
      </trkpt>
      <trkpt lat="49.87808" lon="2.30904">
        <ele>61.8</ele>
        <time>2023-12-19T08:34:11Z</time>
      </trkpt>
      <trkpt lat="49.87808" lon="2.30904">
        <ele>61.8</ele>
        <time>2023-12-19T08:34:12Z</time>
      </trkpt>
      <trkpt lat="49.87808" lon="2.30905">
        <ele>61.8</ele>
        <time>2023-12-19T08:34:13Z</time>
      </trkpt>
      <trkpt lat="49.87808" lon="2.30905">
        <ele>61.8</ele>
        <time>2023-12-19T08:34:14Z</time>
      </trkpt>
      <trkpt lat="49.87808" lon="2.30905">
        <ele>61.8</ele>
        <time>2023-12-19T08:34:15Z</time>
      </trkpt>
      <trkpt lat="49.87808" lon="2.30905">
        <ele>61.8</ele>
        <time>2023-12-19T08:34:16Z</time>
      </trkpt>
      <trkpt lat="49.87808" lon="2.30905">
        <ele>61.8</ele>
        <time>2023-12-19T08:34:17Z</time>
      </trkpt>
      <trkpt lat="49.87808" lon="2.30905">
        <ele>61.8</ele>
        <time>2023-12-19T08:34:18Z</time>
      </trkpt>
      <trkpt lat="49.87808" lon="2.30905">
        <ele>61.8</ele>
        <time>2023-12-19T08:34:19Z</time>
      </trkpt>
      <trkpt lat="49.87808" lon="2.30905">
        <ele>61.8</ele>
        <time>2023-12-19T08:34:20Z</time>
      </trkpt>
      <trkpt lat="49.87808" lon="2.30905">
        <ele>61.8</ele>
        <time>2023-12-19T08:34:21Z</time>
      </trkpt>
      <trkpt lat="49.87808" lon="2.30905">
        <ele>61.8</ele>
        <time>2023-12-19T08:34:22Z</time>
      </trkpt>
      <trkpt lat="49.87808" lon="2.30905">
        <ele>61.8</ele>
        <time>2023-12-19T08:34:23Z</time>
      </trkpt>
      <trkpt lat="49.87808" lon="2.30905">
        <ele>61.8</ele>
        <time>2023-12-19T08:34:24Z</time>
      </trkpt>
      <trkpt lat="49.87808" lon="2.30905">
        <ele>61.8</ele>
        <time>2023-12-19T08:34:25Z</time>
      </trkpt>
      <trkpt lat="49.87808" lon="2.30905">
        <ele>61.8</ele>
        <time>2023-12-19T08:34:26Z</time>
      </trkpt>
      <trkpt lat="49.87808" lon="2.30905">
        <ele>61.8</ele>
        <time>2023-12-19T08:34:27Z</time>
      </trkpt>
      <trkpt lat="49.87808" lon="2.30905">
        <ele>61.8</ele>
        <time>2023-12-19T08:34:28Z</time>
      </trkpt>
      <trkpt lat="49.87808" lon="2.30905">
        <ele>61.8</ele>
        <time>2023-12-19T08:34:29Z</time>
      </trkpt>
      <trkpt lat="49.87808" lon="2.30905">
        <ele>61.8</ele>
        <time>2023-12-19T08:34:30Z</time>
      </trkpt>
      <trkpt lat="49.87808" lon="2.30905">
        <ele>61.8</ele>
        <time>2023-12-19T08:34:31Z</time>
      </trkpt>
      <trkpt lat="49.87808" lon="2.30905">
        <ele>61.8</ele>
        <time>2023-12-19T08:34:32Z</time>
      </trkpt>
      <trkpt lat="49.87808" lon="2.30905">
        <ele>61.8</ele>
        <time>2023-12-19T08:34:33Z</time>
      </trkpt>
      <trkpt lat="49.87808" lon="2.30905">
        <ele>61.8</ele>
        <time>2023-12-19T08:34:34Z</time>
      </trkpt>
      <trkpt lat="49.87808" lon="2.30905">
        <ele>61.8</ele>
        <time>2023-12-19T08:34:35Z</time>
      </trkpt>
      <trkpt lat="49.87808" lon="2.30905">
        <ele>61.8</ele>
        <time>2023-12-19T08:34:36Z</time>
      </trkpt>
      <trkpt lat="49.87808" lon="2.30905">
        <ele>61.8</ele>
        <time>2023-12-19T08:34:37Z</time>
      </trkpt>
      <trkpt lat="49.87808" lon="2.30905">
        <ele>61.8</ele>
        <time>2023-12-19T08:34:38Z</time>
      </trkpt>
      <trkpt lat="49.87808" lon="2.30905">
        <ele>61.8</ele>
        <time>2023-12-19T08:34:39Z</time>
      </trkpt>
      <trkpt lat="49.87808" lon="2.30905">
        <ele>61.8</ele>
        <time>2023-12-19T08:34:40Z</time>
      </trkpt>
      <trkpt lat="49.87808" lon="2.30905">
        <ele>61.8</ele>
        <time>2023-12-19T08:34:41Z</time>
      </trkpt>
      <trkpt lat="49.87808" lon="2.30905">
        <ele>61.8</ele>
        <time>2023-12-19T08:34:42Z</time>
      </trkpt>
      <trkpt lat="49.87808" lon="2.30905">
        <ele>61.8</ele>
        <time>2023-12-19T08:34:43Z</time>
      </trkpt>
      <trkpt lat="49.87808" lon="2.30905">
        <ele>61.8</ele>
        <time>2023-12-19T08:34:44Z</time>
      </trkpt>
      <trkpt lat="49.87808" lon="2.30905">
        <ele>61.8</ele>
        <time>2023-12-19T08:34:45Z</time>
      </trkpt>
      <trkpt lat="49.87808" lon="2.30905">
        <ele>61.8</ele>
        <time>2023-12-19T08:34:46Z</time>
      </trkpt>
      <trkpt lat="49.87808" lon="2.30905">
        <ele>61.8</ele>
        <time>2023-12-19T08:34:47Z</time>
      </trkpt>
      <trkpt lat="49.87808" lon="2.30905">
        <ele>61.8</ele>
        <time>2023-12-19T08:34:48Z</time>
      </trkpt>
      <trkpt lat="49.87808" lon="2.30905">
        <ele>61.8</ele>
        <time>2023-12-19T08:34:49Z</time>
      </trkpt>
      <trkpt lat="49.87808" lon="2.30905">
        <ele>61.8</ele>
        <time>2023-12-19T08:34:50Z</time>
      </trkpt>
      <trkpt lat="49.87808" lon="2.30905">
        <ele>61.8</ele>
        <time>2023-12-19T08:34:51Z</time>
      </trkpt>
      <trkpt lat="49.87808" lon="2.30905">
        <ele>61.8</ele>
        <time>2023-12-19T08:34:52Z</time>
      </trkpt>
      <trkpt lat="49.87808" lon="2.30905">
        <ele>61.8</ele>
        <time>2023-12-19T08:34:53Z</time>
      </trkpt>
      <trkpt lat="49.87808" lon="2.30905">
        <ele>61.8</ele>
        <time>2023-12-19T08:34:54Z</time>
      </trkpt>
      <trkpt lat="49.87808" lon="2.30905">
        <ele>61.8</ele>
        <time>2023-12-19T08:34:55Z</time>
      </trkpt>
      <trkpt lat="49.87808" lon="2.30905">
        <ele>61.8</ele>
        <time>2023-12-19T08:34:56Z</time>
      </trkpt>
      <trkpt lat="49.87808" lon="2.30905">
        <ele>61.8</ele>
        <time>2023-12-19T08:34:57Z</time>
      </trkpt>
      <trkpt lat="49.87808" lon="2.30905">
        <ele>61.8</ele>
        <time>2023-12-19T08:34:58Z</time>
      </trkpt>
      <trkpt lat="49.87808" lon="2.30905">
        <ele>61.8</ele>
        <time>2023-12-19T08:34:59Z</time>
      </trkpt>
      <trkpt lat="49.87808" lon="2.30905">
        <ele>61.8</ele>
        <time>2023-12-19T08:35:00Z</time>
      </trkpt>
      <trkpt lat="49.87808" lon="2.30905">
        <ele>61.8</ele>
        <time>2023-12-19T08:35:01Z</time>
      </trkpt>
      <trkpt lat="49.87808" lon="2.30905">
        <ele>61.8</ele>
        <time>2023-12-19T08:35:02Z</time>
      </trkpt>
      <trkpt lat="49.87808" lon="2.30905">
        <ele>61.8</ele>
        <time>2023-12-19T08:35:03Z</time>
      </trkpt>
      <trkpt lat="49.87808" lon="2.30905">
        <ele>61.8</ele>
        <time>2023-12-19T08:35:04Z</time>
      </trkpt>
      <trkpt lat="49.87808" lon="2.30905">
        <ele>61.8</ele>
        <time>2023-12-19T08:35:05Z</time>
      </trkpt>
      <trkpt lat="49.87808" lon="2.30905">
        <ele>61.8</ele>
        <time>2023-12-19T08:35:06Z</time>
      </trkpt>
      <trkpt lat="49.87808" lon="2.30905">
        <ele>61.8</ele>
        <time>2023-12-19T08:35:07Z</time>
      </trkpt>
      <trkpt lat="49.87808" lon="2.30905">
        <ele>61.8</ele>
        <time>2023-12-19T08:35:08Z</time>
      </trkpt>
      <trkpt lat="49.87808" lon="2.30905">
        <ele>61.8</ele>
        <time>2023-12-19T08:35:09Z</time>
      </trkpt>
      <trkpt lat="49.87808" lon="2.30905">
        <ele>61.8</ele>
        <time>2023-12-19T08:35:10Z</time>
      </trkpt>
      <trkpt lat="49.87808" lon="2.30905">
        <ele>61.8</ele>
        <time>2023-12-19T08:35:11Z</time>
      </trkpt>
      <trkpt lat="49.87808" lon="2.30905">
        <ele>61.8</ele>
        <time>2023-12-19T08:35:12Z</time>
      </trkpt>
      <trkpt lat="49.87808" lon="2.30905">
        <ele>61.8</ele>
        <time>2023-12-19T08:35:13Z</time>
      </trkpt>
      <trkpt lat="49.87808" lon="2.30905">
        <ele>61.8</ele>
        <time>2023-12-19T08:35:14Z</time>
      </trkpt>
      <trkpt lat="49.87808" lon="2.30905">
        <ele>61.8</ele>
        <time>2023-12-19T08:35:15Z</time>
      </trkpt>
      <trkpt lat="49.87808" lon="2.30905">
        <ele>61.8</ele>
        <time>2023-12-19T08:35:19Z</time>
      </trkpt>
      <trkpt lat="49.87808" lon="2.30905">
        <ele>61.8</ele>
        <time>2023-12-19T08:35:20Z</time>
      </trkpt>
      <trkpt lat="49.87808" lon="2.30905">
        <ele>61.8</ele>
        <time>2023-12-19T08:35:21Z</time>
      </trkpt>
      <trkpt lat="49.87808" lon="2.30905">
        <ele>61.8</ele>
        <time>2023-12-19T08:35:25Z</time>
      </trkpt>
      <trkpt lat="49.87808" lon="2.30905">
        <ele>61.8</ele>
        <time>2023-12-19T08:35:26Z</time>
      </trkpt>
      <trkpt lat="49.87808" lon="2.30905">
        <ele>61.8</ele>
        <time>2023-12-19T08:35:27Z</time>
      </trkpt>
      <trkpt lat="49.87808" lon="2.30905">
        <ele>61.8</ele>
        <time>2023-12-19T08:35:28Z</time>
      </trkpt>
      <trkpt lat="49.87808" lon="2.30905">
        <ele>61.8</ele>
        <time>2023-12-19T08:35:29Z</time>
      </trkpt>
      <trkpt lat="49.87808" lon="2.30905">
        <ele>61.8</ele>
        <time>2023-12-19T08:35:30Z</time>
      </trkpt>
      <trkpt lat="49.87808" lon="2.30905">
        <ele>61.8</ele>
        <time>2023-12-19T08:35:31Z</time>
      </trkpt>
      <trkpt lat="49.87808" lon="2.30905">
        <ele>61.8</ele>
        <time>2023-12-19T08:35:33Z</time>
      </trkpt>
      <trkpt lat="49.87808" lon="2.30905">
        <ele>61.8</ele>
        <time>2023-12-19T08:35:34Z</time>
      </trkpt>
      <trkpt lat="49.87808" lon="2.30905">
        <ele>61.8</ele>
        <time>2023-12-19T08:35:35Z</time>
      </trkpt>
      <trkpt lat="49.87808" lon="2.30905">
        <ele>61.8</ele>
        <time>2023-12-19T08:35:36Z</time>
      </trkpt>
      <trkpt lat="49.87808" lon="2.30905">
        <ele>61.8</ele>
        <time>2023-12-19T08:35:37Z</time>
      </trkpt>
      <trkpt lat="49.87808" lon="2.30905">
        <ele>61.8</ele>
        <time>2023-12-19T08:35:38Z</time>
      </trkpt>
      <trkpt lat="49.87808" lon="2.30905">
        <ele>61.8</ele>
        <time>2023-12-19T08:35:39Z</time>
      </trkpt>
      <trkpt lat="49.87808" lon="2.30905">
        <ele>61.8</ele>
        <time>2023-12-19T08:35:40Z</time>
      </trkpt>
      <trkpt lat="49.87808" lon="2.30905">
        <ele>61.8</ele>
        <time>2023-12-19T08:35:41Z</time>
      </trkpt>
      <trkpt lat="49.87811" lon="2.30916">
        <ele>61.7</ele>
        <time>2023-12-19T08:36:12Z</time>
      </trkpt>
      <trkpt lat="49.87811" lon="2.30918">
        <ele>61.7</ele>
        <time>2023-12-19T08:36:17Z</time>
      </trkpt>
      <trkpt lat="49.87811" lon="2.3092">
        <ele>61.7</ele>
        <time>2023-12-19T08:36:22Z</time>
      </trkpt>
      <trkpt lat="49.87812" lon="2.30919">
        <ele>61.7</ele>
        <time>2023-12-19T08:36:27Z</time>
      </trkpt>
      <trkpt lat="49.8781" lon="2.30919">
        <ele>61.6</ele>
        <time>2023-12-19T08:36:32Z</time>
      </trkpt>
      <trkpt lat="49.87812" lon="2.3092">
        <ele>61.6</ele>
        <time>2023-12-19T08:36:37Z</time>
      </trkpt>
      <trkpt lat="49.87811" lon="2.3092">
        <ele>61.6</ele>
        <time>2023-12-19T08:36:42Z</time>
      </trkpt>
      <trkpt lat="49.8782" lon="2.30924">
        <ele>61.5</ele>
        <time>2023-12-19T08:36:43Z</time>
      </trkpt>
    </trkseg>
  </trk>
</gpx>